<?xml version="1.0" encoding="UTF-8" standalone="no" ?>
<gpx xmlns="http://www.topografix.com/GPX/1/1" xmlns:xsi="http://www.w3.org/2001/XMLSchema-instance" xsi:schemaLocation="http://www.topografix.com/GPX/1/1 http://www.topografix.com/GPX/1/1/gpx.xsd" version="1.1" creator="VisuGPX - https://www.visugpx.com">
  <metadata>
    <name>Vosges - Pyrénées 14. De l'abri du Neurod à l'abri de Judenhut </name>
    <desc><![CDATA[Trace AlpineQuest 22/03/2026 08:26:53]]></desc>
  </metadata>
  <trk>
    <name><![CDATA[visugpx_dx1Me0AanG_1]]></name>
    <extensions>
      <line xmlns="http://www.topografix.com/GPX/gpx_style/0/2">
        <color>0000FF</color>
        <opacity>1</opacity>
        <width>4</width>
      </line>
    </extensions>
    <trkseg>
      <trkpt lat="47.98359" lon="6.98259">
        <ele>1211.7</ele>
        <time>2026-03-22T07:26:59Z</time>
      </trkpt>
      <trkpt lat="47.98361" lon="6.98258">
        <ele>1211.9</ele>
        <time>2026-03-22T07:27:04Z</time>
      </trkpt>
      <trkpt lat="47.98361" lon="6.98276">
        <ele>1212.6</ele>
        <time>2026-03-22T07:27:09Z</time>
      </trkpt>
      <trkpt lat="47.98358" lon="6.98282">
        <ele>1212.5</ele>
        <time>2026-03-22T07:27:14Z</time>
      </trkpt>
      <trkpt lat="47.98353" lon="6.98286">
        <ele>1212.3</ele>
        <time>2026-03-22T07:27:19Z</time>
      </trkpt>
      <trkpt lat="47.98348" lon="6.98292">
        <ele>1212.2</ele>
        <time>2026-03-22T07:27:24Z</time>
      </trkpt>
      <trkpt lat="47.98341" lon="6.98295">
        <ele>1211.8</ele>
        <time>2026-03-22T07:27:29Z</time>
      </trkpt>
      <trkpt lat="47.98336" lon="6.98302">
        <ele>1211.9</ele>
        <time>2026-03-22T07:27:34Z</time>
      </trkpt>
      <trkpt lat="47.98332" lon="6.9831">
        <ele>1212.2</ele>
        <time>2026-03-22T07:27:39Z</time>
      </trkpt>
      <trkpt lat="47.98329" lon="6.98316">
        <ele>1212.2</ele>
        <time>2026-03-22T07:27:44Z</time>
      </trkpt>
      <trkpt lat="47.98323" lon="6.98323">
        <ele>1212</ele>
        <time>2026-03-22T07:27:49Z</time>
      </trkpt>
      <trkpt lat="47.98319" lon="6.98329">
        <ele>1212</ele>
        <time>2026-03-22T07:27:54Z</time>
      </trkpt>
      <trkpt lat="47.98314" lon="6.98332">
        <ele>1211.6</ele>
        <time>2026-03-22T07:27:59Z</time>
      </trkpt>
      <trkpt lat="47.98309" lon="6.98333">
        <ele>1211.1</ele>
        <time>2026-03-22T07:28:04Z</time>
      </trkpt>
      <trkpt lat="47.98306" lon="6.98337">
        <ele>1210.4</ele>
        <time>2026-03-22T07:28:09Z</time>
      </trkpt>
      <trkpt lat="47.98303" lon="6.98337">
        <ele>1210.1</ele>
        <time>2026-03-22T07:28:14Z</time>
      </trkpt>
      <trkpt lat="47.98299" lon="6.98337">
        <ele>1209.6</ele>
        <time>2026-03-22T07:28:19Z</time>
      </trkpt>
      <trkpt lat="47.98296" lon="6.98335">
        <ele>1209.4</ele>
        <time>2026-03-22T07:28:24Z</time>
      </trkpt>
      <trkpt lat="47.98294" lon="6.98336">
        <ele>1209.1</ele>
        <time>2026-03-22T07:28:29Z</time>
      </trkpt>
      <trkpt lat="47.98293" lon="6.98338">
        <ele>1208.9</ele>
        <time>2026-03-22T07:28:34Z</time>
      </trkpt>
      <trkpt lat="47.98293" lon="6.98338">
        <ele>1208.9</ele>
        <time>2026-03-22T07:28:39Z</time>
      </trkpt>
      <trkpt lat="47.98293" lon="6.98338">
        <ele>1208.9</ele>
        <time>2026-03-22T07:28:44Z</time>
      </trkpt>
      <trkpt lat="47.98293" lon="6.98338">
        <ele>1208.9</ele>
        <time>2026-03-22T07:28:49Z</time>
      </trkpt>
      <trkpt lat="47.98293" lon="6.98338">
        <ele>1208.9</ele>
        <time>2026-03-22T07:28:54Z</time>
      </trkpt>
      <trkpt lat="47.98293" lon="6.98338">
        <ele>1208.9</ele>
        <time>2026-03-22T07:28:59Z</time>
      </trkpt>
      <trkpt lat="47.98293" lon="6.98338">
        <ele>1208.9</ele>
        <time>2026-03-22T07:29:04Z</time>
      </trkpt>
      <trkpt lat="47.98293" lon="6.98338">
        <ele>1208.9</ele>
        <time>2026-03-22T07:29:09Z</time>
      </trkpt>
      <trkpt lat="47.98293" lon="6.98338">
        <ele>1208.9</ele>
        <time>2026-03-22T07:29:14Z</time>
      </trkpt>
      <trkpt lat="47.98293" lon="6.98338">
        <ele>1208.9</ele>
        <time>2026-03-22T07:29:19Z</time>
      </trkpt>
      <trkpt lat="47.98293" lon="6.98338">
        <ele>1208.9</ele>
        <time>2026-03-22T07:29:24Z</time>
      </trkpt>
      <trkpt lat="47.98283" lon="6.98336">
        <ele>1207.8</ele>
        <time>2026-03-22T07:29:29Z</time>
      </trkpt>
      <trkpt lat="47.9828" lon="6.98336">
        <ele>1207.5</ele>
        <time>2026-03-22T07:29:34Z</time>
      </trkpt>
      <trkpt lat="47.98277" lon="6.98335">
        <ele>1207.2</ele>
        <time>2026-03-22T07:29:39Z</time>
      </trkpt>
      <trkpt lat="47.98271" lon="6.98337">
        <ele>1206.4</ele>
        <time>2026-03-22T07:29:44Z</time>
      </trkpt>
      <trkpt lat="47.98264" lon="6.98341">
        <ele>1205.5</ele>
        <time>2026-03-22T07:29:49Z</time>
      </trkpt>
      <trkpt lat="47.98257" lon="6.98346">
        <ele>1204.6</ele>
        <time>2026-03-22T07:29:54Z</time>
      </trkpt>
      <trkpt lat="47.9825" lon="6.98353">
        <ele>1203.8</ele>
        <time>2026-03-22T07:29:59Z</time>
      </trkpt>
      <trkpt lat="47.98244" lon="6.98357">
        <ele>1203</ele>
        <time>2026-03-22T07:30:04Z</time>
      </trkpt>
      <trkpt lat="47.98238" lon="6.9836">
        <ele>1202.2</ele>
        <time>2026-03-22T07:30:09Z</time>
      </trkpt>
      <trkpt lat="47.98232" lon="6.98362">
        <ele>1201.5</ele>
        <time>2026-03-22T07:30:14Z</time>
      </trkpt>
      <trkpt lat="47.98225" lon="6.98365">
        <ele>1200.6</ele>
        <time>2026-03-22T07:30:19Z</time>
      </trkpt>
      <trkpt lat="47.98218" lon="6.98367">
        <ele>1199.8</ele>
        <time>2026-03-22T07:30:24Z</time>
      </trkpt>
      <trkpt lat="47.98211" lon="6.98369">
        <ele>1198.9</ele>
        <time>2026-03-22T07:30:29Z</time>
      </trkpt>
      <trkpt lat="47.98204" lon="6.98371">
        <ele>1198</ele>
        <time>2026-03-22T07:30:34Z</time>
      </trkpt>
      <trkpt lat="47.98197" lon="6.98373">
        <ele>1197.2</ele>
        <time>2026-03-22T07:30:39Z</time>
      </trkpt>
      <trkpt lat="47.9819" lon="6.98376">
        <ele>1196.3</ele>
        <time>2026-03-22T07:30:44Z</time>
      </trkpt>
      <trkpt lat="47.98183" lon="6.98379">
        <ele>1195.4</ele>
        <time>2026-03-22T07:30:49Z</time>
      </trkpt>
      <trkpt lat="47.98176" lon="6.98378">
        <ele>1194.6</ele>
        <time>2026-03-22T07:30:54Z</time>
      </trkpt>
      <trkpt lat="47.98169" lon="6.98379">
        <ele>1193.7</ele>
        <time>2026-03-22T07:30:59Z</time>
      </trkpt>
      <trkpt lat="47.98162" lon="6.98382">
        <ele>1193</ele>
        <time>2026-03-22T07:31:04Z</time>
      </trkpt>
      <trkpt lat="47.98155" lon="6.98384">
        <ele>1192.3</ele>
        <time>2026-03-22T07:31:09Z</time>
      </trkpt>
      <trkpt lat="47.98148" lon="6.98386">
        <ele>1191.6</ele>
        <time>2026-03-22T07:31:14Z</time>
      </trkpt>
      <trkpt lat="47.98142" lon="6.98388">
        <ele>1191.1</ele>
        <time>2026-03-22T07:31:19Z</time>
      </trkpt>
      <trkpt lat="47.98136" lon="6.98391">
        <ele>1190.5</ele>
        <time>2026-03-22T07:31:24Z</time>
      </trkpt>
      <trkpt lat="47.98131" lon="6.98391">
        <ele>1190</ele>
        <time>2026-03-22T07:31:29Z</time>
      </trkpt>
      <trkpt lat="47.98126" lon="6.98393">
        <ele>1189.6</ele>
        <time>2026-03-22T07:31:34Z</time>
      </trkpt>
      <trkpt lat="47.98121" lon="6.98395">
        <ele>1189.1</ele>
        <time>2026-03-22T07:31:39Z</time>
      </trkpt>
      <trkpt lat="47.98115" lon="6.98398">
        <ele>1188.6</ele>
        <time>2026-03-22T07:31:44Z</time>
      </trkpt>
      <trkpt lat="47.9811" lon="6.98401">
        <ele>1188.2</ele>
        <time>2026-03-22T07:31:49Z</time>
      </trkpt>
      <trkpt lat="47.98103" lon="6.98405">
        <ele>1187.6</ele>
        <time>2026-03-22T07:31:54Z</time>
      </trkpt>
      <trkpt lat="47.98099" lon="6.98411">
        <ele>1187.3</ele>
        <time>2026-03-22T07:31:59Z</time>
      </trkpt>
      <trkpt lat="47.98093" lon="6.98415">
        <ele>1186.8</ele>
        <time>2026-03-22T07:32:04Z</time>
      </trkpt>
      <trkpt lat="47.98087" lon="6.9842">
        <ele>1186.3</ele>
        <time>2026-03-22T07:32:09Z</time>
      </trkpt>
      <trkpt lat="47.9808" lon="6.98426">
        <ele>1185.8</ele>
        <time>2026-03-22T07:32:14Z</time>
      </trkpt>
      <trkpt lat="47.98074" lon="6.98431">
        <ele>1185.5</ele>
        <time>2026-03-22T07:32:19Z</time>
      </trkpt>
      <trkpt lat="47.98067" lon="6.98431">
        <ele>1185.1</ele>
        <time>2026-03-22T07:32:24Z</time>
      </trkpt>
      <trkpt lat="47.9806" lon="6.98434">
        <ele>1184.7</ele>
        <time>2026-03-22T07:32:29Z</time>
      </trkpt>
      <trkpt lat="47.98053" lon="6.9844">
        <ele>1184.5</ele>
        <time>2026-03-22T07:32:34Z</time>
      </trkpt>
      <trkpt lat="47.98046" lon="6.98444">
        <ele>1184.3</ele>
        <time>2026-03-22T07:32:39Z</time>
      </trkpt>
      <trkpt lat="47.98039" lon="6.98447">
        <ele>1184.2</ele>
        <time>2026-03-22T07:32:44Z</time>
      </trkpt>
      <trkpt lat="47.98033" lon="6.98452">
        <ele>1184.2</ele>
        <time>2026-03-22T07:32:49Z</time>
      </trkpt>
      <trkpt lat="47.98026" lon="6.98457">
        <ele>1184.2</ele>
        <time>2026-03-22T07:32:54Z</time>
      </trkpt>
      <trkpt lat="47.9802" lon="6.98463">
        <ele>1184.4</ele>
        <time>2026-03-22T07:32:59Z</time>
      </trkpt>
      <trkpt lat="47.98014" lon="6.98467">
        <ele>1184.5</ele>
        <time>2026-03-22T07:33:04Z</time>
      </trkpt>
      <trkpt lat="47.98005" lon="6.98473">
        <ele>1184.8</ele>
        <time>2026-03-22T07:33:09Z</time>
      </trkpt>
      <trkpt lat="47.97998" lon="6.98478">
        <ele>1185.4</ele>
        <time>2026-03-22T07:33:14Z</time>
      </trkpt>
      <trkpt lat="47.97992" lon="6.98481">
        <ele>1186.3</ele>
        <time>2026-03-22T07:33:19Z</time>
      </trkpt>
      <trkpt lat="47.97986" lon="6.98485">
        <ele>1187.3</ele>
        <time>2026-03-22T07:33:24Z</time>
      </trkpt>
      <trkpt lat="47.9798" lon="6.98489">
        <ele>1188.3</ele>
        <time>2026-03-22T07:33:29Z</time>
      </trkpt>
      <trkpt lat="47.97976" lon="6.98491">
        <ele>1189</ele>
        <time>2026-03-22T07:33:34Z</time>
      </trkpt>
      <trkpt lat="47.97975" lon="6.98492">
        <ele>1189.2</ele>
        <time>2026-03-22T07:33:39Z</time>
      </trkpt>
      <trkpt lat="47.97975" lon="6.98492">
        <ele>1189.2</ele>
        <time>2026-03-22T07:33:44Z</time>
      </trkpt>
      <trkpt lat="47.97975" lon="6.98492">
        <ele>1189.2</ele>
        <time>2026-03-22T07:33:49Z</time>
      </trkpt>
      <trkpt lat="47.97975" lon="6.98492">
        <ele>1189.2</ele>
        <time>2026-03-22T07:33:54Z</time>
      </trkpt>
      <trkpt lat="47.97975" lon="6.98492">
        <ele>1189.2</ele>
        <time>2026-03-22T07:33:59Z</time>
      </trkpt>
      <trkpt lat="47.97974" lon="6.98492">
        <ele>1189.3</ele>
        <time>2026-03-22T07:34:04Z</time>
      </trkpt>
      <trkpt lat="47.97968" lon="6.98498">
        <ele>1190.6</ele>
        <time>2026-03-22T07:34:09Z</time>
      </trkpt>
      <trkpt lat="47.97962" lon="6.98502">
        <ele>1191.6</ele>
        <time>2026-03-22T07:34:14Z</time>
      </trkpt>
      <trkpt lat="47.97956" lon="6.98505">
        <ele>1192.5</ele>
        <time>2026-03-22T07:34:19Z</time>
      </trkpt>
      <trkpt lat="47.9795" lon="6.98508">
        <ele>1193.3</ele>
        <time>2026-03-22T07:34:24Z</time>
      </trkpt>
      <trkpt lat="47.97944" lon="6.98514">
        <ele>1194.2</ele>
        <time>2026-03-22T07:34:29Z</time>
      </trkpt>
      <trkpt lat="47.97939" lon="6.98519">
        <ele>1195</ele>
        <time>2026-03-22T07:34:34Z</time>
      </trkpt>
      <trkpt lat="47.97933" lon="6.98523">
        <ele>1195.9</ele>
        <time>2026-03-22T07:34:39Z</time>
      </trkpt>
      <trkpt lat="47.97928" lon="6.98526">
        <ele>1196.6</ele>
        <time>2026-03-22T07:34:44Z</time>
      </trkpt>
      <trkpt lat="47.97922" lon="6.98527">
        <ele>1197.3</ele>
        <time>2026-03-22T07:34:49Z</time>
      </trkpt>
      <trkpt lat="47.97916" lon="6.98531">
        <ele>1198.1</ele>
        <time>2026-03-22T07:34:54Z</time>
      </trkpt>
      <trkpt lat="47.97911" lon="6.98534">
        <ele>1198.5</ele>
        <time>2026-03-22T07:34:59Z</time>
      </trkpt>
      <trkpt lat="47.97905" lon="6.98538">
        <ele>1198.9</ele>
        <time>2026-03-22T07:35:04Z</time>
      </trkpt>
      <trkpt lat="47.979" lon="6.98542">
        <ele>1199.3</ele>
        <time>2026-03-22T07:35:09Z</time>
      </trkpt>
      <trkpt lat="47.97895" lon="6.98545">
        <ele>1199.7</ele>
        <time>2026-03-22T07:35:14Z</time>
      </trkpt>
      <trkpt lat="47.97891" lon="6.98549">
        <ele>1200.2</ele>
        <time>2026-03-22T07:35:19Z</time>
      </trkpt>
      <trkpt lat="47.97886" lon="6.98554">
        <ele>1200.7</ele>
        <time>2026-03-22T07:35:24Z</time>
      </trkpt>
      <trkpt lat="47.97882" lon="6.98554">
        <ele>1201</ele>
        <time>2026-03-22T07:35:29Z</time>
      </trkpt>
      <trkpt lat="47.97879" lon="6.98554">
        <ele>1201.2</ele>
        <time>2026-03-22T07:35:34Z</time>
      </trkpt>
      <trkpt lat="47.97875" lon="6.98559">
        <ele>1201.7</ele>
        <time>2026-03-22T07:35:39Z</time>
      </trkpt>
      <trkpt lat="47.97871" lon="6.98563">
        <ele>1202.3</ele>
        <time>2026-03-22T07:35:44Z</time>
      </trkpt>
      <trkpt lat="47.97867" lon="6.98568">
        <ele>1203</ele>
        <time>2026-03-22T07:35:49Z</time>
      </trkpt>
      <trkpt lat="47.97863" lon="6.98571">
        <ele>1203.5</ele>
        <time>2026-03-22T07:35:54Z</time>
      </trkpt>
      <trkpt lat="47.97859" lon="6.98574">
        <ele>1204</ele>
        <time>2026-03-22T07:35:59Z</time>
      </trkpt>
      <trkpt lat="47.97855" lon="6.98578">
        <ele>1204.7</ele>
        <time>2026-03-22T07:36:04Z</time>
      </trkpt>
      <trkpt lat="47.97851" lon="6.9858">
        <ele>1205.2</ele>
        <time>2026-03-22T07:36:09Z</time>
      </trkpt>
      <trkpt lat="47.97845" lon="6.98582">
        <ele>1205.9</ele>
        <time>2026-03-22T07:36:14Z</time>
      </trkpt>
      <trkpt lat="47.97841" lon="6.98587">
        <ele>1206.5</ele>
        <time>2026-03-22T07:36:19Z</time>
      </trkpt>
      <trkpt lat="47.97837" lon="6.9859">
        <ele>1207</ele>
        <time>2026-03-22T07:36:24Z</time>
      </trkpt>
      <trkpt lat="47.97833" lon="6.98595">
        <ele>1207.6</ele>
        <time>2026-03-22T07:36:29Z</time>
      </trkpt>
      <trkpt lat="47.97828" lon="6.98599">
        <ele>1207.8</ele>
        <time>2026-03-22T07:36:34Z</time>
      </trkpt>
      <trkpt lat="47.97823" lon="6.98604">
        <ele>1208.2</ele>
        <time>2026-03-22T07:36:39Z</time>
      </trkpt>
      <trkpt lat="47.97819" lon="6.98608">
        <ele>1208.5</ele>
        <time>2026-03-22T07:36:44Z</time>
      </trkpt>
      <trkpt lat="47.97815" lon="6.98611">
        <ele>1208.8</ele>
        <time>2026-03-22T07:36:49Z</time>
      </trkpt>
      <trkpt lat="47.97811" lon="6.98614">
        <ele>1209.2</ele>
        <time>2026-03-22T07:36:54Z</time>
      </trkpt>
      <trkpt lat="47.97807" lon="6.98619">
        <ele>1209.7</ele>
        <time>2026-03-22T07:36:59Z</time>
      </trkpt>
      <trkpt lat="47.97803" lon="6.98623">
        <ele>1210.1</ele>
        <time>2026-03-22T07:37:04Z</time>
      </trkpt>
      <trkpt lat="47.97799" lon="6.98627">
        <ele>1210.6</ele>
        <time>2026-03-22T07:37:09Z</time>
      </trkpt>
      <trkpt lat="47.97795" lon="6.9863">
        <ele>1211</ele>
        <time>2026-03-22T07:37:14Z</time>
      </trkpt>
      <trkpt lat="47.97789" lon="6.98635">
        <ele>1211.8</ele>
        <time>2026-03-22T07:37:19Z</time>
      </trkpt>
      <trkpt lat="47.97785" lon="6.98638">
        <ele>1212.3</ele>
        <time>2026-03-22T07:37:24Z</time>
      </trkpt>
      <trkpt lat="47.97781" lon="6.98642">
        <ele>1212.9</ele>
        <time>2026-03-22T07:37:29Z</time>
      </trkpt>
      <trkpt lat="47.97778" lon="6.98645">
        <ele>1213.4</ele>
        <time>2026-03-22T07:37:34Z</time>
      </trkpt>
      <trkpt lat="47.97775" lon="6.98648">
        <ele>1213.9</ele>
        <time>2026-03-22T07:37:39Z</time>
      </trkpt>
      <trkpt lat="47.97772" lon="6.98649">
        <ele>1214.2</ele>
        <time>2026-03-22T07:37:44Z</time>
      </trkpt>
      <trkpt lat="47.97769" lon="6.98652">
        <ele>1214.7</ele>
        <time>2026-03-22T07:37:49Z</time>
      </trkpt>
      <trkpt lat="47.97766" lon="6.98655">
        <ele>1215.3</ele>
        <time>2026-03-22T07:37:54Z</time>
      </trkpt>
      <trkpt lat="47.97762" lon="6.98659">
        <ele>1216.1</ele>
        <time>2026-03-22T07:37:59Z</time>
      </trkpt>
      <trkpt lat="47.97759" lon="6.98663">
        <ele>1216.8</ele>
        <time>2026-03-22T07:38:04Z</time>
      </trkpt>
      <trkpt lat="47.97756" lon="6.98666">
        <ele>1217.4</ele>
        <time>2026-03-22T07:38:09Z</time>
      </trkpt>
      <trkpt lat="47.97753" lon="6.98667">
        <ele>1217.8</ele>
        <time>2026-03-22T07:38:14Z</time>
      </trkpt>
      <trkpt lat="47.97749" lon="6.98671">
        <ele>1218.5</ele>
        <time>2026-03-22T07:38:19Z</time>
      </trkpt>
      <trkpt lat="47.97746" lon="6.98674">
        <ele>1218.8</ele>
        <time>2026-03-22T07:38:24Z</time>
      </trkpt>
      <trkpt lat="47.97742" lon="6.98677">
        <ele>1219.1</ele>
        <time>2026-03-22T07:38:29Z</time>
      </trkpt>
      <trkpt lat="47.97739" lon="6.98681">
        <ele>1219.5</ele>
        <time>2026-03-22T07:38:34Z</time>
      </trkpt>
      <trkpt lat="47.97735" lon="6.98684">
        <ele>1219.9</ele>
        <time>2026-03-22T07:38:39Z</time>
      </trkpt>
      <trkpt lat="47.97732" lon="6.98688">
        <ele>1220.4</ele>
        <time>2026-03-22T07:38:44Z</time>
      </trkpt>
      <trkpt lat="47.97729" lon="6.98692">
        <ele>1220.9</ele>
        <time>2026-03-22T07:38:49Z</time>
      </trkpt>
      <trkpt lat="47.97725" lon="6.98696">
        <ele>1221.4</ele>
        <time>2026-03-22T07:38:54Z</time>
      </trkpt>
      <trkpt lat="47.97722" lon="6.98698">
        <ele>1221.7</ele>
        <time>2026-03-22T07:38:59Z</time>
      </trkpt>
      <trkpt lat="47.97718" lon="6.98701">
        <ele>1222.1</ele>
        <time>2026-03-22T07:39:04Z</time>
      </trkpt>
      <trkpt lat="47.97715" lon="6.98706">
        <ele>1222.8</ele>
        <time>2026-03-22T07:39:09Z</time>
      </trkpt>
      <trkpt lat="47.97713" lon="6.98711">
        <ele>1223.5</ele>
        <time>2026-03-22T07:39:14Z</time>
      </trkpt>
      <trkpt lat="47.9771" lon="6.98715">
        <ele>1224.1</ele>
        <time>2026-03-22T07:39:19Z</time>
      </trkpt>
      <trkpt lat="47.97708" lon="6.9872">
        <ele>1224.9</ele>
        <time>2026-03-22T07:39:24Z</time>
      </trkpt>
      <trkpt lat="47.97705" lon="6.98725">
        <ele>1225.7</ele>
        <time>2026-03-22T07:39:29Z</time>
      </trkpt>
      <trkpt lat="47.97702" lon="6.9873">
        <ele>1226.5</ele>
        <time>2026-03-22T07:39:34Z</time>
      </trkpt>
      <trkpt lat="47.97699" lon="6.98732">
        <ele>1226.8</ele>
        <time>2026-03-22T07:39:39Z</time>
      </trkpt>
      <trkpt lat="47.97695" lon="6.98732">
        <ele>1227</ele>
        <time>2026-03-22T07:39:44Z</time>
      </trkpt>
      <trkpt lat="47.97691" lon="6.9873">
        <ele>1226.8</ele>
        <time>2026-03-22T07:39:49Z</time>
      </trkpt>
      <trkpt lat="47.97687" lon="6.9873">
        <ele>1227</ele>
        <time>2026-03-22T07:39:54Z</time>
      </trkpt>
      <trkpt lat="47.97682" lon="6.9873">
        <ele>1227.1</ele>
        <time>2026-03-22T07:39:59Z</time>
      </trkpt>
      <trkpt lat="47.97679" lon="6.98729">
        <ele>1227.1</ele>
        <time>2026-03-22T07:40:04Z</time>
      </trkpt>
      <trkpt lat="47.97675" lon="6.9873">
        <ele>1227.4</ele>
        <time>2026-03-22T07:40:09Z</time>
      </trkpt>
      <trkpt lat="47.97671" lon="6.98729">
        <ele>1227.3</ele>
        <time>2026-03-22T07:40:14Z</time>
      </trkpt>
      <trkpt lat="47.97668" lon="6.9873">
        <ele>1227.6</ele>
        <time>2026-03-22T07:40:19Z</time>
      </trkpt>
      <trkpt lat="47.97664" lon="6.98732">
        <ele>1227.6</ele>
        <time>2026-03-22T07:40:24Z</time>
      </trkpt>
      <trkpt lat="47.97659" lon="6.98732">
        <ele>1226.8</ele>
        <time>2026-03-22T07:40:29Z</time>
      </trkpt>
      <trkpt lat="47.97655" lon="6.98734">
        <ele>1226.6</ele>
        <time>2026-03-22T07:40:34Z</time>
      </trkpt>
      <trkpt lat="47.97652" lon="6.98737">
        <ele>1226.7</ele>
        <time>2026-03-22T07:40:39Z</time>
      </trkpt>
      <trkpt lat="47.97647" lon="6.9874">
        <ele>1226.6</ele>
        <time>2026-03-22T07:40:44Z</time>
      </trkpt>
      <trkpt lat="47.97643" lon="6.98743">
        <ele>1226.6</ele>
        <time>2026-03-22T07:40:49Z</time>
      </trkpt>
      <trkpt lat="47.97637" lon="6.98746">
        <ele>1226.3</ele>
        <time>2026-03-22T07:40:54Z</time>
      </trkpt>
      <trkpt lat="47.97634" lon="6.9875">
        <ele>1226.7</ele>
        <time>2026-03-22T07:40:59Z</time>
      </trkpt>
      <trkpt lat="47.97631" lon="6.98752">
        <ele>1226.7</ele>
        <time>2026-03-22T07:41:04Z</time>
      </trkpt>
      <trkpt lat="47.97626" lon="6.98754">
        <ele>1226.5</ele>
        <time>2026-03-22T07:41:09Z</time>
      </trkpt>
      <trkpt lat="47.97623" lon="6.98757">
        <ele>1226.7</ele>
        <time>2026-03-22T07:41:14Z</time>
      </trkpt>
      <trkpt lat="47.9762" lon="6.98758">
        <ele>1226.6</ele>
        <time>2026-03-22T07:41:19Z</time>
      </trkpt>
      <trkpt lat="47.97616" lon="6.98762">
        <ele>1227</ele>
        <time>2026-03-22T07:41:24Z</time>
      </trkpt>
      <trkpt lat="47.97613" lon="6.98766">
        <ele>1227.5</ele>
        <time>2026-03-22T07:41:29Z</time>
      </trkpt>
      <trkpt lat="47.97608" lon="6.98771">
        <ele>1228.1</ele>
        <time>2026-03-22T07:41:34Z</time>
      </trkpt>
      <trkpt lat="47.97605" lon="6.98776">
        <ele>1229</ele>
        <time>2026-03-22T07:41:39Z</time>
      </trkpt>
      <trkpt lat="47.97602" lon="6.98779">
        <ele>1229.4</ele>
        <time>2026-03-22T07:41:44Z</time>
      </trkpt>
      <trkpt lat="47.97599" lon="6.98784">
        <ele>1230.4</ele>
        <time>2026-03-22T07:41:49Z</time>
      </trkpt>
      <trkpt lat="47.97597" lon="6.98786">
        <ele>1230.7</ele>
        <time>2026-03-22T07:41:54Z</time>
      </trkpt>
      <trkpt lat="47.97593" lon="6.9879">
        <ele>1231.3</ele>
        <time>2026-03-22T07:41:59Z</time>
      </trkpt>
      <trkpt lat="47.97589" lon="6.98794">
        <ele>1232</ele>
        <time>2026-03-22T07:42:04Z</time>
      </trkpt>
      <trkpt lat="47.97586" lon="6.98797">
        <ele>1232.6</ele>
        <time>2026-03-22T07:42:09Z</time>
      </trkpt>
      <trkpt lat="47.97582" lon="6.98801">
        <ele>1233.1</ele>
        <time>2026-03-22T07:42:14Z</time>
      </trkpt>
      <trkpt lat="47.97578" lon="6.98805">
        <ele>1233.2</ele>
        <time>2026-03-22T07:42:19Z</time>
      </trkpt>
      <trkpt lat="47.97574" lon="6.98808">
        <ele>1233.1</ele>
        <time>2026-03-22T07:42:24Z</time>
      </trkpt>
      <trkpt lat="47.9757" lon="6.98813">
        <ele>1233.5</ele>
        <time>2026-03-22T07:42:29Z</time>
      </trkpt>
      <trkpt lat="47.97568" lon="6.98816">
        <ele>1233.8</ele>
        <time>2026-03-22T07:42:34Z</time>
      </trkpt>
      <trkpt lat="47.97565" lon="6.98821">
        <ele>1234.5</ele>
        <time>2026-03-22T07:42:39Z</time>
      </trkpt>
      <trkpt lat="47.97562" lon="6.98825">
        <ele>1234.9</ele>
        <time>2026-03-22T07:42:44Z</time>
      </trkpt>
      <trkpt lat="47.97559" lon="6.98827">
        <ele>1234.7</ele>
        <time>2026-03-22T07:42:49Z</time>
      </trkpt>
      <trkpt lat="47.97558" lon="6.9883">
        <ele>1235.3</ele>
        <time>2026-03-22T07:42:54Z</time>
      </trkpt>
      <trkpt lat="47.97557" lon="6.98833">
        <ele>1235.9</ele>
        <time>2026-03-22T07:42:59Z</time>
      </trkpt>
      <trkpt lat="47.97556" lon="6.98835">
        <ele>1236.1</ele>
        <time>2026-03-22T07:43:04Z</time>
      </trkpt>
      <trkpt lat="47.97555" lon="6.98839">
        <ele>1236.8</ele>
        <time>2026-03-22T07:43:09Z</time>
      </trkpt>
      <trkpt lat="47.97553" lon="6.98841">
        <ele>1236.8</ele>
        <time>2026-03-22T07:43:14Z</time>
      </trkpt>
      <trkpt lat="47.97551" lon="6.98844">
        <ele>1237</ele>
        <time>2026-03-22T07:43:19Z</time>
      </trkpt>
      <trkpt lat="47.97551" lon="6.98848">
        <ele>1237.9</ele>
        <time>2026-03-22T07:43:24Z</time>
      </trkpt>
      <trkpt lat="47.97552" lon="6.98851">
        <ele>1238.8</ele>
        <time>2026-03-22T07:43:29Z</time>
      </trkpt>
      <trkpt lat="47.97553" lon="6.98854">
        <ele>1239.7</ele>
        <time>2026-03-22T07:43:34Z</time>
      </trkpt>
      <trkpt lat="47.97554" lon="6.98858">
        <ele>1240.8</ele>
        <time>2026-03-22T07:43:39Z</time>
      </trkpt>
      <trkpt lat="47.97555" lon="6.98862">
        <ele>1241.9</ele>
        <time>2026-03-22T07:43:44Z</time>
      </trkpt>
      <trkpt lat="47.97557" lon="6.98866">
        <ele>1243.2</ele>
        <time>2026-03-22T07:43:49Z</time>
      </trkpt>
      <trkpt lat="47.97558" lon="6.9887">
        <ele>1244.2</ele>
        <time>2026-03-22T07:43:54Z</time>
      </trkpt>
      <trkpt lat="47.9756" lon="6.98874">
        <ele>1245.5</ele>
        <time>2026-03-22T07:43:59Z</time>
      </trkpt>
      <trkpt lat="47.97562" lon="6.98878">
        <ele>1246.8</ele>
        <time>2026-03-22T07:44:04Z</time>
      </trkpt>
      <trkpt lat="47.97563" lon="6.98881">
        <ele>1247.6</ele>
        <time>2026-03-22T07:44:09Z</time>
      </trkpt>
      <trkpt lat="47.97564" lon="6.98886">
        <ele>1248.9</ele>
        <time>2026-03-22T07:44:14Z</time>
      </trkpt>
      <trkpt lat="47.97565" lon="6.9889">
        <ele>1250</ele>
        <time>2026-03-22T07:44:19Z</time>
      </trkpt>
      <trkpt lat="47.97566" lon="6.98893">
        <ele>1250.8</ele>
        <time>2026-03-22T07:44:24Z</time>
      </trkpt>
      <trkpt lat="47.97568" lon="6.98898">
        <ele>1252.3</ele>
        <time>2026-03-22T07:44:29Z</time>
      </trkpt>
      <trkpt lat="47.97569" lon="6.98903">
        <ele>1253.5</ele>
        <time>2026-03-22T07:44:34Z</time>
      </trkpt>
      <trkpt lat="47.97569" lon="6.98907">
        <ele>1254.4</ele>
        <time>2026-03-22T07:44:39Z</time>
      </trkpt>
      <trkpt lat="47.9757" lon="6.98912">
        <ele>1255.6</ele>
        <time>2026-03-22T07:44:44Z</time>
      </trkpt>
      <trkpt lat="47.9757" lon="6.98917">
        <ele>1256.6</ele>
        <time>2026-03-22T07:44:49Z</time>
      </trkpt>
      <trkpt lat="47.97568" lon="6.9892">
        <ele>1256.6</ele>
        <time>2026-03-22T07:44:54Z</time>
      </trkpt>
      <trkpt lat="47.97566" lon="6.98923">
        <ele>1256.5</ele>
        <time>2026-03-22T07:44:59Z</time>
      </trkpt>
      <trkpt lat="47.97563" lon="6.98924">
        <ele>1256.1</ele>
        <time>2026-03-22T07:45:04Z</time>
      </trkpt>
      <trkpt lat="47.97561" lon="6.98927">
        <ele>1256</ele>
        <time>2026-03-22T07:45:09Z</time>
      </trkpt>
      <trkpt lat="47.97558" lon="6.9893">
        <ele>1255.9</ele>
        <time>2026-03-22T07:45:14Z</time>
      </trkpt>
      <trkpt lat="47.97557" lon="6.98933">
        <ele>1256</ele>
        <time>2026-03-22T07:45:19Z</time>
      </trkpt>
      <trkpt lat="47.97556" lon="6.98936">
        <ele>1256.2</ele>
        <time>2026-03-22T07:45:24Z</time>
      </trkpt>
      <trkpt lat="47.97554" lon="6.98937">
        <ele>1255.9</ele>
        <time>2026-03-22T07:45:29Z</time>
      </trkpt>
      <trkpt lat="47.97553" lon="6.98939">
        <ele>1256</ele>
        <time>2026-03-22T07:45:34Z</time>
      </trkpt>
      <trkpt lat="47.97552" lon="6.98943">
        <ele>1256.3</ele>
        <time>2026-03-22T07:45:39Z</time>
      </trkpt>
      <trkpt lat="47.9755" lon="6.98945">
        <ele>1256.2</ele>
        <time>2026-03-22T07:45:44Z</time>
      </trkpt>
      <trkpt lat="47.97547" lon="6.98948">
        <ele>1256.1</ele>
        <time>2026-03-22T07:45:49Z</time>
      </trkpt>
      <trkpt lat="47.97545" lon="6.98953">
        <ele>1256.4</ele>
        <time>2026-03-22T07:45:54Z</time>
      </trkpt>
      <trkpt lat="47.97543" lon="6.98956">
        <ele>1256.4</ele>
        <time>2026-03-22T07:45:59Z</time>
      </trkpt>
      <trkpt lat="47.97541" lon="6.98958">
        <ele>1256.4</ele>
        <time>2026-03-22T07:46:04Z</time>
      </trkpt>
      <trkpt lat="47.97538" lon="6.98961">
        <ele>1256.3</ele>
        <time>2026-03-22T07:46:09Z</time>
      </trkpt>
      <trkpt lat="47.97535" lon="6.98964">
        <ele>1256.3</ele>
        <time>2026-03-22T07:46:14Z</time>
      </trkpt>
      <trkpt lat="47.97533" lon="6.98968">
        <ele>1256.5</ele>
        <time>2026-03-22T07:46:19Z</time>
      </trkpt>
      <trkpt lat="47.9753" lon="6.98972">
        <ele>1256.6</ele>
        <time>2026-03-22T07:46:24Z</time>
      </trkpt>
      <trkpt lat="47.97528" lon="6.98974">
        <ele>1256.6</ele>
        <time>2026-03-22T07:46:29Z</time>
      </trkpt>
      <trkpt lat="47.97525" lon="6.98979">
        <ele>1256.9</ele>
        <time>2026-03-22T07:46:34Z</time>
      </trkpt>
      <trkpt lat="47.97521" lon="6.98983">
        <ele>1256.9</ele>
        <time>2026-03-22T07:46:39Z</time>
      </trkpt>
      <trkpt lat="47.97519" lon="6.98987">
        <ele>1257.2</ele>
        <time>2026-03-22T07:46:44Z</time>
      </trkpt>
      <trkpt lat="47.97514" lon="6.98992">
        <ele>1257.4</ele>
        <time>2026-03-22T07:46:49Z</time>
      </trkpt>
      <trkpt lat="47.97509" lon="6.98998">
        <ele>1257.7</ele>
        <time>2026-03-22T07:46:54Z</time>
      </trkpt>
      <trkpt lat="47.97504" lon="6.99002">
        <ele>1257.5</ele>
        <time>2026-03-22T07:46:59Z</time>
      </trkpt>
      <trkpt lat="47.97499" lon="6.99008">
        <ele>1257.4</ele>
        <time>2026-03-22T07:47:04Z</time>
      </trkpt>
      <trkpt lat="47.97494" lon="6.99015">
        <ele>1257.5</ele>
        <time>2026-03-22T07:47:09Z</time>
      </trkpt>
      <trkpt lat="47.97489" lon="6.99022">
        <ele>1257.6</ele>
        <time>2026-03-22T07:47:14Z</time>
      </trkpt>
      <trkpt lat="47.97484" lon="6.99028">
        <ele>1257.7</ele>
        <time>2026-03-22T07:47:19Z</time>
      </trkpt>
      <trkpt lat="47.9748" lon="6.99033">
        <ele>1257.9</ele>
        <time>2026-03-22T07:47:24Z</time>
      </trkpt>
      <trkpt lat="47.97474" lon="6.9904">
        <ele>1258.1</ele>
        <time>2026-03-22T07:47:29Z</time>
      </trkpt>
      <trkpt lat="47.97469" lon="6.99046">
        <ele>1258.4</ele>
        <time>2026-03-22T07:47:34Z</time>
      </trkpt>
      <trkpt lat="47.97465" lon="6.99049">
        <ele>1258.5</ele>
        <time>2026-03-22T07:47:39Z</time>
      </trkpt>
      <trkpt lat="47.97461" lon="6.99052">
        <ele>1258.6</ele>
        <time>2026-03-22T07:47:44Z</time>
      </trkpt>
      <trkpt lat="47.97457" lon="6.99055">
        <ele>1258.7</ele>
        <time>2026-03-22T07:47:49Z</time>
      </trkpt>
      <trkpt lat="47.97454" lon="6.99058">
        <ele>1258.9</ele>
        <time>2026-03-22T07:47:54Z</time>
      </trkpt>
      <trkpt lat="47.97451" lon="6.99059">
        <ele>1258.9</ele>
        <time>2026-03-22T07:47:59Z</time>
      </trkpt>
      <trkpt lat="47.97449" lon="6.99064">
        <ele>1259.4</ele>
        <time>2026-03-22T07:48:04Z</time>
      </trkpt>
      <trkpt lat="47.97445" lon="6.99067">
        <ele>1259.6</ele>
        <time>2026-03-22T07:48:09Z</time>
      </trkpt>
      <trkpt lat="47.97439" lon="6.99069">
        <ele>1259.7</ele>
        <time>2026-03-22T07:48:14Z</time>
      </trkpt>
      <trkpt lat="47.97435" lon="6.99072">
        <ele>1259.9</ele>
        <time>2026-03-22T07:48:19Z</time>
      </trkpt>
      <trkpt lat="47.97432" lon="6.99073">
        <ele>1260</ele>
        <time>2026-03-22T07:48:24Z</time>
      </trkpt>
      <trkpt lat="47.97432" lon="6.99073">
        <ele>1260</ele>
        <time>2026-03-22T07:48:29Z</time>
      </trkpt>
      <trkpt lat="47.97432" lon="6.99073">
        <ele>1260</ele>
        <time>2026-03-22T07:48:34Z</time>
      </trkpt>
      <trkpt lat="47.97432" lon="6.99073">
        <ele>1260</ele>
        <time>2026-03-22T07:48:39Z</time>
      </trkpt>
      <trkpt lat="47.97432" lon="6.99073">
        <ele>1260</ele>
        <time>2026-03-22T07:48:44Z</time>
      </trkpt>
      <trkpt lat="47.97432" lon="6.99073">
        <ele>1260</ele>
        <time>2026-03-22T07:48:49Z</time>
      </trkpt>
      <trkpt lat="47.97432" lon="6.99073">
        <ele>1260</ele>
        <time>2026-03-22T07:48:54Z</time>
      </trkpt>
      <trkpt lat="47.97432" lon="6.99073">
        <ele>1260</ele>
        <time>2026-03-22T07:48:59Z</time>
      </trkpt>
      <trkpt lat="47.97432" lon="6.99073">
        <ele>1260</ele>
        <time>2026-03-22T07:49:04Z</time>
      </trkpt>
      <trkpt lat="47.97432" lon="6.99073">
        <ele>1260</ele>
        <time>2026-03-22T07:49:09Z</time>
      </trkpt>
      <trkpt lat="47.97432" lon="6.99073">
        <ele>1260</ele>
        <time>2026-03-22T07:49:14Z</time>
      </trkpt>
      <trkpt lat="47.97432" lon="6.99073">
        <ele>1260</ele>
        <time>2026-03-22T07:49:19Z</time>
      </trkpt>
      <trkpt lat="47.97432" lon="6.99073">
        <ele>1260</ele>
        <time>2026-03-22T07:49:24Z</time>
      </trkpt>
      <trkpt lat="47.97432" lon="6.99073">
        <ele>1260</ele>
        <time>2026-03-22T07:49:29Z</time>
      </trkpt>
      <trkpt lat="47.97432" lon="6.99073">
        <ele>1260</ele>
        <time>2026-03-22T07:49:34Z</time>
      </trkpt>
      <trkpt lat="47.97432" lon="6.99073">
        <ele>1260</ele>
        <time>2026-03-22T07:49:39Z</time>
      </trkpt>
      <trkpt lat="47.97432" lon="6.99073">
        <ele>1260</ele>
        <time>2026-03-22T07:49:44Z</time>
      </trkpt>
      <trkpt lat="47.97432" lon="6.99073">
        <ele>1260</ele>
        <time>2026-03-22T07:49:49Z</time>
      </trkpt>
      <trkpt lat="47.97432" lon="6.99073">
        <ele>1260</ele>
        <time>2026-03-22T07:49:54Z</time>
      </trkpt>
      <trkpt lat="47.97432" lon="6.99073">
        <ele>1260</ele>
        <time>2026-03-22T07:49:59Z</time>
      </trkpt>
      <trkpt lat="47.97432" lon="6.99073">
        <ele>1260</ele>
        <time>2026-03-22T07:50:04Z</time>
      </trkpt>
      <trkpt lat="47.97432" lon="6.99073">
        <ele>1260</ele>
        <time>2026-03-22T07:50:09Z</time>
      </trkpt>
      <trkpt lat="47.97432" lon="6.99073">
        <ele>1260</ele>
        <time>2026-03-22T07:50:14Z</time>
      </trkpt>
      <trkpt lat="47.97431" lon="6.99074">
        <ele>1260.1</ele>
        <time>2026-03-22T07:50:19Z</time>
      </trkpt>
      <trkpt lat="47.97428" lon="6.99074">
        <ele>1260</ele>
        <time>2026-03-22T07:50:24Z</time>
      </trkpt>
      <trkpt lat="47.97425" lon="6.99077">
        <ele>1260.3</ele>
        <time>2026-03-22T07:50:29Z</time>
      </trkpt>
      <trkpt lat="47.9742" lon="6.9908">
        <ele>1260.6</ele>
        <time>2026-03-22T07:50:34Z</time>
      </trkpt>
      <trkpt lat="47.97415" lon="6.99083">
        <ele>1260.8</ele>
        <time>2026-03-22T07:50:39Z</time>
      </trkpt>
      <trkpt lat="47.9741" lon="6.99085">
        <ele>1260.2</ele>
        <time>2026-03-22T07:50:44Z</time>
      </trkpt>
      <trkpt lat="47.97403" lon="6.99087">
        <ele>1259.5</ele>
        <time>2026-03-22T07:50:49Z</time>
      </trkpt>
      <trkpt lat="47.97397" lon="6.9909">
        <ele>1258.7</ele>
        <time>2026-03-22T07:50:54Z</time>
      </trkpt>
      <trkpt lat="47.97391" lon="6.99094">
        <ele>1257.9</ele>
        <time>2026-03-22T07:50:59Z</time>
      </trkpt>
      <trkpt lat="47.97385" lon="6.99097">
        <ele>1257.2</ele>
        <time>2026-03-22T07:51:04Z</time>
      </trkpt>
      <trkpt lat="47.97378" lon="6.99101">
        <ele>1256.4</ele>
        <time>2026-03-22T07:51:09Z</time>
      </trkpt>
      <trkpt lat="47.97374" lon="6.99104">
        <ele>1255.9</ele>
        <time>2026-03-22T07:51:14Z</time>
      </trkpt>
      <trkpt lat="47.97367" lon="6.99108">
        <ele>1255.2</ele>
        <time>2026-03-22T07:51:19Z</time>
      </trkpt>
      <trkpt lat="47.97361" lon="6.99111">
        <ele>1254.6</ele>
        <time>2026-03-22T07:51:24Z</time>
      </trkpt>
      <trkpt lat="47.97356" lon="6.99113">
        <ele>1254.1</ele>
        <time>2026-03-22T07:51:29Z</time>
      </trkpt>
      <trkpt lat="47.97349" lon="6.99114">
        <ele>1253.5</ele>
        <time>2026-03-22T07:51:34Z</time>
      </trkpt>
      <trkpt lat="47.97343" lon="6.99117">
        <ele>1252.9</ele>
        <time>2026-03-22T07:51:39Z</time>
      </trkpt>
      <trkpt lat="47.97338" lon="6.9912">
        <ele>1252.5</ele>
        <time>2026-03-22T07:51:44Z</time>
      </trkpt>
      <trkpt lat="47.97332" lon="6.99122">
        <ele>1251.9</ele>
        <time>2026-03-22T07:51:49Z</time>
      </trkpt>
      <trkpt lat="47.97326" lon="6.99124">
        <ele>1251.3</ele>
        <time>2026-03-22T07:51:54Z</time>
      </trkpt>
      <trkpt lat="47.9732" lon="6.99125">
        <ele>1250.7</ele>
        <time>2026-03-22T07:51:59Z</time>
      </trkpt>
      <trkpt lat="47.97313" lon="6.99126">
        <ele>1250</ele>
        <time>2026-03-22T07:52:04Z</time>
      </trkpt>
      <trkpt lat="47.97306" lon="6.99128">
        <ele>1249.4</ele>
        <time>2026-03-22T07:52:09Z</time>
      </trkpt>
      <trkpt lat="47.97299" lon="6.99127">
        <ele>1248.7</ele>
        <time>2026-03-22T07:52:14Z</time>
      </trkpt>
      <trkpt lat="47.97291" lon="6.99129">
        <ele>1247.9</ele>
        <time>2026-03-22T07:52:19Z</time>
      </trkpt>
      <trkpt lat="47.97285" lon="6.9913">
        <ele>1247.4</ele>
        <time>2026-03-22T07:52:24Z</time>
      </trkpt>
      <trkpt lat="47.97277" lon="6.99131">
        <ele>1246.6</ele>
        <time>2026-03-22T07:52:29Z</time>
      </trkpt>
      <trkpt lat="47.9727" lon="6.99131">
        <ele>1246</ele>
        <time>2026-03-22T07:52:34Z</time>
      </trkpt>
      <trkpt lat="47.97263" lon="6.99132">
        <ele>1245.4</ele>
        <time>2026-03-22T07:52:39Z</time>
      </trkpt>
      <trkpt lat="47.97255" lon="6.99133">
        <ele>1244.6</ele>
        <time>2026-03-22T07:52:44Z</time>
      </trkpt>
      <trkpt lat="47.97248" lon="6.99134">
        <ele>1244.1</ele>
        <time>2026-03-22T07:52:49Z</time>
      </trkpt>
      <trkpt lat="47.9724" lon="6.99135">
        <ele>1243.6</ele>
        <time>2026-03-22T07:52:54Z</time>
      </trkpt>
      <trkpt lat="47.97234" lon="6.99136">
        <ele>1243.2</ele>
        <time>2026-03-22T07:52:59Z</time>
      </trkpt>
      <trkpt lat="47.97227" lon="6.99136">
        <ele>1242.8</ele>
        <time>2026-03-22T07:53:04Z</time>
      </trkpt>
      <trkpt lat="47.9722" lon="6.99135">
        <ele>1242.3</ele>
        <time>2026-03-22T07:53:09Z</time>
      </trkpt>
      <trkpt lat="47.97213" lon="6.99136">
        <ele>1241.8</ele>
        <time>2026-03-22T07:53:14Z</time>
      </trkpt>
      <trkpt lat="47.97206" lon="6.99136">
        <ele>1241.4</ele>
        <time>2026-03-22T07:53:19Z</time>
      </trkpt>
      <trkpt lat="47.972" lon="6.99137">
        <ele>1241</ele>
        <time>2026-03-22T07:53:24Z</time>
      </trkpt>
      <trkpt lat="47.97192" lon="6.99137">
        <ele>1240.5</ele>
        <time>2026-03-22T07:53:29Z</time>
      </trkpt>
      <trkpt lat="47.97184" lon="6.99136">
        <ele>1239.9</ele>
        <time>2026-03-22T07:53:34Z</time>
      </trkpt>
      <trkpt lat="47.97178" lon="6.99137">
        <ele>1239.6</ele>
        <time>2026-03-22T07:53:39Z</time>
      </trkpt>
      <trkpt lat="47.97171" lon="6.99139">
        <ele>1239.3</ele>
        <time>2026-03-22T07:53:44Z</time>
      </trkpt>
      <trkpt lat="47.97164" lon="6.99142">
        <ele>1239</ele>
        <time>2026-03-22T07:53:49Z</time>
      </trkpt>
      <trkpt lat="47.97157" lon="6.99145">
        <ele>1238.8</ele>
        <time>2026-03-22T07:53:54Z</time>
      </trkpt>
      <trkpt lat="47.97151" lon="6.99149">
        <ele>1238.8</ele>
        <time>2026-03-22T07:53:59Z</time>
      </trkpt>
      <trkpt lat="47.97143" lon="6.99152">
        <ele>1238.6</ele>
        <time>2026-03-22T07:54:04Z</time>
      </trkpt>
      <trkpt lat="47.97137" lon="6.99155">
        <ele>1238.5</ele>
        <time>2026-03-22T07:54:09Z</time>
      </trkpt>
      <trkpt lat="47.9713" lon="6.99159">
        <ele>1238.5</ele>
        <time>2026-03-22T07:54:14Z</time>
      </trkpt>
      <trkpt lat="47.97123" lon="6.99163">
        <ele>1238.5</ele>
        <time>2026-03-22T07:54:19Z</time>
      </trkpt>
      <trkpt lat="47.97117" lon="6.99166">
        <ele>1238.5</ele>
        <time>2026-03-22T07:54:24Z</time>
      </trkpt>
      <trkpt lat="47.97111" lon="6.9917">
        <ele>1238.3</ele>
        <time>2026-03-22T07:54:29Z</time>
      </trkpt>
      <trkpt lat="47.97103" lon="6.99174">
        <ele>1237.9</ele>
        <time>2026-03-22T07:54:34Z</time>
      </trkpt>
      <trkpt lat="47.97096" lon="6.99178">
        <ele>1237.7</ele>
        <time>2026-03-22T07:54:39Z</time>
      </trkpt>
      <trkpt lat="47.97089" lon="6.99183">
        <ele>1237.4</ele>
        <time>2026-03-22T07:54:44Z</time>
      </trkpt>
      <trkpt lat="47.97083" lon="6.99188">
        <ele>1237.2</ele>
        <time>2026-03-22T07:54:49Z</time>
      </trkpt>
      <trkpt lat="47.97077" lon="6.99192">
        <ele>1236.9</ele>
        <time>2026-03-22T07:54:54Z</time>
      </trkpt>
      <trkpt lat="47.9707" lon="6.99195">
        <ele>1236.5</ele>
        <time>2026-03-22T07:54:59Z</time>
      </trkpt>
      <trkpt lat="47.97065" lon="6.99199">
        <ele>1236.2</ele>
        <time>2026-03-22T07:55:04Z</time>
      </trkpt>
      <trkpt lat="47.97057" lon="6.99202">
        <ele>1235.8</ele>
        <time>2026-03-22T07:55:09Z</time>
      </trkpt>
      <trkpt lat="47.9705" lon="6.99204">
        <ele>1235.4</ele>
        <time>2026-03-22T07:55:14Z</time>
      </trkpt>
      <trkpt lat="47.97044" lon="6.99204">
        <ele>1235</ele>
        <time>2026-03-22T07:55:19Z</time>
      </trkpt>
      <trkpt lat="47.97037" lon="6.99204">
        <ele>1234.6</ele>
        <time>2026-03-22T07:55:24Z</time>
      </trkpt>
      <trkpt lat="47.9703" lon="6.99206">
        <ele>1234.2</ele>
        <time>2026-03-22T07:55:29Z</time>
      </trkpt>
      <trkpt lat="47.97022" lon="6.99207">
        <ele>1233.8</ele>
        <time>2026-03-22T07:55:34Z</time>
      </trkpt>
      <trkpt lat="47.97015" lon="6.99207">
        <ele>1233.4</ele>
        <time>2026-03-22T07:55:39Z</time>
      </trkpt>
      <trkpt lat="47.97009" lon="6.99208">
        <ele>1233</ele>
        <time>2026-03-22T07:55:44Z</time>
      </trkpt>
      <trkpt lat="47.97002" lon="6.9921">
        <ele>1232.7</ele>
        <time>2026-03-22T07:55:49Z</time>
      </trkpt>
      <trkpt lat="47.96994" lon="6.99212">
        <ele>1231.7</ele>
        <time>2026-03-22T07:55:54Z</time>
      </trkpt>
      <trkpt lat="47.96987" lon="6.99212">
        <ele>1230.5</ele>
        <time>2026-03-22T07:55:59Z</time>
      </trkpt>
      <trkpt lat="47.9698" lon="6.99214">
        <ele>1229.4</ele>
        <time>2026-03-22T07:56:04Z</time>
      </trkpt>
      <trkpt lat="47.96973" lon="6.99216">
        <ele>1228.4</ele>
        <time>2026-03-22T07:56:09Z</time>
      </trkpt>
      <trkpt lat="47.96966" lon="6.99218">
        <ele>1227.3</ele>
        <time>2026-03-22T07:56:14Z</time>
      </trkpt>
      <trkpt lat="47.96959" lon="6.9922">
        <ele>1226.2</ele>
        <time>2026-03-22T07:56:19Z</time>
      </trkpt>
      <trkpt lat="47.96952" lon="6.99221">
        <ele>1225.1</ele>
        <time>2026-03-22T07:56:24Z</time>
      </trkpt>
      <trkpt lat="47.96945" lon="6.99224">
        <ele>1224</ele>
        <time>2026-03-22T07:56:29Z</time>
      </trkpt>
      <trkpt lat="47.96939" lon="6.99228">
        <ele>1223.2</ele>
        <time>2026-03-22T07:56:34Z</time>
      </trkpt>
      <trkpt lat="47.96933" lon="6.99234">
        <ele>1222.3</ele>
        <time>2026-03-22T07:56:39Z</time>
      </trkpt>
      <trkpt lat="47.96929" lon="6.9924">
        <ele>1221.8</ele>
        <time>2026-03-22T07:56:44Z</time>
      </trkpt>
      <trkpt lat="47.96924" lon="6.99246">
        <ele>1221.1</ele>
        <time>2026-03-22T07:56:49Z</time>
      </trkpt>
      <trkpt lat="47.96919" lon="6.99253">
        <ele>1220.1</ele>
        <time>2026-03-22T07:56:54Z</time>
      </trkpt>
      <trkpt lat="47.96915" lon="6.9926">
        <ele>1218.7</ele>
        <time>2026-03-22T07:56:59Z</time>
      </trkpt>
      <trkpt lat="47.96911" lon="6.99265">
        <ele>1217.3</ele>
        <time>2026-03-22T07:57:04Z</time>
      </trkpt>
      <trkpt lat="47.96911" lon="6.99265">
        <ele>1217.3</ele>
        <time>2026-03-22T07:57:09Z</time>
      </trkpt>
      <trkpt lat="47.96911" lon="6.99265">
        <ele>1217.3</ele>
        <time>2026-03-22T07:57:14Z</time>
      </trkpt>
      <trkpt lat="47.96911" lon="6.99265">
        <ele>1217.3</ele>
        <time>2026-03-22T07:57:19Z</time>
      </trkpt>
      <trkpt lat="47.96911" lon="6.99265">
        <ele>1217.3</ele>
        <time>2026-03-22T07:57:24Z</time>
      </trkpt>
      <trkpt lat="47.96911" lon="6.99265">
        <ele>1217.3</ele>
        <time>2026-03-22T07:57:29Z</time>
      </trkpt>
      <trkpt lat="47.96911" lon="6.99265">
        <ele>1217.3</ele>
        <time>2026-03-22T07:57:34Z</time>
      </trkpt>
      <trkpt lat="47.96911" lon="6.99265">
        <ele>1217.3</ele>
        <time>2026-03-22T07:57:39Z</time>
      </trkpt>
      <trkpt lat="47.96911" lon="6.99265">
        <ele>1217.3</ele>
        <time>2026-03-22T07:57:44Z</time>
      </trkpt>
      <trkpt lat="47.96911" lon="6.99265">
        <ele>1217.3</ele>
        <time>2026-03-22T07:57:49Z</time>
      </trkpt>
      <trkpt lat="47.96911" lon="6.99265">
        <ele>1217.3</ele>
        <time>2026-03-22T07:57:54Z</time>
      </trkpt>
      <trkpt lat="47.96911" lon="6.99265">
        <ele>1217.3</ele>
        <time>2026-03-22T07:57:59Z</time>
      </trkpt>
      <trkpt lat="47.96909" lon="6.99268">
        <ele>1216.5</ele>
        <time>2026-03-22T07:58:04Z</time>
      </trkpt>
      <trkpt lat="47.96906" lon="6.99275">
        <ele>1215.1</ele>
        <time>2026-03-22T07:58:09Z</time>
      </trkpt>
      <trkpt lat="47.96903" lon="6.9928">
        <ele>1213.9</ele>
        <time>2026-03-22T07:58:14Z</time>
      </trkpt>
      <trkpt lat="47.96899" lon="6.99284">
        <ele>1212.5</ele>
        <time>2026-03-22T07:58:19Z</time>
      </trkpt>
      <trkpt lat="47.96896" lon="6.9929">
        <ele>1211.2</ele>
        <time>2026-03-22T07:58:24Z</time>
      </trkpt>
      <trkpt lat="47.96893" lon="6.99294">
        <ele>1210</ele>
        <time>2026-03-22T07:58:29Z</time>
      </trkpt>
      <trkpt lat="47.96891" lon="6.99298">
        <ele>1209.1</ele>
        <time>2026-03-22T07:58:34Z</time>
      </trkpt>
      <trkpt lat="47.96889" lon="6.99301">
        <ele>1208.3</ele>
        <time>2026-03-22T07:58:39Z</time>
      </trkpt>
      <trkpt lat="47.96886" lon="6.99305">
        <ele>1207.2</ele>
        <time>2026-03-22T07:58:44Z</time>
      </trkpt>
      <trkpt lat="47.96884" lon="6.99308">
        <ele>1206.4</ele>
        <time>2026-03-22T07:58:49Z</time>
      </trkpt>
      <trkpt lat="47.96881" lon="6.99312">
        <ele>1205.2</ele>
        <time>2026-03-22T07:58:54Z</time>
      </trkpt>
      <trkpt lat="47.96876" lon="6.99313">
        <ele>1203.7</ele>
        <time>2026-03-22T07:58:59Z</time>
      </trkpt>
      <trkpt lat="47.96872" lon="6.99312">
        <ele>1202.7</ele>
        <time>2026-03-22T07:59:04Z</time>
      </trkpt>
      <trkpt lat="47.96868" lon="6.99314">
        <ele>1201.5</ele>
        <time>2026-03-22T07:59:09Z</time>
      </trkpt>
      <trkpt lat="47.96866" lon="6.99317">
        <ele>1200.6</ele>
        <time>2026-03-22T07:59:14Z</time>
      </trkpt>
      <trkpt lat="47.96863" lon="6.99321">
        <ele>1199.4</ele>
        <time>2026-03-22T07:59:19Z</time>
      </trkpt>
      <trkpt lat="47.96861" lon="6.99324">
        <ele>1198.6</ele>
        <time>2026-03-22T07:59:24Z</time>
      </trkpt>
      <trkpt lat="47.96857" lon="6.99327">
        <ele>1197.2</ele>
        <time>2026-03-22T07:59:29Z</time>
      </trkpt>
      <trkpt lat="47.96854" lon="6.9933">
        <ele>1196</ele>
        <time>2026-03-22T07:59:34Z</time>
      </trkpt>
      <trkpt lat="47.96852" lon="6.99335">
        <ele>1195.1</ele>
        <time>2026-03-22T07:59:39Z</time>
      </trkpt>
      <trkpt lat="47.96851" lon="6.99341">
        <ele>1194.7</ele>
        <time>2026-03-22T07:59:44Z</time>
      </trkpt>
      <trkpt lat="47.96848" lon="6.99349">
        <ele>1193.8</ele>
        <time>2026-03-22T07:59:49Z</time>
      </trkpt>
      <trkpt lat="47.96846" lon="6.99357">
        <ele>1193.1</ele>
        <time>2026-03-22T07:59:54Z</time>
      </trkpt>
      <trkpt lat="47.96845" lon="6.99365">
        <ele>1192.7</ele>
        <time>2026-03-22T07:59:59Z</time>
      </trkpt>
      <trkpt lat="47.96843" lon="6.99371">
        <ele>1192.2</ele>
        <time>2026-03-22T08:00:04Z</time>
      </trkpt>
      <trkpt lat="47.96841" lon="6.99375">
        <ele>1191.7</ele>
        <time>2026-03-22T08:00:09Z</time>
      </trkpt>
      <trkpt lat="47.9684" lon="6.99379">
        <ele>1191.4</ele>
        <time>2026-03-22T08:00:14Z</time>
      </trkpt>
      <trkpt lat="47.96837" lon="6.99382">
        <ele>1190.8</ele>
        <time>2026-03-22T08:00:19Z</time>
      </trkpt>
      <trkpt lat="47.96833" lon="6.99385">
        <ele>1189.9</ele>
        <time>2026-03-22T08:00:24Z</time>
      </trkpt>
      <trkpt lat="47.96828" lon="6.99388">
        <ele>1188.6</ele>
        <time>2026-03-22T08:00:29Z</time>
      </trkpt>
      <trkpt lat="47.96824" lon="6.99395">
        <ele>1187.6</ele>
        <time>2026-03-22T08:00:34Z</time>
      </trkpt>
      <trkpt lat="47.96819" lon="6.99402">
        <ele>1186.5</ele>
        <time>2026-03-22T08:00:39Z</time>
      </trkpt>
      <trkpt lat="47.96813" lon="6.99411">
        <ele>1185.4</ele>
        <time>2026-03-22T08:00:44Z</time>
      </trkpt>
      <trkpt lat="47.96808" lon="6.99419">
        <ele>1184.7</ele>
        <time>2026-03-22T08:00:49Z</time>
      </trkpt>
      <trkpt lat="47.96802" lon="6.99426">
        <ele>1184</ele>
        <time>2026-03-22T08:00:54Z</time>
      </trkpt>
      <trkpt lat="47.96796" lon="6.99432">
        <ele>1183.4</ele>
        <time>2026-03-22T08:00:59Z</time>
      </trkpt>
      <trkpt lat="47.9679" lon="6.99439">
        <ele>1183</ele>
        <time>2026-03-22T08:01:04Z</time>
      </trkpt>
      <trkpt lat="47.96785" lon="6.99446">
        <ele>1182.9</ele>
        <time>2026-03-22T08:01:09Z</time>
      </trkpt>
      <trkpt lat="47.9678" lon="6.99451">
        <ele>1182.6</ele>
        <time>2026-03-22T08:01:14Z</time>
      </trkpt>
      <trkpt lat="47.96776" lon="6.99456">
        <ele>1182.6</ele>
        <time>2026-03-22T08:01:19Z</time>
      </trkpt>
      <trkpt lat="47.96772" lon="6.99457">
        <ele>1182.1</ele>
        <time>2026-03-22T08:01:24Z</time>
      </trkpt>
      <trkpt lat="47.96766" lon="6.99463">
        <ele>1182.1</ele>
        <time>2026-03-22T08:01:29Z</time>
      </trkpt>
      <trkpt lat="47.9676" lon="6.99466">
        <ele>1181.7</ele>
        <time>2026-03-22T08:01:34Z</time>
      </trkpt>
      <trkpt lat="47.96752" lon="6.99469">
        <ele>1181.1</ele>
        <time>2026-03-22T08:01:39Z</time>
      </trkpt>
      <trkpt lat="47.96744" lon="6.99474">
        <ele>1180.8</ele>
        <time>2026-03-22T08:01:44Z</time>
      </trkpt>
      <trkpt lat="47.9674" lon="6.9948">
        <ele>1181.4</ele>
        <time>2026-03-22T08:01:49Z</time>
      </trkpt>
      <trkpt lat="47.96735" lon="6.99485">
        <ele>1181.6</ele>
        <time>2026-03-22T08:01:54Z</time>
      </trkpt>
      <trkpt lat="47.96729" lon="6.99491">
        <ele>1182</ele>
        <time>2026-03-22T08:01:59Z</time>
      </trkpt>
      <trkpt lat="47.96723" lon="6.99496">
        <ele>1182.3</ele>
        <time>2026-03-22T08:02:04Z</time>
      </trkpt>
      <trkpt lat="47.96716" lon="6.99499">
        <ele>1182.1</ele>
        <time>2026-03-22T08:02:09Z</time>
      </trkpt>
      <trkpt lat="47.9671" lon="6.99504">
        <ele>1182.3</ele>
        <time>2026-03-22T08:02:14Z</time>
      </trkpt>
      <trkpt lat="47.96704" lon="6.99509">
        <ele>1182.5</ele>
        <time>2026-03-22T08:02:19Z</time>
      </trkpt>
      <trkpt lat="47.96698" lon="6.99513">
        <ele>1182.6</ele>
        <time>2026-03-22T08:02:24Z</time>
      </trkpt>
      <trkpt lat="47.96692" lon="6.99519">
        <ele>1183.1</ele>
        <time>2026-03-22T08:02:29Z</time>
      </trkpt>
      <trkpt lat="47.96687" lon="6.99524">
        <ele>1183.5</ele>
        <time>2026-03-22T08:02:34Z</time>
      </trkpt>
      <trkpt lat="47.96681" lon="6.99531">
        <ele>1184.4</ele>
        <time>2026-03-22T08:02:39Z</time>
      </trkpt>
      <trkpt lat="47.96676" lon="6.99538">
        <ele>1185.4</ele>
        <time>2026-03-22T08:02:44Z</time>
      </trkpt>
      <trkpt lat="47.9667" lon="6.99545">
        <ele>1186.4</ele>
        <time>2026-03-22T08:02:49Z</time>
      </trkpt>
      <trkpt lat="47.96666" lon="6.99552">
        <ele>1187.5</ele>
        <time>2026-03-22T08:02:54Z</time>
      </trkpt>
      <trkpt lat="47.96661" lon="6.99559">
        <ele>1188.5</ele>
        <time>2026-03-22T08:02:59Z</time>
      </trkpt>
      <trkpt lat="47.96655" lon="6.99566">
        <ele>1189.4</ele>
        <time>2026-03-22T08:03:04Z</time>
      </trkpt>
      <trkpt lat="47.9665" lon="6.99573">
        <ele>1190.4</ele>
        <time>2026-03-22T08:03:09Z</time>
      </trkpt>
      <trkpt lat="47.96644" lon="6.99581">
        <ele>1191.6</ele>
        <time>2026-03-22T08:03:14Z</time>
      </trkpt>
      <trkpt lat="47.96639" lon="6.99587">
        <ele>1192.1</ele>
        <time>2026-03-22T08:03:19Z</time>
      </trkpt>
      <trkpt lat="47.96633" lon="6.99593">
        <ele>1192.3</ele>
        <time>2026-03-22T08:03:24Z</time>
      </trkpt>
      <trkpt lat="47.96627" lon="6.99599">
        <ele>1192.6</ele>
        <time>2026-03-22T08:03:29Z</time>
      </trkpt>
      <trkpt lat="47.96621" lon="6.99603">
        <ele>1192.7</ele>
        <time>2026-03-22T08:03:34Z</time>
      </trkpt>
      <trkpt lat="47.96617" lon="6.99609">
        <ele>1193.3</ele>
        <time>2026-03-22T08:03:39Z</time>
      </trkpt>
      <trkpt lat="47.96612" lon="6.99612">
        <ele>1193.4</ele>
        <time>2026-03-22T08:03:44Z</time>
      </trkpt>
      <trkpt lat="47.96606" lon="6.99616">
        <ele>1193.6</ele>
        <time>2026-03-22T08:03:49Z</time>
      </trkpt>
      <trkpt lat="47.96602" lon="6.9962">
        <ele>1194</ele>
        <time>2026-03-22T08:03:54Z</time>
      </trkpt>
      <trkpt lat="47.96597" lon="6.99623">
        <ele>1194.3</ele>
        <time>2026-03-22T08:03:59Z</time>
      </trkpt>
      <trkpt lat="47.96592" lon="6.99625">
        <ele>1194.4</ele>
        <time>2026-03-22T08:04:04Z</time>
      </trkpt>
      <trkpt lat="47.96587" lon="6.99629">
        <ele>1194.8</ele>
        <time>2026-03-22T08:04:09Z</time>
      </trkpt>
      <trkpt lat="47.96584" lon="6.99633">
        <ele>1195.4</ele>
        <time>2026-03-22T08:04:14Z</time>
      </trkpt>
      <trkpt lat="47.9658" lon="6.99637">
        <ele>1196</ele>
        <time>2026-03-22T08:04:19Z</time>
      </trkpt>
      <trkpt lat="47.96576" lon="6.9964">
        <ele>1196.5</ele>
        <time>2026-03-22T08:04:24Z</time>
      </trkpt>
      <trkpt lat="47.96573" lon="6.99644">
        <ele>1197.2</ele>
        <time>2026-03-22T08:04:29Z</time>
      </trkpt>
      <trkpt lat="47.96571" lon="6.99647">
        <ele>1197.8</ele>
        <time>2026-03-22T08:04:34Z</time>
      </trkpt>
      <trkpt lat="47.96567" lon="6.9965">
        <ele>1198.4</ele>
        <time>2026-03-22T08:04:39Z</time>
      </trkpt>
      <trkpt lat="47.96562" lon="6.99653">
        <ele>1199</ele>
        <time>2026-03-22T08:04:44Z</time>
      </trkpt>
      <trkpt lat="47.96559" lon="6.99656">
        <ele>1199.6</ele>
        <time>2026-03-22T08:04:49Z</time>
      </trkpt>
      <trkpt lat="47.96556" lon="6.99659">
        <ele>1200.2</ele>
        <time>2026-03-22T08:04:54Z</time>
      </trkpt>
      <trkpt lat="47.96551" lon="6.99664">
        <ele>1201.3</ele>
        <time>2026-03-22T08:04:59Z</time>
      </trkpt>
      <trkpt lat="47.96548" lon="6.99667">
        <ele>1201.9</ele>
        <time>2026-03-22T08:05:04Z</time>
      </trkpt>
      <trkpt lat="47.96545" lon="6.99672">
        <ele>1202.7</ele>
        <time>2026-03-22T08:05:09Z</time>
      </trkpt>
      <trkpt lat="47.96541" lon="6.99675">
        <ele>1203.3</ele>
        <time>2026-03-22T08:05:14Z</time>
      </trkpt>
      <trkpt lat="47.96537" lon="6.99678">
        <ele>1203.8</ele>
        <time>2026-03-22T08:05:19Z</time>
      </trkpt>
      <trkpt lat="47.96534" lon="6.99679">
        <ele>1204</ele>
        <time>2026-03-22T08:05:24Z</time>
      </trkpt>
      <trkpt lat="47.9653" lon="6.99682">
        <ele>1204.6</ele>
        <time>2026-03-22T08:05:29Z</time>
      </trkpt>
      <trkpt lat="47.96526" lon="6.99684">
        <ele>1205</ele>
        <time>2026-03-22T08:05:34Z</time>
      </trkpt>
      <trkpt lat="47.96523" lon="6.99686">
        <ele>1205.4</ele>
        <time>2026-03-22T08:05:39Z</time>
      </trkpt>
      <trkpt lat="47.96519" lon="6.99688">
        <ele>1205.8</ele>
        <time>2026-03-22T08:05:44Z</time>
      </trkpt>
      <trkpt lat="47.96515" lon="6.9969">
        <ele>1206.2</ele>
        <time>2026-03-22T08:05:49Z</time>
      </trkpt>
      <trkpt lat="47.9651" lon="6.99693">
        <ele>1206.8</ele>
        <time>2026-03-22T08:05:54Z</time>
      </trkpt>
      <trkpt lat="47.96506" lon="6.99696">
        <ele>1207.4</ele>
        <time>2026-03-22T08:05:59Z</time>
      </trkpt>
      <trkpt lat="47.96504" lon="6.99699">
        <ele>1207.9</ele>
        <time>2026-03-22T08:06:04Z</time>
      </trkpt>
      <trkpt lat="47.96499" lon="6.99702">
        <ele>1208.5</ele>
        <time>2026-03-22T08:06:09Z</time>
      </trkpt>
      <trkpt lat="47.96494" lon="6.99705">
        <ele>1208.6</ele>
        <time>2026-03-22T08:06:14Z</time>
      </trkpt>
      <trkpt lat="47.9649" lon="6.99708">
        <ele>1208.9</ele>
        <time>2026-03-22T08:06:19Z</time>
      </trkpt>
      <trkpt lat="47.96485" lon="6.99709">
        <ele>1208.8</ele>
        <time>2026-03-22T08:06:24Z</time>
      </trkpt>
      <trkpt lat="47.96481" lon="6.9971">
        <ele>1208.8</ele>
        <time>2026-03-22T08:06:29Z</time>
      </trkpt>
      <trkpt lat="47.96476" lon="6.99711">
        <ele>1208.7</ele>
        <time>2026-03-22T08:06:34Z</time>
      </trkpt>
      <trkpt lat="47.9647" lon="6.99712">
        <ele>1208.5</ele>
        <time>2026-03-22T08:06:39Z</time>
      </trkpt>
      <trkpt lat="47.96465" lon="6.99714">
        <ele>1208.6</ele>
        <time>2026-03-22T08:06:44Z</time>
      </trkpt>
      <trkpt lat="47.9646" lon="6.99716">
        <ele>1208.8</ele>
        <time>2026-03-22T08:06:49Z</time>
      </trkpt>
      <trkpt lat="47.96455" lon="6.99718">
        <ele>1208.9</ele>
        <time>2026-03-22T08:06:54Z</time>
      </trkpt>
      <trkpt lat="47.96449" lon="6.99722">
        <ele>1209.4</ele>
        <time>2026-03-22T08:06:59Z</time>
      </trkpt>
      <trkpt lat="47.96443" lon="6.99724">
        <ele>1209.5</ele>
        <time>2026-03-22T08:07:04Z</time>
      </trkpt>
      <trkpt lat="47.96438" lon="6.99728">
        <ele>1210.1</ele>
        <time>2026-03-22T08:07:09Z</time>
      </trkpt>
      <trkpt lat="47.9643" lon="6.99728">
        <ele>1209.8</ele>
        <time>2026-03-22T08:07:14Z</time>
      </trkpt>
      <trkpt lat="47.96424" lon="6.99731">
        <ele>1210.2</ele>
        <time>2026-03-22T08:07:19Z</time>
      </trkpt>
      <trkpt lat="47.96418" lon="6.99735">
        <ele>1210.8</ele>
        <time>2026-03-22T08:07:24Z</time>
      </trkpt>
      <trkpt lat="47.96411" lon="6.99737">
        <ele>1210.6</ele>
        <time>2026-03-22T08:07:29Z</time>
      </trkpt>
      <trkpt lat="47.96406" lon="6.99739">
        <ele>1210.6</ele>
        <time>2026-03-22T08:07:34Z</time>
      </trkpt>
      <trkpt lat="47.96402" lon="6.99739">
        <ele>1210.2</ele>
        <time>2026-03-22T08:07:39Z</time>
      </trkpt>
      <trkpt lat="47.96396" lon="6.99741">
        <ele>1210</ele>
        <time>2026-03-22T08:07:44Z</time>
      </trkpt>
      <trkpt lat="47.9639" lon="6.9974">
        <ele>1209.2</ele>
        <time>2026-03-22T08:07:49Z</time>
      </trkpt>
      <trkpt lat="47.96382" lon="6.99741">
        <ele>1208.6</ele>
        <time>2026-03-22T08:07:54Z</time>
      </trkpt>
      <trkpt lat="47.96374" lon="6.99745">
        <ele>1208.8</ele>
        <time>2026-03-22T08:07:59Z</time>
      </trkpt>
      <trkpt lat="47.96367" lon="6.99747">
        <ele>1208.5</ele>
        <time>2026-03-22T08:08:04Z</time>
      </trkpt>
      <trkpt lat="47.96363" lon="6.99749">
        <ele>1208.6</ele>
        <time>2026-03-22T08:08:09Z</time>
      </trkpt>
      <trkpt lat="47.96358" lon="6.99753">
        <ele>1208.7</ele>
        <time>2026-03-22T08:08:14Z</time>
      </trkpt>
      <trkpt lat="47.96355" lon="6.99756">
        <ele>1208.7</ele>
        <time>2026-03-22T08:08:19Z</time>
      </trkpt>
      <trkpt lat="47.96354" lon="6.99757">
        <ele>1208.7</ele>
        <time>2026-03-22T08:08:24Z</time>
      </trkpt>
      <trkpt lat="47.96354" lon="6.99757">
        <ele>1208.7</ele>
        <time>2026-03-22T08:08:29Z</time>
      </trkpt>
      <trkpt lat="47.9635" lon="6.99759">
        <ele>1208.5</ele>
        <time>2026-03-22T08:08:34Z</time>
      </trkpt>
      <trkpt lat="47.96347" lon="6.99759">
        <ele>1208.2</ele>
        <time>2026-03-22T08:08:39Z</time>
      </trkpt>
      <trkpt lat="47.96343" lon="6.99763">
        <ele>1208.3</ele>
        <time>2026-03-22T08:08:44Z</time>
      </trkpt>
      <trkpt lat="47.9634" lon="6.99769">
        <ele>1208.7</ele>
        <time>2026-03-22T08:08:49Z</time>
      </trkpt>
      <trkpt lat="47.96334" lon="6.99768">
        <ele>1208</ele>
        <time>2026-03-22T08:08:54Z</time>
      </trkpt>
      <trkpt lat="47.96326" lon="6.9977">
        <ele>1206.3</ele>
        <time>2026-03-22T08:08:59Z</time>
      </trkpt>
      <trkpt lat="47.96318" lon="6.99775">
        <ele>1204.9</ele>
        <time>2026-03-22T08:09:04Z</time>
      </trkpt>
      <trkpt lat="47.96313" lon="6.99778">
        <ele>1204</ele>
        <time>2026-03-22T08:09:09Z</time>
      </trkpt>
      <trkpt lat="47.96308" lon="6.99779">
        <ele>1202.9</ele>
        <time>2026-03-22T08:09:14Z</time>
      </trkpt>
      <trkpt lat="47.96301" lon="6.9978">
        <ele>1201.3</ele>
        <time>2026-03-22T08:09:19Z</time>
      </trkpt>
      <trkpt lat="47.96296" lon="6.99785">
        <ele>1200.7</ele>
        <time>2026-03-22T08:09:24Z</time>
      </trkpt>
      <trkpt lat="47.9629" lon="6.99791">
        <ele>1200</ele>
        <time>2026-03-22T08:09:29Z</time>
      </trkpt>
      <trkpt lat="47.96286" lon="6.99795">
        <ele>1199.6</ele>
        <time>2026-03-22T08:09:34Z</time>
      </trkpt>
      <trkpt lat="47.96279" lon="6.99801">
        <ele>1198.8</ele>
        <time>2026-03-22T08:09:39Z</time>
      </trkpt>
      <trkpt lat="47.96274" lon="6.99805">
        <ele>1198.2</ele>
        <time>2026-03-22T08:09:44Z</time>
      </trkpt>
      <trkpt lat="47.96271" lon="6.99809">
        <ele>1198</ele>
        <time>2026-03-22T08:09:49Z</time>
      </trkpt>
      <trkpt lat="47.96267" lon="6.99816">
        <ele>1198.1</ele>
        <time>2026-03-22T08:09:54Z</time>
      </trkpt>
      <trkpt lat="47.96263" lon="6.99822">
        <ele>1198.1</ele>
        <time>2026-03-22T08:09:59Z</time>
      </trkpt>
      <trkpt lat="47.96258" lon="6.99829">
        <ele>1198.1</ele>
        <time>2026-03-22T08:10:04Z</time>
      </trkpt>
      <trkpt lat="47.96254" lon="6.99836">
        <ele>1198</ele>
        <time>2026-03-22T08:10:09Z</time>
      </trkpt>
      <trkpt lat="47.9625" lon="6.99842">
        <ele>1197.3</ele>
        <time>2026-03-22T08:10:14Z</time>
      </trkpt>
      <trkpt lat="47.96247" lon="6.99849">
        <ele>1196.2</ele>
        <time>2026-03-22T08:10:19Z</time>
      </trkpt>
      <trkpt lat="47.96244" lon="6.99857">
        <ele>1195.1</ele>
        <time>2026-03-22T08:10:24Z</time>
      </trkpt>
      <trkpt lat="47.9624" lon="6.99867">
        <ele>1193.6</ele>
        <time>2026-03-22T08:10:29Z</time>
      </trkpt>
      <trkpt lat="47.96237" lon="6.99876">
        <ele>1192.6</ele>
        <time>2026-03-22T08:10:34Z</time>
      </trkpt>
      <trkpt lat="47.96234" lon="6.99883">
        <ele>1191.5</ele>
        <time>2026-03-22T08:10:39Z</time>
      </trkpt>
      <trkpt lat="47.96232" lon="6.99892">
        <ele>1191</ele>
        <time>2026-03-22T08:10:44Z</time>
      </trkpt>
      <trkpt lat="47.96229" lon="6.999">
        <ele>1190</ele>
        <time>2026-03-22T08:10:49Z</time>
      </trkpt>
      <trkpt lat="47.96225" lon="6.99911">
        <ele>1188.7</ele>
        <time>2026-03-22T08:10:54Z</time>
      </trkpt>
      <trkpt lat="47.96221" lon="6.99918">
        <ele>1187.3</ele>
        <time>2026-03-22T08:10:59Z</time>
      </trkpt>
      <trkpt lat="47.96218" lon="6.99928">
        <ele>1187</ele>
        <time>2026-03-22T08:11:04Z</time>
      </trkpt>
      <trkpt lat="47.9622" lon="6.99932">
        <ele>1188.4</ele>
        <time>2026-03-22T08:11:09Z</time>
      </trkpt>
      <trkpt lat="47.9622" lon="6.99936">
        <ele>1188.8</ele>
        <time>2026-03-22T08:11:14Z</time>
      </trkpt>
      <trkpt lat="47.9622" lon="6.99936">
        <ele>1188.8</ele>
        <time>2026-03-22T08:11:19Z</time>
      </trkpt>
      <trkpt lat="47.9622" lon="6.99936">
        <ele>1188.8</ele>
        <time>2026-03-22T08:11:24Z</time>
      </trkpt>
      <trkpt lat="47.9622" lon="6.99936">
        <ele>1188.8</ele>
        <time>2026-03-22T08:11:29Z</time>
      </trkpt>
      <trkpt lat="47.9622" lon="6.99936">
        <ele>1188.8</ele>
        <time>2026-03-22T08:11:34Z</time>
      </trkpt>
      <trkpt lat="47.96217" lon="6.99941">
        <ele>1188</ele>
        <time>2026-03-22T08:11:39Z</time>
      </trkpt>
      <trkpt lat="47.96213" lon="6.99943">
        <ele>1186.5</ele>
        <time>2026-03-22T08:11:44Z</time>
      </trkpt>
      <trkpt lat="47.96211" lon="6.99948">
        <ele>1186.2</ele>
        <time>2026-03-22T08:11:49Z</time>
      </trkpt>
      <trkpt lat="47.96209" lon="6.99951">
        <ele>1185.7</ele>
        <time>2026-03-22T08:11:54Z</time>
      </trkpt>
      <trkpt lat="47.96208" lon="6.99956">
        <ele>1185.8</ele>
        <time>2026-03-22T08:11:59Z</time>
      </trkpt>
      <trkpt lat="47.96208" lon="6.99961">
        <ele>1186.4</ele>
        <time>2026-03-22T08:12:04Z</time>
      </trkpt>
      <trkpt lat="47.96208" lon="6.99965">
        <ele>1186.9</ele>
        <time>2026-03-22T08:12:09Z</time>
      </trkpt>
      <trkpt lat="47.96206" lon="6.99971">
        <ele>1186.7</ele>
        <time>2026-03-22T08:12:14Z</time>
      </trkpt>
      <trkpt lat="47.96205" lon="6.99977">
        <ele>1187</ele>
        <time>2026-03-22T08:12:19Z</time>
      </trkpt>
      <trkpt lat="47.96206" lon="6.9998">
        <ele>1187.7</ele>
        <time>2026-03-22T08:12:24Z</time>
      </trkpt>
      <trkpt lat="47.96206" lon="6.9998">
        <ele>1187.7</ele>
        <time>2026-03-22T08:12:29Z</time>
      </trkpt>
      <trkpt lat="47.96206" lon="6.9998">
        <ele>1187.7</ele>
        <time>2026-03-22T08:12:34Z</time>
      </trkpt>
      <trkpt lat="47.96207" lon="6.99982">
        <ele>1188.4</ele>
        <time>2026-03-22T08:12:39Z</time>
      </trkpt>
      <trkpt lat="47.96207" lon="6.99987">
        <ele>1189</ele>
        <time>2026-03-22T08:12:44Z</time>
      </trkpt>
      <trkpt lat="47.96207" lon="6.99989">
        <ele>1189.2</ele>
        <time>2026-03-22T08:12:49Z</time>
      </trkpt>
      <trkpt lat="47.96209" lon="6.99991">
        <ele>1190.2</ele>
        <time>2026-03-22T08:12:54Z</time>
      </trkpt>
      <trkpt lat="47.96209" lon="6.99991">
        <ele>1190.2</ele>
        <time>2026-03-22T08:12:59Z</time>
      </trkpt>
      <trkpt lat="47.96209" lon="6.99991">
        <ele>1190.2</ele>
        <time>2026-03-22T08:13:04Z</time>
      </trkpt>
      <trkpt lat="47.96209" lon="6.99991">
        <ele>1190.2</ele>
        <time>2026-03-22T08:13:09Z</time>
      </trkpt>
      <trkpt lat="47.96209" lon="6.99991">
        <ele>1190.2</ele>
        <time>2026-03-22T08:13:14Z</time>
      </trkpt>
      <trkpt lat="47.96209" lon="6.99991">
        <ele>1190.2</ele>
        <time>2026-03-22T08:13:19Z</time>
      </trkpt>
      <trkpt lat="47.96209" lon="6.99991">
        <ele>1190.2</ele>
        <time>2026-03-22T08:13:24Z</time>
      </trkpt>
      <trkpt lat="47.96209" lon="6.99991">
        <ele>1190.2</ele>
        <time>2026-03-22T08:13:29Z</time>
      </trkpt>
      <trkpt lat="47.96209" lon="6.99991">
        <ele>1190.2</ele>
        <time>2026-03-22T08:13:34Z</time>
      </trkpt>
      <trkpt lat="47.96209" lon="6.99991">
        <ele>1190.2</ele>
        <time>2026-03-22T08:13:39Z</time>
      </trkpt>
      <trkpt lat="47.96209" lon="6.99991">
        <ele>1190.2</ele>
        <time>2026-03-22T08:13:44Z</time>
      </trkpt>
      <trkpt lat="47.96205" lon="7">
        <ele>1189.6</ele>
        <time>2026-03-22T08:13:49Z</time>
      </trkpt>
      <trkpt lat="47.96204" lon="7.0001">
        <ele>1190.2</ele>
        <time>2026-03-22T08:13:54Z</time>
      </trkpt>
      <trkpt lat="47.96204" lon="7.00019">
        <ele>1191</ele>
        <time>2026-03-22T08:13:59Z</time>
      </trkpt>
      <trkpt lat="47.96203" lon="7.00029">
        <ele>1191.6</ele>
        <time>2026-03-22T08:14:04Z</time>
      </trkpt>
      <trkpt lat="47.96202" lon="7.00038">
        <ele>1192.1</ele>
        <time>2026-03-22T08:14:09Z</time>
      </trkpt>
      <trkpt lat="47.96202" lon="7.00046">
        <ele>1192.8</ele>
        <time>2026-03-22T08:14:14Z</time>
      </trkpt>
      <trkpt lat="47.96202" lon="7.00054">
        <ele>1193.6</ele>
        <time>2026-03-22T08:14:19Z</time>
      </trkpt>
      <trkpt lat="47.962" lon="7.00066">
        <ele>1194.1</ele>
        <time>2026-03-22T08:14:24Z</time>
      </trkpt>
      <trkpt lat="47.96199" lon="7.00075">
        <ele>1194.6</ele>
        <time>2026-03-22T08:14:29Z</time>
      </trkpt>
      <trkpt lat="47.96197" lon="7.00079">
        <ele>1194.4</ele>
        <time>2026-03-22T08:14:34Z</time>
      </trkpt>
      <trkpt lat="47.96196" lon="7.00081">
        <ele>1194.3</ele>
        <time>2026-03-22T08:14:39Z</time>
      </trkpt>
      <trkpt lat="47.96197" lon="7.00087">
        <ele>1195.4</ele>
        <time>2026-03-22T08:14:44Z</time>
      </trkpt>
      <trkpt lat="47.96195" lon="7.00095">
        <ele>1195.9</ele>
        <time>2026-03-22T08:14:49Z</time>
      </trkpt>
      <trkpt lat="47.96192" lon="7.00104">
        <ele>1196.4</ele>
        <time>2026-03-22T08:14:54Z</time>
      </trkpt>
      <trkpt lat="47.96188" lon="7.00113">
        <ele>1196.6</ele>
        <time>2026-03-22T08:14:59Z</time>
      </trkpt>
      <trkpt lat="47.96184" lon="7.00121">
        <ele>1196.7</ele>
        <time>2026-03-22T08:15:04Z</time>
      </trkpt>
      <trkpt lat="47.96181" lon="7.0013">
        <ele>1197.4</ele>
        <time>2026-03-22T08:15:09Z</time>
      </trkpt>
      <trkpt lat="47.9618" lon="7.00139">
        <ele>1198.6</ele>
        <time>2026-03-22T08:15:14Z</time>
      </trkpt>
      <trkpt lat="47.96175" lon="7.00147">
        <ele>1198.6</ele>
        <time>2026-03-22T08:15:19Z</time>
      </trkpt>
      <trkpt lat="47.96171" lon="7.00154">
        <ele>1198.8</ele>
        <time>2026-03-22T08:15:24Z</time>
      </trkpt>
      <trkpt lat="47.96168" lon="7.00162">
        <ele>1199.5</ele>
        <time>2026-03-22T08:15:29Z</time>
      </trkpt>
      <trkpt lat="47.96162" lon="7.00168">
        <ele>1198.7</ele>
        <time>2026-03-22T08:15:34Z</time>
      </trkpt>
      <trkpt lat="47.96159" lon="7.00176">
        <ele>1199</ele>
        <time>2026-03-22T08:15:39Z</time>
      </trkpt>
      <trkpt lat="47.96155" lon="7.00182">
        <ele>1198.8</ele>
        <time>2026-03-22T08:15:44Z</time>
      </trkpt>
      <trkpt lat="47.96151" lon="7.00188">
        <ele>1198.5</ele>
        <time>2026-03-22T08:15:49Z</time>
      </trkpt>
      <trkpt lat="47.96145" lon="7.00195">
        <ele>1197.9</ele>
        <time>2026-03-22T08:15:54Z</time>
      </trkpt>
      <trkpt lat="47.96139" lon="7.00202">
        <ele>1197.4</ele>
        <time>2026-03-22T08:15:59Z</time>
      </trkpt>
      <trkpt lat="47.96133" lon="7.00209">
        <ele>1196.9</ele>
        <time>2026-03-22T08:16:04Z</time>
      </trkpt>
      <trkpt lat="47.96128" lon="7.00213">
        <ele>1196.2</ele>
        <time>2026-03-22T08:16:09Z</time>
      </trkpt>
      <trkpt lat="47.96124" lon="7.0022">
        <ele>1196.5</ele>
        <time>2026-03-22T08:16:14Z</time>
      </trkpt>
      <trkpt lat="47.96119" lon="7.00226">
        <ele>1196.3</ele>
        <time>2026-03-22T08:16:19Z</time>
      </trkpt>
      <trkpt lat="47.96112" lon="7.00232">
        <ele>1195.6</ele>
        <time>2026-03-22T08:16:24Z</time>
      </trkpt>
      <trkpt lat="47.96105" lon="7.00239">
        <ele>1195.2</ele>
        <time>2026-03-22T08:16:29Z</time>
      </trkpt>
      <trkpt lat="47.96099" lon="7.00245">
        <ele>1194.9</ele>
        <time>2026-03-22T08:16:34Z</time>
      </trkpt>
      <trkpt lat="47.96094" lon="7.00254">
        <ele>1195.3</ele>
        <time>2026-03-22T08:16:39Z</time>
      </trkpt>
      <trkpt lat="47.9609" lon="7.00261">
        <ele>1195.4</ele>
        <time>2026-03-22T08:16:44Z</time>
      </trkpt>
      <trkpt lat="47.96086" lon="7.00269">
        <ele>1195.6</ele>
        <time>2026-03-22T08:16:49Z</time>
      </trkpt>
      <trkpt lat="47.9608" lon="7.00276">
        <ele>1195.2</ele>
        <time>2026-03-22T08:16:54Z</time>
      </trkpt>
      <trkpt lat="47.96075" lon="7.00283">
        <ele>1195.1</ele>
        <time>2026-03-22T08:16:59Z</time>
      </trkpt>
      <trkpt lat="47.9607" lon="7.00289">
        <ele>1194.8</ele>
        <time>2026-03-22T08:17:04Z</time>
      </trkpt>
      <trkpt lat="47.96063" lon="7.00295">
        <ele>1194</ele>
        <time>2026-03-22T08:17:09Z</time>
      </trkpt>
      <trkpt lat="47.96059" lon="7.00302">
        <ele>1194.2</ele>
        <time>2026-03-22T08:17:14Z</time>
      </trkpt>
      <trkpt lat="47.96054" lon="7.00307">
        <ele>1193.9</ele>
        <time>2026-03-22T08:17:19Z</time>
      </trkpt>
      <trkpt lat="47.9605" lon="7.00314">
        <ele>1194.1</ele>
        <time>2026-03-22T08:17:24Z</time>
      </trkpt>
      <trkpt lat="47.96045" lon="7.00321">
        <ele>1194.1</ele>
        <time>2026-03-22T08:17:29Z</time>
      </trkpt>
      <trkpt lat="47.9604" lon="7.00328">
        <ele>1194.2</ele>
        <time>2026-03-22T08:17:34Z</time>
      </trkpt>
      <trkpt lat="47.96034" lon="7.00335">
        <ele>1193.9</ele>
        <time>2026-03-22T08:17:39Z</time>
      </trkpt>
      <trkpt lat="47.9603" lon="7.00342">
        <ele>1193.8</ele>
        <time>2026-03-22T08:17:44Z</time>
      </trkpt>
      <trkpt lat="47.96025" lon="7.00348">
        <ele>1193.3</ele>
        <time>2026-03-22T08:17:49Z</time>
      </trkpt>
      <trkpt lat="47.96022" lon="7.00355">
        <ele>1193.5</ele>
        <time>2026-03-22T08:17:54Z</time>
      </trkpt>
      <trkpt lat="47.96016" lon="7.00362">
        <ele>1193.2</ele>
        <time>2026-03-22T08:17:59Z</time>
      </trkpt>
      <trkpt lat="47.96011" lon="7.00369">
        <ele>1193.1</ele>
        <time>2026-03-22T08:18:04Z</time>
      </trkpt>
      <trkpt lat="47.96006" lon="7.00377">
        <ele>1193.3</ele>
        <time>2026-03-22T08:18:09Z</time>
      </trkpt>
      <trkpt lat="47.96002" lon="7.00385">
        <ele>1193.8</ele>
        <time>2026-03-22T08:18:14Z</time>
      </trkpt>
      <trkpt lat="47.95997" lon="7.00392">
        <ele>1194.2</ele>
        <time>2026-03-22T08:18:19Z</time>
      </trkpt>
      <trkpt lat="47.95994" lon="7.00399">
        <ele>1195</ele>
        <time>2026-03-22T08:18:24Z</time>
      </trkpt>
      <trkpt lat="47.9599" lon="7.0041">
        <ele>1196.4</ele>
        <time>2026-03-22T08:18:29Z</time>
      </trkpt>
      <trkpt lat="47.95985" lon="7.00417">
        <ele>1197.1</ele>
        <time>2026-03-22T08:18:34Z</time>
      </trkpt>
      <trkpt lat="47.95982" lon="7.00424">
        <ele>1197.6</ele>
        <time>2026-03-22T08:18:39Z</time>
      </trkpt>
      <trkpt lat="47.95978" lon="7.00431">
        <ele>1198</ele>
        <time>2026-03-22T08:18:44Z</time>
      </trkpt>
      <trkpt lat="47.95973" lon="7.00438">
        <ele>1198.4</ele>
        <time>2026-03-22T08:18:49Z</time>
      </trkpt>
      <trkpt lat="47.95967" lon="7.00445">
        <ele>1198.9</ele>
        <time>2026-03-22T08:18:54Z</time>
      </trkpt>
      <trkpt lat="47.95962" lon="7.00453">
        <ele>1199.5</ele>
        <time>2026-03-22T08:18:59Z</time>
      </trkpt>
      <trkpt lat="47.95958" lon="7.00458">
        <ele>1200</ele>
        <time>2026-03-22T08:19:04Z</time>
      </trkpt>
      <trkpt lat="47.95952" lon="7.0046">
        <ele>1200</ele>
        <time>2026-03-22T08:19:09Z</time>
      </trkpt>
      <trkpt lat="47.95947" lon="7.00464">
        <ele>1200.4</ele>
        <time>2026-03-22T08:19:14Z</time>
      </trkpt>
      <trkpt lat="47.95941" lon="7.0047">
        <ele>1201</ele>
        <time>2026-03-22T08:19:19Z</time>
      </trkpt>
      <trkpt lat="47.95935" lon="7.00473">
        <ele>1201.3</ele>
        <time>2026-03-22T08:19:24Z</time>
      </trkpt>
      <trkpt lat="47.95931" lon="7.00476">
        <ele>1201.7</ele>
        <time>2026-03-22T08:19:29Z</time>
      </trkpt>
      <trkpt lat="47.95927" lon="7.00479">
        <ele>1202</ele>
        <time>2026-03-22T08:19:34Z</time>
      </trkpt>
      <trkpt lat="47.95922" lon="7.00483">
        <ele>1202.6</ele>
        <time>2026-03-22T08:19:39Z</time>
      </trkpt>
      <trkpt lat="47.95919" lon="7.00486">
        <ele>1203</ele>
        <time>2026-03-22T08:19:44Z</time>
      </trkpt>
      <trkpt lat="47.95914" lon="7.00489">
        <ele>1203.1</ele>
        <time>2026-03-22T08:19:49Z</time>
      </trkpt>
      <trkpt lat="47.95909" lon="7.00491">
        <ele>1202.8</ele>
        <time>2026-03-22T08:19:54Z</time>
      </trkpt>
      <trkpt lat="47.95906" lon="7.00489">
        <ele>1202.2</ele>
        <time>2026-03-22T08:19:59Z</time>
      </trkpt>
      <trkpt lat="47.95903" lon="7.00487">
        <ele>1201.5</ele>
        <time>2026-03-22T08:20:04Z</time>
      </trkpt>
      <trkpt lat="47.95899" lon="7.00484">
        <ele>1200.6</ele>
        <time>2026-03-22T08:20:09Z</time>
      </trkpt>
      <trkpt lat="47.95895" lon="7.00483">
        <ele>1200</ele>
        <time>2026-03-22T08:20:14Z</time>
      </trkpt>
      <trkpt lat="47.95891" lon="7.00484">
        <ele>1199.7</ele>
        <time>2026-03-22T08:20:19Z</time>
      </trkpt>
      <trkpt lat="47.95887" lon="7.00484">
        <ele>1199.2</ele>
        <time>2026-03-22T08:20:24Z</time>
      </trkpt>
      <trkpt lat="47.95884" lon="7.00485">
        <ele>1199</ele>
        <time>2026-03-22T08:20:29Z</time>
      </trkpt>
      <trkpt lat="47.95879" lon="7.00485">
        <ele>1198.4</ele>
        <time>2026-03-22T08:20:34Z</time>
      </trkpt>
      <trkpt lat="47.95872" lon="7.00486">
        <ele>1197.8</ele>
        <time>2026-03-22T08:20:39Z</time>
      </trkpt>
      <trkpt lat="47.95867" lon="7.00487">
        <ele>1197.4</ele>
        <time>2026-03-22T08:20:44Z</time>
      </trkpt>
      <trkpt lat="47.9586" lon="7.00488">
        <ele>1196.8</ele>
        <time>2026-03-22T08:20:49Z</time>
      </trkpt>
      <trkpt lat="47.95854" lon="7.0049">
        <ele>1196.4</ele>
        <time>2026-03-22T08:20:54Z</time>
      </trkpt>
      <trkpt lat="47.95849" lon="7.00489">
        <ele>1195.7</ele>
        <time>2026-03-22T08:20:59Z</time>
      </trkpt>
      <trkpt lat="47.95849" lon="7.00489">
        <ele>1195.7</ele>
        <time>2026-03-22T08:21:04Z</time>
      </trkpt>
      <trkpt lat="47.95846" lon="7.00488">
        <ele>1195.2</ele>
        <time>2026-03-22T08:21:09Z</time>
      </trkpt>
      <trkpt lat="47.95842" lon="7.00486">
        <ele>1194.3</ele>
        <time>2026-03-22T08:21:14Z</time>
      </trkpt>
      <trkpt lat="47.9584" lon="7.00486">
        <ele>1194.1</ele>
        <time>2026-03-22T08:21:19Z</time>
      </trkpt>
      <trkpt lat="47.95838" lon="7.00486">
        <ele>1193.9</ele>
        <time>2026-03-22T08:21:24Z</time>
      </trkpt>
      <trkpt lat="47.95835" lon="7.00485">
        <ele>1193.3</ele>
        <time>2026-03-22T08:21:29Z</time>
      </trkpt>
      <trkpt lat="47.95833" lon="7.00485">
        <ele>1193</ele>
        <time>2026-03-22T08:21:34Z</time>
      </trkpt>
      <trkpt lat="47.95831" lon="7.00487">
        <ele>1193</ele>
        <time>2026-03-22T08:21:39Z</time>
      </trkpt>
      <trkpt lat="47.95831" lon="7.00487">
        <ele>1193</ele>
        <time>2026-03-22T08:21:44Z</time>
      </trkpt>
      <trkpt lat="47.95831" lon="7.00487">
        <ele>1193</ele>
        <time>2026-03-22T08:21:49Z</time>
      </trkpt>
      <trkpt lat="47.95831" lon="7.00487">
        <ele>1193</ele>
        <time>2026-03-22T08:21:54Z</time>
      </trkpt>
      <trkpt lat="47.95831" lon="7.00487">
        <ele>1193</ele>
        <time>2026-03-22T08:21:59Z</time>
      </trkpt>
      <trkpt lat="47.95831" lon="7.00487">
        <ele>1193</ele>
        <time>2026-03-22T08:22:04Z</time>
      </trkpt>
      <trkpt lat="47.95831" lon="7.00487">
        <ele>1193</ele>
        <time>2026-03-22T08:22:09Z</time>
      </trkpt>
      <trkpt lat="47.95831" lon="7.00487">
        <ele>1193</ele>
        <time>2026-03-22T08:22:14Z</time>
      </trkpt>
      <trkpt lat="47.95822" lon="7.00496">
        <ele>1192.9</ele>
        <time>2026-03-22T08:22:19Z</time>
      </trkpt>
      <trkpt lat="47.95817" lon="7.00499">
        <ele>1192.5</ele>
        <time>2026-03-22T08:22:24Z</time>
      </trkpt>
      <trkpt lat="47.95812" lon="7.00501">
        <ele>1191.8</ele>
        <time>2026-03-22T08:22:29Z</time>
      </trkpt>
      <trkpt lat="47.95806" lon="7.00505">
        <ele>1191.2</ele>
        <time>2026-03-22T08:22:34Z</time>
      </trkpt>
      <trkpt lat="47.95801" lon="7.0051">
        <ele>1191</ele>
        <time>2026-03-22T08:22:39Z</time>
      </trkpt>
      <trkpt lat="47.95796" lon="7.00512">
        <ele>1190.3</ele>
        <time>2026-03-22T08:22:44Z</time>
      </trkpt>
      <trkpt lat="47.95792" lon="7.00515">
        <ele>1190.1</ele>
        <time>2026-03-22T08:22:49Z</time>
      </trkpt>
      <trkpt lat="47.95789" lon="7.00516">
        <ele>1189.7</ele>
        <time>2026-03-22T08:22:54Z</time>
      </trkpt>
      <trkpt lat="47.95785" lon="7.00517">
        <ele>1189.1</ele>
        <time>2026-03-22T08:22:59Z</time>
      </trkpt>
      <trkpt lat="47.95779" lon="7.00517">
        <ele>1188</ele>
        <time>2026-03-22T08:23:04Z</time>
      </trkpt>
      <trkpt lat="47.95773" lon="7.00519">
        <ele>1187.3</ele>
        <time>2026-03-22T08:23:09Z</time>
      </trkpt>
      <trkpt lat="47.95767" lon="7.00521">
        <ele>1186.6</ele>
        <time>2026-03-22T08:23:14Z</time>
      </trkpt>
      <trkpt lat="47.95763" lon="7.00524">
        <ele>1186.5</ele>
        <time>2026-03-22T08:23:19Z</time>
      </trkpt>
      <trkpt lat="47.95759" lon="7.00527">
        <ele>1186.4</ele>
        <time>2026-03-22T08:23:24Z</time>
      </trkpt>
      <trkpt lat="47.95754" lon="7.00532">
        <ele>1186.6</ele>
        <time>2026-03-22T08:23:29Z</time>
      </trkpt>
      <trkpt lat="47.95749" lon="7.00535">
        <ele>1186.5</ele>
        <time>2026-03-22T08:23:34Z</time>
      </trkpt>
      <trkpt lat="47.95744" lon="7.0054">
        <ele>1187</ele>
        <time>2026-03-22T08:23:39Z</time>
      </trkpt>
      <trkpt lat="47.95741" lon="7.00546">
        <ele>1188.1</ele>
        <time>2026-03-22T08:23:44Z</time>
      </trkpt>
      <trkpt lat="47.95737" lon="7.0055">
        <ele>1188.6</ele>
        <time>2026-03-22T08:23:49Z</time>
      </trkpt>
      <trkpt lat="47.95732" lon="7.00553">
        <ele>1188.8</ele>
        <time>2026-03-22T08:23:54Z</time>
      </trkpt>
      <trkpt lat="47.95727" lon="7.00558">
        <ele>1189.6</ele>
        <time>2026-03-22T08:23:59Z</time>
      </trkpt>
      <trkpt lat="47.95722" lon="7.00561">
        <ele>1189.9</ele>
        <time>2026-03-22T08:24:04Z</time>
      </trkpt>
      <trkpt lat="47.95718" lon="7.00563">
        <ele>1190</ele>
        <time>2026-03-22T08:24:09Z</time>
      </trkpt>
      <trkpt lat="47.95713" lon="7.00567">
        <ele>1190.6</ele>
        <time>2026-03-22T08:24:14Z</time>
      </trkpt>
      <trkpt lat="47.95709" lon="7.00572">
        <ele>1191.6</ele>
        <time>2026-03-22T08:24:19Z</time>
      </trkpt>
      <trkpt lat="47.95704" lon="7.00577">
        <ele>1192.6</ele>
        <time>2026-03-22T08:24:24Z</time>
      </trkpt>
      <trkpt lat="47.95698" lon="7.00578">
        <ele>1192.4</ele>
        <time>2026-03-22T08:24:29Z</time>
      </trkpt>
      <trkpt lat="47.95694" lon="7.00583">
        <ele>1193.5</ele>
        <time>2026-03-22T08:24:34Z</time>
      </trkpt>
      <trkpt lat="47.95689" lon="7.00587">
        <ele>1194.1</ele>
        <time>2026-03-22T08:24:39Z</time>
      </trkpt>
      <trkpt lat="47.95683" lon="7.00589">
        <ele>1194.1</ele>
        <time>2026-03-22T08:24:44Z</time>
      </trkpt>
      <trkpt lat="47.95679" lon="7.00591">
        <ele>1194.2</ele>
        <time>2026-03-22T08:24:49Z</time>
      </trkpt>
      <trkpt lat="47.95673" lon="7.00596">
        <ele>1194.8</ele>
        <time>2026-03-22T08:24:54Z</time>
      </trkpt>
      <trkpt lat="47.95667" lon="7.00599">
        <ele>1195</ele>
        <time>2026-03-22T08:24:59Z</time>
      </trkpt>
      <trkpt lat="47.95661" lon="7.00602">
        <ele>1194.2</ele>
        <time>2026-03-22T08:25:04Z</time>
      </trkpt>
      <trkpt lat="47.95656" lon="7.00605">
        <ele>1193.5</ele>
        <time>2026-03-22T08:25:09Z</time>
      </trkpt>
      <trkpt lat="47.9565" lon="7.00607">
        <ele>1192.3</ele>
        <time>2026-03-22T08:25:14Z</time>
      </trkpt>
      <trkpt lat="47.95645" lon="7.00607">
        <ele>1191.1</ele>
        <time>2026-03-22T08:25:19Z</time>
      </trkpt>
      <trkpt lat="47.95639" lon="7.00609">
        <ele>1189.9</ele>
        <time>2026-03-22T08:25:24Z</time>
      </trkpt>
      <trkpt lat="47.95634" lon="7.0061">
        <ele>1188.8</ele>
        <time>2026-03-22T08:25:29Z</time>
      </trkpt>
      <trkpt lat="47.95628" lon="7.00611">
        <ele>1187.4</ele>
        <time>2026-03-22T08:25:34Z</time>
      </trkpt>
      <trkpt lat="47.95624" lon="7.00613">
        <ele>1186.7</ele>
        <time>2026-03-22T08:25:39Z</time>
      </trkpt>
      <trkpt lat="47.95618" lon="7.00615">
        <ele>1185.4</ele>
        <time>2026-03-22T08:25:44Z</time>
      </trkpt>
      <trkpt lat="47.95612" lon="7.00615">
        <ele>1183.9</ele>
        <time>2026-03-22T08:25:49Z</time>
      </trkpt>
      <trkpt lat="47.95606" lon="7.00617">
        <ele>1182.6</ele>
        <time>2026-03-22T08:25:54Z</time>
      </trkpt>
      <trkpt lat="47.95599" lon="7.00619">
        <ele>1181</ele>
        <time>2026-03-22T08:25:59Z</time>
      </trkpt>
      <trkpt lat="47.95594" lon="7.00622">
        <ele>1180</ele>
        <time>2026-03-22T08:26:04Z</time>
      </trkpt>
      <trkpt lat="47.95588" lon="7.00623">
        <ele>1178.5</ele>
        <time>2026-03-22T08:26:09Z</time>
      </trkpt>
      <trkpt lat="47.95583" lon="7.00626">
        <ele>1177.5</ele>
        <time>2026-03-22T08:26:14Z</time>
      </trkpt>
      <trkpt lat="47.95577" lon="7.0063">
        <ele>1175.1</ele>
        <time>2026-03-22T08:26:19Z</time>
      </trkpt>
      <trkpt lat="47.95572" lon="7.00633">
        <ele>1173</ele>
        <time>2026-03-22T08:26:24Z</time>
      </trkpt>
      <trkpt lat="47.95566" lon="7.00638">
        <ele>1170.7</ele>
        <time>2026-03-22T08:26:29Z</time>
      </trkpt>
      <trkpt lat="47.95561" lon="7.00646">
        <ele>1169</ele>
        <time>2026-03-22T08:26:34Z</time>
      </trkpt>
      <trkpt lat="47.95558" lon="7.00652">
        <ele>1168.2</ele>
        <time>2026-03-22T08:26:39Z</time>
      </trkpt>
      <trkpt lat="47.95554" lon="7.00656">
        <ele>1166.6</ele>
        <time>2026-03-22T08:26:44Z</time>
      </trkpt>
      <trkpt lat="47.9555" lon="7.00662">
        <ele>1165.2</ele>
        <time>2026-03-22T08:26:49Z</time>
      </trkpt>
      <trkpt lat="47.95546" lon="7.0067">
        <ele>1163.9</ele>
        <time>2026-03-22T08:26:54Z</time>
      </trkpt>
      <trkpt lat="47.95544" lon="7.00678">
        <ele>1163.5</ele>
        <time>2026-03-22T08:26:59Z</time>
      </trkpt>
      <trkpt lat="47.95541" lon="7.00687">
        <ele>1162.8</ele>
        <time>2026-03-22T08:27:04Z</time>
      </trkpt>
      <trkpt lat="47.95537" lon="7.00697">
        <ele>1161.5</ele>
        <time>2026-03-22T08:27:09Z</time>
      </trkpt>
      <trkpt lat="47.95533" lon="7.00705">
        <ele>1160.2</ele>
        <time>2026-03-22T08:27:14Z</time>
      </trkpt>
      <trkpt lat="47.95531" lon="7.00713">
        <ele>1159.8</ele>
        <time>2026-03-22T08:27:19Z</time>
      </trkpt>
      <trkpt lat="47.95527" lon="7.00722">
        <ele>1158.5</ele>
        <time>2026-03-22T08:27:24Z</time>
      </trkpt>
      <trkpt lat="47.95524" lon="7.00731">
        <ele>1157.7</ele>
        <time>2026-03-22T08:27:29Z</time>
      </trkpt>
      <trkpt lat="47.95522" lon="7.0074">
        <ele>1157.3</ele>
        <time>2026-03-22T08:27:34Z</time>
      </trkpt>
      <trkpt lat="47.95521" lon="7.00749">
        <ele>1157.5</ele>
        <time>2026-03-22T08:27:39Z</time>
      </trkpt>
      <trkpt lat="47.95519" lon="7.00757">
        <ele>1157</ele>
        <time>2026-03-22T08:27:44Z</time>
      </trkpt>
      <trkpt lat="47.95517" lon="7.00766">
        <ele>1156.6</ele>
        <time>2026-03-22T08:27:49Z</time>
      </trkpt>
      <trkpt lat="47.95517" lon="7.00776">
        <ele>1157.3</ele>
        <time>2026-03-22T08:27:54Z</time>
      </trkpt>
      <trkpt lat="47.95514" lon="7.00783">
        <ele>1156.2</ele>
        <time>2026-03-22T08:27:59Z</time>
      </trkpt>
      <trkpt lat="47.95512" lon="7.00793">
        <ele>1155.8</ele>
        <time>2026-03-22T08:28:04Z</time>
      </trkpt>
      <trkpt lat="47.9551" lon="7.00796">
        <ele>1154.9</ele>
        <time>2026-03-22T08:28:09Z</time>
      </trkpt>
      <trkpt lat="47.95508" lon="7.00799">
        <ele>1154.1</ele>
        <time>2026-03-22T08:28:14Z</time>
      </trkpt>
      <trkpt lat="47.95507" lon="7.00803">
        <ele>1153.8</ele>
        <time>2026-03-22T08:28:19Z</time>
      </trkpt>
      <trkpt lat="47.95507" lon="7.00808">
        <ele>1154.1</ele>
        <time>2026-03-22T08:28:24Z</time>
      </trkpt>
      <trkpt lat="47.95506" lon="7.00814">
        <ele>1154</ele>
        <time>2026-03-22T08:28:29Z</time>
      </trkpt>
      <trkpt lat="47.95506" lon="7.00817">
        <ele>1154.2</ele>
        <time>2026-03-22T08:28:34Z</time>
      </trkpt>
      <trkpt lat="47.95506" lon="7.0082">
        <ele>1154.3</ele>
        <time>2026-03-22T08:28:39Z</time>
      </trkpt>
      <trkpt lat="47.95506" lon="7.00825">
        <ele>1154.7</ele>
        <time>2026-03-22T08:28:44Z</time>
      </trkpt>
      <trkpt lat="47.95504" lon="7.0083">
        <ele>1153.9</ele>
        <time>2026-03-22T08:28:49Z</time>
      </trkpt>
      <trkpt lat="47.95501" lon="7.00836">
        <ele>1152.7</ele>
        <time>2026-03-22T08:28:54Z</time>
      </trkpt>
      <trkpt lat="47.95501" lon="7.00841">
        <ele>1152.9</ele>
        <time>2026-03-22T08:28:59Z</time>
      </trkpt>
      <trkpt lat="47.955" lon="7.00848">
        <ele>1152.7</ele>
        <time>2026-03-22T08:29:04Z</time>
      </trkpt>
      <trkpt lat="47.95502" lon="7.00855">
        <ele>1154.1</ele>
        <time>2026-03-22T08:29:09Z</time>
      </trkpt>
      <trkpt lat="47.95504" lon="7.00859">
        <ele>1155.4</ele>
        <time>2026-03-22T08:29:14Z</time>
      </trkpt>
      <trkpt lat="47.95501" lon="7.00871">
        <ele>1154.3</ele>
        <time>2026-03-22T08:29:20Z</time>
      </trkpt>
      <trkpt lat="47.95496" lon="7.00878">
        <ele>1152.1</ele>
        <time>2026-03-22T08:29:25Z</time>
      </trkpt>
      <trkpt lat="47.95496" lon="7.00888">
        <ele>1152.5</ele>
        <time>2026-03-22T08:29:30Z</time>
      </trkpt>
      <trkpt lat="47.95495" lon="7.00899">
        <ele>1152.5</ele>
        <time>2026-03-22T08:29:35Z</time>
      </trkpt>
      <trkpt lat="47.95495" lon="7.00908">
        <ele>1153</ele>
        <time>2026-03-22T08:29:40Z</time>
      </trkpt>
      <trkpt lat="47.95494" lon="7.00918">
        <ele>1152.9</ele>
        <time>2026-03-22T08:29:45Z</time>
      </trkpt>
      <trkpt lat="47.95494" lon="7.00928">
        <ele>1153.5</ele>
        <time>2026-03-22T08:29:50Z</time>
      </trkpt>
      <trkpt lat="47.95495" lon="7.00938">
        <ele>1154.6</ele>
        <time>2026-03-22T08:29:55Z</time>
      </trkpt>
      <trkpt lat="47.95493" lon="7.00947">
        <ele>1154.1</ele>
        <time>2026-03-22T08:30:00Z</time>
      </trkpt>
      <trkpt lat="47.95493" lon="7.00957">
        <ele>1154.7</ele>
        <time>2026-03-22T08:30:05Z</time>
      </trkpt>
      <trkpt lat="47.95491" lon="7.00965">
        <ele>1154.1</ele>
        <time>2026-03-22T08:30:10Z</time>
      </trkpt>
      <trkpt lat="47.95489" lon="7.00973">
        <ele>1153.5</ele>
        <time>2026-03-22T08:30:15Z</time>
      </trkpt>
      <trkpt lat="47.95488" lon="7.0098">
        <ele>1153.4</ele>
        <time>2026-03-22T08:30:20Z</time>
      </trkpt>
      <trkpt lat="47.95487" lon="7.0099">
        <ele>1153.4</ele>
        <time>2026-03-22T08:30:25Z</time>
      </trkpt>
      <trkpt lat="47.95486" lon="7.00999">
        <ele>1153.4</ele>
        <time>2026-03-22T08:30:30Z</time>
      </trkpt>
      <trkpt lat="47.95484" lon="7.0101">
        <ele>1152.9</ele>
        <time>2026-03-22T08:30:35Z</time>
      </trkpt>
      <trkpt lat="47.95484" lon="7.0102">
        <ele>1153.4</ele>
        <time>2026-03-22T08:30:40Z</time>
      </trkpt>
      <trkpt lat="47.95484" lon="7.0103">
        <ele>1153.9</ele>
        <time>2026-03-22T08:30:45Z</time>
      </trkpt>
      <trkpt lat="47.95483" lon="7.0104">
        <ele>1153.8</ele>
        <time>2026-03-22T08:30:50Z</time>
      </trkpt>
      <trkpt lat="47.9548" lon="7.01051">
        <ele>1152.8</ele>
        <time>2026-03-22T08:30:55Z</time>
      </trkpt>
      <trkpt lat="47.95479" lon="7.01061">
        <ele>1152.8</ele>
        <time>2026-03-22T08:31:00Z</time>
      </trkpt>
      <trkpt lat="47.95479" lon="7.01069">
        <ele>1153.2</ele>
        <time>2026-03-22T08:31:05Z</time>
      </trkpt>
      <trkpt lat="47.95477" lon="7.0108">
        <ele>1152.7</ele>
        <time>2026-03-22T08:31:10Z</time>
      </trkpt>
      <trkpt lat="47.95473" lon="7.01091">
        <ele>1151.5</ele>
        <time>2026-03-22T08:31:15Z</time>
      </trkpt>
      <trkpt lat="47.95471" lon="7.011">
        <ele>1151.4</ele>
        <time>2026-03-22T08:31:20Z</time>
      </trkpt>
      <trkpt lat="47.95469" lon="7.01109">
        <ele>1151.3</ele>
        <time>2026-03-22T08:31:25Z</time>
      </trkpt>
      <trkpt lat="47.95467" lon="7.01117">
        <ele>1151.1</ele>
        <time>2026-03-22T08:31:30Z</time>
      </trkpt>
      <trkpt lat="47.95465" lon="7.01124">
        <ele>1150.8</ele>
        <time>2026-03-22T08:31:35Z</time>
      </trkpt>
      <trkpt lat="47.95462" lon="7.01134">
        <ele>1150.4</ele>
        <time>2026-03-22T08:31:40Z</time>
      </trkpt>
      <trkpt lat="47.9546" lon="7.01143">
        <ele>1150.3</ele>
        <time>2026-03-22T08:31:45Z</time>
      </trkpt>
      <trkpt lat="47.95459" lon="7.01155">
        <ele>1151.1</ele>
        <time>2026-03-22T08:31:50Z</time>
      </trkpt>
      <trkpt lat="47.95457" lon="7.01165">
        <ele>1151.1</ele>
        <time>2026-03-22T08:31:55Z</time>
      </trkpt>
      <trkpt lat="47.95455" lon="7.01174">
        <ele>1151.1</ele>
        <time>2026-03-22T08:32:00Z</time>
      </trkpt>
      <trkpt lat="47.95452" lon="7.01184">
        <ele>1150.7</ele>
        <time>2026-03-22T08:32:05Z</time>
      </trkpt>
      <trkpt lat="47.9545" lon="7.01192">
        <ele>1150.7</ele>
        <time>2026-03-22T08:32:10Z</time>
      </trkpt>
      <trkpt lat="47.95448" lon="7.012">
        <ele>1150.6</ele>
        <time>2026-03-22T08:32:15Z</time>
      </trkpt>
      <trkpt lat="47.95446" lon="7.0121">
        <ele>1150.9</ele>
        <time>2026-03-22T08:32:20Z</time>
      </trkpt>
      <trkpt lat="47.95444" lon="7.01221">
        <ele>1151.3</ele>
        <time>2026-03-22T08:32:25Z</time>
      </trkpt>
      <trkpt lat="47.95442" lon="7.01232">
        <ele>1151.8</ele>
        <time>2026-03-22T08:32:30Z</time>
      </trkpt>
      <trkpt lat="47.95439" lon="7.0124">
        <ele>1151.6</ele>
        <time>2026-03-22T08:32:35Z</time>
      </trkpt>
      <trkpt lat="47.95436" lon="7.01248">
        <ele>1151.4</ele>
        <time>2026-03-22T08:32:40Z</time>
      </trkpt>
      <trkpt lat="47.95433" lon="7.01259">
        <ele>1151.5</ele>
        <time>2026-03-22T08:32:45Z</time>
      </trkpt>
      <trkpt lat="47.95428" lon="7.0127">
        <ele>1150.9</ele>
        <time>2026-03-22T08:32:50Z</time>
      </trkpt>
      <trkpt lat="47.95426" lon="7.01281">
        <ele>1151.5</ele>
        <time>2026-03-22T08:32:55Z</time>
      </trkpt>
      <trkpt lat="47.95422" lon="7.01291">
        <ele>1151.3</ele>
        <time>2026-03-22T08:33:00Z</time>
      </trkpt>
      <trkpt lat="47.95419" lon="7.01302">
        <ele>1151.6</ele>
        <time>2026-03-22T08:33:05Z</time>
      </trkpt>
      <trkpt lat="47.95416" lon="7.0131">
        <ele>1151.7</ele>
        <time>2026-03-22T08:33:10Z</time>
      </trkpt>
      <trkpt lat="47.95413" lon="7.01319">
        <ele>1152.2</ele>
        <time>2026-03-22T08:33:15Z</time>
      </trkpt>
      <trkpt lat="47.9541" lon="7.01329">
        <ele>1152.9</ele>
        <time>2026-03-22T08:33:20Z</time>
      </trkpt>
      <trkpt lat="47.95407" lon="7.01339">
        <ele>1153.6</ele>
        <time>2026-03-22T08:33:25Z</time>
      </trkpt>
      <trkpt lat="47.95405" lon="7.01349">
        <ele>1154.7</ele>
        <time>2026-03-22T08:33:30Z</time>
      </trkpt>
      <trkpt lat="47.95403" lon="7.01355">
        <ele>1155.2</ele>
        <time>2026-03-22T08:33:35Z</time>
      </trkpt>
      <trkpt lat="47.95403" lon="7.01358">
        <ele>1155.6</ele>
        <time>2026-03-22T08:33:40Z</time>
      </trkpt>
      <trkpt lat="47.95404" lon="7.01358">
        <ele>1155.8</ele>
        <time>2026-03-22T08:33:45Z</time>
      </trkpt>
      <trkpt lat="47.95401" lon="7.01364">
        <ele>1156.2</ele>
        <time>2026-03-22T08:33:50Z</time>
      </trkpt>
      <trkpt lat="47.954" lon="7.01371">
        <ele>1157.1</ele>
        <time>2026-03-22T08:33:55Z</time>
      </trkpt>
      <trkpt lat="47.95398" lon="7.0138">
        <ele>1158.2</ele>
        <time>2026-03-22T08:34:00Z</time>
      </trkpt>
      <trkpt lat="47.95396" lon="7.01386">
        <ele>1158.8</ele>
        <time>2026-03-22T08:34:05Z</time>
      </trkpt>
      <trkpt lat="47.95398" lon="7.01386">
        <ele>1159.1</ele>
        <time>2026-03-22T08:34:10Z</time>
      </trkpt>
      <trkpt lat="47.95398" lon="7.01387">
        <ele>1159.3</ele>
        <time>2026-03-22T08:34:15Z</time>
      </trkpt>
      <trkpt lat="47.95395" lon="7.01399">
        <ele>1160.8</ele>
        <time>2026-03-22T08:34:20Z</time>
      </trkpt>
      <trkpt lat="47.95392" lon="7.01409">
        <ele>1162.1</ele>
        <time>2026-03-22T08:34:25Z</time>
      </trkpt>
      <trkpt lat="47.95391" lon="7.01418">
        <ele>1163.4</ele>
        <time>2026-03-22T08:34:30Z</time>
      </trkpt>
      <trkpt lat="47.95389" lon="7.01428">
        <ele>1164.2</ele>
        <time>2026-03-22T08:34:35Z</time>
      </trkpt>
      <trkpt lat="47.95388" lon="7.01439">
        <ele>1165.3</ele>
        <time>2026-03-22T08:34:40Z</time>
      </trkpt>
      <trkpt lat="47.95385" lon="7.0145">
        <ele>1166.3</ele>
        <time>2026-03-22T08:34:45Z</time>
      </trkpt>
      <trkpt lat="47.95382" lon="7.01461">
        <ele>1167.3</ele>
        <time>2026-03-22T08:34:50Z</time>
      </trkpt>
      <trkpt lat="47.9538" lon="7.01472">
        <ele>1168.4</ele>
        <time>2026-03-22T08:34:55Z</time>
      </trkpt>
      <trkpt lat="47.95379" lon="7.01482">
        <ele>1169.5</ele>
        <time>2026-03-22T08:35:00Z</time>
      </trkpt>
      <trkpt lat="47.95377" lon="7.01493">
        <ele>1170.7</ele>
        <time>2026-03-22T08:35:05Z</time>
      </trkpt>
      <trkpt lat="47.95377" lon="7.01504">
        <ele>1171.9</ele>
        <time>2026-03-22T08:35:10Z</time>
      </trkpt>
      <trkpt lat="47.95375" lon="7.01516">
        <ele>1172.7</ele>
        <time>2026-03-22T08:35:15Z</time>
      </trkpt>
      <trkpt lat="47.95372" lon="7.01525">
        <ele>1173.4</ele>
        <time>2026-03-22T08:35:20Z</time>
      </trkpt>
      <trkpt lat="47.95369" lon="7.01535">
        <ele>1174.2</ele>
        <time>2026-03-22T08:35:25Z</time>
      </trkpt>
      <trkpt lat="47.95366" lon="7.01543">
        <ele>1174.9</ele>
        <time>2026-03-22T08:35:30Z</time>
      </trkpt>
      <trkpt lat="47.95365" lon="7.01552">
        <ele>1175.7</ele>
        <time>2026-03-22T08:35:35Z</time>
      </trkpt>
      <trkpt lat="47.95363" lon="7.01563">
        <ele>1176.7</ele>
        <time>2026-03-22T08:35:40Z</time>
      </trkpt>
      <trkpt lat="47.9536" lon="7.01572">
        <ele>1177.7</ele>
        <time>2026-03-22T08:35:45Z</time>
      </trkpt>
      <trkpt lat="47.95358" lon="7.01582">
        <ele>1178.7</ele>
        <time>2026-03-22T08:35:50Z</time>
      </trkpt>
      <trkpt lat="47.95356" lon="7.01591">
        <ele>1179.2</ele>
        <time>2026-03-22T08:35:55Z</time>
      </trkpt>
      <trkpt lat="47.95354" lon="7.01601">
        <ele>1179.6</ele>
        <time>2026-03-22T08:36:00Z</time>
      </trkpt>
      <trkpt lat="47.95352" lon="7.0161">
        <ele>1180.1</ele>
        <time>2026-03-22T08:36:05Z</time>
      </trkpt>
      <trkpt lat="47.95351" lon="7.01619">
        <ele>1180.4</ele>
        <time>2026-03-22T08:36:10Z</time>
      </trkpt>
      <trkpt lat="47.9535" lon="7.01627">
        <ele>1180.8</ele>
        <time>2026-03-22T08:36:15Z</time>
      </trkpt>
      <trkpt lat="47.9535" lon="7.01637">
        <ele>1181.1</ele>
        <time>2026-03-22T08:36:20Z</time>
      </trkpt>
      <trkpt lat="47.95351" lon="7.01646">
        <ele>1181.4</ele>
        <time>2026-03-22T08:36:25Z</time>
      </trkpt>
      <trkpt lat="47.95352" lon="7.01656">
        <ele>1181.7</ele>
        <time>2026-03-22T08:36:30Z</time>
      </trkpt>
      <trkpt lat="47.95351" lon="7.01665">
        <ele>1182.1</ele>
        <time>2026-03-22T08:36:35Z</time>
      </trkpt>
      <trkpt lat="47.9535" lon="7.01675">
        <ele>1181.8</ele>
        <time>2026-03-22T08:36:40Z</time>
      </trkpt>
      <trkpt lat="47.95347" lon="7.01684">
        <ele>1181.5</ele>
        <time>2026-03-22T08:36:45Z</time>
      </trkpt>
      <trkpt lat="47.95345" lon="7.01692">
        <ele>1181.3</ele>
        <time>2026-03-22T08:36:50Z</time>
      </trkpt>
      <trkpt lat="47.95341" lon="7.01702">
        <ele>1181.3</ele>
        <time>2026-03-22T08:36:55Z</time>
      </trkpt>
      <trkpt lat="47.95338" lon="7.0171">
        <ele>1181.4</ele>
        <time>2026-03-22T08:37:00Z</time>
      </trkpt>
      <trkpt lat="47.95333" lon="7.01717">
        <ele>1181.8</ele>
        <time>2026-03-22T08:37:05Z</time>
      </trkpt>
      <trkpt lat="47.9533" lon="7.01727">
        <ele>1181.4</ele>
        <time>2026-03-22T08:37:10Z</time>
      </trkpt>
      <trkpt lat="47.95326" lon="7.01736">
        <ele>1180.9</ele>
        <time>2026-03-22T08:37:15Z</time>
      </trkpt>
      <trkpt lat="47.95323" lon="7.01743">
        <ele>1180.6</ele>
        <time>2026-03-22T08:37:20Z</time>
      </trkpt>
      <trkpt lat="47.95319" lon="7.01751">
        <ele>1180.1</ele>
        <time>2026-03-22T08:37:25Z</time>
      </trkpt>
      <trkpt lat="47.95315" lon="7.01759">
        <ele>1179.6</ele>
        <time>2026-03-22T08:37:30Z</time>
      </trkpt>
      <trkpt lat="47.95312" lon="7.01768">
        <ele>1179.1</ele>
        <time>2026-03-22T08:37:35Z</time>
      </trkpt>
      <trkpt lat="47.95308" lon="7.01776">
        <ele>1178.6</ele>
        <time>2026-03-22T08:37:40Z</time>
      </trkpt>
      <trkpt lat="47.95304" lon="7.01784">
        <ele>1178.2</ele>
        <time>2026-03-22T08:37:45Z</time>
      </trkpt>
      <trkpt lat="47.95299" lon="7.01793">
        <ele>1177.7</ele>
        <time>2026-03-22T08:37:50Z</time>
      </trkpt>
      <trkpt lat="47.95295" lon="7.01801">
        <ele>1177.4</ele>
        <time>2026-03-22T08:37:55Z</time>
      </trkpt>
      <trkpt lat="47.9529" lon="7.01809">
        <ele>1177</ele>
        <time>2026-03-22T08:38:00Z</time>
      </trkpt>
      <trkpt lat="47.95287" lon="7.01819">
        <ele>1176.7</ele>
        <time>2026-03-22T08:38:05Z</time>
      </trkpt>
      <trkpt lat="47.95284" lon="7.01829">
        <ele>1176.5</ele>
        <time>2026-03-22T08:38:10Z</time>
      </trkpt>
      <trkpt lat="47.95281" lon="7.01838">
        <ele>1176.5</ele>
        <time>2026-03-22T08:38:15Z</time>
      </trkpt>
      <trkpt lat="47.9528" lon="7.01846">
        <ele>1176.7</ele>
        <time>2026-03-22T08:38:20Z</time>
      </trkpt>
      <trkpt lat="47.95277" lon="7.01854">
        <ele>1176.9</ele>
        <time>2026-03-22T08:38:25Z</time>
      </trkpt>
      <trkpt lat="47.95274" lon="7.01863">
        <ele>1177.2</ele>
        <time>2026-03-22T08:38:30Z</time>
      </trkpt>
      <trkpt lat="47.95271" lon="7.01872">
        <ele>1177.6</ele>
        <time>2026-03-22T08:38:35Z</time>
      </trkpt>
      <trkpt lat="47.95267" lon="7.0188">
        <ele>1178.1</ele>
        <time>2026-03-22T08:38:40Z</time>
      </trkpt>
      <trkpt lat="47.95263" lon="7.01886">
        <ele>1178.5</ele>
        <time>2026-03-22T08:38:45Z</time>
      </trkpt>
      <trkpt lat="47.95262" lon="7.01888">
        <ele>1178.7</ele>
        <time>2026-03-22T08:38:50Z</time>
      </trkpt>
      <trkpt lat="47.95259" lon="7.0189">
        <ele>1178.9</ele>
        <time>2026-03-22T08:38:55Z</time>
      </trkpt>
      <trkpt lat="47.95254" lon="7.01894">
        <ele>1179.4</ele>
        <time>2026-03-22T08:39:00Z</time>
      </trkpt>
      <trkpt lat="47.95251" lon="7.01896">
        <ele>1179.7</ele>
        <time>2026-03-22T08:39:05Z</time>
      </trkpt>
      <trkpt lat="47.95247" lon="7.01897">
        <ele>1179.8</ele>
        <time>2026-03-22T08:39:10Z</time>
      </trkpt>
      <trkpt lat="47.95244" lon="7.01904">
        <ele>1180.2</ele>
        <time>2026-03-22T08:39:15Z</time>
      </trkpt>
      <trkpt lat="47.95241" lon="7.01911">
        <ele>1180.6</ele>
        <time>2026-03-22T08:39:20Z</time>
      </trkpt>
      <trkpt lat="47.95239" lon="7.01914">
        <ele>1180.8</ele>
        <time>2026-03-22T08:39:25Z</time>
      </trkpt>
      <trkpt lat="47.95238" lon="7.01917">
        <ele>1181</ele>
        <time>2026-03-22T08:39:30Z</time>
      </trkpt>
      <trkpt lat="47.95239" lon="7.01922">
        <ele>1181.5</ele>
        <time>2026-03-22T08:39:35Z</time>
      </trkpt>
      <trkpt lat="47.9524" lon="7.01926">
        <ele>1181.8</ele>
        <time>2026-03-22T08:39:40Z</time>
      </trkpt>
      <trkpt lat="47.95241" lon="7.01926">
        <ele>1181.8</ele>
        <time>2026-03-22T08:39:45Z</time>
      </trkpt>
      <trkpt lat="47.95241" lon="7.01926">
        <ele>1181.8</ele>
        <time>2026-03-22T08:39:50Z</time>
      </trkpt>
      <trkpt lat="47.95241" lon="7.01926">
        <ele>1181.8</ele>
        <time>2026-03-22T08:39:55Z</time>
      </trkpt>
      <trkpt lat="47.95241" lon="7.01926">
        <ele>1181.8</ele>
        <time>2026-03-22T08:40:00Z</time>
      </trkpt>
      <trkpt lat="47.95241" lon="7.01926">
        <ele>1181.8</ele>
        <time>2026-03-22T08:40:05Z</time>
      </trkpt>
      <trkpt lat="47.95241" lon="7.01926">
        <ele>1181.8</ele>
        <time>2026-03-22T08:40:10Z</time>
      </trkpt>
      <trkpt lat="47.95241" lon="7.01926">
        <ele>1181.8</ele>
        <time>2026-03-22T08:40:15Z</time>
      </trkpt>
      <trkpt lat="47.95241" lon="7.01926">
        <ele>1181.8</ele>
        <time>2026-03-22T08:40:20Z</time>
      </trkpt>
      <trkpt lat="47.95241" lon="7.01926">
        <ele>1181.8</ele>
        <time>2026-03-22T08:40:25Z</time>
      </trkpt>
      <trkpt lat="47.95241" lon="7.01926">
        <ele>1181.8</ele>
        <time>2026-03-22T08:40:30Z</time>
      </trkpt>
      <trkpt lat="47.95241" lon="7.01926">
        <ele>1181.8</ele>
        <time>2026-03-22T08:40:35Z</time>
      </trkpt>
      <trkpt lat="47.95241" lon="7.01926">
        <ele>1181.8</ele>
        <time>2026-03-22T08:40:40Z</time>
      </trkpt>
      <trkpt lat="47.95241" lon="7.01926">
        <ele>1181.8</ele>
        <time>2026-03-22T08:40:45Z</time>
      </trkpt>
      <trkpt lat="47.95241" lon="7.01926">
        <ele>1181.8</ele>
        <time>2026-03-22T08:40:50Z</time>
      </trkpt>
      <trkpt lat="47.95241" lon="7.01926">
        <ele>1181.8</ele>
        <time>2026-03-22T08:40:55Z</time>
      </trkpt>
      <trkpt lat="47.95241" lon="7.01926">
        <ele>1181.8</ele>
        <time>2026-03-22T08:41:00Z</time>
      </trkpt>
      <trkpt lat="47.95241" lon="7.01926">
        <ele>1181.8</ele>
        <time>2026-03-22T08:41:05Z</time>
      </trkpt>
      <trkpt lat="47.95241" lon="7.01926">
        <ele>1181.8</ele>
        <time>2026-03-22T08:41:10Z</time>
      </trkpt>
      <trkpt lat="47.95241" lon="7.01926">
        <ele>1181.8</ele>
        <time>2026-03-22T08:41:15Z</time>
      </trkpt>
      <trkpt lat="47.95241" lon="7.01926">
        <ele>1181.8</ele>
        <time>2026-03-22T08:41:20Z</time>
      </trkpt>
      <trkpt lat="47.95241" lon="7.01926">
        <ele>1181.8</ele>
        <time>2026-03-22T08:41:25Z</time>
      </trkpt>
      <trkpt lat="47.95241" lon="7.01926">
        <ele>1181.8</ele>
        <time>2026-03-22T08:41:30Z</time>
      </trkpt>
      <trkpt lat="47.95241" lon="7.01926">
        <ele>1181.8</ele>
        <time>2026-03-22T08:41:35Z</time>
      </trkpt>
      <trkpt lat="47.95241" lon="7.01926">
        <ele>1181.8</ele>
        <time>2026-03-22T08:41:40Z</time>
      </trkpt>
      <trkpt lat="47.95241" lon="7.01926">
        <ele>1181.8</ele>
        <time>2026-03-22T08:41:45Z</time>
      </trkpt>
      <trkpt lat="47.95241" lon="7.01926">
        <ele>1181.8</ele>
        <time>2026-03-22T08:41:50Z</time>
      </trkpt>
      <trkpt lat="47.95241" lon="7.01926">
        <ele>1181.8</ele>
        <time>2026-03-22T08:41:55Z</time>
      </trkpt>
      <trkpt lat="47.95241" lon="7.01926">
        <ele>1181.8</ele>
        <time>2026-03-22T08:42:00Z</time>
      </trkpt>
      <trkpt lat="47.95241" lon="7.01926">
        <ele>1181.8</ele>
        <time>2026-03-22T08:42:05Z</time>
      </trkpt>
      <trkpt lat="47.95241" lon="7.01926">
        <ele>1181.8</ele>
        <time>2026-03-22T08:42:10Z</time>
      </trkpt>
      <trkpt lat="47.95241" lon="7.01926">
        <ele>1181.8</ele>
        <time>2026-03-22T08:42:15Z</time>
      </trkpt>
      <trkpt lat="47.95241" lon="7.01926">
        <ele>1181.8</ele>
        <time>2026-03-22T08:42:20Z</time>
      </trkpt>
      <trkpt lat="47.95241" lon="7.01926">
        <ele>1181.8</ele>
        <time>2026-03-22T08:42:25Z</time>
      </trkpt>
      <trkpt lat="47.95241" lon="7.01926">
        <ele>1181.8</ele>
        <time>2026-03-22T08:42:30Z</time>
      </trkpt>
      <trkpt lat="47.95241" lon="7.01926">
        <ele>1181.8</ele>
        <time>2026-03-22T08:42:35Z</time>
      </trkpt>
      <trkpt lat="47.95241" lon="7.01926">
        <ele>1181.8</ele>
        <time>2026-03-22T08:42:40Z</time>
      </trkpt>
      <trkpt lat="47.95241" lon="7.01926">
        <ele>1181.8</ele>
        <time>2026-03-22T08:42:45Z</time>
      </trkpt>
      <trkpt lat="47.95241" lon="7.01926">
        <ele>1181.8</ele>
        <time>2026-03-22T08:42:50Z</time>
      </trkpt>
      <trkpt lat="47.95241" lon="7.01926">
        <ele>1181.8</ele>
        <time>2026-03-22T08:42:55Z</time>
      </trkpt>
      <trkpt lat="47.95241" lon="7.01926">
        <ele>1181.8</ele>
        <time>2026-03-22T08:43:00Z</time>
      </trkpt>
      <trkpt lat="47.95241" lon="7.01926">
        <ele>1181.8</ele>
        <time>2026-03-22T08:43:05Z</time>
      </trkpt>
      <trkpt lat="47.95241" lon="7.01926">
        <ele>1181.8</ele>
        <time>2026-03-22T08:43:10Z</time>
      </trkpt>
      <trkpt lat="47.95241" lon="7.01926">
        <ele>1181.8</ele>
        <time>2026-03-22T08:43:15Z</time>
      </trkpt>
      <trkpt lat="47.95241" lon="7.01926">
        <ele>1181.8</ele>
        <time>2026-03-22T08:43:20Z</time>
      </trkpt>
      <trkpt lat="47.95241" lon="7.01926">
        <ele>1181.8</ele>
        <time>2026-03-22T08:43:25Z</time>
      </trkpt>
      <trkpt lat="47.95241" lon="7.01926">
        <ele>1181.8</ele>
        <time>2026-03-22T08:43:30Z</time>
      </trkpt>
      <trkpt lat="47.95241" lon="7.01926">
        <ele>1181.8</ele>
        <time>2026-03-22T08:43:35Z</time>
      </trkpt>
      <trkpt lat="47.95241" lon="7.01926">
        <ele>1181.8</ele>
        <time>2026-03-22T08:43:40Z</time>
      </trkpt>
      <trkpt lat="47.95241" lon="7.01926">
        <ele>1181.8</ele>
        <time>2026-03-22T08:43:45Z</time>
      </trkpt>
      <trkpt lat="47.95241" lon="7.01926">
        <ele>1181.8</ele>
        <time>2026-03-22T08:43:50Z</time>
      </trkpt>
      <trkpt lat="47.95241" lon="7.01926">
        <ele>1181.8</ele>
        <time>2026-03-22T08:43:55Z</time>
      </trkpt>
      <trkpt lat="47.95241" lon="7.01926">
        <ele>1181.8</ele>
        <time>2026-03-22T08:44:00Z</time>
      </trkpt>
      <trkpt lat="47.95241" lon="7.01926">
        <ele>1181.8</ele>
        <time>2026-03-22T08:44:05Z</time>
      </trkpt>
      <trkpt lat="47.95241" lon="7.01926">
        <ele>1181.8</ele>
        <time>2026-03-22T08:44:10Z</time>
      </trkpt>
      <trkpt lat="47.95241" lon="7.01926">
        <ele>1181.8</ele>
        <time>2026-03-22T08:44:15Z</time>
      </trkpt>
      <trkpt lat="47.95241" lon="7.01926">
        <ele>1181.8</ele>
        <time>2026-03-22T08:44:20Z</time>
      </trkpt>
      <trkpt lat="47.95241" lon="7.01926">
        <ele>1181.8</ele>
        <time>2026-03-22T08:44:25Z</time>
      </trkpt>
      <trkpt lat="47.95241" lon="7.01926">
        <ele>1181.8</ele>
        <time>2026-03-22T08:44:30Z</time>
      </trkpt>
      <trkpt lat="47.95241" lon="7.01926">
        <ele>1181.8</ele>
        <time>2026-03-22T08:44:35Z</time>
      </trkpt>
      <trkpt lat="47.95241" lon="7.01926">
        <ele>1181.8</ele>
        <time>2026-03-22T08:44:40Z</time>
      </trkpt>
      <trkpt lat="47.95241" lon="7.01926">
        <ele>1181.8</ele>
        <time>2026-03-22T08:44:45Z</time>
      </trkpt>
      <trkpt lat="47.95241" lon="7.01926">
        <ele>1181.8</ele>
        <time>2026-03-22T08:44:50Z</time>
      </trkpt>
      <trkpt lat="47.95241" lon="7.01926">
        <ele>1181.8</ele>
        <time>2026-03-22T08:44:55Z</time>
      </trkpt>
      <trkpt lat="47.95241" lon="7.01926">
        <ele>1181.8</ele>
        <time>2026-03-22T08:45:00Z</time>
      </trkpt>
      <trkpt lat="47.95241" lon="7.01926">
        <ele>1181.8</ele>
        <time>2026-03-22T08:45:05Z</time>
      </trkpt>
      <trkpt lat="47.95241" lon="7.01926">
        <ele>1181.8</ele>
        <time>2026-03-22T08:45:10Z</time>
      </trkpt>
      <trkpt lat="47.95241" lon="7.01926">
        <ele>1181.8</ele>
        <time>2026-03-22T08:45:15Z</time>
      </trkpt>
      <trkpt lat="47.95241" lon="7.01926">
        <ele>1181.8</ele>
        <time>2026-03-22T08:45:20Z</time>
      </trkpt>
      <trkpt lat="47.95241" lon="7.01926">
        <ele>1181.8</ele>
        <time>2026-03-22T08:45:25Z</time>
      </trkpt>
      <trkpt lat="47.95241" lon="7.01926">
        <ele>1181.8</ele>
        <time>2026-03-22T08:45:30Z</time>
      </trkpt>
      <trkpt lat="47.95241" lon="7.01926">
        <ele>1181.8</ele>
        <time>2026-03-22T08:45:35Z</time>
      </trkpt>
      <trkpt lat="47.95241" lon="7.01926">
        <ele>1181.8</ele>
        <time>2026-03-22T08:45:40Z</time>
      </trkpt>
      <trkpt lat="47.95241" lon="7.01926">
        <ele>1181.8</ele>
        <time>2026-03-22T08:45:45Z</time>
      </trkpt>
      <trkpt lat="47.95241" lon="7.01926">
        <ele>1181.8</ele>
        <time>2026-03-22T08:45:50Z</time>
      </trkpt>
      <trkpt lat="47.95241" lon="7.01926">
        <ele>1181.8</ele>
        <time>2026-03-22T08:45:55Z</time>
      </trkpt>
      <trkpt lat="47.95241" lon="7.01926">
        <ele>1181.8</ele>
        <time>2026-03-22T08:46:00Z</time>
      </trkpt>
      <trkpt lat="47.95241" lon="7.01926">
        <ele>1181.8</ele>
        <time>2026-03-22T08:46:05Z</time>
      </trkpt>
      <trkpt lat="47.95241" lon="7.01926">
        <ele>1181.8</ele>
        <time>2026-03-22T08:46:10Z</time>
      </trkpt>
      <trkpt lat="47.95241" lon="7.01926">
        <ele>1181.8</ele>
        <time>2026-03-22T08:46:15Z</time>
      </trkpt>
      <trkpt lat="47.95241" lon="7.01926">
        <ele>1181.8</ele>
        <time>2026-03-22T08:46:20Z</time>
      </trkpt>
      <trkpt lat="47.95241" lon="7.01926">
        <ele>1181.8</ele>
        <time>2026-03-22T08:46:25Z</time>
      </trkpt>
      <trkpt lat="47.95243" lon="7.01916">
        <ele>1181</ele>
        <time>2026-03-22T08:46:30Z</time>
      </trkpt>
      <trkpt lat="47.95243" lon="7.01906">
        <ele>1180.3</ele>
        <time>2026-03-22T08:46:35Z</time>
      </trkpt>
      <trkpt lat="47.95238" lon="7.01905">
        <ele>1180.2</ele>
        <time>2026-03-22T08:46:40Z</time>
      </trkpt>
      <trkpt lat="47.95234" lon="7.01907">
        <ele>1180.3</ele>
        <time>2026-03-22T08:46:45Z</time>
      </trkpt>
      <trkpt lat="47.95228" lon="7.01908">
        <ele>1180.4</ele>
        <time>2026-03-22T08:46:50Z</time>
      </trkpt>
      <trkpt lat="47.95222" lon="7.01912">
        <ele>1180.6</ele>
        <time>2026-03-22T08:46:55Z</time>
      </trkpt>
      <trkpt lat="47.95216" lon="7.01916">
        <ele>1180.9</ele>
        <time>2026-03-22T08:47:00Z</time>
      </trkpt>
      <trkpt lat="47.9521" lon="7.01921">
        <ele>1181.5</ele>
        <time>2026-03-22T08:47:05Z</time>
      </trkpt>
      <trkpt lat="47.95207" lon="7.01924">
        <ele>1181.8</ele>
        <time>2026-03-22T08:47:10Z</time>
      </trkpt>
      <trkpt lat="47.95204" lon="7.01928">
        <ele>1182.3</ele>
        <time>2026-03-22T08:47:15Z</time>
      </trkpt>
      <trkpt lat="47.95201" lon="7.01935">
        <ele>1183.1</ele>
        <time>2026-03-22T08:47:20Z</time>
      </trkpt>
      <trkpt lat="47.95198" lon="7.01945">
        <ele>1184.2</ele>
        <time>2026-03-22T08:47:25Z</time>
      </trkpt>
      <trkpt lat="47.95197" lon="7.01954">
        <ele>1185.3</ele>
        <time>2026-03-22T08:47:30Z</time>
      </trkpt>
      <trkpt lat="47.95195" lon="7.01962">
        <ele>1186.2</ele>
        <time>2026-03-22T08:47:35Z</time>
      </trkpt>
      <trkpt lat="47.95192" lon="7.0197">
        <ele>1187.3</ele>
        <time>2026-03-22T08:47:40Z</time>
      </trkpt>
      <trkpt lat="47.95189" lon="7.01976">
        <ele>1188.1</ele>
        <time>2026-03-22T08:47:45Z</time>
      </trkpt>
      <trkpt lat="47.95184" lon="7.0198">
        <ele>1188.7</ele>
        <time>2026-03-22T08:47:50Z</time>
      </trkpt>
      <trkpt lat="47.95179" lon="7.01981">
        <ele>1189</ele>
        <time>2026-03-22T08:47:55Z</time>
      </trkpt>
      <trkpt lat="47.95174" lon="7.01984">
        <ele>1189.6</ele>
        <time>2026-03-22T08:48:00Z</time>
      </trkpt>
      <trkpt lat="47.9517" lon="7.01982">
        <ele>1189.5</ele>
        <time>2026-03-22T08:48:05Z</time>
      </trkpt>
      <trkpt lat="47.95168" lon="7.01978">
        <ele>1189</ele>
        <time>2026-03-22T08:48:10Z</time>
      </trkpt>
      <trkpt lat="47.95165" lon="7.01977">
        <ele>1189.1</ele>
        <time>2026-03-22T08:48:15Z</time>
      </trkpt>
      <trkpt lat="47.95159" lon="7.01976">
        <ele>1189.5</ele>
        <time>2026-03-22T08:48:20Z</time>
      </trkpt>
      <trkpt lat="47.95153" lon="7.01975">
        <ele>1189.8</ele>
        <time>2026-03-22T08:48:25Z</time>
      </trkpt>
      <trkpt lat="47.95146" lon="7.01973">
        <ele>1190.1</ele>
        <time>2026-03-22T08:48:30Z</time>
      </trkpt>
      <trkpt lat="47.9514" lon="7.01973">
        <ele>1190.6</ele>
        <time>2026-03-22T08:48:35Z</time>
      </trkpt>
      <trkpt lat="47.95133" lon="7.01973">
        <ele>1191.1</ele>
        <time>2026-03-22T08:48:40Z</time>
      </trkpt>
      <trkpt lat="47.95126" lon="7.01971">
        <ele>1191.4</ele>
        <time>2026-03-22T08:48:45Z</time>
      </trkpt>
      <trkpt lat="47.9512" lon="7.01971">
        <ele>1191.9</ele>
        <time>2026-03-22T08:48:50Z</time>
      </trkpt>
      <trkpt lat="47.95113" lon="7.01971">
        <ele>1192.4</ele>
        <time>2026-03-22T08:48:55Z</time>
      </trkpt>
      <trkpt lat="47.95108" lon="7.01972">
        <ele>1193</ele>
        <time>2026-03-22T08:49:00Z</time>
      </trkpt>
      <trkpt lat="47.95106" lon="7.01972">
        <ele>1193.1</ele>
        <time>2026-03-22T08:49:05Z</time>
      </trkpt>
      <trkpt lat="47.95104" lon="7.01972">
        <ele>1193.3</ele>
        <time>2026-03-22T08:49:10Z</time>
      </trkpt>
      <trkpt lat="47.95099" lon="7.01973">
        <ele>1193.9</ele>
        <time>2026-03-22T08:49:15Z</time>
      </trkpt>
      <trkpt lat="47.95094" lon="7.01974">
        <ele>1194.5</ele>
        <time>2026-03-22T08:49:20Z</time>
      </trkpt>
      <trkpt lat="47.9509" lon="7.01974">
        <ele>1194.8</ele>
        <time>2026-03-22T08:49:25Z</time>
      </trkpt>
      <trkpt lat="47.95085" lon="7.01974">
        <ele>1195.2</ele>
        <time>2026-03-22T08:49:30Z</time>
      </trkpt>
      <trkpt lat="47.9508" lon="7.01976">
        <ele>1195.8</ele>
        <time>2026-03-22T08:49:35Z</time>
      </trkpt>
      <trkpt lat="47.95076" lon="7.01976">
        <ele>1195.9</ele>
        <time>2026-03-22T08:49:40Z</time>
      </trkpt>
      <trkpt lat="47.95073" lon="7.01977">
        <ele>1196.1</ele>
        <time>2026-03-22T08:49:45Z</time>
      </trkpt>
      <trkpt lat="47.95068" lon="7.01977">
        <ele>1196.2</ele>
        <time>2026-03-22T08:49:50Z</time>
      </trkpt>
      <trkpt lat="47.95063" lon="7.0198">
        <ele>1196.9</ele>
        <time>2026-03-22T08:49:55Z</time>
      </trkpt>
      <trkpt lat="47.95058" lon="7.01981">
        <ele>1197.2</ele>
        <time>2026-03-22T08:50:00Z</time>
      </trkpt>
      <trkpt lat="47.95054" lon="7.01982">
        <ele>1197.4</ele>
        <time>2026-03-22T08:50:05Z</time>
      </trkpt>
      <trkpt lat="47.95049" lon="7.01983">
        <ele>1197.7</ele>
        <time>2026-03-22T08:50:10Z</time>
      </trkpt>
      <trkpt lat="47.95045" lon="7.01984">
        <ele>1197.9</ele>
        <time>2026-03-22T08:50:15Z</time>
      </trkpt>
      <trkpt lat="47.9504" lon="7.01985">
        <ele>1198.2</ele>
        <time>2026-03-22T08:50:20Z</time>
      </trkpt>
      <trkpt lat="47.95035" lon="7.01986">
        <ele>1198.4</ele>
        <time>2026-03-22T08:50:25Z</time>
      </trkpt>
      <trkpt lat="47.9503" lon="7.01987">
        <ele>1198.7</ele>
        <time>2026-03-22T08:50:30Z</time>
      </trkpt>
      <trkpt lat="47.95027" lon="7.0199">
        <ele>1199.2</ele>
        <time>2026-03-22T08:50:35Z</time>
      </trkpt>
      <trkpt lat="47.95022" lon="7.01992">
        <ele>1199.6</ele>
        <time>2026-03-22T08:50:40Z</time>
      </trkpt>
      <trkpt lat="47.95018" lon="7.01995">
        <ele>1200.1</ele>
        <time>2026-03-22T08:50:45Z</time>
      </trkpt>
      <trkpt lat="47.95014" lon="7.01998">
        <ele>1200.6</ele>
        <time>2026-03-22T08:50:50Z</time>
      </trkpt>
      <trkpt lat="47.9501" lon="7.02">
        <ele>1200.9</ele>
        <time>2026-03-22T08:50:55Z</time>
      </trkpt>
      <trkpt lat="47.95004" lon="7.02003">
        <ele>1201.5</ele>
        <time>2026-03-22T08:51:00Z</time>
      </trkpt>
      <trkpt lat="47.94999" lon="7.02005">
        <ele>1201.8</ele>
        <time>2026-03-22T08:51:05Z</time>
      </trkpt>
      <trkpt lat="47.94994" lon="7.02007">
        <ele>1201.9</ele>
        <time>2026-03-22T08:51:10Z</time>
      </trkpt>
      <trkpt lat="47.9499" lon="7.0201">
        <ele>1202.3</ele>
        <time>2026-03-22T08:51:15Z</time>
      </trkpt>
      <trkpt lat="47.94985" lon="7.02011">
        <ele>1202.3</ele>
        <time>2026-03-22T08:51:20Z</time>
      </trkpt>
      <trkpt lat="47.94981" lon="7.02014">
        <ele>1202.8</ele>
        <time>2026-03-22T08:51:25Z</time>
      </trkpt>
      <trkpt lat="47.94976" lon="7.02016">
        <ele>1203</ele>
        <time>2026-03-22T08:51:30Z</time>
      </trkpt>
      <trkpt lat="47.94971" lon="7.02017">
        <ele>1203.1</ele>
        <time>2026-03-22T08:51:35Z</time>
      </trkpt>
      <trkpt lat="47.94966" lon="7.02017">
        <ele>1203</ele>
        <time>2026-03-22T08:51:40Z</time>
      </trkpt>
      <trkpt lat="47.94962" lon="7.02019">
        <ele>1203.3</ele>
        <time>2026-03-22T08:51:45Z</time>
      </trkpt>
      <trkpt lat="47.94958" lon="7.02022">
        <ele>1203.9</ele>
        <time>2026-03-22T08:51:50Z</time>
      </trkpt>
      <trkpt lat="47.94954" lon="7.02025">
        <ele>1204.5</ele>
        <time>2026-03-22T08:51:55Z</time>
      </trkpt>
      <trkpt lat="47.9495" lon="7.02026">
        <ele>1204.7</ele>
        <time>2026-03-22T08:52:00Z</time>
      </trkpt>
      <trkpt lat="47.94946" lon="7.02028">
        <ele>1205.1</ele>
        <time>2026-03-22T08:52:05Z</time>
      </trkpt>
      <trkpt lat="47.94941" lon="7.0203">
        <ele>1205.5</ele>
        <time>2026-03-22T08:52:10Z</time>
      </trkpt>
      <trkpt lat="47.94938" lon="7.02031">
        <ele>1205.7</ele>
        <time>2026-03-22T08:52:15Z</time>
      </trkpt>
      <trkpt lat="47.94933" lon="7.02034">
        <ele>1206.4</ele>
        <time>2026-03-22T08:52:20Z</time>
      </trkpt>
      <trkpt lat="47.94928" lon="7.02037">
        <ele>1207.2</ele>
        <time>2026-03-22T08:52:25Z</time>
      </trkpt>
      <trkpt lat="47.94924" lon="7.02039">
        <ele>1207.7</ele>
        <time>2026-03-22T08:52:30Z</time>
      </trkpt>
      <trkpt lat="47.9492" lon="7.0204">
        <ele>1208</ele>
        <time>2026-03-22T08:52:35Z</time>
      </trkpt>
      <trkpt lat="47.94916" lon="7.02042">
        <ele>1208.5</ele>
        <time>2026-03-22T08:52:40Z</time>
      </trkpt>
      <trkpt lat="47.94912" lon="7.02044">
        <ele>1208.8</ele>
        <time>2026-03-22T08:52:45Z</time>
      </trkpt>
      <trkpt lat="47.94908" lon="7.02045">
        <ele>1208.7</ele>
        <time>2026-03-22T08:52:50Z</time>
      </trkpt>
      <trkpt lat="47.94905" lon="7.02047">
        <ele>1209</ele>
        <time>2026-03-22T08:52:55Z</time>
      </trkpt>
      <trkpt lat="47.94903" lon="7.02049">
        <ele>1209.4</ele>
        <time>2026-03-22T08:53:00Z</time>
      </trkpt>
      <trkpt lat="47.94899" lon="7.0205">
        <ele>1209.4</ele>
        <time>2026-03-22T08:53:05Z</time>
      </trkpt>
      <trkpt lat="47.94896" lon="7.02052">
        <ele>1209.7</ele>
        <time>2026-03-22T08:53:10Z</time>
      </trkpt>
      <trkpt lat="47.94893" lon="7.02052">
        <ele>1209.5</ele>
        <time>2026-03-22T08:53:15Z</time>
      </trkpt>
      <trkpt lat="47.9489" lon="7.02054">
        <ele>1209.9</ele>
        <time>2026-03-22T08:53:20Z</time>
      </trkpt>
      <trkpt lat="47.94887" lon="7.02056">
        <ele>1210.2</ele>
        <time>2026-03-22T08:53:25Z</time>
      </trkpt>
      <trkpt lat="47.94884" lon="7.02057">
        <ele>1210.3</ele>
        <time>2026-03-22T08:53:30Z</time>
      </trkpt>
      <trkpt lat="47.9488" lon="7.02059">
        <ele>1210.6</ele>
        <time>2026-03-22T08:53:35Z</time>
      </trkpt>
      <trkpt lat="47.94877" lon="7.0206">
        <ele>1210.6</ele>
        <time>2026-03-22T08:53:40Z</time>
      </trkpt>
      <trkpt lat="47.94873" lon="7.02061">
        <ele>1210.7</ele>
        <time>2026-03-22T08:53:45Z</time>
      </trkpt>
      <trkpt lat="47.94871" lon="7.02061">
        <ele>1210.5</ele>
        <time>2026-03-22T08:53:50Z</time>
      </trkpt>
      <trkpt lat="47.94867" lon="7.02063">
        <ele>1210.8</ele>
        <time>2026-03-22T08:53:55Z</time>
      </trkpt>
      <trkpt lat="47.94863" lon="7.02065">
        <ele>1211.2</ele>
        <time>2026-03-22T08:54:00Z</time>
      </trkpt>
      <trkpt lat="47.94859" lon="7.02067">
        <ele>1211.5</ele>
        <time>2026-03-22T08:54:05Z</time>
      </trkpt>
      <trkpt lat="47.94856" lon="7.02069">
        <ele>1211.9</ele>
        <time>2026-03-22T08:54:10Z</time>
      </trkpt>
      <trkpt lat="47.94852" lon="7.02071">
        <ele>1212.3</ele>
        <time>2026-03-22T08:54:15Z</time>
      </trkpt>
      <trkpt lat="47.94849" lon="7.02073">
        <ele>1212.7</ele>
        <time>2026-03-22T08:54:20Z</time>
      </trkpt>
      <trkpt lat="47.94845" lon="7.02075">
        <ele>1213.1</ele>
        <time>2026-03-22T08:54:25Z</time>
      </trkpt>
      <trkpt lat="47.94841" lon="7.02077">
        <ele>1213.4</ele>
        <time>2026-03-22T08:54:30Z</time>
      </trkpt>
      <trkpt lat="47.94837" lon="7.02079">
        <ele>1213.8</ele>
        <time>2026-03-22T08:54:35Z</time>
      </trkpt>
      <trkpt lat="47.94833" lon="7.02081">
        <ele>1214.2</ele>
        <time>2026-03-22T08:54:40Z</time>
      </trkpt>
      <trkpt lat="47.94829" lon="7.02083">
        <ele>1214.7</ele>
        <time>2026-03-22T08:54:45Z</time>
      </trkpt>
      <trkpt lat="47.94825" lon="7.02085">
        <ele>1215.1</ele>
        <time>2026-03-22T08:54:50Z</time>
      </trkpt>
      <trkpt lat="47.94822" lon="7.02088">
        <ele>1216</ele>
        <time>2026-03-22T08:54:55Z</time>
      </trkpt>
      <trkpt lat="47.94818" lon="7.0209">
        <ele>1216.4</ele>
        <time>2026-03-22T08:55:00Z</time>
      </trkpt>
      <trkpt lat="47.94814" lon="7.02093">
        <ele>1217.2</ele>
        <time>2026-03-22T08:55:05Z</time>
      </trkpt>
      <trkpt lat="47.9481" lon="7.02096">
        <ele>1217.9</ele>
        <time>2026-03-22T08:55:10Z</time>
      </trkpt>
      <trkpt lat="47.94806" lon="7.02099">
        <ele>1218.6</ele>
        <time>2026-03-22T08:55:15Z</time>
      </trkpt>
      <trkpt lat="47.94803" lon="7.02103">
        <ele>1219.7</ele>
        <time>2026-03-22T08:55:20Z</time>
      </trkpt>
      <trkpt lat="47.94801" lon="7.02107">
        <ele>1220.9</ele>
        <time>2026-03-22T08:55:25Z</time>
      </trkpt>
      <trkpt lat="47.94796" lon="7.0211">
        <ele>1221.6</ele>
        <time>2026-03-22T08:55:30Z</time>
      </trkpt>
      <trkpt lat="47.94792" lon="7.02114">
        <ele>1222.6</ele>
        <time>2026-03-22T08:55:35Z</time>
      </trkpt>
      <trkpt lat="47.94787" lon="7.02117">
        <ele>1223.2</ele>
        <time>2026-03-22T08:55:40Z</time>
      </trkpt>
      <trkpt lat="47.94783" lon="7.02121">
        <ele>1224.2</ele>
        <time>2026-03-22T08:55:45Z</time>
      </trkpt>
      <trkpt lat="47.9478" lon="7.02124">
        <ele>1225</ele>
        <time>2026-03-22T08:55:50Z</time>
      </trkpt>
      <trkpt lat="47.94777" lon="7.02125">
        <ele>1225.1</ele>
        <time>2026-03-22T08:55:55Z</time>
      </trkpt>
      <trkpt lat="47.94774" lon="7.02127">
        <ele>1225.6</ele>
        <time>2026-03-22T08:56:00Z</time>
      </trkpt>
      <trkpt lat="47.94771" lon="7.02129">
        <ele>1226</ele>
        <time>2026-03-22T08:56:05Z</time>
      </trkpt>
      <trkpt lat="47.94769" lon="7.0213">
        <ele>1226.2</ele>
        <time>2026-03-22T08:56:10Z</time>
      </trkpt>
      <trkpt lat="47.94769" lon="7.0213">
        <ele>1226.2</ele>
        <time>2026-03-22T08:56:15Z</time>
      </trkpt>
      <trkpt lat="47.94769" lon="7.0213">
        <ele>1226.2</ele>
        <time>2026-03-22T08:56:20Z</time>
      </trkpt>
      <trkpt lat="47.94769" lon="7.0213">
        <ele>1226.2</ele>
        <time>2026-03-22T08:56:25Z</time>
      </trkpt>
      <trkpt lat="47.94769" lon="7.0213">
        <ele>1226.2</ele>
        <time>2026-03-22T08:56:30Z</time>
      </trkpt>
      <trkpt lat="47.94769" lon="7.0213">
        <ele>1226.2</ele>
        <time>2026-03-22T08:56:35Z</time>
      </trkpt>
      <trkpt lat="47.94769" lon="7.0213">
        <ele>1226.2</ele>
        <time>2026-03-22T08:56:40Z</time>
      </trkpt>
      <trkpt lat="47.94769" lon="7.0213">
        <ele>1226.2</ele>
        <time>2026-03-22T08:56:45Z</time>
      </trkpt>
      <trkpt lat="47.94769" lon="7.0213">
        <ele>1226.2</ele>
        <time>2026-03-22T08:56:50Z</time>
      </trkpt>
      <trkpt lat="47.94769" lon="7.0213">
        <ele>1226.2</ele>
        <time>2026-03-22T08:56:55Z</time>
      </trkpt>
      <trkpt lat="47.94769" lon="7.0213">
        <ele>1226.2</ele>
        <time>2026-03-22T08:57:00Z</time>
      </trkpt>
      <trkpt lat="47.94769" lon="7.0213">
        <ele>1226.2</ele>
        <time>2026-03-22T08:57:05Z</time>
      </trkpt>
      <trkpt lat="47.94769" lon="7.0213">
        <ele>1226.2</ele>
        <time>2026-03-22T08:57:10Z</time>
      </trkpt>
      <trkpt lat="47.94769" lon="7.0213">
        <ele>1226.2</ele>
        <time>2026-03-22T08:57:15Z</time>
      </trkpt>
      <trkpt lat="47.94769" lon="7.0213">
        <ele>1226.2</ele>
        <time>2026-03-22T08:57:20Z</time>
      </trkpt>
      <trkpt lat="47.94769" lon="7.0213">
        <ele>1226.2</ele>
        <time>2026-03-22T08:57:25Z</time>
      </trkpt>
      <trkpt lat="47.94769" lon="7.0213">
        <ele>1226.2</ele>
        <time>2026-03-22T08:57:30Z</time>
      </trkpt>
      <trkpt lat="47.94769" lon="7.0213">
        <ele>1226.2</ele>
        <time>2026-03-22T08:57:35Z</time>
      </trkpt>
      <trkpt lat="47.94769" lon="7.0213">
        <ele>1226.2</ele>
        <time>2026-03-22T08:57:40Z</time>
      </trkpt>
      <trkpt lat="47.94769" lon="7.0213">
        <ele>1226.2</ele>
        <time>2026-03-22T08:57:45Z</time>
      </trkpt>
      <trkpt lat="47.94769" lon="7.0213">
        <ele>1226.2</ele>
        <time>2026-03-22T08:57:50Z</time>
      </trkpt>
      <trkpt lat="47.94769" lon="7.0213">
        <ele>1226.2</ele>
        <time>2026-03-22T08:57:55Z</time>
      </trkpt>
      <trkpt lat="47.94769" lon="7.0213">
        <ele>1226.2</ele>
        <time>2026-03-22T08:58:00Z</time>
      </trkpt>
      <trkpt lat="47.94769" lon="7.0213">
        <ele>1226.2</ele>
        <time>2026-03-22T08:58:05Z</time>
      </trkpt>
      <trkpt lat="47.94769" lon="7.0213">
        <ele>1226.2</ele>
        <time>2026-03-22T08:58:10Z</time>
      </trkpt>
      <trkpt lat="47.94769" lon="7.0213">
        <ele>1226.2</ele>
        <time>2026-03-22T08:58:15Z</time>
      </trkpt>
      <trkpt lat="47.94769" lon="7.0213">
        <ele>1226.2</ele>
        <time>2026-03-22T08:58:20Z</time>
      </trkpt>
      <trkpt lat="47.94769" lon="7.0213">
        <ele>1226.2</ele>
        <time>2026-03-22T08:58:25Z</time>
      </trkpt>
      <trkpt lat="47.94769" lon="7.0213">
        <ele>1226.2</ele>
        <time>2026-03-22T08:58:30Z</time>
      </trkpt>
      <trkpt lat="47.94769" lon="7.0213">
        <ele>1226.2</ele>
        <time>2026-03-22T08:58:35Z</time>
      </trkpt>
      <trkpt lat="47.94769" lon="7.0213">
        <ele>1226.2</ele>
        <time>2026-03-22T08:58:40Z</time>
      </trkpt>
      <trkpt lat="47.94769" lon="7.0213">
        <ele>1226.2</ele>
        <time>2026-03-22T08:58:45Z</time>
      </trkpt>
      <trkpt lat="47.94769" lon="7.0213">
        <ele>1226.2</ele>
        <time>2026-03-22T08:58:50Z</time>
      </trkpt>
      <trkpt lat="47.94769" lon="7.0213">
        <ele>1226.2</ele>
        <time>2026-03-22T08:58:55Z</time>
      </trkpt>
      <trkpt lat="47.94769" lon="7.0213">
        <ele>1226.2</ele>
        <time>2026-03-22T08:59:00Z</time>
      </trkpt>
      <trkpt lat="47.94769" lon="7.0213">
        <ele>1226.2</ele>
        <time>2026-03-22T08:59:05Z</time>
      </trkpt>
      <trkpt lat="47.94769" lon="7.0213">
        <ele>1226.2</ele>
        <time>2026-03-22T08:59:10Z</time>
      </trkpt>
      <trkpt lat="47.94769" lon="7.0213">
        <ele>1226.2</ele>
        <time>2026-03-22T08:59:15Z</time>
      </trkpt>
      <trkpt lat="47.94769" lon="7.0213">
        <ele>1226.2</ele>
        <time>2026-03-22T08:59:20Z</time>
      </trkpt>
      <trkpt lat="47.94769" lon="7.0213">
        <ele>1226.2</ele>
        <time>2026-03-22T08:59:25Z</time>
      </trkpt>
      <trkpt lat="47.94769" lon="7.0213">
        <ele>1226.2</ele>
        <time>2026-03-22T08:59:30Z</time>
      </trkpt>
      <trkpt lat="47.94769" lon="7.0213">
        <ele>1226.2</ele>
        <time>2026-03-22T08:59:35Z</time>
      </trkpt>
      <trkpt lat="47.94769" lon="7.0213">
        <ele>1226.2</ele>
        <time>2026-03-22T08:59:40Z</time>
      </trkpt>
      <trkpt lat="47.94769" lon="7.0213">
        <ele>1226.2</ele>
        <time>2026-03-22T08:59:45Z</time>
      </trkpt>
      <trkpt lat="47.94769" lon="7.0213">
        <ele>1226.2</ele>
        <time>2026-03-22T08:59:50Z</time>
      </trkpt>
      <trkpt lat="47.94769" lon="7.0213">
        <ele>1226.2</ele>
        <time>2026-03-22T08:59:55Z</time>
      </trkpt>
      <trkpt lat="47.94769" lon="7.0213">
        <ele>1226.2</ele>
        <time>2026-03-22T09:00:00Z</time>
      </trkpt>
      <trkpt lat="47.94769" lon="7.0213">
        <ele>1226.2</ele>
        <time>2026-03-22T09:00:05Z</time>
      </trkpt>
      <trkpt lat="47.94769" lon="7.0213">
        <ele>1226.2</ele>
        <time>2026-03-22T09:00:10Z</time>
      </trkpt>
      <trkpt lat="47.94769" lon="7.0213">
        <ele>1226.2</ele>
        <time>2026-03-22T09:00:15Z</time>
      </trkpt>
      <trkpt lat="47.94769" lon="7.0213">
        <ele>1226.2</ele>
        <time>2026-03-22T09:00:20Z</time>
      </trkpt>
      <trkpt lat="47.94769" lon="7.0213">
        <ele>1226.2</ele>
        <time>2026-03-22T09:00:25Z</time>
      </trkpt>
      <trkpt lat="47.94769" lon="7.0213">
        <ele>1226.2</ele>
        <time>2026-03-22T09:00:30Z</time>
      </trkpt>
      <trkpt lat="47.94769" lon="7.0213">
        <ele>1226.2</ele>
        <time>2026-03-22T09:00:35Z</time>
      </trkpt>
      <trkpt lat="47.94769" lon="7.0213">
        <ele>1226.2</ele>
        <time>2026-03-22T09:00:40Z</time>
      </trkpt>
      <trkpt lat="47.94769" lon="7.0213">
        <ele>1226.2</ele>
        <time>2026-03-22T09:00:45Z</time>
      </trkpt>
      <trkpt lat="47.94769" lon="7.0213">
        <ele>1226.2</ele>
        <time>2026-03-22T09:00:50Z</time>
      </trkpt>
      <trkpt lat="47.94769" lon="7.0213">
        <ele>1226.2</ele>
        <time>2026-03-22T09:00:55Z</time>
      </trkpt>
      <trkpt lat="47.94769" lon="7.0213">
        <ele>1226.2</ele>
        <time>2026-03-22T09:01:00Z</time>
      </trkpt>
      <trkpt lat="47.94769" lon="7.0213">
        <ele>1226.2</ele>
        <time>2026-03-22T09:01:05Z</time>
      </trkpt>
      <trkpt lat="47.94769" lon="7.0213">
        <ele>1226.2</ele>
        <time>2026-03-22T09:01:10Z</time>
      </trkpt>
      <trkpt lat="47.94769" lon="7.0213">
        <ele>1226.2</ele>
        <time>2026-03-22T09:01:15Z</time>
      </trkpt>
      <trkpt lat="47.94769" lon="7.0213">
        <ele>1226.2</ele>
        <time>2026-03-22T09:01:20Z</time>
      </trkpt>
      <trkpt lat="47.94769" lon="7.0213">
        <ele>1226.2</ele>
        <time>2026-03-22T09:01:25Z</time>
      </trkpt>
      <trkpt lat="47.94769" lon="7.0213">
        <ele>1226.2</ele>
        <time>2026-03-22T09:01:30Z</time>
      </trkpt>
      <trkpt lat="47.94769" lon="7.0213">
        <ele>1226.2</ele>
        <time>2026-03-22T09:01:35Z</time>
      </trkpt>
      <trkpt lat="47.94769" lon="7.0213">
        <ele>1226.2</ele>
        <time>2026-03-22T09:01:40Z</time>
      </trkpt>
      <trkpt lat="47.94769" lon="7.0213">
        <ele>1226.2</ele>
        <time>2026-03-22T09:01:45Z</time>
      </trkpt>
      <trkpt lat="47.94769" lon="7.0213">
        <ele>1226.2</ele>
        <time>2026-03-22T09:01:50Z</time>
      </trkpt>
      <trkpt lat="47.94769" lon="7.0213">
        <ele>1226.2</ele>
        <time>2026-03-22T09:01:55Z</time>
      </trkpt>
      <trkpt lat="47.94769" lon="7.0213">
        <ele>1226.2</ele>
        <time>2026-03-22T09:02:00Z</time>
      </trkpt>
      <trkpt lat="47.94769" lon="7.0213">
        <ele>1226.2</ele>
        <time>2026-03-22T09:02:05Z</time>
      </trkpt>
      <trkpt lat="47.94769" lon="7.0213">
        <ele>1226.2</ele>
        <time>2026-03-22T09:02:10Z</time>
      </trkpt>
      <trkpt lat="47.94769" lon="7.0213">
        <ele>1226.2</ele>
        <time>2026-03-22T09:02:15Z</time>
      </trkpt>
      <trkpt lat="47.94769" lon="7.0213">
        <ele>1226.2</ele>
        <time>2026-03-22T09:02:20Z</time>
      </trkpt>
      <trkpt lat="47.94765" lon="7.02141">
        <ele>1229.3</ele>
        <time>2026-03-22T09:02:25Z</time>
      </trkpt>
      <trkpt lat="47.9476" lon="7.02141">
        <ele>1228.9</ele>
        <time>2026-03-22T09:02:30Z</time>
      </trkpt>
      <trkpt lat="47.94756" lon="7.02141">
        <ele>1228.7</ele>
        <time>2026-03-22T09:02:35Z</time>
      </trkpt>
      <trkpt lat="47.94753" lon="7.02144">
        <ele>1229.4</ele>
        <time>2026-03-22T09:02:40Z</time>
      </trkpt>
      <trkpt lat="47.94751" lon="7.02149">
        <ele>1230.8</ele>
        <time>2026-03-22T09:02:45Z</time>
      </trkpt>
      <trkpt lat="47.94748" lon="7.02152">
        <ele>1231.8</ele>
        <time>2026-03-22T09:02:50Z</time>
      </trkpt>
      <trkpt lat="47.94745" lon="7.02155">
        <ele>1233.1</ele>
        <time>2026-03-22T09:02:55Z</time>
      </trkpt>
      <trkpt lat="47.94742" lon="7.02157">
        <ele>1234</ele>
        <time>2026-03-22T09:03:00Z</time>
      </trkpt>
      <trkpt lat="47.94739" lon="7.02161">
        <ele>1235.6</ele>
        <time>2026-03-22T09:03:05Z</time>
      </trkpt>
      <trkpt lat="47.94736" lon="7.02164">
        <ele>1236.7</ele>
        <time>2026-03-22T09:03:10Z</time>
      </trkpt>
      <trkpt lat="47.94732" lon="7.02167">
        <ele>1238</ele>
        <time>2026-03-22T09:03:15Z</time>
      </trkpt>
      <trkpt lat="47.94729" lon="7.0217">
        <ele>1239</ele>
        <time>2026-03-22T09:03:20Z</time>
      </trkpt>
      <trkpt lat="47.94726" lon="7.02173">
        <ele>1239.9</ele>
        <time>2026-03-22T09:03:25Z</time>
      </trkpt>
      <trkpt lat="47.94724" lon="7.02174">
        <ele>1240.3</ele>
        <time>2026-03-22T09:03:30Z</time>
      </trkpt>
      <trkpt lat="47.9472" lon="7.02176">
        <ele>1241.1</ele>
        <time>2026-03-22T09:03:35Z</time>
      </trkpt>
      <trkpt lat="47.94718" lon="7.02181">
        <ele>1242.3</ele>
        <time>2026-03-22T09:03:40Z</time>
      </trkpt>
      <trkpt lat="47.94714" lon="7.02183">
        <ele>1243</ele>
        <time>2026-03-22T09:03:45Z</time>
      </trkpt>
      <trkpt lat="47.94711" lon="7.02184">
        <ele>1243.5</ele>
        <time>2026-03-22T09:03:50Z</time>
      </trkpt>
      <trkpt lat="47.94709" lon="7.02186">
        <ele>1244</ele>
        <time>2026-03-22T09:03:55Z</time>
      </trkpt>
      <trkpt lat="47.94706" lon="7.0219">
        <ele>1245</ele>
        <time>2026-03-22T09:04:00Z</time>
      </trkpt>
      <trkpt lat="47.94702" lon="7.02195">
        <ele>1246.3</ele>
        <time>2026-03-22T09:04:05Z</time>
      </trkpt>
      <trkpt lat="47.947" lon="7.02198">
        <ele>1247</ele>
        <time>2026-03-22T09:04:10Z</time>
      </trkpt>
      <trkpt lat="47.94697" lon="7.022">
        <ele>1247.5</ele>
        <time>2026-03-22T09:04:15Z</time>
      </trkpt>
      <trkpt lat="47.94692" lon="7.02203">
        <ele>1248.4</ele>
        <time>2026-03-22T09:04:20Z</time>
      </trkpt>
      <trkpt lat="47.94689" lon="7.02206">
        <ele>1249.1</ele>
        <time>2026-03-22T09:04:25Z</time>
      </trkpt>
      <trkpt lat="47.94686" lon="7.0221">
        <ele>1250</ele>
        <time>2026-03-22T09:04:30Z</time>
      </trkpt>
      <trkpt lat="47.94683" lon="7.02212">
        <ele>1250.5</ele>
        <time>2026-03-22T09:04:35Z</time>
      </trkpt>
      <trkpt lat="47.94679" lon="7.02217">
        <ele>1251.5</ele>
        <time>2026-03-22T09:04:40Z</time>
      </trkpt>
      <trkpt lat="47.94675" lon="7.02219">
        <ele>1252.1</ele>
        <time>2026-03-22T09:04:45Z</time>
      </trkpt>
      <trkpt lat="47.94672" lon="7.02223">
        <ele>1252.8</ele>
        <time>2026-03-22T09:04:50Z</time>
      </trkpt>
      <trkpt lat="47.94671" lon="7.02225">
        <ele>1253.2</ele>
        <time>2026-03-22T09:04:55Z</time>
      </trkpt>
      <trkpt lat="47.94671" lon="7.02225">
        <ele>1253.2</ele>
        <time>2026-03-22T09:05:00Z</time>
      </trkpt>
      <trkpt lat="47.94664" lon="7.02232">
        <ele>1254.5</ele>
        <time>2026-03-22T09:05:05Z</time>
      </trkpt>
      <trkpt lat="47.94662" lon="7.02233">
        <ele>1254.7</ele>
        <time>2026-03-22T09:05:10Z</time>
      </trkpt>
      <trkpt lat="47.94662" lon="7.02233">
        <ele>1254.7</ele>
        <time>2026-03-22T09:05:15Z</time>
      </trkpt>
      <trkpt lat="47.94655" lon="7.0224">
        <ele>1255.8</ele>
        <time>2026-03-22T09:05:20Z</time>
      </trkpt>
      <trkpt lat="47.94653" lon="7.02244">
        <ele>1256.4</ele>
        <time>2026-03-22T09:05:25Z</time>
      </trkpt>
      <trkpt lat="47.9465" lon="7.0225">
        <ele>1257.2</ele>
        <time>2026-03-22T09:05:30Z</time>
      </trkpt>
      <trkpt lat="47.94647" lon="7.02255">
        <ele>1257.5</ele>
        <time>2026-03-22T09:05:35Z</time>
      </trkpt>
      <trkpt lat="47.94644" lon="7.02258">
        <ele>1257.6</ele>
        <time>2026-03-22T09:05:40Z</time>
      </trkpt>
      <trkpt lat="47.94642" lon="7.02261">
        <ele>1257.8</ele>
        <time>2026-03-22T09:05:45Z</time>
      </trkpt>
      <trkpt lat="47.94641" lon="7.02264">
        <ele>1257.9</ele>
        <time>2026-03-22T09:05:50Z</time>
      </trkpt>
      <trkpt lat="47.94638" lon="7.02269">
        <ele>1258.2</ele>
        <time>2026-03-22T09:05:55Z</time>
      </trkpt>
      <trkpt lat="47.94636" lon="7.02274">
        <ele>1258.4</ele>
        <time>2026-03-22T09:06:00Z</time>
      </trkpt>
      <trkpt lat="47.94632" lon="7.02279">
        <ele>1258.6</ele>
        <time>2026-03-22T09:06:05Z</time>
      </trkpt>
      <trkpt lat="47.9463" lon="7.02284">
        <ele>1258.8</ele>
        <time>2026-03-22T09:06:10Z</time>
      </trkpt>
      <trkpt lat="47.94626" lon="7.02289">
        <ele>1258.9</ele>
        <time>2026-03-22T09:06:15Z</time>
      </trkpt>
      <trkpt lat="47.94626" lon="7.02295">
        <ele>1259.1</ele>
        <time>2026-03-22T09:06:20Z</time>
      </trkpt>
      <trkpt lat="47.94625" lon="7.023">
        <ele>1259.3</ele>
        <time>2026-03-22T09:06:25Z</time>
      </trkpt>
      <trkpt lat="47.94621" lon="7.02303">
        <ele>1259.3</ele>
        <time>2026-03-22T09:06:30Z</time>
      </trkpt>
      <trkpt lat="47.94616" lon="7.02303">
        <ele>1259.2</ele>
        <time>2026-03-22T09:06:35Z</time>
      </trkpt>
      <trkpt lat="47.94612" lon="7.02304">
        <ele>1259.2</ele>
        <time>2026-03-22T09:06:40Z</time>
      </trkpt>
      <trkpt lat="47.94606" lon="7.02306">
        <ele>1259.1</ele>
        <time>2026-03-22T09:06:45Z</time>
      </trkpt>
      <trkpt lat="47.94603" lon="7.02309">
        <ele>1259.1</ele>
        <time>2026-03-22T09:06:50Z</time>
      </trkpt>
      <trkpt lat="47.946" lon="7.02311">
        <ele>1259.1</ele>
        <time>2026-03-22T09:06:55Z</time>
      </trkpt>
      <trkpt lat="47.94595" lon="7.02312">
        <ele>1259</ele>
        <time>2026-03-22T09:07:00Z</time>
      </trkpt>
      <trkpt lat="47.9459" lon="7.02313">
        <ele>1258.9</ele>
        <time>2026-03-22T09:07:05Z</time>
      </trkpt>
      <trkpt lat="47.94585" lon="7.02312">
        <ele>1258.8</ele>
        <time>2026-03-22T09:07:10Z</time>
      </trkpt>
      <trkpt lat="47.9458" lon="7.02314">
        <ele>1258.5</ele>
        <time>2026-03-22T09:07:15Z</time>
      </trkpt>
      <trkpt lat="47.94575" lon="7.02314">
        <ele>1258.1</ele>
        <time>2026-03-22T09:07:20Z</time>
      </trkpt>
      <trkpt lat="47.9457" lon="7.02315">
        <ele>1257.8</ele>
        <time>2026-03-22T09:07:25Z</time>
      </trkpt>
      <trkpt lat="47.94563" lon="7.02317">
        <ele>1257.2</ele>
        <time>2026-03-22T09:07:30Z</time>
      </trkpt>
      <trkpt lat="47.94556" lon="7.02316">
        <ele>1256.7</ele>
        <time>2026-03-22T09:07:35Z</time>
      </trkpt>
      <trkpt lat="47.9455" lon="7.02314">
        <ele>1256.2</ele>
        <time>2026-03-22T09:07:40Z</time>
      </trkpt>
      <trkpt lat="47.94544" lon="7.02311">
        <ele>1255.8</ele>
        <time>2026-03-22T09:07:45Z</time>
      </trkpt>
      <trkpt lat="47.94538" lon="7.02312">
        <ele>1255.4</ele>
        <time>2026-03-22T09:07:50Z</time>
      </trkpt>
      <trkpt lat="47.94532" lon="7.02311">
        <ele>1254.9</ele>
        <time>2026-03-22T09:07:55Z</time>
      </trkpt>
      <trkpt lat="47.94527" lon="7.02312">
        <ele>1254.5</ele>
        <time>2026-03-22T09:08:00Z</time>
      </trkpt>
      <trkpt lat="47.94523" lon="7.02313">
        <ele>1254.2</ele>
        <time>2026-03-22T09:08:05Z</time>
      </trkpt>
      <trkpt lat="47.94518" lon="7.02316">
        <ele>1253.8</ele>
        <time>2026-03-22T09:08:10Z</time>
      </trkpt>
      <trkpt lat="47.94513" lon="7.0232">
        <ele>1253.3</ele>
        <time>2026-03-22T09:08:15Z</time>
      </trkpt>
      <trkpt lat="47.94509" lon="7.02322">
        <ele>1253</ele>
        <time>2026-03-22T09:08:20Z</time>
      </trkpt>
      <trkpt lat="47.94503" lon="7.02328">
        <ele>1252.4</ele>
        <time>2026-03-22T09:08:25Z</time>
      </trkpt>
      <trkpt lat="47.94499" lon="7.0233">
        <ele>1252</ele>
        <time>2026-03-22T09:08:30Z</time>
      </trkpt>
      <trkpt lat="47.94493" lon="7.02328">
        <ele>1251.4</ele>
        <time>2026-03-22T09:08:35Z</time>
      </trkpt>
      <trkpt lat="47.94488" lon="7.02325">
        <ele>1250.9</ele>
        <time>2026-03-22T09:08:40Z</time>
      </trkpt>
      <trkpt lat="47.94483" lon="7.02321">
        <ele>1250.4</ele>
        <time>2026-03-22T09:08:45Z</time>
      </trkpt>
      <trkpt lat="47.94476" lon="7.02317">
        <ele>1249.7</ele>
        <time>2026-03-22T09:08:50Z</time>
      </trkpt>
      <trkpt lat="47.94471" lon="7.02318">
        <ele>1249.2</ele>
        <time>2026-03-22T09:08:55Z</time>
      </trkpt>
      <trkpt lat="47.94465" lon="7.02317">
        <ele>1248.5</ele>
        <time>2026-03-22T09:09:00Z</time>
      </trkpt>
      <trkpt lat="47.9446" lon="7.0232">
        <ele>1247.9</ele>
        <time>2026-03-22T09:09:05Z</time>
      </trkpt>
      <trkpt lat="47.94455" lon="7.02322">
        <ele>1247.3</ele>
        <time>2026-03-22T09:09:10Z</time>
      </trkpt>
      <trkpt lat="47.9445" lon="7.02326">
        <ele>1246.7</ele>
        <time>2026-03-22T09:09:15Z</time>
      </trkpt>
      <trkpt lat="47.94442" lon="7.02332">
        <ele>1245.8</ele>
        <time>2026-03-22T09:09:20Z</time>
      </trkpt>
      <trkpt lat="47.94433" lon="7.02335">
        <ele>1244.7</ele>
        <time>2026-03-22T09:09:25Z</time>
      </trkpt>
      <trkpt lat="47.94427" lon="7.02338">
        <ele>1243.9</ele>
        <time>2026-03-22T09:09:30Z</time>
      </trkpt>
      <trkpt lat="47.94421" lon="7.0234">
        <ele>1243.2</ele>
        <time>2026-03-22T09:09:35Z</time>
      </trkpt>
      <trkpt lat="47.94415" lon="7.02341">
        <ele>1242.3</ele>
        <time>2026-03-22T09:09:40Z</time>
      </trkpt>
      <trkpt lat="47.94408" lon="7.02339">
        <ele>1241.1</ele>
        <time>2026-03-22T09:09:45Z</time>
      </trkpt>
      <trkpt lat="47.94405" lon="7.02334">
        <ele>1240.7</ele>
        <time>2026-03-22T09:09:50Z</time>
      </trkpt>
      <trkpt lat="47.944" lon="7.02329">
        <ele>1239.8</ele>
        <time>2026-03-22T09:09:55Z</time>
      </trkpt>
      <trkpt lat="47.94394" lon="7.02327">
        <ele>1238.7</ele>
        <time>2026-03-22T09:10:00Z</time>
      </trkpt>
      <trkpt lat="47.9439" lon="7.02329">
        <ele>1237.9</ele>
        <time>2026-03-22T09:10:05Z</time>
      </trkpt>
      <trkpt lat="47.94384" lon="7.02328">
        <ele>1236.8</ele>
        <time>2026-03-22T09:10:10Z</time>
      </trkpt>
      <trkpt lat="47.9438" lon="7.02327">
        <ele>1236</ele>
        <time>2026-03-22T09:10:15Z</time>
      </trkpt>
      <trkpt lat="47.94374" lon="7.02326">
        <ele>1234.9</ele>
        <time>2026-03-22T09:10:20Z</time>
      </trkpt>
      <trkpt lat="47.94368" lon="7.02325">
        <ele>1233.7</ele>
        <time>2026-03-22T09:10:25Z</time>
      </trkpt>
      <trkpt lat="47.94362" lon="7.02327">
        <ele>1232.5</ele>
        <time>2026-03-22T09:10:30Z</time>
      </trkpt>
      <trkpt lat="47.94356" lon="7.02328">
        <ele>1231.4</ele>
        <time>2026-03-22T09:10:35Z</time>
      </trkpt>
      <trkpt lat="47.94348" lon="7.02327">
        <ele>1229.8</ele>
        <time>2026-03-22T09:10:40Z</time>
      </trkpt>
      <trkpt lat="47.94341" lon="7.02324">
        <ele>1228.5</ele>
        <time>2026-03-22T09:10:45Z</time>
      </trkpt>
      <trkpt lat="47.94335" lon="7.02327">
        <ele>1227.3</ele>
        <time>2026-03-22T09:10:50Z</time>
      </trkpt>
      <trkpt lat="47.94329" lon="7.02331">
        <ele>1226.4</ele>
        <time>2026-03-22T09:10:55Z</time>
      </trkpt>
      <trkpt lat="47.94324" lon="7.0233">
        <ele>1225.6</ele>
        <time>2026-03-22T09:11:00Z</time>
      </trkpt>
      <trkpt lat="47.94317" lon="7.02329">
        <ele>1224.6</ele>
        <time>2026-03-22T09:11:05Z</time>
      </trkpt>
      <trkpt lat="47.9431" lon="7.02331">
        <ele>1223.6</ele>
        <time>2026-03-22T09:11:10Z</time>
      </trkpt>
      <trkpt lat="47.94303" lon="7.02331">
        <ele>1222.6</ele>
        <time>2026-03-22T09:11:15Z</time>
      </trkpt>
      <trkpt lat="47.94298" lon="7.02334">
        <ele>1221.9</ele>
        <time>2026-03-22T09:11:20Z</time>
      </trkpt>
      <trkpt lat="47.94292" lon="7.02333">
        <ele>1221</ele>
        <time>2026-03-22T09:11:25Z</time>
      </trkpt>
      <trkpt lat="47.94287" lon="7.02333">
        <ele>1220.3</ele>
        <time>2026-03-22T09:11:30Z</time>
      </trkpt>
      <trkpt lat="47.94281" lon="7.02334">
        <ele>1219.5</ele>
        <time>2026-03-22T09:11:35Z</time>
      </trkpt>
      <trkpt lat="47.94277" lon="7.02336">
        <ele>1218.9</ele>
        <time>2026-03-22T09:11:40Z</time>
      </trkpt>
      <trkpt lat="47.94274" lon="7.02341">
        <ele>1218.4</ele>
        <time>2026-03-22T09:11:45Z</time>
      </trkpt>
      <trkpt lat="47.94267" lon="7.02346">
        <ele>1217.4</ele>
        <time>2026-03-22T09:11:50Z</time>
      </trkpt>
      <trkpt lat="47.94259" lon="7.02349">
        <ele>1216.3</ele>
        <time>2026-03-22T09:11:55Z</time>
      </trkpt>
      <trkpt lat="47.94252" lon="7.02351">
        <ele>1215.3</ele>
        <time>2026-03-22T09:12:00Z</time>
      </trkpt>
      <trkpt lat="47.94245" lon="7.0235">
        <ele>1215</ele>
        <time>2026-03-22T09:12:05Z</time>
      </trkpt>
      <trkpt lat="47.94238" lon="7.0235">
        <ele>1215.1</ele>
        <time>2026-03-22T09:12:10Z</time>
      </trkpt>
      <trkpt lat="47.94231" lon="7.02348">
        <ele>1215.1</ele>
        <time>2026-03-22T09:12:15Z</time>
      </trkpt>
      <trkpt lat="47.94225" lon="7.02345">
        <ele>1215.2</ele>
        <time>2026-03-22T09:12:20Z</time>
      </trkpt>
      <trkpt lat="47.94217" lon="7.02346">
        <ele>1215.2</ele>
        <time>2026-03-22T09:12:25Z</time>
      </trkpt>
      <trkpt lat="47.94211" lon="7.02345">
        <ele>1215.3</ele>
        <time>2026-03-22T09:12:30Z</time>
      </trkpt>
      <trkpt lat="47.94204" lon="7.02346">
        <ele>1215.3</ele>
        <time>2026-03-22T09:12:35Z</time>
      </trkpt>
      <trkpt lat="47.94197" lon="7.02345">
        <ele>1215.4</ele>
        <time>2026-03-22T09:12:40Z</time>
      </trkpt>
      <trkpt lat="47.94189" lon="7.02344">
        <ele>1215.5</ele>
        <time>2026-03-22T09:12:45Z</time>
      </trkpt>
      <trkpt lat="47.94182" lon="7.02344">
        <ele>1215.5</ele>
        <time>2026-03-22T09:12:50Z</time>
      </trkpt>
      <trkpt lat="47.94174" lon="7.02344">
        <ele>1215.6</ele>
        <time>2026-03-22T09:12:55Z</time>
      </trkpt>
      <trkpt lat="47.94168" lon="7.02345">
        <ele>1215.6</ele>
        <time>2026-03-22T09:13:00Z</time>
      </trkpt>
      <trkpt lat="47.9416" lon="7.02346">
        <ele>1215.8</ele>
        <time>2026-03-22T09:13:05Z</time>
      </trkpt>
      <trkpt lat="47.94154" lon="7.02347">
        <ele>1215.9</ele>
        <time>2026-03-22T09:13:10Z</time>
      </trkpt>
      <trkpt lat="47.94152" lon="7.02345">
        <ele>1216.1</ele>
        <time>2026-03-22T09:13:15Z</time>
      </trkpt>
      <trkpt lat="47.94146" lon="7.02345">
        <ele>1216.3</ele>
        <time>2026-03-22T09:13:20Z</time>
      </trkpt>
      <trkpt lat="47.94139" lon="7.02342">
        <ele>1216.6</ele>
        <time>2026-03-22T09:13:25Z</time>
      </trkpt>
      <trkpt lat="47.94132" lon="7.02341">
        <ele>1216.9</ele>
        <time>2026-03-22T09:13:30Z</time>
      </trkpt>
      <trkpt lat="47.94125" lon="7.02341">
        <ele>1217.2</ele>
        <time>2026-03-22T09:13:35Z</time>
      </trkpt>
      <trkpt lat="47.94118" lon="7.0234">
        <ele>1217.5</ele>
        <time>2026-03-22T09:13:40Z</time>
      </trkpt>
      <trkpt lat="47.94112" lon="7.02339">
        <ele>1217.7</ele>
        <time>2026-03-22T09:13:45Z</time>
      </trkpt>
      <trkpt lat="47.94107" lon="7.02338">
        <ele>1217.9</ele>
        <time>2026-03-22T09:13:50Z</time>
      </trkpt>
      <trkpt lat="47.94101" lon="7.02338">
        <ele>1218.2</ele>
        <time>2026-03-22T09:13:55Z</time>
      </trkpt>
      <trkpt lat="47.94096" lon="7.02337">
        <ele>1218.4</ele>
        <time>2026-03-22T09:14:00Z</time>
      </trkpt>
      <trkpt lat="47.9409" lon="7.02335">
        <ele>1218.7</ele>
        <time>2026-03-22T09:14:05Z</time>
      </trkpt>
      <trkpt lat="47.94085" lon="7.02334">
        <ele>1218.9</ele>
        <time>2026-03-22T09:14:10Z</time>
      </trkpt>
      <trkpt lat="47.94079" lon="7.02334">
        <ele>1218.7</ele>
        <time>2026-03-22T09:14:15Z</time>
      </trkpt>
      <trkpt lat="47.94074" lon="7.02334">
        <ele>1218.3</ele>
        <time>2026-03-22T09:14:20Z</time>
      </trkpt>
      <trkpt lat="47.94068" lon="7.02333">
        <ele>1217.9</ele>
        <time>2026-03-22T09:14:25Z</time>
      </trkpt>
      <trkpt lat="47.94063" lon="7.02332">
        <ele>1217.5</ele>
        <time>2026-03-22T09:14:30Z</time>
      </trkpt>
      <trkpt lat="47.94058" lon="7.02331">
        <ele>1217.2</ele>
        <time>2026-03-22T09:14:35Z</time>
      </trkpt>
      <trkpt lat="47.94053" lon="7.0233">
        <ele>1216.9</ele>
        <time>2026-03-22T09:14:40Z</time>
      </trkpt>
      <trkpt lat="47.94048" lon="7.02329">
        <ele>1216.5</ele>
        <time>2026-03-22T09:14:45Z</time>
      </trkpt>
      <trkpt lat="47.94042" lon="7.02328">
        <ele>1216.1</ele>
        <time>2026-03-22T09:14:50Z</time>
      </trkpt>
      <trkpt lat="47.94037" lon="7.02327">
        <ele>1215.8</ele>
        <time>2026-03-22T09:14:55Z</time>
      </trkpt>
      <trkpt lat="47.94032" lon="7.02327">
        <ele>1215.4</ele>
        <time>2026-03-22T09:15:00Z</time>
      </trkpt>
      <trkpt lat="47.94026" lon="7.02327">
        <ele>1215</ele>
        <time>2026-03-22T09:15:05Z</time>
      </trkpt>
      <trkpt lat="47.94019" lon="7.02327">
        <ele>1214.5</ele>
        <time>2026-03-22T09:15:10Z</time>
      </trkpt>
      <trkpt lat="47.94014" lon="7.02326">
        <ele>1214.2</ele>
        <time>2026-03-22T09:15:15Z</time>
      </trkpt>
      <trkpt lat="47.94007" lon="7.02326">
        <ele>1213.7</ele>
        <time>2026-03-22T09:15:20Z</time>
      </trkpt>
      <trkpt lat="47.94001" lon="7.02326">
        <ele>1213.3</ele>
        <time>2026-03-22T09:15:25Z</time>
      </trkpt>
      <trkpt lat="47.93995" lon="7.02325">
        <ele>1213</ele>
        <time>2026-03-22T09:15:30Z</time>
      </trkpt>
      <trkpt lat="47.93988" lon="7.02325">
        <ele>1212.7</ele>
        <time>2026-03-22T09:15:35Z</time>
      </trkpt>
      <trkpt lat="47.93982" lon="7.02324">
        <ele>1212.4</ele>
        <time>2026-03-22T09:15:40Z</time>
      </trkpt>
      <trkpt lat="47.93975" lon="7.02322">
        <ele>1212.1</ele>
        <time>2026-03-22T09:15:45Z</time>
      </trkpt>
      <trkpt lat="47.93969" lon="7.0232">
        <ele>1211.8</ele>
        <time>2026-03-22T09:15:50Z</time>
      </trkpt>
      <trkpt lat="47.93962" lon="7.02318">
        <ele>1211.5</ele>
        <time>2026-03-22T09:15:55Z</time>
      </trkpt>
      <trkpt lat="47.93955" lon="7.02316">
        <ele>1211.1</ele>
        <time>2026-03-22T09:16:00Z</time>
      </trkpt>
      <trkpt lat="47.93948" lon="7.02312">
        <ele>1210.8</ele>
        <time>2026-03-22T09:16:05Z</time>
      </trkpt>
      <trkpt lat="47.93942" lon="7.0231">
        <ele>1210.5</ele>
        <time>2026-03-22T09:16:10Z</time>
      </trkpt>
      <trkpt lat="47.93934" lon="7.02309">
        <ele>1210</ele>
        <time>2026-03-22T09:16:15Z</time>
      </trkpt>
      <trkpt lat="47.93927" lon="7.02307">
        <ele>1209.6</ele>
        <time>2026-03-22T09:16:20Z</time>
      </trkpt>
      <trkpt lat="47.9392" lon="7.02304">
        <ele>1209.2</ele>
        <time>2026-03-22T09:16:25Z</time>
      </trkpt>
      <trkpt lat="47.93913" lon="7.02302">
        <ele>1209</ele>
        <time>2026-03-22T09:16:30Z</time>
      </trkpt>
      <trkpt lat="47.93906" lon="7.02301">
        <ele>1208.9</ele>
        <time>2026-03-22T09:16:35Z</time>
      </trkpt>
      <trkpt lat="47.939" lon="7.02299">
        <ele>1208.8</ele>
        <time>2026-03-22T09:16:40Z</time>
      </trkpt>
      <trkpt lat="47.93893" lon="7.02296">
        <ele>1208.6</ele>
        <time>2026-03-22T09:16:45Z</time>
      </trkpt>
      <trkpt lat="47.93887" lon="7.02294">
        <ele>1208.5</ele>
        <time>2026-03-22T09:16:50Z</time>
      </trkpt>
      <trkpt lat="47.9388" lon="7.02292">
        <ele>1208.3</ele>
        <time>2026-03-22T09:16:55Z</time>
      </trkpt>
      <trkpt lat="47.93873" lon="7.02289">
        <ele>1208.2</ele>
        <time>2026-03-22T09:17:00Z</time>
      </trkpt>
      <trkpt lat="47.93866" lon="7.02287">
        <ele>1208</ele>
        <time>2026-03-22T09:17:05Z</time>
      </trkpt>
      <trkpt lat="47.93858" lon="7.02286">
        <ele>1207.8</ele>
        <time>2026-03-22T09:17:10Z</time>
      </trkpt>
      <trkpt lat="47.93851" lon="7.02282">
        <ele>1207.5</ele>
        <time>2026-03-22T09:17:15Z</time>
      </trkpt>
      <trkpt lat="47.93844" lon="7.02278">
        <ele>1207.3</ele>
        <time>2026-03-22T09:17:20Z</time>
      </trkpt>
      <trkpt lat="47.93838" lon="7.02274">
        <ele>1207</ele>
        <time>2026-03-22T09:17:25Z</time>
      </trkpt>
      <trkpt lat="47.93832" lon="7.02271">
        <ele>1206.8</ele>
        <time>2026-03-22T09:17:30Z</time>
      </trkpt>
      <trkpt lat="47.93825" lon="7.02268">
        <ele>1207</ele>
        <time>2026-03-22T09:17:35Z</time>
      </trkpt>
      <trkpt lat="47.93818" lon="7.02265">
        <ele>1207.1</ele>
        <time>2026-03-22T09:17:40Z</time>
      </trkpt>
      <trkpt lat="47.93811" lon="7.02262">
        <ele>1207.3</ele>
        <time>2026-03-22T09:17:45Z</time>
      </trkpt>
      <trkpt lat="47.93804" lon="7.02259">
        <ele>1207.6</ele>
        <time>2026-03-22T09:17:50Z</time>
      </trkpt>
      <trkpt lat="47.93797" lon="7.02256">
        <ele>1207.8</ele>
        <time>2026-03-22T09:17:55Z</time>
      </trkpt>
      <trkpt lat="47.9379" lon="7.02253">
        <ele>1208.1</ele>
        <time>2026-03-22T09:18:00Z</time>
      </trkpt>
      <trkpt lat="47.93783" lon="7.02249">
        <ele>1208.4</ele>
        <time>2026-03-22T09:18:05Z</time>
      </trkpt>
      <trkpt lat="47.93776" lon="7.02246">
        <ele>1208.8</ele>
        <time>2026-03-22T09:18:10Z</time>
      </trkpt>
      <trkpt lat="47.9377" lon="7.02244">
        <ele>1209.1</ele>
        <time>2026-03-22T09:18:15Z</time>
      </trkpt>
      <trkpt lat="47.93763" lon="7.02241">
        <ele>1209.5</ele>
        <time>2026-03-22T09:18:20Z</time>
      </trkpt>
      <trkpt lat="47.93758" lon="7.02239">
        <ele>1209.7</ele>
        <time>2026-03-22T09:18:25Z</time>
      </trkpt>
      <trkpt lat="47.93754" lon="7.02237">
        <ele>1209.9</ele>
        <time>2026-03-22T09:18:30Z</time>
      </trkpt>
      <trkpt lat="47.93748" lon="7.02235">
        <ele>1210.2</ele>
        <time>2026-03-22T09:18:35Z</time>
      </trkpt>
      <trkpt lat="47.93742" lon="7.02233">
        <ele>1210.2</ele>
        <time>2026-03-22T09:18:40Z</time>
      </trkpt>
      <trkpt lat="47.93736" lon="7.0223">
        <ele>1210.2</ele>
        <time>2026-03-22T09:18:45Z</time>
      </trkpt>
      <trkpt lat="47.9373" lon="7.02227">
        <ele>1210.2</ele>
        <time>2026-03-22T09:18:50Z</time>
      </trkpt>
      <trkpt lat="47.93724" lon="7.02223">
        <ele>1210.2</ele>
        <time>2026-03-22T09:18:55Z</time>
      </trkpt>
      <trkpt lat="47.93718" lon="7.0222">
        <ele>1210.2</ele>
        <time>2026-03-22T09:19:00Z</time>
      </trkpt>
      <trkpt lat="47.93712" lon="7.02219">
        <ele>1210.2</ele>
        <time>2026-03-22T09:19:05Z</time>
      </trkpt>
      <trkpt lat="47.93705" lon="7.02216">
        <ele>1210.2</ele>
        <time>2026-03-22T09:19:10Z</time>
      </trkpt>
      <trkpt lat="47.93699" lon="7.02212">
        <ele>1210.2</ele>
        <time>2026-03-22T09:19:15Z</time>
      </trkpt>
      <trkpt lat="47.93693" lon="7.02209">
        <ele>1210.2</ele>
        <time>2026-03-22T09:19:20Z</time>
      </trkpt>
      <trkpt lat="47.93687" lon="7.02205">
        <ele>1210.1</ele>
        <time>2026-03-22T09:19:25Z</time>
      </trkpt>
      <trkpt lat="47.9368" lon="7.02203">
        <ele>1210.1</ele>
        <time>2026-03-22T09:19:30Z</time>
      </trkpt>
      <trkpt lat="47.93674" lon="7.02199">
        <ele>1210.1</ele>
        <time>2026-03-22T09:19:35Z</time>
      </trkpt>
      <trkpt lat="47.93668" lon="7.02196">
        <ele>1210</ele>
        <time>2026-03-22T09:19:40Z</time>
      </trkpt>
      <trkpt lat="47.9366" lon="7.02193">
        <ele>1209.8</ele>
        <time>2026-03-22T09:19:45Z</time>
      </trkpt>
      <trkpt lat="47.93654" lon="7.02188">
        <ele>1209.6</ele>
        <time>2026-03-22T09:19:50Z</time>
      </trkpt>
      <trkpt lat="47.93647" lon="7.02185">
        <ele>1209.4</ele>
        <time>2026-03-22T09:19:55Z</time>
      </trkpt>
      <trkpt lat="47.93642" lon="7.02179">
        <ele>1209.3</ele>
        <time>2026-03-22T09:20:00Z</time>
      </trkpt>
      <trkpt lat="47.93636" lon="7.02175">
        <ele>1209.2</ele>
        <time>2026-03-22T09:20:05Z</time>
      </trkpt>
      <trkpt lat="47.93629" lon="7.0217">
        <ele>1209.1</ele>
        <time>2026-03-22T09:20:10Z</time>
      </trkpt>
      <trkpt lat="47.93623" lon="7.02164">
        <ele>1209</ele>
        <time>2026-03-22T09:20:15Z</time>
      </trkpt>
      <trkpt lat="47.93617" lon="7.02157">
        <ele>1208.9</ele>
        <time>2026-03-22T09:20:20Z</time>
      </trkpt>
      <trkpt lat="47.93612" lon="7.0215">
        <ele>1208.9</ele>
        <time>2026-03-22T09:20:25Z</time>
      </trkpt>
      <trkpt lat="47.93607" lon="7.02144">
        <ele>1209</ele>
        <time>2026-03-22T09:20:30Z</time>
      </trkpt>
      <trkpt lat="47.93602" lon="7.02136">
        <ele>1209.1</ele>
        <time>2026-03-22T09:20:35Z</time>
      </trkpt>
      <trkpt lat="47.93597" lon="7.02129">
        <ele>1209.3</ele>
        <time>2026-03-22T09:20:40Z</time>
      </trkpt>
      <trkpt lat="47.93591" lon="7.02122">
        <ele>1209.5</ele>
        <time>2026-03-22T09:20:45Z</time>
      </trkpt>
      <trkpt lat="47.93586" lon="7.02114">
        <ele>1209.9</ele>
        <time>2026-03-22T09:20:50Z</time>
      </trkpt>
      <trkpt lat="47.93581" lon="7.02109">
        <ele>1210.1</ele>
        <time>2026-03-22T09:20:55Z</time>
      </trkpt>
      <trkpt lat="47.93575" lon="7.02103">
        <ele>1210.5</ele>
        <time>2026-03-22T09:21:00Z</time>
      </trkpt>
      <trkpt lat="47.93569" lon="7.02096">
        <ele>1211</ele>
        <time>2026-03-22T09:21:05Z</time>
      </trkpt>
      <trkpt lat="47.93564" lon="7.0209">
        <ele>1211.4</ele>
        <time>2026-03-22T09:21:10Z</time>
      </trkpt>
      <trkpt lat="47.93557" lon="7.02085">
        <ele>1211.9</ele>
        <time>2026-03-22T09:21:15Z</time>
      </trkpt>
      <trkpt lat="47.93552" lon="7.02079">
        <ele>1212.1</ele>
        <time>2026-03-22T09:21:20Z</time>
      </trkpt>
      <trkpt lat="47.93547" lon="7.02073">
        <ele>1212.2</ele>
        <time>2026-03-22T09:21:25Z</time>
      </trkpt>
      <trkpt lat="47.93542" lon="7.02068">
        <ele>1212.3</ele>
        <time>2026-03-22T09:21:30Z</time>
      </trkpt>
      <trkpt lat="47.93536" lon="7.02062">
        <ele>1212.5</ele>
        <time>2026-03-22T09:21:35Z</time>
      </trkpt>
      <trkpt lat="47.93531" lon="7.02056">
        <ele>1212.6</ele>
        <time>2026-03-22T09:21:40Z</time>
      </trkpt>
      <trkpt lat="47.93524" lon="7.02056">
        <ele>1212.9</ele>
        <time>2026-03-22T09:21:45Z</time>
      </trkpt>
      <trkpt lat="47.93518" lon="7.02054">
        <ele>1213.2</ele>
        <time>2026-03-22T09:21:50Z</time>
      </trkpt>
      <trkpt lat="47.93512" lon="7.02057">
        <ele>1213.5</ele>
        <time>2026-03-22T09:21:55Z</time>
      </trkpt>
      <trkpt lat="47.93507" lon="7.02061">
        <ele>1213.7</ele>
        <time>2026-03-22T09:22:00Z</time>
      </trkpt>
      <trkpt lat="47.93504" lon="7.02066">
        <ele>1213.8</ele>
        <time>2026-03-22T09:22:05Z</time>
      </trkpt>
      <trkpt lat="47.93501" lon="7.02068">
        <ele>1214</ele>
        <time>2026-03-22T09:22:10Z</time>
      </trkpt>
      <trkpt lat="47.93497" lon="7.02066">
        <ele>1213.8</ele>
        <time>2026-03-22T09:22:15Z</time>
      </trkpt>
      <trkpt lat="47.93492" lon="7.02062">
        <ele>1213.6</ele>
        <time>2026-03-22T09:22:20Z</time>
      </trkpt>
      <trkpt lat="47.93488" lon="7.02058">
        <ele>1213.4</ele>
        <time>2026-03-22T09:22:25Z</time>
      </trkpt>
      <trkpt lat="47.93483" lon="7.02055">
        <ele>1213.2</ele>
        <time>2026-03-22T09:22:30Z</time>
      </trkpt>
      <trkpt lat="47.93478" lon="7.02052">
        <ele>1213</ele>
        <time>2026-03-22T09:22:35Z</time>
      </trkpt>
      <trkpt lat="47.93472" lon="7.02047">
        <ele>1212.8</ele>
        <time>2026-03-22T09:22:40Z</time>
      </trkpt>
      <trkpt lat="47.93467" lon="7.02044">
        <ele>1212.6</ele>
        <time>2026-03-22T09:22:45Z</time>
      </trkpt>
      <trkpt lat="47.93462" lon="7.02038">
        <ele>1212.5</ele>
        <time>2026-03-22T09:22:50Z</time>
      </trkpt>
      <trkpt lat="47.93456" lon="7.02031">
        <ele>1212.4</ele>
        <time>2026-03-22T09:22:55Z</time>
      </trkpt>
      <trkpt lat="47.93451" lon="7.02024">
        <ele>1212.3</ele>
        <time>2026-03-22T09:23:00Z</time>
      </trkpt>
      <trkpt lat="47.93446" lon="7.02018">
        <ele>1212.3</ele>
        <time>2026-03-22T09:23:05Z</time>
      </trkpt>
      <trkpt lat="47.93441" lon="7.02012">
        <ele>1212.3</ele>
        <time>2026-03-22T09:23:10Z</time>
      </trkpt>
      <trkpt lat="47.93435" lon="7.02008">
        <ele>1212.2</ele>
        <time>2026-03-22T09:23:15Z</time>
      </trkpt>
      <trkpt lat="47.93429" lon="7.02005">
        <ele>1212.1</ele>
        <time>2026-03-22T09:23:20Z</time>
      </trkpt>
      <trkpt lat="47.93428" lon="7.02005">
        <ele>1212.1</ele>
        <time>2026-03-22T09:23:25Z</time>
      </trkpt>
      <trkpt lat="47.93428" lon="7.02004">
        <ele>1212.1</ele>
        <time>2026-03-22T09:23:30Z</time>
      </trkpt>
      <trkpt lat="47.93428" lon="7.02004">
        <ele>1212.1</ele>
        <time>2026-03-22T09:23:35Z</time>
      </trkpt>
      <trkpt lat="47.93426" lon="7.02003">
        <ele>1212.1</ele>
        <time>2026-03-22T09:23:40Z</time>
      </trkpt>
      <trkpt lat="47.93421" lon="7.02001">
        <ele>1212.1</ele>
        <time>2026-03-22T09:23:45Z</time>
      </trkpt>
      <trkpt lat="47.93415" lon="7.01999">
        <ele>1211.9</ele>
        <time>2026-03-22T09:23:50Z</time>
      </trkpt>
      <trkpt lat="47.93409" lon="7.01999">
        <ele>1211.6</ele>
        <time>2026-03-22T09:23:55Z</time>
      </trkpt>
      <trkpt lat="47.93403" lon="7.01997">
        <ele>1211.2</ele>
        <time>2026-03-22T09:24:00Z</time>
      </trkpt>
      <trkpt lat="47.93396" lon="7.01993">
        <ele>1210.7</ele>
        <time>2026-03-22T09:24:05Z</time>
      </trkpt>
      <trkpt lat="47.93389" lon="7.01992">
        <ele>1210.3</ele>
        <time>2026-03-22T09:24:10Z</time>
      </trkpt>
      <trkpt lat="47.93381" lon="7.01989">
        <ele>1209.8</ele>
        <time>2026-03-22T09:24:15Z</time>
      </trkpt>
      <trkpt lat="47.93373" lon="7.01986">
        <ele>1209.3</ele>
        <time>2026-03-22T09:24:20Z</time>
      </trkpt>
      <trkpt lat="47.93366" lon="7.01982">
        <ele>1208.9</ele>
        <time>2026-03-22T09:24:25Z</time>
      </trkpt>
      <trkpt lat="47.93359" lon="7.01979">
        <ele>1208.5</ele>
        <time>2026-03-22T09:24:30Z</time>
      </trkpt>
      <trkpt lat="47.93353" lon="7.01976">
        <ele>1208.2</ele>
        <time>2026-03-22T09:24:35Z</time>
      </trkpt>
      <trkpt lat="47.93346" lon="7.01973">
        <ele>1207.8</ele>
        <time>2026-03-22T09:24:40Z</time>
      </trkpt>
      <trkpt lat="47.93338" lon="7.01971">
        <ele>1207.5</ele>
        <time>2026-03-22T09:24:45Z</time>
      </trkpt>
      <trkpt lat="47.93331" lon="7.01969">
        <ele>1207.3</ele>
        <time>2026-03-22T09:24:50Z</time>
      </trkpt>
      <trkpt lat="47.93323" lon="7.01969">
        <ele>1207.4</ele>
        <time>2026-03-22T09:24:55Z</time>
      </trkpt>
      <trkpt lat="47.93316" lon="7.01968">
        <ele>1207.4</ele>
        <time>2026-03-22T09:25:00Z</time>
      </trkpt>
      <trkpt lat="47.93309" lon="7.01968">
        <ele>1207.5</ele>
        <time>2026-03-22T09:25:05Z</time>
      </trkpt>
      <trkpt lat="47.93301" lon="7.01967">
        <ele>1207.6</ele>
        <time>2026-03-22T09:25:10Z</time>
      </trkpt>
      <trkpt lat="47.93294" lon="7.01968">
        <ele>1207.7</ele>
        <time>2026-03-22T09:25:15Z</time>
      </trkpt>
      <trkpt lat="47.93286" lon="7.01968">
        <ele>1207.8</ele>
        <time>2026-03-22T09:25:20Z</time>
      </trkpt>
      <trkpt lat="47.93279" lon="7.01968">
        <ele>1207.9</ele>
        <time>2026-03-22T09:25:25Z</time>
      </trkpt>
      <trkpt lat="47.93272" lon="7.01969">
        <ele>1208</ele>
        <time>2026-03-22T09:25:30Z</time>
      </trkpt>
      <trkpt lat="47.93264" lon="7.01969">
        <ele>1208.1</ele>
        <time>2026-03-22T09:25:35Z</time>
      </trkpt>
      <trkpt lat="47.93256" lon="7.01968">
        <ele>1208.2</ele>
        <time>2026-03-22T09:25:40Z</time>
      </trkpt>
      <trkpt lat="47.93249" lon="7.01969">
        <ele>1208.3</ele>
        <time>2026-03-22T09:25:45Z</time>
      </trkpt>
      <trkpt lat="47.93242" lon="7.01969">
        <ele>1208.6</ele>
        <time>2026-03-22T09:25:50Z</time>
      </trkpt>
      <trkpt lat="47.93234" lon="7.01969">
        <ele>1208.9</ele>
        <time>2026-03-22T09:25:55Z</time>
      </trkpt>
      <trkpt lat="47.93227" lon="7.01968">
        <ele>1209.2</ele>
        <time>2026-03-22T09:26:00Z</time>
      </trkpt>
      <trkpt lat="47.9322" lon="7.01969">
        <ele>1209.6</ele>
        <time>2026-03-22T09:26:05Z</time>
      </trkpt>
      <trkpt lat="47.93215" lon="7.0197">
        <ele>1209.8</ele>
        <time>2026-03-22T09:26:10Z</time>
      </trkpt>
      <trkpt lat="47.93209" lon="7.01969">
        <ele>1210</ele>
        <time>2026-03-22T09:26:15Z</time>
      </trkpt>
      <trkpt lat="47.93203" lon="7.01972">
        <ele>1210.2</ele>
        <time>2026-03-22T09:26:20Z</time>
      </trkpt>
      <trkpt lat="47.93198" lon="7.01971">
        <ele>1210.4</ele>
        <time>2026-03-22T09:26:25Z</time>
      </trkpt>
      <trkpt lat="47.93193" lon="7.0197">
        <ele>1210.7</ele>
        <time>2026-03-22T09:26:30Z</time>
      </trkpt>
      <trkpt lat="47.9319" lon="7.01968">
        <ele>1210.9</ele>
        <time>2026-03-22T09:26:35Z</time>
      </trkpt>
      <trkpt lat="47.93189" lon="7.01969">
        <ele>1210.9</ele>
        <time>2026-03-22T09:26:40Z</time>
      </trkpt>
      <trkpt lat="47.93187" lon="7.01965">
        <ele>1211.1</ele>
        <time>2026-03-22T09:26:45Z</time>
      </trkpt>
      <trkpt lat="47.93186" lon="7.01964">
        <ele>1211.2</ele>
        <time>2026-03-22T09:26:50Z</time>
      </trkpt>
      <trkpt lat="47.93186" lon="7.01964">
        <ele>1211.2</ele>
        <time>2026-03-22T09:26:55Z</time>
      </trkpt>
      <trkpt lat="47.93186" lon="7.01964">
        <ele>1211.2</ele>
        <time>2026-03-22T09:27:00Z</time>
      </trkpt>
      <trkpt lat="47.93186" lon="7.01964">
        <ele>1211.2</ele>
        <time>2026-03-22T09:27:05Z</time>
      </trkpt>
      <trkpt lat="47.93184" lon="7.0196">
        <ele>1211.5</ele>
        <time>2026-03-22T09:27:10Z</time>
      </trkpt>
      <trkpt lat="47.93184" lon="7.0196">
        <ele>1211.5</ele>
        <time>2026-03-22T09:27:15Z</time>
      </trkpt>
      <trkpt lat="47.93184" lon="7.0196">
        <ele>1211.5</ele>
        <time>2026-03-22T09:27:20Z</time>
      </trkpt>
      <trkpt lat="47.93181" lon="7.01958">
        <ele>1211.7</ele>
        <time>2026-03-22T09:27:25Z</time>
      </trkpt>
      <trkpt lat="47.93176" lon="7.01961">
        <ele>1211.9</ele>
        <time>2026-03-22T09:27:30Z</time>
      </trkpt>
      <trkpt lat="47.93174" lon="7.01963">
        <ele>1211.9</ele>
        <time>2026-03-22T09:27:35Z</time>
      </trkpt>
      <trkpt lat="47.93173" lon="7.01963">
        <ele>1211.9</ele>
        <time>2026-03-22T09:27:40Z</time>
      </trkpt>
      <trkpt lat="47.93168" lon="7.01966">
        <ele>1212</ele>
        <time>2026-03-22T09:27:45Z</time>
      </trkpt>
      <trkpt lat="47.93163" lon="7.01969">
        <ele>1212</ele>
        <time>2026-03-22T09:27:50Z</time>
      </trkpt>
      <trkpt lat="47.93159" lon="7.01974">
        <ele>1211.9</ele>
        <time>2026-03-22T09:27:55Z</time>
      </trkpt>
      <trkpt lat="47.93157" lon="7.01975">
        <ele>1211.9</ele>
        <time>2026-03-22T09:28:00Z</time>
      </trkpt>
      <trkpt lat="47.93157" lon="7.01975">
        <ele>1211.9</ele>
        <time>2026-03-22T09:28:05Z</time>
      </trkpt>
      <trkpt lat="47.93157" lon="7.01975">
        <ele>1211.9</ele>
        <time>2026-03-22T09:28:10Z</time>
      </trkpt>
      <trkpt lat="47.93157" lon="7.01975">
        <ele>1211.9</ele>
        <time>2026-03-22T09:28:15Z</time>
      </trkpt>
      <trkpt lat="47.93156" lon="7.01974">
        <ele>1212</ele>
        <time>2026-03-22T09:28:20Z</time>
      </trkpt>
      <trkpt lat="47.93155" lon="7.01967">
        <ele>1212.5</ele>
        <time>2026-03-22T09:28:25Z</time>
      </trkpt>
      <trkpt lat="47.93152" lon="7.01961">
        <ele>1213</ele>
        <time>2026-03-22T09:28:30Z</time>
      </trkpt>
      <trkpt lat="47.93149" lon="7.01959">
        <ele>1213.3</ele>
        <time>2026-03-22T09:28:35Z</time>
      </trkpt>
      <trkpt lat="47.93149" lon="7.0196">
        <ele>1213.2</ele>
        <time>2026-03-22T09:28:40Z</time>
      </trkpt>
      <trkpt lat="47.93149" lon="7.0196">
        <ele>1213.2</ele>
        <time>2026-03-22T09:28:45Z</time>
      </trkpt>
      <trkpt lat="47.93149" lon="7.0196">
        <ele>1213.2</ele>
        <time>2026-03-22T09:28:50Z</time>
      </trkpt>
      <trkpt lat="47.93144" lon="7.01959">
        <ele>1213.5</ele>
        <time>2026-03-22T09:28:55Z</time>
      </trkpt>
      <trkpt lat="47.9314" lon="7.0196">
        <ele>1213.7</ele>
        <time>2026-03-22T09:29:00Z</time>
      </trkpt>
      <trkpt lat="47.93135" lon="7.01958">
        <ele>1214</ele>
        <time>2026-03-22T09:29:05Z</time>
      </trkpt>
      <trkpt lat="47.93131" lon="7.01954">
        <ele>1214.5</ele>
        <time>2026-03-22T09:29:10Z</time>
      </trkpt>
      <trkpt lat="47.93128" lon="7.01948">
        <ele>1215.1</ele>
        <time>2026-03-22T09:29:15Z</time>
      </trkpt>
      <trkpt lat="47.93123" lon="7.01945">
        <ele>1215.6</ele>
        <time>2026-03-22T09:29:20Z</time>
      </trkpt>
      <trkpt lat="47.93118" lon="7.01944">
        <ele>1215.9</ele>
        <time>2026-03-22T09:29:25Z</time>
      </trkpt>
      <trkpt lat="47.93118" lon="7.01944">
        <ele>1215.9</ele>
        <time>2026-03-22T09:29:30Z</time>
      </trkpt>
      <trkpt lat="47.93115" lon="7.01942">
        <ele>1216.2</ele>
        <time>2026-03-22T09:29:35Z</time>
      </trkpt>
      <trkpt lat="47.93112" lon="7.01941">
        <ele>1216.4</ele>
        <time>2026-03-22T09:29:40Z</time>
      </trkpt>
      <trkpt lat="47.93107" lon="7.01942">
        <ele>1216.6</ele>
        <time>2026-03-22T09:29:45Z</time>
      </trkpt>
      <trkpt lat="47.93102" lon="7.01942">
        <ele>1216.9</ele>
        <time>2026-03-22T09:29:50Z</time>
      </trkpt>
      <trkpt lat="47.93097" lon="7.01942">
        <ele>1217.2</ele>
        <time>2026-03-22T09:29:55Z</time>
      </trkpt>
      <trkpt lat="47.93092" lon="7.01943">
        <ele>1217.3</ele>
        <time>2026-03-22T09:30:00Z</time>
      </trkpt>
      <trkpt lat="47.93087" lon="7.01942">
        <ele>1217.7</ele>
        <time>2026-03-22T09:30:05Z</time>
      </trkpt>
      <trkpt lat="47.93081" lon="7.01942">
        <ele>1218</ele>
        <time>2026-03-22T09:30:10Z</time>
      </trkpt>
      <trkpt lat="47.93077" lon="7.01941">
        <ele>1218.4</ele>
        <time>2026-03-22T09:30:15Z</time>
      </trkpt>
      <trkpt lat="47.93071" lon="7.0194">
        <ele>1218.9</ele>
        <time>2026-03-22T09:30:20Z</time>
      </trkpt>
      <trkpt lat="47.93067" lon="7.0194">
        <ele>1219.1</ele>
        <time>2026-03-22T09:30:25Z</time>
      </trkpt>
      <trkpt lat="47.93062" lon="7.01939">
        <ele>1219.6</ele>
        <time>2026-03-22T09:30:30Z</time>
      </trkpt>
      <trkpt lat="47.93057" lon="7.01937">
        <ele>1220.1</ele>
        <time>2026-03-22T09:30:35Z</time>
      </trkpt>
      <trkpt lat="47.93051" lon="7.01937">
        <ele>1220.5</ele>
        <time>2026-03-22T09:30:40Z</time>
      </trkpt>
      <trkpt lat="47.93046" lon="7.01939">
        <ele>1220.7</ele>
        <time>2026-03-22T09:30:45Z</time>
      </trkpt>
      <trkpt lat="47.93041" lon="7.01939">
        <ele>1221</ele>
        <time>2026-03-22T09:30:50Z</time>
      </trkpt>
      <trkpt lat="47.93035" lon="7.0194">
        <ele>1221.3</ele>
        <time>2026-03-22T09:30:55Z</time>
      </trkpt>
      <trkpt lat="47.9303" lon="7.0194">
        <ele>1221.6</ele>
        <time>2026-03-22T09:31:00Z</time>
      </trkpt>
      <trkpt lat="47.93025" lon="7.01942">
        <ele>1221.7</ele>
        <time>2026-03-22T09:31:05Z</time>
      </trkpt>
      <trkpt lat="47.93019" lon="7.01942">
        <ele>1222.1</ele>
        <time>2026-03-22T09:31:10Z</time>
      </trkpt>
      <trkpt lat="47.93013" lon="7.01942">
        <ele>1222.5</ele>
        <time>2026-03-22T09:31:15Z</time>
      </trkpt>
      <trkpt lat="47.93008" lon="7.01943">
        <ele>1222.7</ele>
        <time>2026-03-22T09:31:20Z</time>
      </trkpt>
      <trkpt lat="47.93002" lon="7.01943">
        <ele>1223.1</ele>
        <time>2026-03-22T09:31:25Z</time>
      </trkpt>
      <trkpt lat="47.92997" lon="7.01944">
        <ele>1223.1</ele>
        <time>2026-03-22T09:31:30Z</time>
      </trkpt>
      <trkpt lat="47.92991" lon="7.01944">
        <ele>1223.1</ele>
        <time>2026-03-22T09:31:35Z</time>
      </trkpt>
      <trkpt lat="47.92986" lon="7.01944">
        <ele>1223.1</ele>
        <time>2026-03-22T09:31:40Z</time>
      </trkpt>
      <trkpt lat="47.9298" lon="7.01944">
        <ele>1223.2</ele>
        <time>2026-03-22T09:31:45Z</time>
      </trkpt>
      <trkpt lat="47.92975" lon="7.01945">
        <ele>1223</ele>
        <time>2026-03-22T09:31:50Z</time>
      </trkpt>
      <trkpt lat="47.92969" lon="7.01946">
        <ele>1222.9</ele>
        <time>2026-03-22T09:31:55Z</time>
      </trkpt>
      <trkpt lat="47.92964" lon="7.01947">
        <ele>1222.7</ele>
        <time>2026-03-22T09:32:00Z</time>
      </trkpt>
      <trkpt lat="47.92958" lon="7.01948">
        <ele>1222.5</ele>
        <time>2026-03-22T09:32:05Z</time>
      </trkpt>
      <trkpt lat="47.92953" lon="7.01951">
        <ele>1222</ele>
        <time>2026-03-22T09:32:10Z</time>
      </trkpt>
      <trkpt lat="47.92948" lon="7.01954">
        <ele>1221.5</ele>
        <time>2026-03-22T09:32:15Z</time>
      </trkpt>
      <trkpt lat="47.92943" lon="7.01956">
        <ele>1221.1</ele>
        <time>2026-03-22T09:32:20Z</time>
      </trkpt>
      <trkpt lat="47.92937" lon="7.01958">
        <ele>1220.7</ele>
        <time>2026-03-22T09:32:25Z</time>
      </trkpt>
      <trkpt lat="47.9293" lon="7.01958">
        <ele>1220.6</ele>
        <time>2026-03-22T09:32:30Z</time>
      </trkpt>
      <trkpt lat="47.92926" lon="7.01959">
        <ele>1220.4</ele>
        <time>2026-03-22T09:32:35Z</time>
      </trkpt>
      <trkpt lat="47.92922" lon="7.01958">
        <ele>1220.6</ele>
        <time>2026-03-22T09:32:40Z</time>
      </trkpt>
      <trkpt lat="47.92917" lon="7.01958">
        <ele>1220.6</ele>
        <time>2026-03-22T09:32:45Z</time>
      </trkpt>
      <trkpt lat="47.92911" lon="7.01956">
        <ele>1221.9</ele>
        <time>2026-03-22T09:32:50Z</time>
      </trkpt>
      <trkpt lat="47.92905" lon="7.01953">
        <ele>1223.4</ele>
        <time>2026-03-22T09:32:55Z</time>
      </trkpt>
      <trkpt lat="47.929" lon="7.0195">
        <ele>1224.7</ele>
        <time>2026-03-22T09:33:00Z</time>
      </trkpt>
      <trkpt lat="47.92897" lon="7.01948">
        <ele>1225.5</ele>
        <time>2026-03-22T09:33:05Z</time>
      </trkpt>
      <trkpt lat="47.92894" lon="7.01946">
        <ele>1226.2</ele>
        <time>2026-03-22T09:33:10Z</time>
      </trkpt>
      <trkpt lat="47.92891" lon="7.01944">
        <ele>1227</ele>
        <time>2026-03-22T09:33:15Z</time>
      </trkpt>
      <trkpt lat="47.92888" lon="7.01942">
        <ele>1227.7</ele>
        <time>2026-03-22T09:33:20Z</time>
      </trkpt>
      <trkpt lat="47.92886" lon="7.0194">
        <ele>1228.3</ele>
        <time>2026-03-22T09:33:25Z</time>
      </trkpt>
      <trkpt lat="47.92885" lon="7.01938">
        <ele>1228.8</ele>
        <time>2026-03-22T09:33:30Z</time>
      </trkpt>
      <trkpt lat="47.92881" lon="7.01937">
        <ele>1229.4</ele>
        <time>2026-03-22T09:33:35Z</time>
      </trkpt>
      <trkpt lat="47.92878" lon="7.01934">
        <ele>1230.2</ele>
        <time>2026-03-22T09:33:40Z</time>
      </trkpt>
      <trkpt lat="47.92876" lon="7.01933">
        <ele>1230.6</ele>
        <time>2026-03-22T09:33:45Z</time>
      </trkpt>
      <trkpt lat="47.92874" lon="7.01932">
        <ele>1231</ele>
        <time>2026-03-22T09:33:50Z</time>
      </trkpt>
      <trkpt lat="47.92872" lon="7.01931">
        <ele>1231.4</ele>
        <time>2026-03-22T09:33:55Z</time>
      </trkpt>
      <trkpt lat="47.92869" lon="7.01929">
        <ele>1232</ele>
        <time>2026-03-22T09:34:00Z</time>
      </trkpt>
      <trkpt lat="47.92867" lon="7.01929">
        <ele>1232.2</ele>
        <time>2026-03-22T09:34:05Z</time>
      </trkpt>
      <trkpt lat="47.92865" lon="7.01929">
        <ele>1232.5</ele>
        <time>2026-03-22T09:34:10Z</time>
      </trkpt>
      <trkpt lat="47.92862" lon="7.01929">
        <ele>1232.8</ele>
        <time>2026-03-22T09:34:15Z</time>
      </trkpt>
      <trkpt lat="47.92858" lon="7.0193">
        <ele>1233.2</ele>
        <time>2026-03-22T09:34:20Z</time>
      </trkpt>
      <trkpt lat="47.92856" lon="7.01931">
        <ele>1233.3</ele>
        <time>2026-03-22T09:34:25Z</time>
      </trkpt>
      <trkpt lat="47.92853" lon="7.01933">
        <ele>1233.4</ele>
        <time>2026-03-22T09:34:30Z</time>
      </trkpt>
      <trkpt lat="47.92851" lon="7.01934">
        <ele>1233.6</ele>
        <time>2026-03-22T09:34:35Z</time>
      </trkpt>
      <trkpt lat="47.92849" lon="7.01936">
        <ele>1233.6</ele>
        <time>2026-03-22T09:34:40Z</time>
      </trkpt>
      <trkpt lat="47.92847" lon="7.01938">
        <ele>1233.7</ele>
        <time>2026-03-22T09:34:45Z</time>
      </trkpt>
      <trkpt lat="47.92843" lon="7.01938">
        <ele>1234.2</ele>
        <time>2026-03-22T09:34:50Z</time>
      </trkpt>
      <trkpt lat="47.92838" lon="7.01939">
        <ele>1234.8</ele>
        <time>2026-03-22T09:34:55Z</time>
      </trkpt>
      <trkpt lat="47.92832" lon="7.01939">
        <ele>1235.5</ele>
        <time>2026-03-22T09:35:00Z</time>
      </trkpt>
      <trkpt lat="47.9283" lon="7.01939">
        <ele>1235.5</ele>
        <time>2026-03-22T09:35:05Z</time>
      </trkpt>
      <trkpt lat="47.9283" lon="7.01939">
        <ele>1235.5</ele>
        <time>2026-03-22T09:35:10Z</time>
      </trkpt>
      <trkpt lat="47.92824" lon="7.01942">
        <ele>1235.6</ele>
        <time>2026-03-22T09:35:15Z</time>
      </trkpt>
      <trkpt lat="47.92816" lon="7.01942">
        <ele>1236</ele>
        <time>2026-03-22T09:35:20Z</time>
      </trkpt>
      <trkpt lat="47.92811" lon="7.01942">
        <ele>1236.2</ele>
        <time>2026-03-22T09:35:25Z</time>
      </trkpt>
      <trkpt lat="47.92805" lon="7.01943">
        <ele>1236.4</ele>
        <time>2026-03-22T09:35:30Z</time>
      </trkpt>
      <trkpt lat="47.928" lon="7.01944">
        <ele>1236.6</ele>
        <time>2026-03-22T09:35:35Z</time>
      </trkpt>
      <trkpt lat="47.92796" lon="7.01944">
        <ele>1236.8</ele>
        <time>2026-03-22T09:35:40Z</time>
      </trkpt>
      <trkpt lat="47.92789" lon="7.01945">
        <ele>1237.1</ele>
        <time>2026-03-22T09:35:45Z</time>
      </trkpt>
      <trkpt lat="47.92783" lon="7.01948">
        <ele>1237.2</ele>
        <time>2026-03-22T09:35:50Z</time>
      </trkpt>
      <trkpt lat="47.92777" lon="7.01951">
        <ele>1237.4</ele>
        <time>2026-03-22T09:35:55Z</time>
      </trkpt>
      <trkpt lat="47.92771" lon="7.01956">
        <ele>1237.5</ele>
        <time>2026-03-22T09:36:00Z</time>
      </trkpt>
      <trkpt lat="47.92765" lon="7.01965">
        <ele>1237.4</ele>
        <time>2026-03-22T09:36:05Z</time>
      </trkpt>
      <trkpt lat="47.92764" lon="7.01976">
        <ele>1237</ele>
        <time>2026-03-22T09:36:10Z</time>
      </trkpt>
      <trkpt lat="47.92767" lon="7.01983">
        <ele>1236.5</ele>
        <time>2026-03-22T09:36:15Z</time>
      </trkpt>
      <trkpt lat="47.9277" lon="7.01991">
        <ele>1236</ele>
        <time>2026-03-22T09:36:20Z</time>
      </trkpt>
      <trkpt lat="47.92773" lon="7.01998">
        <ele>1235.4</ele>
        <time>2026-03-22T09:36:25Z</time>
      </trkpt>
      <trkpt lat="47.92775" lon="7.02006">
        <ele>1234.9</ele>
        <time>2026-03-22T09:36:30Z</time>
      </trkpt>
      <trkpt lat="47.92775" lon="7.02014">
        <ele>1234.5</ele>
        <time>2026-03-22T09:36:35Z</time>
      </trkpt>
      <trkpt lat="47.92777" lon="7.02021">
        <ele>1234</ele>
        <time>2026-03-22T09:36:40Z</time>
      </trkpt>
      <trkpt lat="47.92778" lon="7.02027">
        <ele>1233.6</ele>
        <time>2026-03-22T09:36:45Z</time>
      </trkpt>
      <trkpt lat="47.92779" lon="7.02033">
        <ele>1233.2</ele>
        <time>2026-03-22T09:36:50Z</time>
      </trkpt>
      <trkpt lat="47.92781" lon="7.02042">
        <ele>1232.6</ele>
        <time>2026-03-22T09:36:55Z</time>
      </trkpt>
      <trkpt lat="47.92784" lon="7.02049">
        <ele>1232</ele>
        <time>2026-03-22T09:37:00Z</time>
      </trkpt>
      <trkpt lat="47.92787" lon="7.02057">
        <ele>1231.3</ele>
        <time>2026-03-22T09:37:05Z</time>
      </trkpt>
      <trkpt lat="47.92791" lon="7.02066">
        <ele>1230.5</ele>
        <time>2026-03-22T09:37:10Z</time>
      </trkpt>
      <trkpt lat="47.92794" lon="7.02077">
        <ele>1229.6</ele>
        <time>2026-03-22T09:37:15Z</time>
      </trkpt>
      <trkpt lat="47.92796" lon="7.02086">
        <ele>1229.2</ele>
        <time>2026-03-22T09:37:20Z</time>
      </trkpt>
      <trkpt lat="47.92799" lon="7.02096">
        <ele>1229.1</ele>
        <time>2026-03-22T09:37:25Z</time>
      </trkpt>
      <trkpt lat="47.92802" lon="7.02106">
        <ele>1229.1</ele>
        <time>2026-03-22T09:37:30Z</time>
      </trkpt>
      <trkpt lat="47.92802" lon="7.02114">
        <ele>1229.2</ele>
        <time>2026-03-22T09:37:35Z</time>
      </trkpt>
      <trkpt lat="47.92804" lon="7.02123">
        <ele>1229.2</ele>
        <time>2026-03-22T09:37:40Z</time>
      </trkpt>
      <trkpt lat="47.92806" lon="7.02132">
        <ele>1229.3</ele>
        <time>2026-03-22T09:37:45Z</time>
      </trkpt>
      <trkpt lat="47.92806" lon="7.02143">
        <ele>1229.5</ele>
        <time>2026-03-22T09:37:50Z</time>
      </trkpt>
      <trkpt lat="47.92804" lon="7.02151">
        <ele>1229.8</ele>
        <time>2026-03-22T09:37:55Z</time>
      </trkpt>
      <trkpt lat="47.92802" lon="7.0216">
        <ele>1230.1</ele>
        <time>2026-03-22T09:38:00Z</time>
      </trkpt>
      <trkpt lat="47.92802" lon="7.02166">
        <ele>1230.2</ele>
        <time>2026-03-22T09:38:05Z</time>
      </trkpt>
      <trkpt lat="47.92801" lon="7.02174">
        <ele>1230.9</ele>
        <time>2026-03-22T09:38:10Z</time>
      </trkpt>
      <trkpt lat="47.92799" lon="7.02183">
        <ele>1231.7</ele>
        <time>2026-03-22T09:38:15Z</time>
      </trkpt>
      <trkpt lat="47.92797" lon="7.0219">
        <ele>1232.4</ele>
        <time>2026-03-22T09:38:20Z</time>
      </trkpt>
      <trkpt lat="47.92797" lon="7.02198">
        <ele>1233</ele>
        <time>2026-03-22T09:38:25Z</time>
      </trkpt>
      <trkpt lat="47.92798" lon="7.02207">
        <ele>1233.7</ele>
        <time>2026-03-22T09:38:30Z</time>
      </trkpt>
      <trkpt lat="47.92803" lon="7.02214">
        <ele>1233.8</ele>
        <time>2026-03-22T09:38:35Z</time>
      </trkpt>
      <trkpt lat="47.92807" lon="7.0222">
        <ele>1233.9</ele>
        <time>2026-03-22T09:38:40Z</time>
      </trkpt>
      <trkpt lat="47.9281" lon="7.02228">
        <ele>1234.3</ele>
        <time>2026-03-22T09:38:45Z</time>
      </trkpt>
      <trkpt lat="47.92812" lon="7.02236">
        <ele>1234.7</ele>
        <time>2026-03-22T09:38:50Z</time>
      </trkpt>
      <trkpt lat="47.92812" lon="7.02247">
        <ele>1235.6</ele>
        <time>2026-03-22T09:38:55Z</time>
      </trkpt>
      <trkpt lat="47.92811" lon="7.02257">
        <ele>1236</ele>
        <time>2026-03-22T09:39:00Z</time>
      </trkpt>
      <trkpt lat="47.92812" lon="7.02266">
        <ele>1236.1</ele>
        <time>2026-03-22T09:39:05Z</time>
      </trkpt>
      <trkpt lat="47.92812" lon="7.02275">
        <ele>1236.3</ele>
        <time>2026-03-22T09:39:10Z</time>
      </trkpt>
      <trkpt lat="47.92812" lon="7.02285">
        <ele>1236.5</ele>
        <time>2026-03-22T09:39:15Z</time>
      </trkpt>
      <trkpt lat="47.92812" lon="7.02295">
        <ele>1236.6</ele>
        <time>2026-03-22T09:39:20Z</time>
      </trkpt>
      <trkpt lat="47.92811" lon="7.02305">
        <ele>1237</ele>
        <time>2026-03-22T09:39:25Z</time>
      </trkpt>
      <trkpt lat="47.92811" lon="7.02316">
        <ele>1237.3</ele>
        <time>2026-03-22T09:39:30Z</time>
      </trkpt>
      <trkpt lat="47.92811" lon="7.02326">
        <ele>1237.5</ele>
        <time>2026-03-22T09:39:35Z</time>
      </trkpt>
      <trkpt lat="47.92811" lon="7.02336">
        <ele>1237.7</ele>
        <time>2026-03-22T09:39:40Z</time>
      </trkpt>
      <trkpt lat="47.9281" lon="7.02345">
        <ele>1238.3</ele>
        <time>2026-03-22T09:39:45Z</time>
      </trkpt>
      <trkpt lat="47.9281" lon="7.02353">
        <ele>1238.5</ele>
        <time>2026-03-22T09:39:50Z</time>
      </trkpt>
      <trkpt lat="47.92809" lon="7.02363">
        <ele>1239.1</ele>
        <time>2026-03-22T09:39:55Z</time>
      </trkpt>
      <trkpt lat="47.92809" lon="7.02368">
        <ele>1239.3</ele>
        <time>2026-03-22T09:40:00Z</time>
      </trkpt>
      <trkpt lat="47.92808" lon="7.02374">
        <ele>1239.8</ele>
        <time>2026-03-22T09:40:05Z</time>
      </trkpt>
      <trkpt lat="47.92808" lon="7.02379">
        <ele>1239.9</ele>
        <time>2026-03-22T09:40:10Z</time>
      </trkpt>
      <trkpt lat="47.92807" lon="7.02386">
        <ele>1240.5</ele>
        <time>2026-03-22T09:40:15Z</time>
      </trkpt>
      <trkpt lat="47.92806" lon="7.02391">
        <ele>1240.9</ele>
        <time>2026-03-22T09:40:20Z</time>
      </trkpt>
      <trkpt lat="47.92805" lon="7.02401">
        <ele>1241.6</ele>
        <time>2026-03-22T09:40:25Z</time>
      </trkpt>
      <trkpt lat="47.92804" lon="7.02411">
        <ele>1242.3</ele>
        <time>2026-03-22T09:40:30Z</time>
      </trkpt>
      <trkpt lat="47.92804" lon="7.02419">
        <ele>1242.3</ele>
        <time>2026-03-22T09:40:35Z</time>
      </trkpt>
      <trkpt lat="47.92803" lon="7.02427">
        <ele>1242</ele>
        <time>2026-03-22T09:40:40Z</time>
      </trkpt>
      <trkpt lat="47.92802" lon="7.02438">
        <ele>1241.4</ele>
        <time>2026-03-22T09:40:45Z</time>
      </trkpt>
      <trkpt lat="47.92801" lon="7.02446">
        <ele>1241</ele>
        <time>2026-03-22T09:40:50Z</time>
      </trkpt>
      <trkpt lat="47.92798" lon="7.02458">
        <ele>1240.9</ele>
        <time>2026-03-22T09:40:55Z</time>
      </trkpt>
      <trkpt lat="47.92795" lon="7.02468">
        <ele>1240.9</ele>
        <time>2026-03-22T09:41:00Z</time>
      </trkpt>
      <trkpt lat="47.92793" lon="7.02478">
        <ele>1240.6</ele>
        <time>2026-03-22T09:41:05Z</time>
      </trkpt>
      <trkpt lat="47.92791" lon="7.0249">
        <ele>1240.1</ele>
        <time>2026-03-22T09:41:10Z</time>
      </trkpt>
      <trkpt lat="47.92789" lon="7.02499">
        <ele>1239.8</ele>
        <time>2026-03-22T09:41:15Z</time>
      </trkpt>
      <trkpt lat="47.92786" lon="7.0251">
        <ele>1238.9</ele>
        <time>2026-03-22T09:41:20Z</time>
      </trkpt>
      <trkpt lat="47.92782" lon="7.02519">
        <ele>1238.4</ele>
        <time>2026-03-22T09:41:25Z</time>
      </trkpt>
      <trkpt lat="47.92779" lon="7.02528">
        <ele>1237.6</ele>
        <time>2026-03-22T09:41:30Z</time>
      </trkpt>
      <trkpt lat="47.92775" lon="7.02535">
        <ele>1237.3</ele>
        <time>2026-03-22T09:41:35Z</time>
      </trkpt>
      <trkpt lat="47.92772" lon="7.02543">
        <ele>1236.5</ele>
        <time>2026-03-22T09:41:40Z</time>
      </trkpt>
      <trkpt lat="47.9277" lon="7.02551">
        <ele>1235.5</ele>
        <time>2026-03-22T09:41:45Z</time>
      </trkpt>
      <trkpt lat="47.92767" lon="7.02561">
        <ele>1234.3</ele>
        <time>2026-03-22T09:41:50Z</time>
      </trkpt>
      <trkpt lat="47.92764" lon="7.02572">
        <ele>1232.8</ele>
        <time>2026-03-22T09:41:55Z</time>
      </trkpt>
      <trkpt lat="47.9276" lon="7.0258">
        <ele>1232</ele>
        <time>2026-03-22T09:42:00Z</time>
      </trkpt>
      <trkpt lat="47.92758" lon="7.02584">
        <ele>1231.6</ele>
        <time>2026-03-22T09:42:05Z</time>
      </trkpt>
      <trkpt lat="47.92754" lon="7.02588">
        <ele>1231.7</ele>
        <time>2026-03-22T09:42:10Z</time>
      </trkpt>
      <trkpt lat="47.9275" lon="7.02594">
        <ele>1231.6</ele>
        <time>2026-03-22T09:42:15Z</time>
      </trkpt>
      <trkpt lat="47.92745" lon="7.02598">
        <ele>1231.3</ele>
        <time>2026-03-22T09:42:20Z</time>
      </trkpt>
      <trkpt lat="47.9274" lon="7.02602">
        <ele>1231.1</ele>
        <time>2026-03-22T09:42:25Z</time>
      </trkpt>
      <trkpt lat="47.92736" lon="7.02605">
        <ele>1231</ele>
        <time>2026-03-22T09:42:30Z</time>
      </trkpt>
      <trkpt lat="47.92733" lon="7.02608">
        <ele>1230.8</ele>
        <time>2026-03-22T09:42:35Z</time>
      </trkpt>
      <trkpt lat="47.92732" lon="7.02613">
        <ele>1230.3</ele>
        <time>2026-03-22T09:42:40Z</time>
      </trkpt>
      <trkpt lat="47.92732" lon="7.0262">
        <ele>1229.4</ele>
        <time>2026-03-22T09:42:45Z</time>
      </trkpt>
      <trkpt lat="47.92729" lon="7.02627">
        <ele>1228.8</ele>
        <time>2026-03-22T09:42:50Z</time>
      </trkpt>
      <trkpt lat="47.92725" lon="7.02634">
        <ele>1228.2</ele>
        <time>2026-03-22T09:42:55Z</time>
      </trkpt>
      <trkpt lat="47.92719" lon="7.02641">
        <ele>1227.9</ele>
        <time>2026-03-22T09:43:00Z</time>
      </trkpt>
      <trkpt lat="47.92715" lon="7.02649">
        <ele>1227.3</ele>
        <time>2026-03-22T09:43:05Z</time>
      </trkpt>
      <trkpt lat="47.9271" lon="7.02656">
        <ele>1227</ele>
        <time>2026-03-22T09:43:10Z</time>
      </trkpt>
      <trkpt lat="47.92706" lon="7.02664">
        <ele>1226.5</ele>
        <time>2026-03-22T09:43:15Z</time>
      </trkpt>
      <trkpt lat="47.92702" lon="7.02673">
        <ele>1226.2</ele>
        <time>2026-03-22T09:43:20Z</time>
      </trkpt>
      <trkpt lat="47.92698" lon="7.0268">
        <ele>1226.2</ele>
        <time>2026-03-22T09:43:25Z</time>
      </trkpt>
      <trkpt lat="47.92695" lon="7.02688">
        <ele>1225.9</ele>
        <time>2026-03-22T09:43:30Z</time>
      </trkpt>
      <trkpt lat="47.92692" lon="7.02698">
        <ele>1225.5</ele>
        <time>2026-03-22T09:43:35Z</time>
      </trkpt>
      <trkpt lat="47.92689" lon="7.02706">
        <ele>1225.3</ele>
        <time>2026-03-22T09:43:40Z</time>
      </trkpt>
      <trkpt lat="47.92687" lon="7.02715">
        <ele>1224.9</ele>
        <time>2026-03-22T09:43:45Z</time>
      </trkpt>
      <trkpt lat="47.92685" lon="7.02723">
        <ele>1224.5</ele>
        <time>2026-03-22T09:43:50Z</time>
      </trkpt>
      <trkpt lat="47.92681" lon="7.02732">
        <ele>1224.2</ele>
        <time>2026-03-22T09:43:55Z</time>
      </trkpt>
      <trkpt lat="47.92679" lon="7.02741">
        <ele>1223.7</ele>
        <time>2026-03-22T09:44:00Z</time>
      </trkpt>
      <trkpt lat="47.92676" lon="7.0275">
        <ele>1223.3</ele>
        <time>2026-03-22T09:44:05Z</time>
      </trkpt>
      <trkpt lat="47.92673" lon="7.02759">
        <ele>1222.6</ele>
        <time>2026-03-22T09:44:10Z</time>
      </trkpt>
      <trkpt lat="47.9267" lon="7.02767">
        <ele>1221.9</ele>
        <time>2026-03-22T09:44:15Z</time>
      </trkpt>
      <trkpt lat="47.92668" lon="7.02775">
        <ele>1221.2</ele>
        <time>2026-03-22T09:44:20Z</time>
      </trkpt>
      <trkpt lat="47.92666" lon="7.02782">
        <ele>1220.5</ele>
        <time>2026-03-22T09:44:25Z</time>
      </trkpt>
      <trkpt lat="47.92667" lon="7.02783">
        <ele>1220.4</ele>
        <time>2026-03-22T09:44:30Z</time>
      </trkpt>
      <trkpt lat="47.92667" lon="7.02783">
        <ele>1220.4</ele>
        <time>2026-03-22T09:44:35Z</time>
      </trkpt>
      <trkpt lat="47.92665" lon="7.02784">
        <ele>1220.3</ele>
        <time>2026-03-22T09:44:40Z</time>
      </trkpt>
      <trkpt lat="47.92662" lon="7.0279">
        <ele>1219.7</ele>
        <time>2026-03-22T09:44:45Z</time>
      </trkpt>
      <trkpt lat="47.92657" lon="7.02797">
        <ele>1218.9</ele>
        <time>2026-03-22T09:44:50Z</time>
      </trkpt>
      <trkpt lat="47.92652" lon="7.02803">
        <ele>1218.2</ele>
        <time>2026-03-22T09:44:55Z</time>
      </trkpt>
      <trkpt lat="47.92647" lon="7.02808">
        <ele>1217.6</ele>
        <time>2026-03-22T09:45:00Z</time>
      </trkpt>
      <trkpt lat="47.92642" lon="7.02814">
        <ele>1216.8</ele>
        <time>2026-03-22T09:45:05Z</time>
      </trkpt>
      <trkpt lat="47.92636" lon="7.0282">
        <ele>1215.9</ele>
        <time>2026-03-22T09:45:10Z</time>
      </trkpt>
      <trkpt lat="47.9263" lon="7.02826">
        <ele>1215.1</ele>
        <time>2026-03-22T09:45:15Z</time>
      </trkpt>
      <trkpt lat="47.92625" lon="7.02832">
        <ele>1214.2</ele>
        <time>2026-03-22T09:45:20Z</time>
      </trkpt>
      <trkpt lat="47.92619" lon="7.02837">
        <ele>1213.3</ele>
        <time>2026-03-22T09:45:25Z</time>
      </trkpt>
      <trkpt lat="47.92613" lon="7.02843">
        <ele>1212.4</ele>
        <time>2026-03-22T09:45:30Z</time>
      </trkpt>
      <trkpt lat="47.92606" lon="7.02849">
        <ele>1211.4</ele>
        <time>2026-03-22T09:45:35Z</time>
      </trkpt>
      <trkpt lat="47.926" lon="7.02854">
        <ele>1210.6</ele>
        <time>2026-03-22T09:45:40Z</time>
      </trkpt>
      <trkpt lat="47.92595" lon="7.0286">
        <ele>1209.7</ele>
        <time>2026-03-22T09:45:45Z</time>
      </trkpt>
      <trkpt lat="47.92589" lon="7.02864">
        <ele>1209</ele>
        <time>2026-03-22T09:45:50Z</time>
      </trkpt>
      <trkpt lat="47.92582" lon="7.02867">
        <ele>1208.4</ele>
        <time>2026-03-22T09:45:55Z</time>
      </trkpt>
      <trkpt lat="47.92576" lon="7.02872">
        <ele>1207.2</ele>
        <time>2026-03-22T09:46:00Z</time>
      </trkpt>
      <trkpt lat="47.9257" lon="7.02876">
        <ele>1206.2</ele>
        <time>2026-03-22T09:46:05Z</time>
      </trkpt>
      <trkpt lat="47.92564" lon="7.02881">
        <ele>1205</ele>
        <time>2026-03-22T09:46:10Z</time>
      </trkpt>
      <trkpt lat="47.92557" lon="7.02885">
        <ele>1203.9</ele>
        <time>2026-03-22T09:46:15Z</time>
      </trkpt>
      <trkpt lat="47.92552" lon="7.02891">
        <ele>1202.8</ele>
        <time>2026-03-22T09:46:20Z</time>
      </trkpt>
      <trkpt lat="47.92546" lon="7.02896">
        <ele>1201.7</ele>
        <time>2026-03-22T09:46:25Z</time>
      </trkpt>
      <trkpt lat="47.9254" lon="7.02901">
        <ele>1200.7</ele>
        <time>2026-03-22T09:46:30Z</time>
      </trkpt>
      <trkpt lat="47.92533" lon="7.02905">
        <ele>1199.7</ele>
        <time>2026-03-22T09:46:35Z</time>
      </trkpt>
      <trkpt lat="47.92525" lon="7.02908">
        <ele>1198.7</ele>
        <time>2026-03-22T09:46:40Z</time>
      </trkpt>
      <trkpt lat="47.92518" lon="7.02913">
        <ele>1197.7</ele>
        <time>2026-03-22T09:46:45Z</time>
      </trkpt>
      <trkpt lat="47.92512" lon="7.02918">
        <ele>1196.8</ele>
        <time>2026-03-22T09:46:50Z</time>
      </trkpt>
      <trkpt lat="47.92506" lon="7.02922">
        <ele>1196</ele>
        <time>2026-03-22T09:46:55Z</time>
      </trkpt>
      <trkpt lat="47.92499" lon="7.02924">
        <ele>1195.4</ele>
        <time>2026-03-22T09:47:00Z</time>
      </trkpt>
      <trkpt lat="47.92492" lon="7.02927">
        <ele>1194.8</ele>
        <time>2026-03-22T09:47:05Z</time>
      </trkpt>
      <trkpt lat="47.92485" lon="7.02928">
        <ele>1194.4</ele>
        <time>2026-03-22T09:47:10Z</time>
      </trkpt>
      <trkpt lat="47.92477" lon="7.02929">
        <ele>1193.9</ele>
        <time>2026-03-22T09:47:15Z</time>
      </trkpt>
      <trkpt lat="47.92471" lon="7.02931">
        <ele>1193.5</ele>
        <time>2026-03-22T09:47:20Z</time>
      </trkpt>
      <trkpt lat="47.92464" lon="7.02932">
        <ele>1193.1</ele>
        <time>2026-03-22T09:47:25Z</time>
      </trkpt>
      <trkpt lat="47.92455" lon="7.02932">
        <ele>1192.6</ele>
        <time>2026-03-22T09:47:30Z</time>
      </trkpt>
      <trkpt lat="47.92447" lon="7.02934">
        <ele>1192.1</ele>
        <time>2026-03-22T09:47:35Z</time>
      </trkpt>
      <trkpt lat="47.92442" lon="7.02938">
        <ele>1191.7</ele>
        <time>2026-03-22T09:47:40Z</time>
      </trkpt>
      <trkpt lat="47.92436" lon="7.02943">
        <ele>1191.2</ele>
        <time>2026-03-22T09:47:45Z</time>
      </trkpt>
      <trkpt lat="47.92432" lon="7.02953">
        <ele>1190.7</ele>
        <time>2026-03-22T09:47:50Z</time>
      </trkpt>
      <trkpt lat="47.92431" lon="7.02966">
        <ele>1190.3</ele>
        <time>2026-03-22T09:47:55Z</time>
      </trkpt>
      <trkpt lat="47.92435" lon="7.02973">
        <ele>1190.2</ele>
        <time>2026-03-22T09:48:00Z</time>
      </trkpt>
      <trkpt lat="47.92435" lon="7.02981">
        <ele>1189.9</ele>
        <time>2026-03-22T09:48:05Z</time>
      </trkpt>
      <trkpt lat="47.92434" lon="7.02992">
        <ele>1189.5</ele>
        <time>2026-03-22T09:48:10Z</time>
      </trkpt>
      <trkpt lat="47.92431" lon="7.03002">
        <ele>1189.1</ele>
        <time>2026-03-22T09:48:15Z</time>
      </trkpt>
      <trkpt lat="47.92429" lon="7.03007">
        <ele>1188.9</ele>
        <time>2026-03-22T09:48:20Z</time>
      </trkpt>
      <trkpt lat="47.92424" lon="7.03011">
        <ele>1188.7</ele>
        <time>2026-03-22T09:48:25Z</time>
      </trkpt>
      <trkpt lat="47.9242" lon="7.03008">
        <ele>1188.7</ele>
        <time>2026-03-22T09:48:30Z</time>
      </trkpt>
      <trkpt lat="47.92417" lon="7.03009">
        <ele>1188.7</ele>
        <time>2026-03-22T09:48:35Z</time>
      </trkpt>
      <trkpt lat="47.92417" lon="7.03009">
        <ele>1188.7</ele>
        <time>2026-03-22T09:48:40Z</time>
      </trkpt>
      <trkpt lat="47.92417" lon="7.03005">
        <ele>1188.8</ele>
        <time>2026-03-22T09:48:45Z</time>
      </trkpt>
      <trkpt lat="47.92417" lon="7.03005">
        <ele>1188.8</ele>
        <time>2026-03-22T09:48:45Z</time>
      </trkpt>
      <trkpt lat="47.9242" lon="7.03006">
        <ele>1188.8</ele>
        <time>2026-03-22T12:23:28Z</time>
      </trkpt>
      <trkpt lat="47.92414" lon="7.03008">
        <ele>1188.6</ele>
        <time>2026-03-22T12:23:34Z</time>
      </trkpt>
      <trkpt lat="47.92412" lon="7.03015">
        <ele>1188.3</ele>
        <time>2026-03-22T12:23:39Z</time>
      </trkpt>
      <trkpt lat="47.9241" lon="7.0302">
        <ele>1188.1</ele>
        <time>2026-03-22T12:23:44Z</time>
      </trkpt>
      <trkpt lat="47.92406" lon="7.03026">
        <ele>1187.8</ele>
        <time>2026-03-22T12:23:49Z</time>
      </trkpt>
      <trkpt lat="47.92401" lon="7.03031">
        <ele>1187.6</ele>
        <time>2026-03-22T12:23:54Z</time>
      </trkpt>
      <trkpt lat="47.92397" lon="7.03036">
        <ele>1187.4</ele>
        <time>2026-03-22T12:23:59Z</time>
      </trkpt>
      <trkpt lat="47.92391" lon="7.03041">
        <ele>1187.2</ele>
        <time>2026-03-22T12:24:04Z</time>
      </trkpt>
      <trkpt lat="47.92386" lon="7.03047">
        <ele>1187</ele>
        <time>2026-03-22T12:24:09Z</time>
      </trkpt>
      <trkpt lat="47.9238" lon="7.03053">
        <ele>1186.9</ele>
        <time>2026-03-22T12:24:14Z</time>
      </trkpt>
      <trkpt lat="47.92375" lon="7.03059">
        <ele>1186.8</ele>
        <time>2026-03-22T12:24:19Z</time>
      </trkpt>
      <trkpt lat="47.92371" lon="7.03065">
        <ele>1186.7</ele>
        <time>2026-03-22T12:24:24Z</time>
      </trkpt>
      <trkpt lat="47.92366" lon="7.03069">
        <ele>1186.7</ele>
        <time>2026-03-22T12:24:29Z</time>
      </trkpt>
      <trkpt lat="47.92362" lon="7.03075">
        <ele>1186.7</ele>
        <time>2026-03-22T12:24:34Z</time>
      </trkpt>
      <trkpt lat="47.92357" lon="7.03081">
        <ele>1186.7</ele>
        <time>2026-03-22T12:24:39Z</time>
      </trkpt>
      <trkpt lat="47.92352" lon="7.03086">
        <ele>1186.7</ele>
        <time>2026-03-22T12:24:44Z</time>
      </trkpt>
      <trkpt lat="47.92347" lon="7.03094">
        <ele>1186.5</ele>
        <time>2026-03-22T12:24:49Z</time>
      </trkpt>
      <trkpt lat="47.92341" lon="7.03102">
        <ele>1186.4</ele>
        <time>2026-03-22T12:24:54Z</time>
      </trkpt>
      <trkpt lat="47.92336" lon="7.03107">
        <ele>1186.4</ele>
        <time>2026-03-22T12:24:59Z</time>
      </trkpt>
      <trkpt lat="47.92332" lon="7.03115">
        <ele>1186.2</ele>
        <time>2026-03-22T12:25:04Z</time>
      </trkpt>
      <trkpt lat="47.92328" lon="7.03124">
        <ele>1185.8</ele>
        <time>2026-03-22T12:25:09Z</time>
      </trkpt>
      <trkpt lat="47.92325" lon="7.03132">
        <ele>1185.5</ele>
        <time>2026-03-22T12:25:14Z</time>
      </trkpt>
      <trkpt lat="47.92322" lon="7.03141">
        <ele>1185.2</ele>
        <time>2026-03-22T12:25:19Z</time>
      </trkpt>
      <trkpt lat="47.92321" lon="7.03148">
        <ele>1185</ele>
        <time>2026-03-22T12:25:24Z</time>
      </trkpt>
      <trkpt lat="47.92318" lon="7.03158">
        <ele>1184.8</ele>
        <time>2026-03-22T12:25:29Z</time>
      </trkpt>
      <trkpt lat="47.92313" lon="7.0317">
        <ele>1184.3</ele>
        <time>2026-03-22T12:25:34Z</time>
      </trkpt>
      <trkpt lat="47.92309" lon="7.0318">
        <ele>1183.6</ele>
        <time>2026-03-22T12:25:39Z</time>
      </trkpt>
      <trkpt lat="47.92306" lon="7.03191">
        <ele>1182.8</ele>
        <time>2026-03-22T12:25:44Z</time>
      </trkpt>
      <trkpt lat="47.92305" lon="7.03201">
        <ele>1182.1</ele>
        <time>2026-03-22T12:25:49Z</time>
      </trkpt>
      <trkpt lat="47.92303" lon="7.03212">
        <ele>1181.3</ele>
        <time>2026-03-22T12:25:54Z</time>
      </trkpt>
      <trkpt lat="47.92302" lon="7.03222">
        <ele>1180.6</ele>
        <time>2026-03-22T12:25:59Z</time>
      </trkpt>
      <trkpt lat="47.92301" lon="7.0323">
        <ele>1180</ele>
        <time>2026-03-22T12:26:04Z</time>
      </trkpt>
      <trkpt lat="47.923" lon="7.03232">
        <ele>1179.8</ele>
        <time>2026-03-22T12:26:09Z</time>
      </trkpt>
      <trkpt lat="47.923" lon="7.0324">
        <ele>1179.3</ele>
        <time>2026-03-22T12:26:14Z</time>
      </trkpt>
      <trkpt lat="47.92298" lon="7.03243">
        <ele>1178.9</ele>
        <time>2026-03-22T12:26:19Z</time>
      </trkpt>
      <trkpt lat="47.92298" lon="7.03243">
        <ele>1178.9</ele>
        <time>2026-03-22T12:26:24Z</time>
      </trkpt>
      <trkpt lat="47.92298" lon="7.03243">
        <ele>1178.9</ele>
        <time>2026-03-22T12:26:29Z</time>
      </trkpt>
      <trkpt lat="47.92296" lon="7.03249">
        <ele>1178.4</ele>
        <time>2026-03-22T12:26:34Z</time>
      </trkpt>
      <trkpt lat="47.92296" lon="7.03257">
        <ele>1177.8</ele>
        <time>2026-03-22T12:26:39Z</time>
      </trkpt>
      <trkpt lat="47.92294" lon="7.03267">
        <ele>1176.9</ele>
        <time>2026-03-22T12:26:44Z</time>
      </trkpt>
      <trkpt lat="47.92292" lon="7.03277">
        <ele>1175.9</ele>
        <time>2026-03-22T12:26:49Z</time>
      </trkpt>
      <trkpt lat="47.92292" lon="7.03289">
        <ele>1175</ele>
        <time>2026-03-22T12:26:54Z</time>
      </trkpt>
      <trkpt lat="47.92291" lon="7.03301">
        <ele>1174</ele>
        <time>2026-03-22T12:26:59Z</time>
      </trkpt>
      <trkpt lat="47.92291" lon="7.03312">
        <ele>1173.1</ele>
        <time>2026-03-22T12:27:04Z</time>
      </trkpt>
      <trkpt lat="47.92289" lon="7.03322">
        <ele>1172.1</ele>
        <time>2026-03-22T12:27:09Z</time>
      </trkpt>
      <trkpt lat="47.92287" lon="7.03331">
        <ele>1171.2</ele>
        <time>2026-03-22T12:27:14Z</time>
      </trkpt>
      <trkpt lat="47.92285" lon="7.03342">
        <ele>1169.7</ele>
        <time>2026-03-22T12:27:19Z</time>
      </trkpt>
      <trkpt lat="47.92284" lon="7.03352">
        <ele>1168.3</ele>
        <time>2026-03-22T12:27:24Z</time>
      </trkpt>
      <trkpt lat="47.92282" lon="7.03363">
        <ele>1166.6</ele>
        <time>2026-03-22T12:27:29Z</time>
      </trkpt>
      <trkpt lat="47.92278" lon="7.03374">
        <ele>1164.5</ele>
        <time>2026-03-22T12:27:34Z</time>
      </trkpt>
      <trkpt lat="47.92275" lon="7.03384">
        <ele>1162.6</ele>
        <time>2026-03-22T12:27:39Z</time>
      </trkpt>
      <trkpt lat="47.92273" lon="7.03394">
        <ele>1160.9</ele>
        <time>2026-03-22T12:27:44Z</time>
      </trkpt>
      <trkpt lat="47.92271" lon="7.03403">
        <ele>1159.2</ele>
        <time>2026-03-22T12:27:49Z</time>
      </trkpt>
      <trkpt lat="47.9227" lon="7.0341">
        <ele>1158</ele>
        <time>2026-03-22T12:27:54Z</time>
      </trkpt>
      <trkpt lat="47.92273" lon="7.03421">
        <ele>1157.1</ele>
        <time>2026-03-22T12:27:59Z</time>
      </trkpt>
      <trkpt lat="47.92276" lon="7.03432">
        <ele>1156.3</ele>
        <time>2026-03-22T12:28:04Z</time>
      </trkpt>
      <trkpt lat="47.92279" lon="7.03441">
        <ele>1155.7</ele>
        <time>2026-03-22T12:28:09Z</time>
      </trkpt>
      <trkpt lat="47.92281" lon="7.03451">
        <ele>1154.9</ele>
        <time>2026-03-22T12:28:14Z</time>
      </trkpt>
      <trkpt lat="47.92279" lon="7.03461">
        <ele>1153.1</ele>
        <time>2026-03-22T12:28:19Z</time>
      </trkpt>
      <trkpt lat="47.9228" lon="7.03473">
        <ele>1151.8</ele>
        <time>2026-03-22T12:28:24Z</time>
      </trkpt>
      <trkpt lat="47.92282" lon="7.03482">
        <ele>1151.1</ele>
        <time>2026-03-22T12:28:29Z</time>
      </trkpt>
      <trkpt lat="47.92283" lon="7.03487">
        <ele>1150.8</ele>
        <time>2026-03-22T12:28:34Z</time>
      </trkpt>
      <trkpt lat="47.92282" lon="7.03497">
        <ele>1149.2</ele>
        <time>2026-03-22T12:28:39Z</time>
      </trkpt>
      <trkpt lat="47.92283" lon="7.03506">
        <ele>1148.7</ele>
        <time>2026-03-22T12:28:44Z</time>
      </trkpt>
      <trkpt lat="47.92284" lon="7.03519">
        <ele>1148</ele>
        <time>2026-03-22T12:28:49Z</time>
      </trkpt>
      <trkpt lat="47.92285" lon="7.03528">
        <ele>1147.6</ele>
        <time>2026-03-22T12:28:54Z</time>
      </trkpt>
      <trkpt lat="47.92286" lon="7.03537">
        <ele>1147.2</ele>
        <time>2026-03-22T12:28:59Z</time>
      </trkpt>
      <trkpt lat="47.92287" lon="7.03546">
        <ele>1146.8</ele>
        <time>2026-03-22T12:29:04Z</time>
      </trkpt>
      <trkpt lat="47.92288" lon="7.03555">
        <ele>1146.5</ele>
        <time>2026-03-22T12:29:09Z</time>
      </trkpt>
      <trkpt lat="47.92291" lon="7.03564">
        <ele>1146.7</ele>
        <time>2026-03-22T12:29:14Z</time>
      </trkpt>
      <trkpt lat="47.92291" lon="7.03572">
        <ele>1146.1</ele>
        <time>2026-03-22T12:29:19Z</time>
      </trkpt>
      <trkpt lat="47.92291" lon="7.03581">
        <ele>1145.5</ele>
        <time>2026-03-22T12:29:24Z</time>
      </trkpt>
      <trkpt lat="47.92292" lon="7.03584">
        <ele>1145.6</ele>
        <time>2026-03-22T12:29:29Z</time>
      </trkpt>
      <trkpt lat="47.92291" lon="7.03586">
        <ele>1145.5</ele>
        <time>2026-03-22T12:29:34Z</time>
      </trkpt>
      <trkpt lat="47.92291" lon="7.03586">
        <ele>1145.5</ele>
        <time>2026-03-22T12:29:39Z</time>
      </trkpt>
      <trkpt lat="47.92292" lon="7.03588">
        <ele>1145.9</ele>
        <time>2026-03-22T12:29:44Z</time>
      </trkpt>
      <trkpt lat="47.92293" lon="7.03597">
        <ele>1146.7</ele>
        <time>2026-03-22T12:29:49Z</time>
      </trkpt>
      <trkpt lat="47.92293" lon="7.03606">
        <ele>1147.3</ele>
        <time>2026-03-22T12:29:54Z</time>
      </trkpt>
      <trkpt lat="47.92293" lon="7.03615">
        <ele>1147.8</ele>
        <time>2026-03-22T12:29:59Z</time>
      </trkpt>
      <trkpt lat="47.92293" lon="7.03624">
        <ele>1148.4</ele>
        <time>2026-03-22T12:30:04Z</time>
      </trkpt>
      <trkpt lat="47.92293" lon="7.03636">
        <ele>1149.1</ele>
        <time>2026-03-22T12:30:09Z</time>
      </trkpt>
      <trkpt lat="47.92292" lon="7.03644">
        <ele>1149.3</ele>
        <time>2026-03-22T12:30:14Z</time>
      </trkpt>
      <trkpt lat="47.92291" lon="7.03651">
        <ele>1149.3</ele>
        <time>2026-03-22T12:30:19Z</time>
      </trkpt>
      <trkpt lat="47.92291" lon="7.03658">
        <ele>1149.8</ele>
        <time>2026-03-22T12:30:24Z</time>
      </trkpt>
      <trkpt lat="47.92289" lon="7.03666">
        <ele>1149.5</ele>
        <time>2026-03-22T12:30:29Z</time>
      </trkpt>
      <trkpt lat="47.92286" lon="7.03673">
        <ele>1149.5</ele>
        <time>2026-03-22T12:30:34Z</time>
      </trkpt>
      <trkpt lat="47.92283" lon="7.03679">
        <ele>1149.4</ele>
        <time>2026-03-22T12:30:39Z</time>
      </trkpt>
      <trkpt lat="47.9228" lon="7.03686">
        <ele>1149.5</ele>
        <time>2026-03-22T12:30:44Z</time>
      </trkpt>
      <trkpt lat="47.92277" lon="7.03694">
        <ele>1149.8</ele>
        <time>2026-03-22T12:30:49Z</time>
      </trkpt>
      <trkpt lat="47.92274" lon="7.037">
        <ele>1149.8</ele>
        <time>2026-03-22T12:30:54Z</time>
      </trkpt>
      <trkpt lat="47.92271" lon="7.03706">
        <ele>1149.8</ele>
        <time>2026-03-22T12:30:59Z</time>
      </trkpt>
      <trkpt lat="47.92267" lon="7.03712">
        <ele>1149.5</ele>
        <time>2026-03-22T12:31:04Z</time>
      </trkpt>
      <trkpt lat="47.92263" lon="7.0372">
        <ele>1149.6</ele>
        <time>2026-03-22T12:31:09Z</time>
      </trkpt>
      <trkpt lat="47.9226" lon="7.03728">
        <ele>1150.1</ele>
        <time>2026-03-22T12:31:14Z</time>
      </trkpt>
      <trkpt lat="47.92256" lon="7.03736">
        <ele>1150.3</ele>
        <time>2026-03-22T12:31:19Z</time>
      </trkpt>
      <trkpt lat="47.92252" lon="7.03744">
        <ele>1150.5</ele>
        <time>2026-03-22T12:31:24Z</time>
      </trkpt>
      <trkpt lat="47.92248" lon="7.03752">
        <ele>1150.8</ele>
        <time>2026-03-22T12:31:29Z</time>
      </trkpt>
      <trkpt lat="47.92245" lon="7.03761">
        <ele>1151.8</ele>
        <time>2026-03-22T12:31:34Z</time>
      </trkpt>
      <trkpt lat="47.92242" lon="7.03769">
        <ele>1152.6</ele>
        <time>2026-03-22T12:31:39Z</time>
      </trkpt>
      <trkpt lat="47.9224" lon="7.03776">
        <ele>1153.5</ele>
        <time>2026-03-22T12:31:44Z</time>
      </trkpt>
      <trkpt lat="47.92236" lon="7.03784">
        <ele>1153.9</ele>
        <time>2026-03-22T12:31:49Z</time>
      </trkpt>
      <trkpt lat="47.92232" lon="7.03791">
        <ele>1154.2</ele>
        <time>2026-03-22T12:31:54Z</time>
      </trkpt>
      <trkpt lat="47.92228" lon="7.03798">
        <ele>1154.5</ele>
        <time>2026-03-22T12:31:59Z</time>
      </trkpt>
      <trkpt lat="47.92224" lon="7.03806">
        <ele>1155.1</ele>
        <time>2026-03-22T12:32:04Z</time>
      </trkpt>
      <trkpt lat="47.92219" lon="7.03812">
        <ele>1154.9</ele>
        <time>2026-03-22T12:32:09Z</time>
      </trkpt>
      <trkpt lat="47.92213" lon="7.03818">
        <ele>1154.4</ele>
        <time>2026-03-22T12:32:14Z</time>
      </trkpt>
      <trkpt lat="47.92209" lon="7.03823">
        <ele>1154.3</ele>
        <time>2026-03-22T12:32:19Z</time>
      </trkpt>
      <trkpt lat="47.92204" lon="7.03829">
        <ele>1154.2</ele>
        <time>2026-03-22T12:32:24Z</time>
      </trkpt>
      <trkpt lat="47.92199" lon="7.03836">
        <ele>1154.4</ele>
        <time>2026-03-22T12:32:29Z</time>
      </trkpt>
      <trkpt lat="47.92194" lon="7.03842">
        <ele>1154.4</ele>
        <time>2026-03-22T12:32:34Z</time>
      </trkpt>
      <trkpt lat="47.92191" lon="7.03848">
        <ele>1155</ele>
        <time>2026-03-22T12:32:39Z</time>
      </trkpt>
      <trkpt lat="47.92185" lon="7.03855">
        <ele>1155</ele>
        <time>2026-03-22T12:32:44Z</time>
      </trkpt>
      <trkpt lat="47.9218" lon="7.03863">
        <ele>1155.7</ele>
        <time>2026-03-22T12:32:49Z</time>
      </trkpt>
      <trkpt lat="47.92176" lon="7.03869">
        <ele>1156.1</ele>
        <time>2026-03-22T12:32:54Z</time>
      </trkpt>
      <trkpt lat="47.92173" lon="7.03873">
        <ele>1156.3</ele>
        <time>2026-03-22T12:32:59Z</time>
      </trkpt>
      <trkpt lat="47.92168" lon="7.03879">
        <ele>1156.4</ele>
        <time>2026-03-22T12:33:04Z</time>
      </trkpt>
      <trkpt lat="47.92163" lon="7.03886">
        <ele>1157</ele>
        <time>2026-03-22T12:33:09Z</time>
      </trkpt>
      <trkpt lat="47.92158" lon="7.03892">
        <ele>1157.4</ele>
        <time>2026-03-22T12:33:14Z</time>
      </trkpt>
      <trkpt lat="47.92154" lon="7.039">
        <ele>1158.6</ele>
        <time>2026-03-22T12:33:19Z</time>
      </trkpt>
      <trkpt lat="47.92151" lon="7.03905">
        <ele>1159.2</ele>
        <time>2026-03-22T12:33:24Z</time>
      </trkpt>
      <trkpt lat="47.92148" lon="7.0391">
        <ele>1159.9</ele>
        <time>2026-03-22T12:33:29Z</time>
      </trkpt>
      <trkpt lat="47.92145" lon="7.03918">
        <ele>1161.5</ele>
        <time>2026-03-22T12:33:34Z</time>
      </trkpt>
      <trkpt lat="47.92143" lon="7.03923">
        <ele>1162.8</ele>
        <time>2026-03-22T12:33:39Z</time>
      </trkpt>
      <trkpt lat="47.92141" lon="7.03929">
        <ele>1164.4</ele>
        <time>2026-03-22T12:33:44Z</time>
      </trkpt>
      <trkpt lat="47.92135" lon="7.0394">
        <ele>1166.9</ele>
        <time>2026-03-22T12:33:49Z</time>
      </trkpt>
      <trkpt lat="47.92132" lon="7.03947">
        <ele>1168.7</ele>
        <time>2026-03-22T12:33:54Z</time>
      </trkpt>
      <trkpt lat="47.92132" lon="7.03949">
        <ele>1169.4</ele>
        <time>2026-03-22T12:33:59Z</time>
      </trkpt>
      <trkpt lat="47.92132" lon="7.03949">
        <ele>1169.4</ele>
        <time>2026-03-22T12:34:04Z</time>
      </trkpt>
      <trkpt lat="47.92132" lon="7.03949">
        <ele>1169.4</ele>
        <time>2026-03-22T12:34:09Z</time>
      </trkpt>
      <trkpt lat="47.92132" lon="7.03949">
        <ele>1169.4</ele>
        <time>2026-03-22T12:34:14Z</time>
      </trkpt>
      <trkpt lat="47.92132" lon="7.03949">
        <ele>1169.4</ele>
        <time>2026-03-22T12:34:19Z</time>
      </trkpt>
      <trkpt lat="47.92129" lon="7.03945">
        <ele>1167.4</ele>
        <time>2026-03-22T12:34:24Z</time>
      </trkpt>
      <trkpt lat="47.92125" lon="7.0395">
        <ele>1168.3</ele>
        <time>2026-03-22T12:34:29Z</time>
      </trkpt>
      <trkpt lat="47.92123" lon="7.03954">
        <ele>1169.3</ele>
        <time>2026-03-22T12:34:34Z</time>
      </trkpt>
      <trkpt lat="47.92119" lon="7.03961">
        <ele>1171</ele>
        <time>2026-03-22T12:34:39Z</time>
      </trkpt>
      <trkpt lat="47.92114" lon="7.03966">
        <ele>1171.8</ele>
        <time>2026-03-22T12:34:44Z</time>
      </trkpt>
      <trkpt lat="47.92108" lon="7.03969">
        <ele>1171.8</ele>
        <time>2026-03-22T12:34:49Z</time>
      </trkpt>
      <trkpt lat="47.92102" lon="7.03973">
        <ele>1172.1</ele>
        <time>2026-03-22T12:34:54Z</time>
      </trkpt>
      <trkpt lat="47.92097" lon="7.03977">
        <ele>1172.7</ele>
        <time>2026-03-22T12:34:59Z</time>
      </trkpt>
      <trkpt lat="47.9209" lon="7.03981">
        <ele>1172.9</ele>
        <time>2026-03-22T12:35:04Z</time>
      </trkpt>
      <trkpt lat="47.92084" lon="7.03985">
        <ele>1173.4</ele>
        <time>2026-03-22T12:35:09Z</time>
      </trkpt>
      <trkpt lat="47.92079" lon="7.03988">
        <ele>1173.5</ele>
        <time>2026-03-22T12:35:14Z</time>
      </trkpt>
      <trkpt lat="47.92074" lon="7.0399">
        <ele>1173.2</ele>
        <time>2026-03-22T12:35:19Z</time>
      </trkpt>
      <trkpt lat="47.92069" lon="7.03993">
        <ele>1173.3</ele>
        <time>2026-03-22T12:35:24Z</time>
      </trkpt>
      <trkpt lat="47.92065" lon="7.03998">
        <ele>1174.3</ele>
        <time>2026-03-22T12:35:29Z</time>
      </trkpt>
      <trkpt lat="47.92063" lon="7.04003">
        <ele>1175.5</ele>
        <time>2026-03-22T12:35:34Z</time>
      </trkpt>
      <trkpt lat="47.92059" lon="7.04">
        <ele>1173.7</ele>
        <time>2026-03-22T12:35:39Z</time>
      </trkpt>
      <trkpt lat="47.9205" lon="7.03998">
        <ele>1171.1</ele>
        <time>2026-03-22T12:35:44Z</time>
      </trkpt>
      <trkpt lat="47.92045" lon="7.03999">
        <ele>1170.4</ele>
        <time>2026-03-22T12:35:49Z</time>
      </trkpt>
      <trkpt lat="47.92043" lon="7.04003">
        <ele>1171.2</ele>
        <time>2026-03-22T12:35:54Z</time>
      </trkpt>
      <trkpt lat="47.92042" lon="7.04008">
        <ele>1172.4</ele>
        <time>2026-03-22T12:35:59Z</time>
      </trkpt>
      <trkpt lat="47.92039" lon="7.04009">
        <ele>1172.1</ele>
        <time>2026-03-22T12:36:04Z</time>
      </trkpt>
      <trkpt lat="47.92035" lon="7.04014">
        <ele>1172.7</ele>
        <time>2026-03-22T12:36:09Z</time>
      </trkpt>
      <trkpt lat="47.92031" lon="7.04018">
        <ele>1173.1</ele>
        <time>2026-03-22T12:36:14Z</time>
      </trkpt>
      <trkpt lat="47.92027" lon="7.04022">
        <ele>1173.4</ele>
        <time>2026-03-22T12:36:19Z</time>
      </trkpt>
      <trkpt lat="47.92023" lon="7.04027">
        <ele>1174.1</ele>
        <time>2026-03-22T12:36:24Z</time>
      </trkpt>
      <trkpt lat="47.92018" lon="7.04031">
        <ele>1174.3</ele>
        <time>2026-03-22T12:36:29Z</time>
      </trkpt>
      <trkpt lat="47.92014" lon="7.04036">
        <ele>1175</ele>
        <time>2026-03-22T12:36:34Z</time>
      </trkpt>
      <trkpt lat="47.92009" lon="7.04041">
        <ele>1175.6</ele>
        <time>2026-03-22T12:36:39Z</time>
      </trkpt>
      <trkpt lat="47.92004" lon="7.04043">
        <ele>1175.2</ele>
        <time>2026-03-22T12:36:44Z</time>
      </trkpt>
      <trkpt lat="47.91999" lon="7.04046">
        <ele>1175.2</ele>
        <time>2026-03-22T12:36:49Z</time>
      </trkpt>
      <trkpt lat="47.91994" lon="7.0405">
        <ele>1175.6</ele>
        <time>2026-03-22T12:36:54Z</time>
      </trkpt>
      <trkpt lat="47.91987" lon="7.04052">
        <ele>1175.1</ele>
        <time>2026-03-22T12:36:59Z</time>
      </trkpt>
      <trkpt lat="47.9198" lon="7.04055">
        <ele>1174.9</ele>
        <time>2026-03-22T12:37:04Z</time>
      </trkpt>
      <trkpt lat="47.91972" lon="7.04057">
        <ele>1174.2</ele>
        <time>2026-03-22T12:37:09Z</time>
      </trkpt>
      <trkpt lat="47.91968" lon="7.04061">
        <ele>1174.7</ele>
        <time>2026-03-22T12:37:14Z</time>
      </trkpt>
      <trkpt lat="47.91962" lon="7.04066">
        <ele>1175.1</ele>
        <time>2026-03-22T12:37:19Z</time>
      </trkpt>
      <trkpt lat="47.91958" lon="7.0407">
        <ele>1175.6</ele>
        <time>2026-03-22T12:37:24Z</time>
      </trkpt>
      <trkpt lat="47.91952" lon="7.04075">
        <ele>1176</ele>
        <time>2026-03-22T12:37:29Z</time>
      </trkpt>
      <trkpt lat="47.91947" lon="7.0408">
        <ele>1176.5</ele>
        <time>2026-03-22T12:37:34Z</time>
      </trkpt>
      <trkpt lat="47.91941" lon="7.04087">
        <ele>1177.5</ele>
        <time>2026-03-22T12:37:39Z</time>
      </trkpt>
      <trkpt lat="47.91933" lon="7.04093">
        <ele>1177.8</ele>
        <time>2026-03-22T12:37:44Z</time>
      </trkpt>
      <trkpt lat="47.91928" lon="7.04096">
        <ele>1177.8</ele>
        <time>2026-03-22T12:37:49Z</time>
      </trkpt>
      <trkpt lat="47.91921" lon="7.041">
        <ele>1177.8</ele>
        <time>2026-03-22T12:37:54Z</time>
      </trkpt>
      <trkpt lat="47.91914" lon="7.041">
        <ele>1176.3</ele>
        <time>2026-03-22T12:37:59Z</time>
      </trkpt>
      <trkpt lat="47.91909" lon="7.04103">
        <ele>1176</ele>
        <time>2026-03-22T12:38:04Z</time>
      </trkpt>
      <trkpt lat="47.91903" lon="7.04106">
        <ele>1175.4</ele>
        <time>2026-03-22T12:38:09Z</time>
      </trkpt>
      <trkpt lat="47.91897" lon="7.04109">
        <ele>1174.8</ele>
        <time>2026-03-22T12:38:14Z</time>
      </trkpt>
      <trkpt lat="47.91892" lon="7.04113">
        <ele>1174.8</ele>
        <time>2026-03-22T12:38:19Z</time>
      </trkpt>
      <trkpt lat="47.91887" lon="7.04115">
        <ele>1174.1</ele>
        <time>2026-03-22T12:38:24Z</time>
      </trkpt>
      <trkpt lat="47.9188" lon="7.04118">
        <ele>1173.2</ele>
        <time>2026-03-22T12:38:29Z</time>
      </trkpt>
      <trkpt lat="47.91874" lon="7.04121">
        <ele>1172.6</ele>
        <time>2026-03-22T12:38:34Z</time>
      </trkpt>
      <trkpt lat="47.91867" lon="7.04124">
        <ele>1171.7</ele>
        <time>2026-03-22T12:38:39Z</time>
      </trkpt>
      <trkpt lat="47.91859" lon="7.04127">
        <ele>1170.5</ele>
        <time>2026-03-22T12:38:44Z</time>
      </trkpt>
      <trkpt lat="47.91851" lon="7.0413">
        <ele>1169.4</ele>
        <time>2026-03-22T12:38:49Z</time>
      </trkpt>
      <trkpt lat="47.91844" lon="7.0413">
        <ele>1167.6</ele>
        <time>2026-03-22T12:38:54Z</time>
      </trkpt>
      <trkpt lat="47.91836" lon="7.04133">
        <ele>1166.4</ele>
        <time>2026-03-22T12:38:59Z</time>
      </trkpt>
      <trkpt lat="47.91832" lon="7.04135">
        <ele>1165.8</ele>
        <time>2026-03-22T12:39:04Z</time>
      </trkpt>
      <trkpt lat="47.91826" lon="7.04137">
        <ele>1164.1</ele>
        <time>2026-03-22T12:39:09Z</time>
      </trkpt>
      <trkpt lat="47.9182" lon="7.04139">
        <ele>1162.5</ele>
        <time>2026-03-22T12:39:14Z</time>
      </trkpt>
      <trkpt lat="47.91818" lon="7.0414">
        <ele>1162.1</ele>
        <time>2026-03-22T12:39:19Z</time>
      </trkpt>
      <trkpt lat="47.91817" lon="7.0414">
        <ele>1161.7</ele>
        <time>2026-03-22T12:39:24Z</time>
      </trkpt>
      <trkpt lat="47.91817" lon="7.0414">
        <ele>1161.7</ele>
        <time>2026-03-22T12:39:29Z</time>
      </trkpt>
      <trkpt lat="47.91817" lon="7.0414">
        <ele>1161.7</ele>
        <time>2026-03-22T12:39:34Z</time>
      </trkpt>
      <trkpt lat="47.91817" lon="7.0414">
        <ele>1161.7</ele>
        <time>2026-03-22T12:39:39Z</time>
      </trkpt>
      <trkpt lat="47.91817" lon="7.0414">
        <ele>1161.7</ele>
        <time>2026-03-22T12:39:44Z</time>
      </trkpt>
      <trkpt lat="47.91817" lon="7.0414">
        <ele>1161.7</ele>
        <time>2026-03-22T12:39:49Z</time>
      </trkpt>
      <trkpt lat="47.91817" lon="7.0414">
        <ele>1161.7</ele>
        <time>2026-03-22T12:39:54Z</time>
      </trkpt>
      <trkpt lat="47.91817" lon="7.0414">
        <ele>1161.7</ele>
        <time>2026-03-22T12:39:59Z</time>
      </trkpt>
      <trkpt lat="47.91817" lon="7.0414">
        <ele>1161.7</ele>
        <time>2026-03-22T12:40:04Z</time>
      </trkpt>
      <trkpt lat="47.91817" lon="7.0414">
        <ele>1161.7</ele>
        <time>2026-03-22T12:40:09Z</time>
      </trkpt>
      <trkpt lat="47.91817" lon="7.0414">
        <ele>1161.7</ele>
        <time>2026-03-22T12:40:14Z</time>
      </trkpt>
      <trkpt lat="47.91817" lon="7.0414">
        <ele>1161.7</ele>
        <time>2026-03-22T12:40:19Z</time>
      </trkpt>
      <trkpt lat="47.91817" lon="7.0414">
        <ele>1161.7</ele>
        <time>2026-03-22T12:40:24Z</time>
      </trkpt>
      <trkpt lat="47.91817" lon="7.0414">
        <ele>1161.7</ele>
        <time>2026-03-22T12:40:29Z</time>
      </trkpt>
      <trkpt lat="47.91817" lon="7.0414">
        <ele>1161.7</ele>
        <time>2026-03-22T12:40:34Z</time>
      </trkpt>
      <trkpt lat="47.91817" lon="7.0414">
        <ele>1161.7</ele>
        <time>2026-03-22T12:40:39Z</time>
      </trkpt>
      <trkpt lat="47.91817" lon="7.0414">
        <ele>1161.7</ele>
        <time>2026-03-22T12:40:44Z</time>
      </trkpt>
      <trkpt lat="47.91817" lon="7.0414">
        <ele>1161.7</ele>
        <time>2026-03-22T12:40:49Z</time>
      </trkpt>
      <trkpt lat="47.91817" lon="7.0414">
        <ele>1161.7</ele>
        <time>2026-03-22T12:40:54Z</time>
      </trkpt>
      <trkpt lat="47.91813" lon="7.04151">
        <ele>1163.3</ele>
        <time>2026-03-22T12:40:59Z</time>
      </trkpt>
      <trkpt lat="47.91807" lon="7.0415">
        <ele>1160.9</ele>
        <time>2026-03-22T12:41:04Z</time>
      </trkpt>
      <trkpt lat="47.91803" lon="7.04154">
        <ele>1160.5</ele>
        <time>2026-03-22T12:41:09Z</time>
      </trkpt>
      <trkpt lat="47.91797" lon="7.04156">
        <ele>1158.9</ele>
        <time>2026-03-22T12:41:14Z</time>
      </trkpt>
      <trkpt lat="47.91794" lon="7.0416">
        <ele>1159</ele>
        <time>2026-03-22T12:41:19Z</time>
      </trkpt>
      <trkpt lat="47.91789" lon="7.04163">
        <ele>1158</ele>
        <time>2026-03-22T12:41:24Z</time>
      </trkpt>
      <trkpt lat="47.91785" lon="7.04167">
        <ele>1157.7</ele>
        <time>2026-03-22T12:41:29Z</time>
      </trkpt>
      <trkpt lat="47.9178" lon="7.04171">
        <ele>1157</ele>
        <time>2026-03-22T12:41:34Z</time>
      </trkpt>
      <trkpt lat="47.91775" lon="7.04175">
        <ele>1156.3</ele>
        <time>2026-03-22T12:41:39Z</time>
      </trkpt>
      <trkpt lat="47.9177" lon="7.0418">
        <ele>1155.9</ele>
        <time>2026-03-22T12:41:44Z</time>
      </trkpt>
      <trkpt lat="47.91765" lon="7.04185">
        <ele>1155.5</ele>
        <time>2026-03-22T12:41:49Z</time>
      </trkpt>
      <trkpt lat="47.91761" lon="7.04189">
        <ele>1155.3</ele>
        <time>2026-03-22T12:41:54Z</time>
      </trkpt>
      <trkpt lat="47.91755" lon="7.04193">
        <ele>1154.3</ele>
        <time>2026-03-22T12:41:59Z</time>
      </trkpt>
      <trkpt lat="47.91747" lon="7.04201">
        <ele>1153.9</ele>
        <time>2026-03-22T12:42:04Z</time>
      </trkpt>
      <trkpt lat="47.91742" lon="7.04207">
        <ele>1154.2</ele>
        <time>2026-03-22T12:42:09Z</time>
      </trkpt>
      <trkpt lat="47.91738" lon="7.04212">
        <ele>1154.4</ele>
        <time>2026-03-22T12:42:14Z</time>
      </trkpt>
      <trkpt lat="47.91734" lon="7.04217">
        <ele>1154.7</ele>
        <time>2026-03-22T12:42:19Z</time>
      </trkpt>
      <trkpt lat="47.91731" lon="7.04222">
        <ele>1155.4</ele>
        <time>2026-03-22T12:42:24Z</time>
      </trkpt>
      <trkpt lat="47.91728" lon="7.04228">
        <ele>1156.4</ele>
        <time>2026-03-22T12:42:29Z</time>
      </trkpt>
      <trkpt lat="47.91725" lon="7.04235">
        <ele>1157.7</ele>
        <time>2026-03-22T12:42:34Z</time>
      </trkpt>
      <trkpt lat="47.91723" lon="7.0424">
        <ele>1158.7</ele>
        <time>2026-03-22T12:42:39Z</time>
      </trkpt>
      <trkpt lat="47.91721" lon="7.04243">
        <ele>1159.1</ele>
        <time>2026-03-22T12:42:44Z</time>
      </trkpt>
      <trkpt lat="47.91719" lon="7.04249">
        <ele>1160.5</ele>
        <time>2026-03-22T12:42:49Z</time>
      </trkpt>
      <trkpt lat="47.91719" lon="7.04253">
        <ele>1161.7</ele>
        <time>2026-03-22T12:42:54Z</time>
      </trkpt>
      <trkpt lat="47.91719" lon="7.04253">
        <ele>1161.7</ele>
        <time>2026-03-22T12:42:59Z</time>
      </trkpt>
      <trkpt lat="47.91719" lon="7.04253">
        <ele>1161.7</ele>
        <time>2026-03-22T12:43:04Z</time>
      </trkpt>
      <trkpt lat="47.91711" lon="7.04267">
        <ele>1163.9</ele>
        <time>2026-03-22T12:43:09Z</time>
      </trkpt>
      <trkpt lat="47.91707" lon="7.04273">
        <ele>1164.7</ele>
        <time>2026-03-22T12:43:14Z</time>
      </trkpt>
      <trkpt lat="47.91706" lon="7.04277">
        <ele>1165.7</ele>
        <time>2026-03-22T12:43:19Z</time>
      </trkpt>
      <trkpt lat="47.91704" lon="7.04281">
        <ele>1166.4</ele>
        <time>2026-03-22T12:43:24Z</time>
      </trkpt>
      <trkpt lat="47.91701" lon="7.04286">
        <ele>1167.2</ele>
        <time>2026-03-22T12:43:29Z</time>
      </trkpt>
      <trkpt lat="47.91696" lon="7.04291">
        <ele>1167.5</ele>
        <time>2026-03-22T12:43:34Z</time>
      </trkpt>
      <trkpt lat="47.91691" lon="7.04294">
        <ele>1167.2</ele>
        <time>2026-03-22T12:43:39Z</time>
      </trkpt>
      <trkpt lat="47.91688" lon="7.04298">
        <ele>1167.7</ele>
        <time>2026-03-22T12:43:44Z</time>
      </trkpt>
      <trkpt lat="47.91686" lon="7.04303">
        <ele>1168.8</ele>
        <time>2026-03-22T12:43:49Z</time>
      </trkpt>
      <trkpt lat="47.91682" lon="7.04308">
        <ele>1169.5</ele>
        <time>2026-03-22T12:43:54Z</time>
      </trkpt>
      <trkpt lat="47.9168" lon="7.04312">
        <ele>1170.3</ele>
        <time>2026-03-22T12:43:59Z</time>
      </trkpt>
      <trkpt lat="47.91678" lon="7.04316">
        <ele>1171.1</ele>
        <time>2026-03-22T12:44:04Z</time>
      </trkpt>
      <trkpt lat="47.91676" lon="7.04317">
        <ele>1170.9</ele>
        <time>2026-03-22T12:44:09Z</time>
      </trkpt>
      <trkpt lat="47.91676" lon="7.04317">
        <ele>1170.9</ele>
        <time>2026-03-22T12:44:14Z</time>
      </trkpt>
      <trkpt lat="47.91676" lon="7.04317">
        <ele>1170.9</ele>
        <time>2026-03-22T12:44:19Z</time>
      </trkpt>
      <trkpt lat="47.9167" lon="7.04331">
        <ele>1174</ele>
        <time>2026-03-22T12:44:24Z</time>
      </trkpt>
      <trkpt lat="47.91666" lon="7.04336">
        <ele>1174.7</ele>
        <time>2026-03-22T12:44:29Z</time>
      </trkpt>
      <trkpt lat="47.91662" lon="7.04341">
        <ele>1175.7</ele>
        <time>2026-03-22T12:44:34Z</time>
      </trkpt>
      <trkpt lat="47.91658" lon="7.04344">
        <ele>1176.1</ele>
        <time>2026-03-22T12:44:39Z</time>
      </trkpt>
      <trkpt lat="47.91654" lon="7.0435">
        <ele>1177.3</ele>
        <time>2026-03-22T12:44:44Z</time>
      </trkpt>
      <trkpt lat="47.91653" lon="7.04351">
        <ele>1177.5</ele>
        <time>2026-03-22T12:44:49Z</time>
      </trkpt>
      <trkpt lat="47.91649" lon="7.04354">
        <ele>1177.9</ele>
        <time>2026-03-22T12:44:54Z</time>
      </trkpt>
      <trkpt lat="47.91644" lon="7.04358">
        <ele>1178.4</ele>
        <time>2026-03-22T12:44:59Z</time>
      </trkpt>
      <trkpt lat="47.91638" lon="7.04362">
        <ele>1178.8</ele>
        <time>2026-03-22T12:45:04Z</time>
      </trkpt>
      <trkpt lat="47.91632" lon="7.04367">
        <ele>1179.4</ele>
        <time>2026-03-22T12:45:09Z</time>
      </trkpt>
      <trkpt lat="47.91627" lon="7.04371">
        <ele>1179.9</ele>
        <time>2026-03-22T12:45:14Z</time>
      </trkpt>
      <trkpt lat="47.91624" lon="7.04373">
        <ele>1180.1</ele>
        <time>2026-03-22T12:45:19Z</time>
      </trkpt>
      <trkpt lat="47.9162" lon="7.04378">
        <ele>1180.9</ele>
        <time>2026-03-22T12:45:24Z</time>
      </trkpt>
      <trkpt lat="47.91615" lon="7.04381">
        <ele>1181.1</ele>
        <time>2026-03-22T12:45:29Z</time>
      </trkpt>
      <trkpt lat="47.91611" lon="7.04385">
        <ele>1181.6</ele>
        <time>2026-03-22T12:45:34Z</time>
      </trkpt>
      <trkpt lat="47.91603" lon="7.0439">
        <ele>1181.9</ele>
        <time>2026-03-22T12:45:39Z</time>
      </trkpt>
      <trkpt lat="47.91593" lon="7.04395">
        <ele>1181.8</ele>
        <time>2026-03-22T12:45:44Z</time>
      </trkpt>
      <trkpt lat="47.91585" lon="7.04398">
        <ele>1181.5</ele>
        <time>2026-03-22T12:45:49Z</time>
      </trkpt>
      <trkpt lat="47.91578" lon="7.04401">
        <ele>1181.6</ele>
        <time>2026-03-22T12:45:54Z</time>
      </trkpt>
      <trkpt lat="47.91571" lon="7.04404">
        <ele>1181.9</ele>
        <time>2026-03-22T12:45:59Z</time>
      </trkpt>
      <trkpt lat="47.91564" lon="7.04405">
        <ele>1181.6</ele>
        <time>2026-03-22T12:46:04Z</time>
      </trkpt>
      <trkpt lat="47.91559" lon="7.04409">
        <ele>1182.2</ele>
        <time>2026-03-22T12:46:09Z</time>
      </trkpt>
      <trkpt lat="47.91553" lon="7.04412">
        <ele>1182.6</ele>
        <time>2026-03-22T12:46:14Z</time>
      </trkpt>
      <trkpt lat="47.91546" lon="7.04414">
        <ele>1182.6</ele>
        <time>2026-03-22T12:46:19Z</time>
      </trkpt>
      <trkpt lat="47.9154" lon="7.04416">
        <ele>1182.7</ele>
        <time>2026-03-22T12:46:24Z</time>
      </trkpt>
      <trkpt lat="47.91534" lon="7.04418">
        <ele>1182.7</ele>
        <time>2026-03-22T12:46:29Z</time>
      </trkpt>
      <trkpt lat="47.91528" lon="7.04421">
        <ele>1182.9</ele>
        <time>2026-03-22T12:46:34Z</time>
      </trkpt>
      <trkpt lat="47.91522" lon="7.04425">
        <ele>1183.3</ele>
        <time>2026-03-22T12:46:39Z</time>
      </trkpt>
      <trkpt lat="47.91517" lon="7.04423">
        <ele>1182.5</ele>
        <time>2026-03-22T12:46:44Z</time>
      </trkpt>
      <trkpt lat="47.9151" lon="7.04423">
        <ele>1182.1</ele>
        <time>2026-03-22T12:46:49Z</time>
      </trkpt>
      <trkpt lat="47.91504" lon="7.04425">
        <ele>1182.1</ele>
        <time>2026-03-22T12:46:54Z</time>
      </trkpt>
      <trkpt lat="47.91497" lon="7.04427">
        <ele>1181.1</ele>
        <time>2026-03-22T12:46:59Z</time>
      </trkpt>
      <trkpt lat="47.9149" lon="7.04428">
        <ele>1178.8</ele>
        <time>2026-03-22T12:47:04Z</time>
      </trkpt>
      <trkpt lat="47.91482" lon="7.04428">
        <ele>1175.8</ele>
        <time>2026-03-22T12:47:09Z</time>
      </trkpt>
      <trkpt lat="47.91476" lon="7.04426">
        <ele>1173.2</ele>
        <time>2026-03-22T12:47:14Z</time>
      </trkpt>
      <trkpt lat="47.91469" lon="7.04426">
        <ele>1170.6</ele>
        <time>2026-03-22T12:47:19Z</time>
      </trkpt>
      <trkpt lat="47.91462" lon="7.04426">
        <ele>1168</ele>
        <time>2026-03-22T12:47:24Z</time>
      </trkpt>
      <trkpt lat="47.91456" lon="7.04429">
        <ele>1166.4</ele>
        <time>2026-03-22T12:47:29Z</time>
      </trkpt>
      <trkpt lat="47.91452" lon="7.04433">
        <ele>1165.6</ele>
        <time>2026-03-22T12:47:34Z</time>
      </trkpt>
      <trkpt lat="47.91447" lon="7.04436">
        <ele>1164.2</ele>
        <time>2026-03-22T12:47:39Z</time>
      </trkpt>
      <trkpt lat="47.91443" lon="7.04438">
        <ele>1163</ele>
        <time>2026-03-22T12:47:44Z</time>
      </trkpt>
      <trkpt lat="47.91437" lon="7.04439">
        <ele>1160.9</ele>
        <time>2026-03-22T12:47:49Z</time>
      </trkpt>
      <trkpt lat="47.91431" lon="7.04443">
        <ele>1159.3</ele>
        <time>2026-03-22T12:47:54Z</time>
      </trkpt>
      <trkpt lat="47.91424" lon="7.04445">
        <ele>1156.9</ele>
        <time>2026-03-22T12:47:59Z</time>
      </trkpt>
      <trkpt lat="47.91419" lon="7.04448">
        <ele>1155.4</ele>
        <time>2026-03-22T12:48:04Z</time>
      </trkpt>
      <trkpt lat="47.91413" lon="7.04453">
        <ele>1153.4</ele>
        <time>2026-03-22T12:48:09Z</time>
      </trkpt>
      <trkpt lat="47.91408" lon="7.04459">
        <ele>1151.7</ele>
        <time>2026-03-22T12:48:14Z</time>
      </trkpt>
      <trkpt lat="47.91405" lon="7.04463">
        <ele>1150.9</ele>
        <time>2026-03-22T12:48:19Z</time>
      </trkpt>
      <trkpt lat="47.914" lon="7.04471">
        <ele>1149.7</ele>
        <time>2026-03-22T12:48:24Z</time>
      </trkpt>
      <trkpt lat="47.91392" lon="7.04481">
        <ele>1147.5</ele>
        <time>2026-03-22T12:48:29Z</time>
      </trkpt>
      <trkpt lat="47.91387" lon="7.04489">
        <ele>1146.5</ele>
        <time>2026-03-22T12:48:34Z</time>
      </trkpt>
      <trkpt lat="47.91383" lon="7.04496">
        <ele>1145.9</ele>
        <time>2026-03-22T12:48:39Z</time>
      </trkpt>
      <trkpt lat="47.91379" lon="7.04503">
        <ele>1145.6</ele>
        <time>2026-03-22T12:48:44Z</time>
      </trkpt>
      <trkpt lat="47.91375" lon="7.04509">
        <ele>1145.3</ele>
        <time>2026-03-22T12:48:49Z</time>
      </trkpt>
      <trkpt lat="47.91371" lon="7.04518">
        <ele>1145.9</ele>
        <time>2026-03-22T12:48:54Z</time>
      </trkpt>
      <trkpt lat="47.91368" lon="7.04526">
        <ele>1146.6</ele>
        <time>2026-03-22T12:48:59Z</time>
      </trkpt>
      <trkpt lat="47.91364" lon="7.04532">
        <ele>1146.5</ele>
        <time>2026-03-22T12:49:04Z</time>
      </trkpt>
      <trkpt lat="47.91359" lon="7.04543">
        <ele>1147.3</ele>
        <time>2026-03-22T12:49:09Z</time>
      </trkpt>
      <trkpt lat="47.91357" lon="7.04546">
        <ele>1147.3</ele>
        <time>2026-03-22T12:49:14Z</time>
      </trkpt>
      <trkpt lat="47.91355" lon="7.04547">
        <ele>1146.7</ele>
        <time>2026-03-22T12:49:19Z</time>
      </trkpt>
      <trkpt lat="47.91355" lon="7.04547">
        <ele>1146.7</ele>
        <time>2026-03-22T12:49:24Z</time>
      </trkpt>
      <trkpt lat="47.91353" lon="7.04552">
        <ele>1147.2</ele>
        <time>2026-03-22T12:49:29Z</time>
      </trkpt>
      <trkpt lat="47.91348" lon="7.04559">
        <ele>1147.1</ele>
        <time>2026-03-22T12:49:34Z</time>
      </trkpt>
      <trkpt lat="47.91344" lon="7.04568">
        <ele>1147.9</ele>
        <time>2026-03-22T12:49:39Z</time>
      </trkpt>
      <trkpt lat="47.91341" lon="7.04575">
        <ele>1148.7</ele>
        <time>2026-03-22T12:49:44Z</time>
      </trkpt>
      <trkpt lat="47.91338" lon="7.04583">
        <ele>1149.8</ele>
        <time>2026-03-22T12:49:49Z</time>
      </trkpt>
      <trkpt lat="47.91335" lon="7.04591">
        <ele>1149.9</ele>
        <time>2026-03-22T12:49:54Z</time>
      </trkpt>
      <trkpt lat="47.91332" lon="7.04597">
        <ele>1149.7</ele>
        <time>2026-03-22T12:49:59Z</time>
      </trkpt>
      <trkpt lat="47.9133" lon="7.04601">
        <ele>1149.4</ele>
        <time>2026-03-22T12:50:04Z</time>
      </trkpt>
      <trkpt lat="47.91328" lon="7.04602">
        <ele>1148.6</ele>
        <time>2026-03-22T12:50:09Z</time>
      </trkpt>
      <trkpt lat="47.91328" lon="7.04602">
        <ele>1148.6</ele>
        <time>2026-03-22T12:50:14Z</time>
      </trkpt>
      <trkpt lat="47.91328" lon="7.04602">
        <ele>1148.6</ele>
        <time>2026-03-22T12:50:19Z</time>
      </trkpt>
      <trkpt lat="47.91328" lon="7.04602">
        <ele>1148.6</ele>
        <time>2026-03-22T12:50:24Z</time>
      </trkpt>
      <trkpt lat="47.91328" lon="7.04602">
        <ele>1148.6</ele>
        <time>2026-03-22T12:50:29Z</time>
      </trkpt>
      <trkpt lat="47.91328" lon="7.04602">
        <ele>1148.6</ele>
        <time>2026-03-22T12:50:34Z</time>
      </trkpt>
      <trkpt lat="47.91328" lon="7.04602">
        <ele>1148.6</ele>
        <time>2026-03-22T12:50:39Z</time>
      </trkpt>
      <trkpt lat="47.91328" lon="7.04602">
        <ele>1148.6</ele>
        <time>2026-03-22T12:50:44Z</time>
      </trkpt>
      <trkpt lat="47.91328" lon="7.04602">
        <ele>1148.6</ele>
        <time>2026-03-22T12:50:49Z</time>
      </trkpt>
      <trkpt lat="47.91328" lon="7.04602">
        <ele>1148.6</ele>
        <time>2026-03-22T12:50:54Z</time>
      </trkpt>
      <trkpt lat="47.91328" lon="7.04602">
        <ele>1148.6</ele>
        <time>2026-03-22T12:50:59Z</time>
      </trkpt>
      <trkpt lat="47.91328" lon="7.04602">
        <ele>1148.6</ele>
        <time>2026-03-22T12:51:04Z</time>
      </trkpt>
      <trkpt lat="47.9132" lon="7.0462">
        <ele>1147.7</ele>
        <time>2026-03-22T12:51:09Z</time>
      </trkpt>
      <trkpt lat="47.91317" lon="7.04622">
        <ele>1146.6</ele>
        <time>2026-03-22T12:51:14Z</time>
      </trkpt>
      <trkpt lat="47.91317" lon="7.04622">
        <ele>1146.6</ele>
        <time>2026-03-22T12:51:19Z</time>
      </trkpt>
      <trkpt lat="47.91317" lon="7.04622">
        <ele>1146.6</ele>
        <time>2026-03-22T12:51:24Z</time>
      </trkpt>
      <trkpt lat="47.91317" lon="7.04622">
        <ele>1146.6</ele>
        <time>2026-03-22T12:51:29Z</time>
      </trkpt>
      <trkpt lat="47.91317" lon="7.04622">
        <ele>1146.6</ele>
        <time>2026-03-22T12:51:34Z</time>
      </trkpt>
      <trkpt lat="47.91317" lon="7.04622">
        <ele>1146.6</ele>
        <time>2026-03-22T12:51:39Z</time>
      </trkpt>
      <trkpt lat="47.91317" lon="7.04622">
        <ele>1146.6</ele>
        <time>2026-03-22T12:51:44Z</time>
      </trkpt>
      <trkpt lat="47.91317" lon="7.04622">
        <ele>1146.6</ele>
        <time>2026-03-22T12:51:49Z</time>
      </trkpt>
      <trkpt lat="47.91317" lon="7.04622">
        <ele>1146.6</ele>
        <time>2026-03-22T12:51:54Z</time>
      </trkpt>
      <trkpt lat="47.91317" lon="7.04622">
        <ele>1146.6</ele>
        <time>2026-03-22T12:51:59Z</time>
      </trkpt>
      <trkpt lat="47.91317" lon="7.04622">
        <ele>1146.6</ele>
        <time>2026-03-22T12:52:04Z</time>
      </trkpt>
      <trkpt lat="47.91317" lon="7.04622">
        <ele>1146.6</ele>
        <time>2026-03-22T12:52:09Z</time>
      </trkpt>
      <trkpt lat="47.9132" lon="7.04626">
        <ele>1148.7</ele>
        <time>2026-03-22T12:52:14Z</time>
      </trkpt>
      <trkpt lat="47.91319" lon="7.04629">
        <ele>1148.7</ele>
        <time>2026-03-22T12:52:19Z</time>
      </trkpt>
      <trkpt lat="47.91319" lon="7.04629">
        <ele>1148.7</ele>
        <time>2026-03-22T12:52:24Z</time>
      </trkpt>
      <trkpt lat="47.91319" lon="7.04629">
        <ele>1148.7</ele>
        <time>2026-03-22T12:52:29Z</time>
      </trkpt>
      <trkpt lat="47.91317" lon="7.04634">
        <ele>1148.6</ele>
        <time>2026-03-22T12:52:34Z</time>
      </trkpt>
      <trkpt lat="47.91313" lon="7.04642">
        <ele>1147.9</ele>
        <time>2026-03-22T12:52:39Z</time>
      </trkpt>
      <trkpt lat="47.91308" lon="7.0465">
        <ele>1146.8</ele>
        <time>2026-03-22T12:52:44Z</time>
      </trkpt>
      <trkpt lat="47.91305" lon="7.04658">
        <ele>1146.6</ele>
        <time>2026-03-22T12:52:49Z</time>
      </trkpt>
      <trkpt lat="47.91303" lon="7.04664">
        <ele>1146.6</ele>
        <time>2026-03-22T12:52:54Z</time>
      </trkpt>
      <trkpt lat="47.91301" lon="7.04671">
        <ele>1146.7</ele>
        <time>2026-03-22T12:52:59Z</time>
      </trkpt>
      <trkpt lat="47.913" lon="7.04677">
        <ele>1147</ele>
        <time>2026-03-22T12:53:04Z</time>
      </trkpt>
      <trkpt lat="47.91299" lon="7.04685">
        <ele>1147.7</ele>
        <time>2026-03-22T12:53:09Z</time>
      </trkpt>
      <trkpt lat="47.91298" lon="7.04691">
        <ele>1148</ele>
        <time>2026-03-22T12:53:14Z</time>
      </trkpt>
      <trkpt lat="47.91297" lon="7.04699">
        <ele>1148.7</ele>
        <time>2026-03-22T12:53:19Z</time>
      </trkpt>
      <trkpt lat="47.91295" lon="7.04707">
        <ele>1148.9</ele>
        <time>2026-03-22T12:53:24Z</time>
      </trkpt>
      <trkpt lat="47.91291" lon="7.04712">
        <ele>1147.7</ele>
        <time>2026-03-22T12:53:29Z</time>
      </trkpt>
      <trkpt lat="47.9129" lon="7.04714">
        <ele>1147.5</ele>
        <time>2026-03-22T12:53:34Z</time>
      </trkpt>
      <trkpt lat="47.9129" lon="7.04714">
        <ele>1147.5</ele>
        <time>2026-03-22T12:53:39Z</time>
      </trkpt>
      <trkpt lat="47.9129" lon="7.04714">
        <ele>1147.5</ele>
        <time>2026-03-22T12:53:44Z</time>
      </trkpt>
      <trkpt lat="47.9129" lon="7.04714">
        <ele>1147.5</ele>
        <time>2026-03-22T12:53:49Z</time>
      </trkpt>
      <trkpt lat="47.9129" lon="7.04714">
        <ele>1147.5</ele>
        <time>2026-03-22T12:53:54Z</time>
      </trkpt>
      <trkpt lat="47.9129" lon="7.04714">
        <ele>1147.5</ele>
        <time>2026-03-22T12:53:59Z</time>
      </trkpt>
      <trkpt lat="47.9129" lon="7.04714">
        <ele>1147.5</ele>
        <time>2026-03-22T12:54:04Z</time>
      </trkpt>
      <trkpt lat="47.9129" lon="7.04714">
        <ele>1147.5</ele>
        <time>2026-03-22T12:54:09Z</time>
      </trkpt>
      <trkpt lat="47.9129" lon="7.04714">
        <ele>1147.5</ele>
        <time>2026-03-22T12:54:14Z</time>
      </trkpt>
      <trkpt lat="47.9129" lon="7.04714">
        <ele>1147.5</ele>
        <time>2026-03-22T12:54:19Z</time>
      </trkpt>
      <trkpt lat="47.9129" lon="7.04714">
        <ele>1147.5</ele>
        <time>2026-03-22T12:54:24Z</time>
      </trkpt>
      <trkpt lat="47.91284" lon="7.04723">
        <ele>1146.1</ele>
        <time>2026-03-22T12:54:29Z</time>
      </trkpt>
      <trkpt lat="47.91282" lon="7.04735">
        <ele>1147</ele>
        <time>2026-03-22T12:54:34Z</time>
      </trkpt>
      <trkpt lat="47.9128" lon="7.04742">
        <ele>1147.1</ele>
        <time>2026-03-22T12:54:39Z</time>
      </trkpt>
      <trkpt lat="47.91277" lon="7.0475">
        <ele>1147</ele>
        <time>2026-03-22T12:54:44Z</time>
      </trkpt>
      <trkpt lat="47.91273" lon="7.04759">
        <ele>1146.6</ele>
        <time>2026-03-22T12:54:49Z</time>
      </trkpt>
      <trkpt lat="47.91271" lon="7.04769">
        <ele>1147.3</ele>
        <time>2026-03-22T12:54:54Z</time>
      </trkpt>
      <trkpt lat="47.9127" lon="7.04777">
        <ele>1148.2</ele>
        <time>2026-03-22T12:54:59Z</time>
      </trkpt>
      <trkpt lat="47.91267" lon="7.04786">
        <ele>1148.6</ele>
        <time>2026-03-22T12:55:04Z</time>
      </trkpt>
      <trkpt lat="47.91265" lon="7.04793">
        <ele>1149</ele>
        <time>2026-03-22T12:55:09Z</time>
      </trkpt>
      <trkpt lat="47.91265" lon="7.04799">
        <ele>1150.1</ele>
        <time>2026-03-22T12:55:14Z</time>
      </trkpt>
      <trkpt lat="47.91263" lon="7.04807">
        <ele>1150.8</ele>
        <time>2026-03-22T12:55:19Z</time>
      </trkpt>
      <trkpt lat="47.9126" lon="7.04816">
        <ele>1151.5</ele>
        <time>2026-03-22T12:55:24Z</time>
      </trkpt>
      <trkpt lat="47.91258" lon="7.04824">
        <ele>1152.4</ele>
        <time>2026-03-22T12:55:29Z</time>
      </trkpt>
      <trkpt lat="47.91254" lon="7.04833">
        <ele>1153</ele>
        <time>2026-03-22T12:55:34Z</time>
      </trkpt>
      <trkpt lat="47.91251" lon="7.04841">
        <ele>1153.6</ele>
        <time>2026-03-22T12:55:39Z</time>
      </trkpt>
      <trkpt lat="47.91247" lon="7.04849">
        <ele>1154.3</ele>
        <time>2026-03-22T12:55:44Z</time>
      </trkpt>
      <trkpt lat="47.91241" lon="7.04856">
        <ele>1154.5</ele>
        <time>2026-03-22T12:55:49Z</time>
      </trkpt>
      <trkpt lat="47.91235" lon="7.04864">
        <ele>1155.2</ele>
        <time>2026-03-22T12:55:54Z</time>
      </trkpt>
      <trkpt lat="47.91229" lon="7.04872">
        <ele>1156.1</ele>
        <time>2026-03-22T12:55:59Z</time>
      </trkpt>
      <trkpt lat="47.91223" lon="7.04878">
        <ele>1156.6</ele>
        <time>2026-03-22T12:56:04Z</time>
      </trkpt>
      <trkpt lat="47.91219" lon="7.04885">
        <ele>1157.8</ele>
        <time>2026-03-22T12:56:09Z</time>
      </trkpt>
      <trkpt lat="47.91215" lon="7.04891">
        <ele>1158.9</ele>
        <time>2026-03-22T12:56:14Z</time>
      </trkpt>
      <trkpt lat="47.91211" lon="7.04897">
        <ele>1160</ele>
        <time>2026-03-22T12:56:19Z</time>
      </trkpt>
      <trkpt lat="47.91207" lon="7.04904">
        <ele>1161.6</ele>
        <time>2026-03-22T12:56:24Z</time>
      </trkpt>
      <trkpt lat="47.91203" lon="7.0491">
        <ele>1162.9</ele>
        <time>2026-03-22T12:56:29Z</time>
      </trkpt>
      <trkpt lat="47.912" lon="7.04912">
        <ele>1163.3</ele>
        <time>2026-03-22T12:56:34Z</time>
      </trkpt>
      <trkpt lat="47.91196" lon="7.0492">
        <ele>1165.1</ele>
        <time>2026-03-22T12:56:39Z</time>
      </trkpt>
      <trkpt lat="47.9119" lon="7.04928">
        <ele>1166.4</ele>
        <time>2026-03-22T12:56:44Z</time>
      </trkpt>
      <trkpt lat="47.91185" lon="7.04936">
        <ele>1168</ele>
        <time>2026-03-22T12:56:49Z</time>
      </trkpt>
      <trkpt lat="47.9118" lon="7.04942">
        <ele>1169.2</ele>
        <time>2026-03-22T12:56:54Z</time>
      </trkpt>
      <trkpt lat="47.91175" lon="7.04948">
        <ele>1170.5</ele>
        <time>2026-03-22T12:56:59Z</time>
      </trkpt>
      <trkpt lat="47.91173" lon="7.04954">
        <ele>1171.9</ele>
        <time>2026-03-22T12:57:04Z</time>
      </trkpt>
      <trkpt lat="47.91168" lon="7.0496">
        <ele>1173.4</ele>
        <time>2026-03-22T12:57:09Z</time>
      </trkpt>
      <trkpt lat="47.91164" lon="7.04963">
        <ele>1174.1</ele>
        <time>2026-03-22T12:57:14Z</time>
      </trkpt>
      <trkpt lat="47.9116" lon="7.04966">
        <ele>1174.8</ele>
        <time>2026-03-22T12:57:19Z</time>
      </trkpt>
      <trkpt lat="47.91157" lon="7.0497">
        <ele>1175.8</ele>
        <time>2026-03-22T12:57:24Z</time>
      </trkpt>
      <trkpt lat="47.91154" lon="7.04972">
        <ele>1176.2</ele>
        <time>2026-03-22T12:57:29Z</time>
      </trkpt>
      <trkpt lat="47.91153" lon="7.04975">
        <ele>1176.9</ele>
        <time>2026-03-22T12:57:34Z</time>
      </trkpt>
      <trkpt lat="47.91152" lon="7.04976">
        <ele>1177.1</ele>
        <time>2026-03-22T12:57:39Z</time>
      </trkpt>
      <trkpt lat="47.91152" lon="7.04976">
        <ele>1177.1</ele>
        <time>2026-03-22T12:57:44Z</time>
      </trkpt>
      <trkpt lat="47.91152" lon="7.04976">
        <ele>1177.1</ele>
        <time>2026-03-22T12:57:49Z</time>
      </trkpt>
      <trkpt lat="47.91149" lon="7.0498">
        <ele>1178</ele>
        <time>2026-03-22T12:57:54Z</time>
      </trkpt>
      <trkpt lat="47.91147" lon="7.04984">
        <ele>1178.9</ele>
        <time>2026-03-22T12:57:59Z</time>
      </trkpt>
      <trkpt lat="47.91143" lon="7.04988">
        <ele>1179.8</ele>
        <time>2026-03-22T12:58:04Z</time>
      </trkpt>
      <trkpt lat="47.91141" lon="7.04992">
        <ele>1180.6</ele>
        <time>2026-03-22T12:58:09Z</time>
      </trkpt>
      <trkpt lat="47.91137" lon="7.04996">
        <ele>1181.4</ele>
        <time>2026-03-22T12:58:14Z</time>
      </trkpt>
      <trkpt lat="47.91134" lon="7.04998">
        <ele>1181.8</ele>
        <time>2026-03-22T12:58:19Z</time>
      </trkpt>
      <trkpt lat="47.91131" lon="7.05003">
        <ele>1182.1</ele>
        <time>2026-03-22T12:58:24Z</time>
      </trkpt>
      <trkpt lat="47.91128" lon="7.05008">
        <ele>1182</ele>
        <time>2026-03-22T12:58:29Z</time>
      </trkpt>
      <trkpt lat="47.91125" lon="7.05012">
        <ele>1181.9</ele>
        <time>2026-03-22T12:58:34Z</time>
      </trkpt>
      <trkpt lat="47.91123" lon="7.05015">
        <ele>1181.8</ele>
        <time>2026-03-22T12:58:39Z</time>
      </trkpt>
      <trkpt lat="47.9112" lon="7.05018">
        <ele>1181.7</ele>
        <time>2026-03-22T12:58:44Z</time>
      </trkpt>
      <trkpt lat="47.91117" lon="7.05021">
        <ele>1181.6</ele>
        <time>2026-03-22T12:58:49Z</time>
      </trkpt>
      <trkpt lat="47.91114" lon="7.05025">
        <ele>1181.5</ele>
        <time>2026-03-22T12:58:54Z</time>
      </trkpt>
      <trkpt lat="47.91112" lon="7.05028">
        <ele>1181.4</ele>
        <time>2026-03-22T12:58:59Z</time>
      </trkpt>
      <trkpt lat="47.91112" lon="7.05032">
        <ele>1181.3</ele>
        <time>2026-03-22T12:59:04Z</time>
      </trkpt>
      <trkpt lat="47.9111" lon="7.05038">
        <ele>1181.2</ele>
        <time>2026-03-22T12:59:09Z</time>
      </trkpt>
      <trkpt lat="47.91106" lon="7.05042">
        <ele>1180.9</ele>
        <time>2026-03-22T12:59:14Z</time>
      </trkpt>
      <trkpt lat="47.91101" lon="7.05048">
        <ele>1180.6</ele>
        <time>2026-03-22T12:59:19Z</time>
      </trkpt>
      <trkpt lat="47.91097" lon="7.05052">
        <ele>1180.4</ele>
        <time>2026-03-22T12:59:24Z</time>
      </trkpt>
      <trkpt lat="47.91095" lon="7.05055">
        <ele>1180.2</ele>
        <time>2026-03-22T12:59:29Z</time>
      </trkpt>
      <trkpt lat="47.91092" lon="7.05059">
        <ele>1180</ele>
        <time>2026-03-22T12:59:34Z</time>
      </trkpt>
      <trkpt lat="47.91087" lon="7.05065">
        <ele>1179.6</ele>
        <time>2026-03-22T12:59:39Z</time>
      </trkpt>
      <trkpt lat="47.91083" lon="7.05069">
        <ele>1179.2</ele>
        <time>2026-03-22T12:59:44Z</time>
      </trkpt>
      <trkpt lat="47.9108" lon="7.05074">
        <ele>1178.2</ele>
        <time>2026-03-22T12:59:49Z</time>
      </trkpt>
      <trkpt lat="47.91078" lon="7.05082">
        <ele>1177.4</ele>
        <time>2026-03-22T12:59:54Z</time>
      </trkpt>
      <trkpt lat="47.91074" lon="7.0509">
        <ele>1175.7</ele>
        <time>2026-03-22T12:59:59Z</time>
      </trkpt>
      <trkpt lat="47.9107" lon="7.05099">
        <ele>1174</ele>
        <time>2026-03-22T13:00:04Z</time>
      </trkpt>
      <trkpt lat="47.9107" lon="7.0511">
        <ele>1173.4</ele>
        <time>2026-03-22T13:00:09Z</time>
      </trkpt>
      <trkpt lat="47.91069" lon="7.05121">
        <ele>1172.6</ele>
        <time>2026-03-22T13:00:14Z</time>
      </trkpt>
      <trkpt lat="47.91068" lon="7.05131">
        <ele>1171.8</ele>
        <time>2026-03-22T13:00:19Z</time>
      </trkpt>
      <trkpt lat="47.91067" lon="7.05141">
        <ele>1171</ele>
        <time>2026-03-22T13:00:24Z</time>
      </trkpt>
      <trkpt lat="47.91067" lon="7.05151">
        <ele>1170.5</ele>
        <time>2026-03-22T13:00:29Z</time>
      </trkpt>
      <trkpt lat="47.91066" lon="7.05158">
        <ele>1169.9</ele>
        <time>2026-03-22T13:00:34Z</time>
      </trkpt>
      <trkpt lat="47.91066" lon="7.05167">
        <ele>1169.4</ele>
        <time>2026-03-22T13:00:39Z</time>
      </trkpt>
      <trkpt lat="47.91065" lon="7.05175">
        <ele>1169.2</ele>
        <time>2026-03-22T13:00:44Z</time>
      </trkpt>
      <trkpt lat="47.91064" lon="7.05186">
        <ele>1169</ele>
        <time>2026-03-22T13:00:49Z</time>
      </trkpt>
      <trkpt lat="47.91065" lon="7.05197">
        <ele>1169.3</ele>
        <time>2026-03-22T13:00:54Z</time>
      </trkpt>
      <trkpt lat="47.91065" lon="7.05206">
        <ele>1169.4</ele>
        <time>2026-03-22T13:00:59Z</time>
      </trkpt>
      <trkpt lat="47.91065" lon="7.05214">
        <ele>1169.4</ele>
        <time>2026-03-22T13:01:04Z</time>
      </trkpt>
      <trkpt lat="47.91065" lon="7.05224">
        <ele>1169.5</ele>
        <time>2026-03-22T13:01:09Z</time>
      </trkpt>
      <trkpt lat="47.91065" lon="7.05232">
        <ele>1169.5</ele>
        <time>2026-03-22T13:01:14Z</time>
      </trkpt>
      <trkpt lat="47.91066" lon="7.05238">
        <ele>1169.8</ele>
        <time>2026-03-22T13:01:19Z</time>
      </trkpt>
      <trkpt lat="47.91066" lon="7.0524">
        <ele>1169.8</ele>
        <time>2026-03-22T13:01:24Z</time>
      </trkpt>
      <trkpt lat="47.91067" lon="7.05243">
        <ele>1170</ele>
        <time>2026-03-22T13:01:29Z</time>
      </trkpt>
      <trkpt lat="47.91067" lon="7.05243">
        <ele>1170</ele>
        <time>2026-03-22T13:01:34Z</time>
      </trkpt>
      <trkpt lat="47.91067" lon="7.05243">
        <ele>1170</ele>
        <time>2026-03-22T13:01:39Z</time>
      </trkpt>
      <trkpt lat="47.91067" lon="7.05243">
        <ele>1170</ele>
        <time>2026-03-22T13:01:44Z</time>
      </trkpt>
      <trkpt lat="47.91067" lon="7.05243">
        <ele>1170</ele>
        <time>2026-03-22T13:01:49Z</time>
      </trkpt>
      <trkpt lat="47.91067" lon="7.05243">
        <ele>1170</ele>
        <time>2026-03-22T13:01:54Z</time>
      </trkpt>
      <trkpt lat="47.91067" lon="7.05243">
        <ele>1170</ele>
        <time>2026-03-22T13:01:59Z</time>
      </trkpt>
      <trkpt lat="47.91067" lon="7.05243">
        <ele>1170</ele>
        <time>2026-03-22T13:02:04Z</time>
      </trkpt>
      <trkpt lat="47.91067" lon="7.05243">
        <ele>1170</ele>
        <time>2026-03-22T13:02:09Z</time>
      </trkpt>
      <trkpt lat="47.91067" lon="7.05243">
        <ele>1170</ele>
        <time>2026-03-22T13:02:14Z</time>
      </trkpt>
      <trkpt lat="47.91067" lon="7.05243">
        <ele>1170</ele>
        <time>2026-03-22T13:02:19Z</time>
      </trkpt>
      <trkpt lat="47.91067" lon="7.05243">
        <ele>1170</ele>
        <time>2026-03-22T13:02:24Z</time>
      </trkpt>
      <trkpt lat="47.91067" lon="7.05243">
        <ele>1170</ele>
        <time>2026-03-22T13:02:29Z</time>
      </trkpt>
      <trkpt lat="47.91067" lon="7.05243">
        <ele>1170</ele>
        <time>2026-03-22T13:02:34Z</time>
      </trkpt>
      <trkpt lat="47.91067" lon="7.05243">
        <ele>1170</ele>
        <time>2026-03-22T13:02:39Z</time>
      </trkpt>
      <trkpt lat="47.91067" lon="7.05243">
        <ele>1170</ele>
        <time>2026-03-22T13:02:44Z</time>
      </trkpt>
      <trkpt lat="47.91067" lon="7.05243">
        <ele>1170</ele>
        <time>2026-03-22T13:02:49Z</time>
      </trkpt>
      <trkpt lat="47.91067" lon="7.05243">
        <ele>1170</ele>
        <time>2026-03-22T13:02:54Z</time>
      </trkpt>
      <trkpt lat="47.91067" lon="7.05243">
        <ele>1170</ele>
        <time>2026-03-22T13:02:59Z</time>
      </trkpt>
      <trkpt lat="47.91067" lon="7.05243">
        <ele>1170</ele>
        <time>2026-03-22T13:03:04Z</time>
      </trkpt>
      <trkpt lat="47.91067" lon="7.05243">
        <ele>1170</ele>
        <time>2026-03-22T13:03:09Z</time>
      </trkpt>
      <trkpt lat="47.91067" lon="7.05243">
        <ele>1170</ele>
        <time>2026-03-22T13:03:14Z</time>
      </trkpt>
      <trkpt lat="47.91067" lon="7.05243">
        <ele>1170</ele>
        <time>2026-03-22T13:03:19Z</time>
      </trkpt>
      <trkpt lat="47.91067" lon="7.05243">
        <ele>1170</ele>
        <time>2026-03-22T13:03:24Z</time>
      </trkpt>
      <trkpt lat="47.91067" lon="7.05243">
        <ele>1170</ele>
        <time>2026-03-22T13:03:29Z</time>
      </trkpt>
      <trkpt lat="47.91067" lon="7.05243">
        <ele>1170</ele>
        <time>2026-03-22T13:03:34Z</time>
      </trkpt>
      <trkpt lat="47.91067" lon="7.05243">
        <ele>1170</ele>
        <time>2026-03-22T13:03:39Z</time>
      </trkpt>
      <trkpt lat="47.91067" lon="7.05243">
        <ele>1170</ele>
        <time>2026-03-22T13:03:44Z</time>
      </trkpt>
      <trkpt lat="47.91067" lon="7.05243">
        <ele>1170</ele>
        <time>2026-03-22T13:03:49Z</time>
      </trkpt>
      <trkpt lat="47.91067" lon="7.05243">
        <ele>1170</ele>
        <time>2026-03-22T13:03:54Z</time>
      </trkpt>
      <trkpt lat="47.91067" lon="7.05243">
        <ele>1170</ele>
        <time>2026-03-22T13:03:59Z</time>
      </trkpt>
      <trkpt lat="47.91067" lon="7.05243">
        <ele>1170</ele>
        <time>2026-03-22T13:04:04Z</time>
      </trkpt>
      <trkpt lat="47.91067" lon="7.05243">
        <ele>1170</ele>
        <time>2026-03-22T13:04:09Z</time>
      </trkpt>
      <trkpt lat="47.91067" lon="7.05243">
        <ele>1170</ele>
        <time>2026-03-22T13:04:14Z</time>
      </trkpt>
      <trkpt lat="47.91067" lon="7.05243">
        <ele>1170</ele>
        <time>2026-03-22T13:04:19Z</time>
      </trkpt>
      <trkpt lat="47.91067" lon="7.05243">
        <ele>1170</ele>
        <time>2026-03-22T13:04:24Z</time>
      </trkpt>
      <trkpt lat="47.91067" lon="7.05243">
        <ele>1170</ele>
        <time>2026-03-22T13:04:29Z</time>
      </trkpt>
      <trkpt lat="47.91063" lon="7.05255">
        <ele>1169.4</ele>
        <time>2026-03-22T13:04:34Z</time>
      </trkpt>
      <trkpt lat="47.91064" lon="7.05256">
        <ele>1169.7</ele>
        <time>2026-03-22T13:04:39Z</time>
      </trkpt>
      <trkpt lat="47.91064" lon="7.05261">
        <ele>1169.9</ele>
        <time>2026-03-22T13:04:44Z</time>
      </trkpt>
      <trkpt lat="47.91064" lon="7.05267">
        <ele>1170.2</ele>
        <time>2026-03-22T13:04:49Z</time>
      </trkpt>
      <trkpt lat="47.91062" lon="7.05272">
        <ele>1169.9</ele>
        <time>2026-03-22T13:04:54Z</time>
      </trkpt>
      <trkpt lat="47.91061" lon="7.05277">
        <ele>1169.9</ele>
        <time>2026-03-22T13:04:59Z</time>
      </trkpt>
      <trkpt lat="47.91062" lon="7.05283">
        <ele>1170.5</ele>
        <time>2026-03-22T13:05:04Z</time>
      </trkpt>
      <trkpt lat="47.91063" lon="7.05287">
        <ele>1170.9</ele>
        <time>2026-03-22T13:05:09Z</time>
      </trkpt>
      <trkpt lat="47.91066" lon="7.05292">
        <ele>1171.9</ele>
        <time>2026-03-22T13:05:14Z</time>
      </trkpt>
      <trkpt lat="47.91069" lon="7.05296">
        <ele>1172.9</ele>
        <time>2026-03-22T13:05:19Z</time>
      </trkpt>
      <trkpt lat="47.91071" lon="7.05301">
        <ele>1173.7</ele>
        <time>2026-03-22T13:05:24Z</time>
      </trkpt>
      <trkpt lat="47.91072" lon="7.05306">
        <ele>1174.3</ele>
        <time>2026-03-22T13:05:29Z</time>
      </trkpt>
      <trkpt lat="47.9107" lon="7.0531">
        <ele>1173.9</ele>
        <time>2026-03-22T13:05:34Z</time>
      </trkpt>
      <trkpt lat="47.9107" lon="7.05313">
        <ele>1174.1</ele>
        <time>2026-03-22T13:05:39Z</time>
      </trkpt>
      <trkpt lat="47.9107" lon="7.05313">
        <ele>1174.1</ele>
        <time>2026-03-22T13:05:44Z</time>
      </trkpt>
      <trkpt lat="47.91074" lon="7.05323">
        <ele>1175.7</ele>
        <time>2026-03-22T13:05:49Z</time>
      </trkpt>
      <trkpt lat="47.91076" lon="7.05327">
        <ele>1176.5</ele>
        <time>2026-03-22T13:05:54Z</time>
      </trkpt>
      <trkpt lat="47.91076" lon="7.05327">
        <ele>1176.5</ele>
        <time>2026-03-22T13:05:59Z</time>
      </trkpt>
      <trkpt lat="47.91076" lon="7.05327">
        <ele>1176.5</ele>
        <time>2026-03-22T13:06:04Z</time>
      </trkpt>
      <trkpt lat="47.91076" lon="7.05327">
        <ele>1176.5</ele>
        <time>2026-03-22T13:06:09Z</time>
      </trkpt>
      <trkpt lat="47.91076" lon="7.05327">
        <ele>1176.5</ele>
        <time>2026-03-22T13:06:14Z</time>
      </trkpt>
      <trkpt lat="47.91077" lon="7.05332">
        <ele>1177.1</ele>
        <time>2026-03-22T13:06:19Z</time>
      </trkpt>
      <trkpt lat="47.91077" lon="7.05335">
        <ele>1177.3</ele>
        <time>2026-03-22T13:06:24Z</time>
      </trkpt>
      <trkpt lat="47.91071" lon="7.05338">
        <ele>1175.7</ele>
        <time>2026-03-22T13:06:29Z</time>
      </trkpt>
      <trkpt lat="47.91068" lon="7.05344">
        <ele>1175.1</ele>
        <time>2026-03-22T13:06:34Z</time>
      </trkpt>
      <trkpt lat="47.91067" lon="7.0535">
        <ele>1175.1</ele>
        <time>2026-03-22T13:06:39Z</time>
      </trkpt>
      <trkpt lat="47.91068" lon="7.05357">
        <ele>1175.7</ele>
        <time>2026-03-22T13:06:44Z</time>
      </trkpt>
      <trkpt lat="47.91068" lon="7.05363">
        <ele>1176</ele>
        <time>2026-03-22T13:06:49Z</time>
      </trkpt>
      <trkpt lat="47.91068" lon="7.0537">
        <ele>1176.4</ele>
        <time>2026-03-22T13:06:54Z</time>
      </trkpt>
      <trkpt lat="47.91068" lon="7.05377">
        <ele>1176.7</ele>
        <time>2026-03-22T13:06:59Z</time>
      </trkpt>
      <trkpt lat="47.91067" lon="7.05383">
        <ele>1176.7</ele>
        <time>2026-03-22T13:07:04Z</time>
      </trkpt>
      <trkpt lat="47.91068" lon="7.05386">
        <ele>1177.2</ele>
        <time>2026-03-22T13:07:09Z</time>
      </trkpt>
      <trkpt lat="47.91069" lon="7.0539">
        <ele>1177.7</ele>
        <time>2026-03-22T13:07:14Z</time>
      </trkpt>
      <trkpt lat="47.91072" lon="7.05393">
        <ele>1178.8</ele>
        <time>2026-03-22T13:07:19Z</time>
      </trkpt>
      <trkpt lat="47.91074" lon="7.05398">
        <ele>1179.8</ele>
        <time>2026-03-22T13:07:24Z</time>
      </trkpt>
      <trkpt lat="47.91073" lon="7.05402">
        <ele>1179.6</ele>
        <time>2026-03-22T13:07:29Z</time>
      </trkpt>
      <trkpt lat="47.91073" lon="7.05405">
        <ele>1179.8</ele>
        <time>2026-03-22T13:07:34Z</time>
      </trkpt>
      <trkpt lat="47.91072" lon="7.05411">
        <ele>1179.8</ele>
        <time>2026-03-22T13:07:39Z</time>
      </trkpt>
      <trkpt lat="47.91072" lon="7.05419">
        <ele>1180.2</ele>
        <time>2026-03-22T13:07:44Z</time>
      </trkpt>
      <trkpt lat="47.91073" lon="7.05424">
        <ele>1180.8</ele>
        <time>2026-03-22T13:07:49Z</time>
      </trkpt>
      <trkpt lat="47.91074" lon="7.0543">
        <ele>1181.4</ele>
        <time>2026-03-22T13:07:54Z</time>
      </trkpt>
      <trkpt lat="47.91074" lon="7.05436">
        <ele>1181.7</ele>
        <time>2026-03-22T13:07:59Z</time>
      </trkpt>
      <trkpt lat="47.91073" lon="7.05444">
        <ele>1181.8</ele>
        <time>2026-03-22T13:08:04Z</time>
      </trkpt>
      <trkpt lat="47.91074" lon="7.05449">
        <ele>1182.4</ele>
        <time>2026-03-22T13:08:09Z</time>
      </trkpt>
      <trkpt lat="47.91073" lon="7.05455">
        <ele>1182.4</ele>
        <time>2026-03-22T13:08:14Z</time>
      </trkpt>
      <trkpt lat="47.91074" lon="7.05459">
        <ele>1182.9</ele>
        <time>2026-03-22T13:08:19Z</time>
      </trkpt>
      <trkpt lat="47.91074" lon="7.05463">
        <ele>1183.1</ele>
        <time>2026-03-22T13:08:24Z</time>
      </trkpt>
      <trkpt lat="47.91074" lon="7.05468">
        <ele>1183.4</ele>
        <time>2026-03-22T13:08:29Z</time>
      </trkpt>
      <trkpt lat="47.91077" lon="7.05471">
        <ele>1184.5</ele>
        <time>2026-03-22T13:08:34Z</time>
      </trkpt>
      <trkpt lat="47.91078" lon="7.05477">
        <ele>1185.1</ele>
        <time>2026-03-22T13:08:39Z</time>
      </trkpt>
      <trkpt lat="47.91079" lon="7.05482">
        <ele>1185.7</ele>
        <time>2026-03-22T13:08:44Z</time>
      </trkpt>
      <trkpt lat="47.91079" lon="7.05487">
        <ele>1186</ele>
        <time>2026-03-22T13:08:49Z</time>
      </trkpt>
      <trkpt lat="47.91079" lon="7.05495">
        <ele>1186.3</ele>
        <time>2026-03-22T13:08:54Z</time>
      </trkpt>
      <trkpt lat="47.91079" lon="7.05504">
        <ele>1186.4</ele>
        <time>2026-03-22T13:08:59Z</time>
      </trkpt>
      <trkpt lat="47.9108" lon="7.05511">
        <ele>1186.3</ele>
        <time>2026-03-22T13:09:04Z</time>
      </trkpt>
      <trkpt lat="47.91083" lon="7.05518">
        <ele>1186.8</ele>
        <time>2026-03-22T13:09:09Z</time>
      </trkpt>
      <trkpt lat="47.91083" lon="7.05526">
        <ele>1186.3</ele>
        <time>2026-03-22T13:09:14Z</time>
      </trkpt>
      <trkpt lat="47.91083" lon="7.05536">
        <ele>1185.7</ele>
        <time>2026-03-22T13:09:19Z</time>
      </trkpt>
      <trkpt lat="47.91083" lon="7.05547">
        <ele>1185.1</ele>
        <time>2026-03-22T13:09:24Z</time>
      </trkpt>
      <trkpt lat="47.91084" lon="7.05558">
        <ele>1184.7</ele>
        <time>2026-03-22T13:09:29Z</time>
      </trkpt>
      <trkpt lat="47.91085" lon="7.0557">
        <ele>1184.3</ele>
        <time>2026-03-22T13:09:34Z</time>
      </trkpt>
      <trkpt lat="47.91084" lon="7.05578">
        <ele>1183.5</ele>
        <time>2026-03-22T13:09:39Z</time>
      </trkpt>
      <trkpt lat="47.91084" lon="7.05587">
        <ele>1182.8</ele>
        <time>2026-03-22T13:09:44Z</time>
      </trkpt>
      <trkpt lat="47.91084" lon="7.05596">
        <ele>1181.7</ele>
        <time>2026-03-22T13:09:49Z</time>
      </trkpt>
      <trkpt lat="47.91084" lon="7.05601">
        <ele>1181.1</ele>
        <time>2026-03-22T13:09:54Z</time>
      </trkpt>
      <trkpt lat="47.91084" lon="7.05607">
        <ele>1180.4</ele>
        <time>2026-03-22T13:09:59Z</time>
      </trkpt>
      <trkpt lat="47.91083" lon="7.05614">
        <ele>1179.2</ele>
        <time>2026-03-22T13:10:04Z</time>
      </trkpt>
      <trkpt lat="47.91082" lon="7.0562">
        <ele>1178</ele>
        <time>2026-03-22T13:10:09Z</time>
      </trkpt>
      <trkpt lat="47.91082" lon="7.05629">
        <ele>1176.9</ele>
        <time>2026-03-22T13:10:14Z</time>
      </trkpt>
      <trkpt lat="47.91083" lon="7.05638">
        <ele>1176.3</ele>
        <time>2026-03-22T13:10:19Z</time>
      </trkpt>
      <trkpt lat="47.91085" lon="7.05646">
        <ele>1176.2</ele>
        <time>2026-03-22T13:10:24Z</time>
      </trkpt>
      <trkpt lat="47.91087" lon="7.05654">
        <ele>1176.1</ele>
        <time>2026-03-22T13:10:29Z</time>
      </trkpt>
      <trkpt lat="47.91086" lon="7.05662">
        <ele>1174.8</ele>
        <time>2026-03-22T13:10:34Z</time>
      </trkpt>
      <trkpt lat="47.91086" lon="7.0567">
        <ele>1173.6</ele>
        <time>2026-03-22T13:10:39Z</time>
      </trkpt>
      <trkpt lat="47.91087" lon="7.05679">
        <ele>1172.3</ele>
        <time>2026-03-22T13:10:44Z</time>
      </trkpt>
      <trkpt lat="47.91086" lon="7.05688">
        <ele>1170</ele>
        <time>2026-03-22T13:10:49Z</time>
      </trkpt>
      <trkpt lat="47.91086" lon="7.05696">
        <ele>1168.4</ele>
        <time>2026-03-22T13:10:54Z</time>
      </trkpt>
      <trkpt lat="47.91085" lon="7.05703">
        <ele>1166.5</ele>
        <time>2026-03-22T13:10:59Z</time>
      </trkpt>
      <trkpt lat="47.91086" lon="7.05714">
        <ele>1164.8</ele>
        <time>2026-03-22T13:11:04Z</time>
      </trkpt>
      <trkpt lat="47.91085" lon="7.05719">
        <ele>1163.2</ele>
        <time>2026-03-22T13:11:09Z</time>
      </trkpt>
      <trkpt lat="47.91086" lon="7.05725">
        <ele>1162.6</ele>
        <time>2026-03-22T13:11:14Z</time>
      </trkpt>
      <trkpt lat="47.91089" lon="7.05733">
        <ele>1162.7</ele>
        <time>2026-03-22T13:11:19Z</time>
      </trkpt>
      <trkpt lat="47.91091" lon="7.05744">
        <ele>1161.7</ele>
        <time>2026-03-22T13:11:24Z</time>
      </trkpt>
      <trkpt lat="47.91091" lon="7.0575">
        <ele>1160.5</ele>
        <time>2026-03-22T13:11:29Z</time>
      </trkpt>
      <trkpt lat="47.9109" lon="7.05753">
        <ele>1160</ele>
        <time>2026-03-22T13:11:34Z</time>
      </trkpt>
      <trkpt lat="47.9109" lon="7.05753">
        <ele>1160</ele>
        <time>2026-03-22T13:11:39Z</time>
      </trkpt>
      <trkpt lat="47.9109" lon="7.05753">
        <ele>1160</ele>
        <time>2026-03-22T13:11:44Z</time>
      </trkpt>
      <trkpt lat="47.9109" lon="7.05753">
        <ele>1160</ele>
        <time>2026-03-22T13:11:49Z</time>
      </trkpt>
      <trkpt lat="47.9109" lon="7.05753">
        <ele>1160</ele>
        <time>2026-03-22T13:11:54Z</time>
      </trkpt>
      <trkpt lat="47.9109" lon="7.05753">
        <ele>1160</ele>
        <time>2026-03-22T13:11:59Z</time>
      </trkpt>
      <trkpt lat="47.9109" lon="7.05753">
        <ele>1160</ele>
        <time>2026-03-22T13:12:04Z</time>
      </trkpt>
      <trkpt lat="47.9109" lon="7.05753">
        <ele>1160</ele>
        <time>2026-03-22T13:12:09Z</time>
      </trkpt>
      <trkpt lat="47.9109" lon="7.05753">
        <ele>1160</ele>
        <time>2026-03-22T13:12:14Z</time>
      </trkpt>
      <trkpt lat="47.9109" lon="7.05753">
        <ele>1160</ele>
        <time>2026-03-22T13:12:19Z</time>
      </trkpt>
      <trkpt lat="47.9109" lon="7.05753">
        <ele>1160</ele>
        <time>2026-03-22T13:12:24Z</time>
      </trkpt>
      <trkpt lat="47.9109" lon="7.05753">
        <ele>1160</ele>
        <time>2026-03-22T13:12:29Z</time>
      </trkpt>
      <trkpt lat="47.9109" lon="7.05753">
        <ele>1160</ele>
        <time>2026-03-22T13:12:34Z</time>
      </trkpt>
      <trkpt lat="47.9109" lon="7.05753">
        <ele>1160</ele>
        <time>2026-03-22T13:12:39Z</time>
      </trkpt>
      <trkpt lat="47.9109" lon="7.05753">
        <ele>1160</ele>
        <time>2026-03-22T13:12:44Z</time>
      </trkpt>
      <trkpt lat="47.9109" lon="7.05753">
        <ele>1160</ele>
        <time>2026-03-22T13:12:49Z</time>
      </trkpt>
      <trkpt lat="47.9109" lon="7.05753">
        <ele>1160</ele>
        <time>2026-03-22T13:12:54Z</time>
      </trkpt>
      <trkpt lat="47.9109" lon="7.05753">
        <ele>1160</ele>
        <time>2026-03-22T13:12:59Z</time>
      </trkpt>
      <trkpt lat="47.9109" lon="7.05753">
        <ele>1160</ele>
        <time>2026-03-22T13:13:04Z</time>
      </trkpt>
      <trkpt lat="47.9109" lon="7.05753">
        <ele>1160</ele>
        <time>2026-03-22T13:13:09Z</time>
      </trkpt>
      <trkpt lat="47.91087" lon="7.05771">
        <ele>1158.6</ele>
        <time>2026-03-22T13:13:14Z</time>
      </trkpt>
      <trkpt lat="47.91087" lon="7.0578">
        <ele>1158.7</ele>
        <time>2026-03-22T13:13:19Z</time>
      </trkpt>
      <trkpt lat="47.91092" lon="7.05785">
        <ele>1161.5</ele>
        <time>2026-03-22T13:13:24Z</time>
      </trkpt>
      <trkpt lat="47.91097" lon="7.05791">
        <ele>1164.3</ele>
        <time>2026-03-22T13:13:29Z</time>
      </trkpt>
      <trkpt lat="47.911" lon="7.05796">
        <ele>1165.9</ele>
        <time>2026-03-22T13:13:34Z</time>
      </trkpt>
      <trkpt lat="47.91099" lon="7.05804">
        <ele>1165.4</ele>
        <time>2026-03-22T13:13:39Z</time>
      </trkpt>
      <trkpt lat="47.911" lon="7.05813">
        <ele>1166</ele>
        <time>2026-03-22T13:13:44Z</time>
      </trkpt>
      <trkpt lat="47.91101" lon="7.05822">
        <ele>1166.5</ele>
        <time>2026-03-22T13:13:49Z</time>
      </trkpt>
      <trkpt lat="47.911" lon="7.05832">
        <ele>1166</ele>
        <time>2026-03-22T13:13:54Z</time>
      </trkpt>
      <trkpt lat="47.91101" lon="7.0584">
        <ele>1166.1</ele>
        <time>2026-03-22T13:13:59Z</time>
      </trkpt>
      <trkpt lat="47.91102" lon="7.05847">
        <ele>1166.2</ele>
        <time>2026-03-22T13:14:04Z</time>
      </trkpt>
      <trkpt lat="47.91104" lon="7.05854">
        <ele>1166.8</ele>
        <time>2026-03-22T13:14:09Z</time>
      </trkpt>
      <trkpt lat="47.91107" lon="7.05862">
        <ele>1167.8</ele>
        <time>2026-03-22T13:14:14Z</time>
      </trkpt>
      <trkpt lat="47.9111" lon="7.05869">
        <ele>1168.8</ele>
        <time>2026-03-22T13:14:19Z</time>
      </trkpt>
      <trkpt lat="47.91113" lon="7.05879">
        <ele>1169.7</ele>
        <time>2026-03-22T13:14:24Z</time>
      </trkpt>
      <trkpt lat="47.91117" lon="7.05885">
        <ele>1171.2</ele>
        <time>2026-03-22T13:14:29Z</time>
      </trkpt>
      <trkpt lat="47.91122" lon="7.05891">
        <ele>1173.1</ele>
        <time>2026-03-22T13:14:34Z</time>
      </trkpt>
      <trkpt lat="47.91125" lon="7.05899">
        <ele>1174.1</ele>
        <time>2026-03-22T13:14:39Z</time>
      </trkpt>
      <trkpt lat="47.91128" lon="7.05906">
        <ele>1175</ele>
        <time>2026-03-22T13:14:44Z</time>
      </trkpt>
      <trkpt lat="47.91131" lon="7.05916">
        <ele>1175.8</ele>
        <time>2026-03-22T13:14:49Z</time>
      </trkpt>
      <trkpt lat="47.91135" lon="7.05927">
        <ele>1176.6</ele>
        <time>2026-03-22T13:14:54Z</time>
      </trkpt>
      <trkpt lat="47.91138" lon="7.05939">
        <ele>1176.8</ele>
        <time>2026-03-22T13:14:59Z</time>
      </trkpt>
      <trkpt lat="47.9114" lon="7.0595">
        <ele>1176.6</ele>
        <time>2026-03-22T13:15:04Z</time>
      </trkpt>
      <trkpt lat="47.91142" lon="7.05959">
        <ele>1176.6</ele>
        <time>2026-03-22T13:15:09Z</time>
      </trkpt>
      <trkpt lat="47.91144" lon="7.05966">
        <ele>1176.8</ele>
        <time>2026-03-22T13:15:14Z</time>
      </trkpt>
      <trkpt lat="47.91147" lon="7.05973">
        <ele>1177.4</ele>
        <time>2026-03-22T13:15:19Z</time>
      </trkpt>
      <trkpt lat="47.9115" lon="7.05985">
        <ele>1177.5</ele>
        <time>2026-03-22T13:15:24Z</time>
      </trkpt>
      <trkpt lat="47.91152" lon="7.05997">
        <ele>1177.1</ele>
        <time>2026-03-22T13:15:29Z</time>
      </trkpt>
      <trkpt lat="47.91154" lon="7.06008">
        <ele>1177.1</ele>
        <time>2026-03-22T13:15:34Z</time>
      </trkpt>
      <trkpt lat="47.91155" lon="7.0602">
        <ele>1176.7</ele>
        <time>2026-03-22T13:15:39Z</time>
      </trkpt>
      <trkpt lat="47.91156" lon="7.06029">
        <ele>1176.5</ele>
        <time>2026-03-22T13:15:44Z</time>
      </trkpt>
      <trkpt lat="47.91157" lon="7.06029">
        <ele>1176.9</ele>
        <time>2026-03-22T13:15:49Z</time>
      </trkpt>
      <trkpt lat="47.91158" lon="7.06037">
        <ele>1176.8</ele>
        <time>2026-03-22T13:15:54Z</time>
      </trkpt>
      <trkpt lat="47.91157" lon="7.06047">
        <ele>1175.7</ele>
        <time>2026-03-22T13:15:59Z</time>
      </trkpt>
      <trkpt lat="47.91157" lon="7.06056">
        <ele>1175</ele>
        <time>2026-03-22T13:16:04Z</time>
      </trkpt>
      <trkpt lat="47.91157" lon="7.0606">
        <ele>1174.8</ele>
        <time>2026-03-22T13:16:09Z</time>
      </trkpt>
      <trkpt lat="47.91159" lon="7.06066">
        <ele>1175.3</ele>
        <time>2026-03-22T13:16:14Z</time>
      </trkpt>
      <trkpt lat="47.91158" lon="7.06074">
        <ele>1174.3</ele>
        <time>2026-03-22T13:16:19Z</time>
      </trkpt>
      <trkpt lat="47.91158" lon="7.06079">
        <ele>1173.9</ele>
        <time>2026-03-22T13:16:24Z</time>
      </trkpt>
      <trkpt lat="47.91156" lon="7.06086">
        <ele>1172.7</ele>
        <time>2026-03-22T13:16:29Z</time>
      </trkpt>
      <trkpt lat="47.91154" lon="7.06095">
        <ele>1172</ele>
        <time>2026-03-22T13:16:34Z</time>
      </trkpt>
      <trkpt lat="47.91153" lon="7.06104">
        <ele>1171.7</ele>
        <time>2026-03-22T13:16:39Z</time>
      </trkpt>
      <trkpt lat="47.91151" lon="7.06111">
        <ele>1170.9</ele>
        <time>2026-03-22T13:16:44Z</time>
      </trkpt>
      <trkpt lat="47.91149" lon="7.0612">
        <ele>1170.1</ele>
        <time>2026-03-22T13:16:49Z</time>
      </trkpt>
      <trkpt lat="47.91147" lon="7.06127">
        <ele>1169.3</ele>
        <time>2026-03-22T13:16:54Z</time>
      </trkpt>
      <trkpt lat="47.91145" lon="7.06137">
        <ele>1168.5</ele>
        <time>2026-03-22T13:16:59Z</time>
      </trkpt>
      <trkpt lat="47.91144" lon="7.06144">
        <ele>1168.2</ele>
        <time>2026-03-22T13:17:04Z</time>
      </trkpt>
      <trkpt lat="47.91142" lon="7.06152">
        <ele>1167.3</ele>
        <time>2026-03-22T13:17:09Z</time>
      </trkpt>
      <trkpt lat="47.91141" lon="7.06158">
        <ele>1166.9</ele>
        <time>2026-03-22T13:17:14Z</time>
      </trkpt>
      <trkpt lat="47.91139" lon="7.06166">
        <ele>1166</ele>
        <time>2026-03-22T13:17:19Z</time>
      </trkpt>
      <trkpt lat="47.91136" lon="7.06174">
        <ele>1164.8</ele>
        <time>2026-03-22T13:17:24Z</time>
      </trkpt>
      <trkpt lat="47.91133" lon="7.06182">
        <ele>1163.7</ele>
        <time>2026-03-22T13:17:29Z</time>
      </trkpt>
      <trkpt lat="47.91131" lon="7.06191">
        <ele>1163.1</ele>
        <time>2026-03-22T13:17:34Z</time>
      </trkpt>
      <trkpt lat="47.9113" lon="7.06198">
        <ele>1163</ele>
        <time>2026-03-22T13:17:39Z</time>
      </trkpt>
      <trkpt lat="47.91127" lon="7.06206">
        <ele>1161.9</ele>
        <time>2026-03-22T13:17:44Z</time>
      </trkpt>
      <trkpt lat="47.91127" lon="7.06213">
        <ele>1162.3</ele>
        <time>2026-03-22T13:17:49Z</time>
      </trkpt>
      <trkpt lat="47.91124" lon="7.06224">
        <ele>1161.4</ele>
        <time>2026-03-22T13:17:54Z</time>
      </trkpt>
      <trkpt lat="47.91122" lon="7.06235">
        <ele>1161.1</ele>
        <time>2026-03-22T13:17:59Z</time>
      </trkpt>
      <trkpt lat="47.91121" lon="7.06242">
        <ele>1161</ele>
        <time>2026-03-22T13:18:04Z</time>
      </trkpt>
      <trkpt lat="47.91121" lon="7.06248">
        <ele>1161.4</ele>
        <time>2026-03-22T13:18:09Z</time>
      </trkpt>
      <trkpt lat="47.9112" lon="7.06259">
        <ele>1162.1</ele>
        <time>2026-03-22T13:18:14Z</time>
      </trkpt>
      <trkpt lat="47.9112" lon="7.06266">
        <ele>1162.9</ele>
        <time>2026-03-22T13:18:19Z</time>
      </trkpt>
      <trkpt lat="47.91119" lon="7.06275">
        <ele>1163.5</ele>
        <time>2026-03-22T13:18:24Z</time>
      </trkpt>
      <trkpt lat="47.91117" lon="7.06284">
        <ele>1163.6</ele>
        <time>2026-03-22T13:18:29Z</time>
      </trkpt>
      <trkpt lat="47.91118" lon="7.06293">
        <ele>1165.1</ele>
        <time>2026-03-22T13:18:34Z</time>
      </trkpt>
      <trkpt lat="47.91118" lon="7.063">
        <ele>1166</ele>
        <time>2026-03-22T13:18:39Z</time>
      </trkpt>
      <trkpt lat="47.91119" lon="7.06307">
        <ele>1167.2</ele>
        <time>2026-03-22T13:18:44Z</time>
      </trkpt>
      <trkpt lat="47.9112" lon="7.06315">
        <ele>1168.5</ele>
        <time>2026-03-22T13:18:49Z</time>
      </trkpt>
      <trkpt lat="47.9112" lon="7.06315">
        <ele>1168.5</ele>
        <time>2026-03-22T13:18:54Z</time>
      </trkpt>
      <trkpt lat="47.9112" lon="7.06315">
        <ele>1168.5</ele>
        <time>2026-03-22T13:18:59Z</time>
      </trkpt>
      <trkpt lat="47.9112" lon="7.06315">
        <ele>1168.5</ele>
        <time>2026-03-22T13:19:04Z</time>
      </trkpt>
      <trkpt lat="47.9112" lon="7.06315">
        <ele>1168.5</ele>
        <time>2026-03-22T13:19:09Z</time>
      </trkpt>
      <trkpt lat="47.9112" lon="7.06315">
        <ele>1168.5</ele>
        <time>2026-03-22T13:19:14Z</time>
      </trkpt>
      <trkpt lat="47.9112" lon="7.06315">
        <ele>1168.5</ele>
        <time>2026-03-22T13:19:19Z</time>
      </trkpt>
      <trkpt lat="47.9112" lon="7.06315">
        <ele>1168.5</ele>
        <time>2026-03-22T13:19:24Z</time>
      </trkpt>
      <trkpt lat="47.9112" lon="7.06315">
        <ele>1168.5</ele>
        <time>2026-03-22T13:19:29Z</time>
      </trkpt>
      <trkpt lat="47.9112" lon="7.06315">
        <ele>1168.5</ele>
        <time>2026-03-22T13:19:34Z</time>
      </trkpt>
      <trkpt lat="47.9112" lon="7.06315">
        <ele>1168.5</ele>
        <time>2026-03-22T13:19:39Z</time>
      </trkpt>
      <trkpt lat="47.9112" lon="7.06315">
        <ele>1168.5</ele>
        <time>2026-03-22T13:19:44Z</time>
      </trkpt>
      <trkpt lat="47.9112" lon="7.06315">
        <ele>1168.5</ele>
        <time>2026-03-22T13:19:49Z</time>
      </trkpt>
      <trkpt lat="47.9112" lon="7.06315">
        <ele>1168.5</ele>
        <time>2026-03-22T13:19:54Z</time>
      </trkpt>
      <trkpt lat="47.9112" lon="7.06315">
        <ele>1168.5</ele>
        <time>2026-03-22T13:19:59Z</time>
      </trkpt>
      <trkpt lat="47.9112" lon="7.06315">
        <ele>1168.5</ele>
        <time>2026-03-22T13:20:04Z</time>
      </trkpt>
      <trkpt lat="47.9112" lon="7.06315">
        <ele>1168.5</ele>
        <time>2026-03-22T13:20:09Z</time>
      </trkpt>
      <trkpt lat="47.9112" lon="7.06315">
        <ele>1168.5</ele>
        <time>2026-03-22T13:20:14Z</time>
      </trkpt>
      <trkpt lat="47.9112" lon="7.06315">
        <ele>1168.5</ele>
        <time>2026-03-22T13:20:19Z</time>
      </trkpt>
      <trkpt lat="47.9112" lon="7.06315">
        <ele>1168.5</ele>
        <time>2026-03-22T13:20:24Z</time>
      </trkpt>
      <trkpt lat="47.9112" lon="7.06315">
        <ele>1168.5</ele>
        <time>2026-03-22T13:20:29Z</time>
      </trkpt>
      <trkpt lat="47.9112" lon="7.06315">
        <ele>1168.5</ele>
        <time>2026-03-22T13:20:34Z</time>
      </trkpt>
      <trkpt lat="47.9112" lon="7.06315">
        <ele>1168.5</ele>
        <time>2026-03-22T13:20:39Z</time>
      </trkpt>
      <trkpt lat="47.9112" lon="7.06315">
        <ele>1168.5</ele>
        <time>2026-03-22T13:20:44Z</time>
      </trkpt>
      <trkpt lat="47.9112" lon="7.06315">
        <ele>1168.5</ele>
        <time>2026-03-22T13:20:49Z</time>
      </trkpt>
      <trkpt lat="47.9112" lon="7.06315">
        <ele>1168.5</ele>
        <time>2026-03-22T13:20:54Z</time>
      </trkpt>
      <trkpt lat="47.9112" lon="7.06315">
        <ele>1168.5</ele>
        <time>2026-03-22T13:20:59Z</time>
      </trkpt>
      <trkpt lat="47.9112" lon="7.06315">
        <ele>1168.5</ele>
        <time>2026-03-22T13:21:04Z</time>
      </trkpt>
      <trkpt lat="47.9112" lon="7.06315">
        <ele>1168.5</ele>
        <time>2026-03-22T13:21:09Z</time>
      </trkpt>
      <trkpt lat="47.9112" lon="7.06315">
        <ele>1168.5</ele>
        <time>2026-03-22T13:21:14Z</time>
      </trkpt>
      <trkpt lat="47.9112" lon="7.06315">
        <ele>1168.5</ele>
        <time>2026-03-22T13:21:19Z</time>
      </trkpt>
      <trkpt lat="47.9112" lon="7.06315">
        <ele>1168.5</ele>
        <time>2026-03-22T13:21:24Z</time>
      </trkpt>
      <trkpt lat="47.9112" lon="7.06315">
        <ele>1168.5</ele>
        <time>2026-03-22T13:21:29Z</time>
      </trkpt>
      <trkpt lat="47.9112" lon="7.06315">
        <ele>1168.5</ele>
        <time>2026-03-22T13:21:34Z</time>
      </trkpt>
      <trkpt lat="47.9112" lon="7.06315">
        <ele>1168.5</ele>
        <time>2026-03-22T13:21:39Z</time>
      </trkpt>
      <trkpt lat="47.9112" lon="7.06315">
        <ele>1168.5</ele>
        <time>2026-03-22T13:21:44Z</time>
      </trkpt>
      <trkpt lat="47.9112" lon="7.06315">
        <ele>1168.5</ele>
        <time>2026-03-22T13:21:49Z</time>
      </trkpt>
      <trkpt lat="47.91116" lon="7.06333">
        <ele>1169.1</ele>
        <time>2026-03-22T13:21:54Z</time>
      </trkpt>
      <trkpt lat="47.91114" lon="7.06342">
        <ele>1169.9</ele>
        <time>2026-03-22T13:21:59Z</time>
      </trkpt>
      <trkpt lat="47.91111" lon="7.06352">
        <ele>1170.4</ele>
        <time>2026-03-22T13:22:04Z</time>
      </trkpt>
      <trkpt lat="47.91109" lon="7.06359">
        <ele>1170.9</ele>
        <time>2026-03-22T13:22:09Z</time>
      </trkpt>
      <trkpt lat="47.91107" lon="7.06368">
        <ele>1171.7</ele>
        <time>2026-03-22T13:22:14Z</time>
      </trkpt>
      <trkpt lat="47.91106" lon="7.06375">
        <ele>1172.5</ele>
        <time>2026-03-22T13:22:19Z</time>
      </trkpt>
      <trkpt lat="47.91103" lon="7.06384">
        <ele>1173</ele>
        <time>2026-03-22T13:22:24Z</time>
      </trkpt>
      <trkpt lat="47.91099" lon="7.06393">
        <ele>1173.2</ele>
        <time>2026-03-22T13:22:29Z</time>
      </trkpt>
      <trkpt lat="47.91094" lon="7.06403">
        <ele>1173.2</ele>
        <time>2026-03-22T13:22:34Z</time>
      </trkpt>
      <trkpt lat="47.91092" lon="7.06409">
        <ele>1173.6</ele>
        <time>2026-03-22T13:22:39Z</time>
      </trkpt>
      <trkpt lat="47.91089" lon="7.06415">
        <ele>1173.6</ele>
        <time>2026-03-22T13:22:44Z</time>
      </trkpt>
      <trkpt lat="47.91086" lon="7.06424">
        <ele>1174</ele>
        <time>2026-03-22T13:22:49Z</time>
      </trkpt>
      <trkpt lat="47.91083" lon="7.06433">
        <ele>1174.4</ele>
        <time>2026-03-22T13:22:54Z</time>
      </trkpt>
      <trkpt lat="47.91079" lon="7.06442">
        <ele>1174.7</ele>
        <time>2026-03-22T13:22:59Z</time>
      </trkpt>
      <trkpt lat="47.91075" lon="7.06449">
        <ele>1174.7</ele>
        <time>2026-03-22T13:23:04Z</time>
      </trkpt>
      <trkpt lat="47.91073" lon="7.06457">
        <ele>1175.4</ele>
        <time>2026-03-22T13:23:09Z</time>
      </trkpt>
      <trkpt lat="47.9107" lon="7.06465">
        <ele>1175.9</ele>
        <time>2026-03-22T13:23:14Z</time>
      </trkpt>
      <trkpt lat="47.91065" lon="7.06473">
        <ele>1176</ele>
        <time>2026-03-22T13:23:19Z</time>
      </trkpt>
      <trkpt lat="47.9106" lon="7.0648">
        <ele>1175.9</ele>
        <time>2026-03-22T13:23:24Z</time>
      </trkpt>
      <trkpt lat="47.91058" lon="7.06486">
        <ele>1176.4</ele>
        <time>2026-03-22T13:23:29Z</time>
      </trkpt>
      <trkpt lat="47.91053" lon="7.06494">
        <ele>1176.6</ele>
        <time>2026-03-22T13:23:34Z</time>
      </trkpt>
      <trkpt lat="47.91051" lon="7.06502">
        <ele>1177.5</ele>
        <time>2026-03-22T13:23:39Z</time>
      </trkpt>
      <trkpt lat="47.91048" lon="7.0651">
        <ele>1177.8</ele>
        <time>2026-03-22T13:23:44Z</time>
      </trkpt>
      <trkpt lat="47.91044" lon="7.06518">
        <ele>1177.9</ele>
        <time>2026-03-22T13:23:49Z</time>
      </trkpt>
      <trkpt lat="47.9104" lon="7.06525">
        <ele>1177.9</ele>
        <time>2026-03-22T13:23:54Z</time>
      </trkpt>
      <trkpt lat="47.91036" lon="7.06531">
        <ele>1177.8</ele>
        <time>2026-03-22T13:23:59Z</time>
      </trkpt>
      <trkpt lat="47.91032" lon="7.06539">
        <ele>1177.9</ele>
        <time>2026-03-22T13:24:04Z</time>
      </trkpt>
      <trkpt lat="47.91028" lon="7.06545">
        <ele>1177.8</ele>
        <time>2026-03-22T13:24:09Z</time>
      </trkpt>
      <trkpt lat="47.91024" lon="7.06552">
        <ele>1177.9</ele>
        <time>2026-03-22T13:24:14Z</time>
      </trkpt>
      <trkpt lat="47.9102" lon="7.0656">
        <ele>1178.1</ele>
        <time>2026-03-22T13:24:19Z</time>
      </trkpt>
      <trkpt lat="47.91016" lon="7.06566">
        <ele>1178</ele>
        <time>2026-03-22T13:24:24Z</time>
      </trkpt>
      <trkpt lat="47.91011" lon="7.06574">
        <ele>1178.1</ele>
        <time>2026-03-22T13:24:29Z</time>
      </trkpt>
      <trkpt lat="47.91006" lon="7.06582">
        <ele>1178.1</ele>
        <time>2026-03-22T13:24:34Z</time>
      </trkpt>
      <trkpt lat="47.91002" lon="7.0659">
        <ele>1178.4</ele>
        <time>2026-03-22T13:24:39Z</time>
      </trkpt>
      <trkpt lat="47.90999" lon="7.06599">
        <ele>1179.1</ele>
        <time>2026-03-22T13:24:44Z</time>
      </trkpt>
      <trkpt lat="47.90995" lon="7.06605">
        <ele>1179.4</ele>
        <time>2026-03-22T13:24:49Z</time>
      </trkpt>
      <trkpt lat="47.9099" lon="7.06611">
        <ele>1179.6</ele>
        <time>2026-03-22T13:24:54Z</time>
      </trkpt>
      <trkpt lat="47.90985" lon="7.06616">
        <ele>1179.6</ele>
        <time>2026-03-22T13:24:59Z</time>
      </trkpt>
      <trkpt lat="47.90982" lon="7.06625">
        <ele>1180.6</ele>
        <time>2026-03-22T13:25:04Z</time>
      </trkpt>
      <trkpt lat="47.90977" lon="7.06633">
        <ele>1181.2</ele>
        <time>2026-03-22T13:25:09Z</time>
      </trkpt>
      <trkpt lat="47.90974" lon="7.06638">
        <ele>1181.6</ele>
        <time>2026-03-22T13:25:14Z</time>
      </trkpt>
      <trkpt lat="47.90969" lon="7.06644">
        <ele>1182</ele>
        <time>2026-03-22T13:25:19Z</time>
      </trkpt>
      <trkpt lat="47.90964" lon="7.0665">
        <ele>1182.4</ele>
        <time>2026-03-22T13:25:24Z</time>
      </trkpt>
      <trkpt lat="47.90958" lon="7.06656">
        <ele>1182.7</ele>
        <time>2026-03-22T13:25:29Z</time>
      </trkpt>
      <trkpt lat="47.90953" lon="7.06661">
        <ele>1183</ele>
        <time>2026-03-22T13:25:34Z</time>
      </trkpt>
      <trkpt lat="47.9095" lon="7.06667">
        <ele>1183.6</ele>
        <time>2026-03-22T13:25:39Z</time>
      </trkpt>
      <trkpt lat="47.90945" lon="7.06674">
        <ele>1183.6</ele>
        <time>2026-03-22T13:25:44Z</time>
      </trkpt>
      <trkpt lat="47.9094" lon="7.06682">
        <ele>1183.6</ele>
        <time>2026-03-22T13:25:49Z</time>
      </trkpt>
      <trkpt lat="47.90934" lon="7.06689">
        <ele>1183.6</ele>
        <time>2026-03-22T13:25:54Z</time>
      </trkpt>
      <trkpt lat="47.90929" lon="7.06695">
        <ele>1183.7</ele>
        <time>2026-03-22T13:25:59Z</time>
      </trkpt>
      <trkpt lat="47.90923" lon="7.06702">
        <ele>1183.9</ele>
        <time>2026-03-22T13:26:04Z</time>
      </trkpt>
      <trkpt lat="47.90918" lon="7.06707">
        <ele>1184</ele>
        <time>2026-03-22T13:26:09Z</time>
      </trkpt>
      <trkpt lat="47.90912" lon="7.06713">
        <ele>1184.6</ele>
        <time>2026-03-22T13:26:14Z</time>
      </trkpt>
      <trkpt lat="47.90907" lon="7.06718">
        <ele>1185.2</ele>
        <time>2026-03-22T13:26:19Z</time>
      </trkpt>
      <trkpt lat="47.90901" lon="7.06722">
        <ele>1185.8</ele>
        <time>2026-03-22T13:26:24Z</time>
      </trkpt>
      <trkpt lat="47.90895" lon="7.06725">
        <ele>1186.4</ele>
        <time>2026-03-22T13:26:29Z</time>
      </trkpt>
      <trkpt lat="47.90888" lon="7.0673">
        <ele>1187.2</ele>
        <time>2026-03-22T13:26:34Z</time>
      </trkpt>
      <trkpt lat="47.90882" lon="7.06736">
        <ele>1188.2</ele>
        <time>2026-03-22T13:26:39Z</time>
      </trkpt>
      <trkpt lat="47.90877" lon="7.06742">
        <ele>1189.3</ele>
        <time>2026-03-22T13:26:44Z</time>
      </trkpt>
      <trkpt lat="47.90872" lon="7.06749">
        <ele>1190.5</ele>
        <time>2026-03-22T13:26:49Z</time>
      </trkpt>
      <trkpt lat="47.90867" lon="7.06753">
        <ele>1191.1</ele>
        <time>2026-03-22T13:26:54Z</time>
      </trkpt>
      <trkpt lat="47.90861" lon="7.06761">
        <ele>1192</ele>
        <time>2026-03-22T13:26:59Z</time>
      </trkpt>
      <trkpt lat="47.90856" lon="7.06767">
        <ele>1192.7</ele>
        <time>2026-03-22T13:27:04Z</time>
      </trkpt>
      <trkpt lat="47.90852" lon="7.06773">
        <ele>1193.4</ele>
        <time>2026-03-22T13:27:09Z</time>
      </trkpt>
      <trkpt lat="47.90849" lon="7.06778">
        <ele>1194</ele>
        <time>2026-03-22T13:27:14Z</time>
      </trkpt>
      <trkpt lat="47.90846" lon="7.06782">
        <ele>1194.6</ele>
        <time>2026-03-22T13:27:19Z</time>
      </trkpt>
      <trkpt lat="47.90846" lon="7.06781">
        <ele>1194.5</ele>
        <time>2026-03-22T13:27:24Z</time>
      </trkpt>
      <trkpt lat="47.90849" lon="7.06779">
        <ele>1194.1</ele>
        <time>2026-03-22T13:27:29Z</time>
      </trkpt>
      <trkpt lat="47.90848" lon="7.06775">
        <ele>1193.9</ele>
        <time>2026-03-22T13:27:34Z</time>
      </trkpt>
      <trkpt lat="47.90845" lon="7.0677">
        <ele>1193.8</ele>
        <time>2026-03-22T13:27:39Z</time>
      </trkpt>
      <trkpt lat="47.90845" lon="7.06767">
        <ele>1193.6</ele>
        <time>2026-03-22T13:27:44Z</time>
      </trkpt>
      <trkpt lat="47.90844" lon="7.06765">
        <ele>1193.5</ele>
        <time>2026-03-22T13:27:49Z</time>
      </trkpt>
      <trkpt lat="47.90842" lon="7.06765">
        <ele>1193.6</ele>
        <time>2026-03-22T13:27:54Z</time>
      </trkpt>
      <trkpt lat="47.90841" lon="7.06768">
        <ele>1193.9</ele>
        <time>2026-03-22T13:27:59Z</time>
      </trkpt>
      <trkpt lat="47.9084" lon="7.06769">
        <ele>1194.1</ele>
        <time>2026-03-22T13:28:04Z</time>
      </trkpt>
      <trkpt lat="47.9084" lon="7.06769">
        <ele>1194.1</ele>
        <time>2026-03-22T13:28:09Z</time>
      </trkpt>
      <trkpt lat="47.90837" lon="7.06771">
        <ele>1194.5</ele>
        <time>2026-03-22T13:28:14Z</time>
      </trkpt>
      <trkpt lat="47.90833" lon="7.06777">
        <ele>1195.3</ele>
        <time>2026-03-22T13:28:19Z</time>
      </trkpt>
      <trkpt lat="47.90828" lon="7.06782">
        <ele>1196.2</ele>
        <time>2026-03-22T13:28:24Z</time>
      </trkpt>
      <trkpt lat="47.90823" lon="7.06786">
        <ele>1197</ele>
        <time>2026-03-22T13:28:29Z</time>
      </trkpt>
      <trkpt lat="47.90818" lon="7.0679">
        <ele>1197.8</ele>
        <time>2026-03-22T13:28:34Z</time>
      </trkpt>
      <trkpt lat="47.90814" lon="7.06794">
        <ele>1198.6</ele>
        <time>2026-03-22T13:28:39Z</time>
      </trkpt>
      <trkpt lat="47.90809" lon="7.06798">
        <ele>1199.4</ele>
        <time>2026-03-22T13:28:44Z</time>
      </trkpt>
      <trkpt lat="47.90803" lon="7.06804">
        <ele>1200.6</ele>
        <time>2026-03-22T13:28:49Z</time>
      </trkpt>
      <trkpt lat="47.90798" lon="7.06808">
        <ele>1201.4</ele>
        <time>2026-03-22T13:28:54Z</time>
      </trkpt>
      <trkpt lat="47.90794" lon="7.06811">
        <ele>1202.1</ele>
        <time>2026-03-22T13:28:59Z</time>
      </trkpt>
      <trkpt lat="47.90794" lon="7.06813">
        <ele>1202.3</ele>
        <time>2026-03-22T13:29:04Z</time>
      </trkpt>
      <trkpt lat="47.90794" lon="7.06812">
        <ele>1202.2</ele>
        <time>2026-03-22T13:29:09Z</time>
      </trkpt>
      <trkpt lat="47.90794" lon="7.06812">
        <ele>1202.2</ele>
        <time>2026-03-22T13:29:14Z</time>
      </trkpt>
      <trkpt lat="47.90796" lon="7.06807">
        <ele>1201.5</ele>
        <time>2026-03-22T13:29:19Z</time>
      </trkpt>
      <trkpt lat="47.908" lon="7.06801">
        <ele>1200.6</ele>
        <time>2026-03-22T13:29:24Z</time>
      </trkpt>
      <trkpt lat="47.90804" lon="7.06795">
        <ele>1199.6</ele>
        <time>2026-03-22T13:29:29Z</time>
      </trkpt>
      <trkpt lat="47.90809" lon="7.0679">
        <ele>1198.7</ele>
        <time>2026-03-22T13:29:34Z</time>
      </trkpt>
      <trkpt lat="47.90814" lon="7.06784">
        <ele>1197.7</ele>
        <time>2026-03-22T13:29:39Z</time>
      </trkpt>
      <trkpt lat="47.90818" lon="7.06777">
        <ele>1196.7</ele>
        <time>2026-03-22T13:29:44Z</time>
      </trkpt>
      <trkpt lat="47.90821" lon="7.06769">
        <ele>1195.7</ele>
        <time>2026-03-22T13:29:49Z</time>
      </trkpt>
      <trkpt lat="47.90825" lon="7.06762">
        <ele>1194.7</ele>
        <time>2026-03-22T13:29:54Z</time>
      </trkpt>
      <trkpt lat="47.90828" lon="7.06756">
        <ele>1194</ele>
        <time>2026-03-22T13:29:59Z</time>
      </trkpt>
      <trkpt lat="47.90831" lon="7.06753">
        <ele>1193.5</ele>
        <time>2026-03-22T13:30:04Z</time>
      </trkpt>
      <trkpt lat="47.90835" lon="7.06753">
        <ele>1193.1</ele>
        <time>2026-03-22T13:30:09Z</time>
      </trkpt>
      <trkpt lat="47.90837" lon="7.06753">
        <ele>1193</ele>
        <time>2026-03-22T13:30:14Z</time>
      </trkpt>
      <trkpt lat="47.90839" lon="7.06754">
        <ele>1193</ele>
        <time>2026-03-22T13:30:19Z</time>
      </trkpt>
      <trkpt lat="47.9084" lon="7.06758">
        <ele>1193.2</ele>
        <time>2026-03-22T13:30:24Z</time>
      </trkpt>
      <trkpt lat="47.90843" lon="7.06764">
        <ele>1193.5</ele>
        <time>2026-03-22T13:30:29Z</time>
      </trkpt>
      <trkpt lat="47.90845" lon="7.06767">
        <ele>1193.6</ele>
        <time>2026-03-22T13:30:34Z</time>
      </trkpt>
      <trkpt lat="47.90851" lon="7.06761">
        <ele>1192.7</ele>
        <time>2026-03-22T13:30:39Z</time>
      </trkpt>
      <trkpt lat="47.90855" lon="7.06754">
        <ele>1192</ele>
        <time>2026-03-22T13:30:44Z</time>
      </trkpt>
      <trkpt lat="47.90859" lon="7.06747">
        <ele>1191</ele>
        <time>2026-03-22T13:30:49Z</time>
      </trkpt>
      <trkpt lat="47.90865" lon="7.06741">
        <ele>1189.8</ele>
        <time>2026-03-22T13:30:54Z</time>
      </trkpt>
      <trkpt lat="47.9087" lon="7.06733">
        <ele>1188.4</ele>
        <time>2026-03-22T13:30:59Z</time>
      </trkpt>
      <trkpt lat="47.90875" lon="7.06726">
        <ele>1187.2</ele>
        <time>2026-03-22T13:31:04Z</time>
      </trkpt>
      <trkpt lat="47.90881" lon="7.06721">
        <ele>1186.3</ele>
        <time>2026-03-22T13:31:09Z</time>
      </trkpt>
      <trkpt lat="47.90886" lon="7.06715">
        <ele>1185.4</ele>
        <time>2026-03-22T13:31:14Z</time>
      </trkpt>
      <trkpt lat="47.90892" lon="7.0671">
        <ele>1184.6</ele>
        <time>2026-03-22T13:31:19Z</time>
      </trkpt>
      <trkpt lat="47.90899" lon="7.06705">
        <ele>1183.9</ele>
        <time>2026-03-22T13:31:24Z</time>
      </trkpt>
      <trkpt lat="47.90905" lon="7.06701">
        <ele>1183.4</ele>
        <time>2026-03-22T13:31:29Z</time>
      </trkpt>
      <trkpt lat="47.9091" lon="7.06695">
        <ele>1182.8</ele>
        <time>2026-03-22T13:31:34Z</time>
      </trkpt>
      <trkpt lat="47.90913" lon="7.06689">
        <ele>1182.1</ele>
        <time>2026-03-22T13:31:39Z</time>
      </trkpt>
      <trkpt lat="47.90916" lon="7.06683">
        <ele>1181.6</ele>
        <time>2026-03-22T13:31:44Z</time>
      </trkpt>
      <trkpt lat="47.9092" lon="7.06677">
        <ele>1181.3</ele>
        <time>2026-03-22T13:31:49Z</time>
      </trkpt>
      <trkpt lat="47.90922" lon="7.06671">
        <ele>1181</ele>
        <time>2026-03-22T13:31:54Z</time>
      </trkpt>
      <trkpt lat="47.90921" lon="7.06671">
        <ele>1180.9</ele>
        <time>2026-03-22T13:31:59Z</time>
      </trkpt>
      <trkpt lat="47.90918" lon="7.06668">
        <ele>1180.3</ele>
        <time>2026-03-22T13:32:04Z</time>
      </trkpt>
      <trkpt lat="47.90914" lon="7.06662">
        <ele>1179</ele>
        <time>2026-03-22T13:32:09Z</time>
      </trkpt>
      <trkpt lat="47.90909" lon="7.06659">
        <ele>1178.3</ele>
        <time>2026-03-22T13:32:14Z</time>
      </trkpt>
      <trkpt lat="47.90904" lon="7.06657">
        <ele>1177.8</ele>
        <time>2026-03-22T13:32:19Z</time>
      </trkpt>
      <trkpt lat="47.90898" lon="7.06658">
        <ele>1177.9</ele>
        <time>2026-03-22T13:32:24Z</time>
      </trkpt>
      <trkpt lat="47.90892" lon="7.06659">
        <ele>1177.9</ele>
        <time>2026-03-22T13:32:29Z</time>
      </trkpt>
      <trkpt lat="47.90885" lon="7.06658">
        <ele>1177.5</ele>
        <time>2026-03-22T13:32:34Z</time>
      </trkpt>
      <trkpt lat="47.9088" lon="7.06652">
        <ele>1176.2</ele>
        <time>2026-03-22T13:32:39Z</time>
      </trkpt>
      <trkpt lat="47.90877" lon="7.06648">
        <ele>1175.4</ele>
        <time>2026-03-22T13:32:44Z</time>
      </trkpt>
      <trkpt lat="47.90872" lon="7.06647">
        <ele>1175</ele>
        <time>2026-03-22T13:32:49Z</time>
      </trkpt>
      <trkpt lat="47.90867" lon="7.06646">
        <ele>1174.7</ele>
        <time>2026-03-22T13:32:54Z</time>
      </trkpt>
      <trkpt lat="47.9086" lon="7.06644">
        <ele>1174.1</ele>
        <time>2026-03-22T13:32:59Z</time>
      </trkpt>
      <trkpt lat="47.90852" lon="7.06644">
        <ele>1173.9</ele>
        <time>2026-03-22T13:33:04Z</time>
      </trkpt>
      <trkpt lat="47.90845" lon="7.06641">
        <ele>1173.1</ele>
        <time>2026-03-22T13:33:09Z</time>
      </trkpt>
      <trkpt lat="47.90839" lon="7.06641">
        <ele>1172.9</ele>
        <time>2026-03-22T13:33:14Z</time>
      </trkpt>
      <trkpt lat="47.90833" lon="7.0664">
        <ele>1172.6</ele>
        <time>2026-03-22T13:33:19Z</time>
      </trkpt>
      <trkpt lat="47.90826" lon="7.0664">
        <ele>1173.2</ele>
        <time>2026-03-22T13:33:24Z</time>
      </trkpt>
      <trkpt lat="47.90819" lon="7.0664">
        <ele>1173.8</ele>
        <time>2026-03-22T13:33:29Z</time>
      </trkpt>
      <trkpt lat="47.90813" lon="7.06638">
        <ele>1173.9</ele>
        <time>2026-03-22T13:33:34Z</time>
      </trkpt>
      <trkpt lat="47.90806" lon="7.06639">
        <ele>1174.8</ele>
        <time>2026-03-22T13:33:39Z</time>
      </trkpt>
      <trkpt lat="47.90799" lon="7.06639">
        <ele>1175.4</ele>
        <time>2026-03-22T13:33:44Z</time>
      </trkpt>
      <trkpt lat="47.90793" lon="7.06638">
        <ele>1175.7</ele>
        <time>2026-03-22T13:33:49Z</time>
      </trkpt>
      <trkpt lat="47.90786" lon="7.06639">
        <ele>1176.5</ele>
        <time>2026-03-22T13:33:54Z</time>
      </trkpt>
      <trkpt lat="47.9078" lon="7.0664">
        <ele>1177.3</ele>
        <time>2026-03-22T13:33:59Z</time>
      </trkpt>
      <trkpt lat="47.90774" lon="7.06639">
        <ele>1177.6</ele>
        <time>2026-03-22T13:34:04Z</time>
      </trkpt>
      <trkpt lat="47.90767" lon="7.0664">
        <ele>1178.4</ele>
        <time>2026-03-22T13:34:09Z</time>
      </trkpt>
      <trkpt lat="47.90758" lon="7.06641">
        <ele>1179.4</ele>
        <time>2026-03-22T13:34:14Z</time>
      </trkpt>
      <trkpt lat="47.90753" lon="7.06637">
        <ele>1179</ele>
        <time>2026-03-22T13:34:19Z</time>
      </trkpt>
      <trkpt lat="47.90749" lon="7.06635">
        <ele>1178.8</ele>
        <time>2026-03-22T13:34:24Z</time>
      </trkpt>
      <trkpt lat="47.90743" lon="7.06632">
        <ele>1178.3</ele>
        <time>2026-03-22T13:34:29Z</time>
      </trkpt>
      <trkpt lat="47.90737" lon="7.0663">
        <ele>1178</ele>
        <time>2026-03-22T13:34:34Z</time>
      </trkpt>
      <trkpt lat="47.90732" lon="7.06631">
        <ele>1178.3</ele>
        <time>2026-03-22T13:34:39Z</time>
      </trkpt>
      <trkpt lat="47.90727" lon="7.06632">
        <ele>1178.7</ele>
        <time>2026-03-22T13:34:44Z</time>
      </trkpt>
      <trkpt lat="47.90722" lon="7.06631">
        <ele>1178.6</ele>
        <time>2026-03-22T13:34:49Z</time>
      </trkpt>
      <trkpt lat="47.90717" lon="7.06632">
        <ele>1179</ele>
        <time>2026-03-22T13:34:54Z</time>
      </trkpt>
      <trkpt lat="47.90712" lon="7.06631">
        <ele>1178.8</ele>
        <time>2026-03-22T13:34:59Z</time>
      </trkpt>
      <trkpt lat="47.90706" lon="7.0663">
        <ele>1178.8</ele>
        <time>2026-03-22T13:35:04Z</time>
      </trkpt>
      <trkpt lat="47.907" lon="7.0663">
        <ele>1178.9</ele>
        <time>2026-03-22T13:35:09Z</time>
      </trkpt>
      <trkpt lat="47.90696" lon="7.06628">
        <ele>1178.5</ele>
        <time>2026-03-22T13:35:14Z</time>
      </trkpt>
      <trkpt lat="47.90691" lon="7.06626">
        <ele>1178.2</ele>
        <time>2026-03-22T13:35:19Z</time>
      </trkpt>
      <trkpt lat="47.90685" lon="7.06627">
        <ele>1178.6</ele>
        <time>2026-03-22T13:35:24Z</time>
      </trkpt>
      <trkpt lat="47.90681" lon="7.06627">
        <ele>1178.7</ele>
        <time>2026-03-22T13:35:29Z</time>
      </trkpt>
      <trkpt lat="47.90676" lon="7.06626">
        <ele>1178.5</ele>
        <time>2026-03-22T13:35:34Z</time>
      </trkpt>
      <trkpt lat="47.90672" lon="7.06624">
        <ele>1178.1</ele>
        <time>2026-03-22T13:35:39Z</time>
      </trkpt>
      <trkpt lat="47.90668" lon="7.06623">
        <ele>1178</ele>
        <time>2026-03-22T13:35:44Z</time>
      </trkpt>
      <trkpt lat="47.90664" lon="7.06621">
        <ele>1177.3</ele>
        <time>2026-03-22T13:35:49Z</time>
      </trkpt>
      <trkpt lat="47.90659" lon="7.06622">
        <ele>1177.3</ele>
        <time>2026-03-22T13:35:54Z</time>
      </trkpt>
      <trkpt lat="47.90654" lon="7.06623">
        <ele>1177.2</ele>
        <time>2026-03-22T13:35:59Z</time>
      </trkpt>
      <trkpt lat="47.90649" lon="7.06622">
        <ele>1176.6</ele>
        <time>2026-03-22T13:36:04Z</time>
      </trkpt>
      <trkpt lat="47.90643" lon="7.06621">
        <ele>1176</ele>
        <time>2026-03-22T13:36:09Z</time>
      </trkpt>
      <trkpt lat="47.90638" lon="7.0662">
        <ele>1175.4</ele>
        <time>2026-03-22T13:36:14Z</time>
      </trkpt>
      <trkpt lat="47.90631" lon="7.06619">
        <ele>1174.6</ele>
        <time>2026-03-22T13:36:19Z</time>
      </trkpt>
      <trkpt lat="47.90625" lon="7.06618">
        <ele>1173.9</ele>
        <time>2026-03-22T13:36:24Z</time>
      </trkpt>
      <trkpt lat="47.9062" lon="7.0662">
        <ele>1174.2</ele>
        <time>2026-03-22T13:36:29Z</time>
      </trkpt>
      <trkpt lat="47.90614" lon="7.0662">
        <ele>1173.8</ele>
        <time>2026-03-22T13:36:34Z</time>
      </trkpt>
      <trkpt lat="47.90608" lon="7.0662">
        <ele>1173.4</ele>
        <time>2026-03-22T13:36:39Z</time>
      </trkpt>
      <trkpt lat="47.90601" lon="7.06622">
        <ele>1173.6</ele>
        <time>2026-03-22T13:36:44Z</time>
      </trkpt>
      <trkpt lat="47.90596" lon="7.06622">
        <ele>1173.3</ele>
        <time>2026-03-22T13:36:49Z</time>
      </trkpt>
      <trkpt lat="47.90592" lon="7.06624">
        <ele>1173.7</ele>
        <time>2026-03-22T13:36:54Z</time>
      </trkpt>
      <trkpt lat="47.90586" lon="7.06625">
        <ele>1173.7</ele>
        <time>2026-03-22T13:36:59Z</time>
      </trkpt>
      <trkpt lat="47.9058" lon="7.06627">
        <ele>1173.4</ele>
        <time>2026-03-22T13:37:04Z</time>
      </trkpt>
      <trkpt lat="47.90573" lon="7.06628">
        <ele>1172.2</ele>
        <time>2026-03-22T13:37:09Z</time>
      </trkpt>
      <trkpt lat="47.90568" lon="7.06629">
        <ele>1171.4</ele>
        <time>2026-03-22T13:37:14Z</time>
      </trkpt>
      <trkpt lat="47.90563" lon="7.06632">
        <ele>1171.3</ele>
        <time>2026-03-22T13:37:19Z</time>
      </trkpt>
      <trkpt lat="47.90558" lon="7.06633">
        <ele>1170.5</ele>
        <time>2026-03-22T13:37:24Z</time>
      </trkpt>
      <trkpt lat="47.90552" lon="7.06634">
        <ele>1169.4</ele>
        <time>2026-03-22T13:37:29Z</time>
      </trkpt>
      <trkpt lat="47.90546" lon="7.06636">
        <ele>1168.6</ele>
        <time>2026-03-22T13:37:34Z</time>
      </trkpt>
      <trkpt lat="47.9054" lon="7.06638">
        <ele>1167.8</ele>
        <time>2026-03-22T13:37:39Z</time>
      </trkpt>
      <trkpt lat="47.90534" lon="7.0664">
        <ele>1167</ele>
        <time>2026-03-22T13:37:44Z</time>
      </trkpt>
      <trkpt lat="47.9053" lon="7.06643">
        <ele>1167</ele>
        <time>2026-03-22T13:37:49Z</time>
      </trkpt>
      <trkpt lat="47.90525" lon="7.06647">
        <ele>1166.9</ele>
        <time>2026-03-22T13:37:54Z</time>
      </trkpt>
      <trkpt lat="47.90519" lon="7.0665">
        <ele>1166.3</ele>
        <time>2026-03-22T13:37:59Z</time>
      </trkpt>
      <trkpt lat="47.90514" lon="7.06652">
        <ele>1165.6</ele>
        <time>2026-03-22T13:38:04Z</time>
      </trkpt>
      <trkpt lat="47.90509" lon="7.06654">
        <ele>1164.9</ele>
        <time>2026-03-22T13:38:09Z</time>
      </trkpt>
      <trkpt lat="47.90504" lon="7.06658">
        <ele>1164.7</ele>
        <time>2026-03-22T13:38:14Z</time>
      </trkpt>
      <trkpt lat="47.90499" lon="7.06661">
        <ele>1164.1</ele>
        <time>2026-03-22T13:38:19Z</time>
      </trkpt>
      <trkpt lat="47.90495" lon="7.06664">
        <ele>1163.1</ele>
        <time>2026-03-22T13:38:24Z</time>
      </trkpt>
      <trkpt lat="47.9049" lon="7.06669">
        <ele>1162.1</ele>
        <time>2026-03-22T13:38:29Z</time>
      </trkpt>
      <trkpt lat="47.90486" lon="7.06673">
        <ele>1161</ele>
        <time>2026-03-22T13:38:34Z</time>
      </trkpt>
      <trkpt lat="47.9048" lon="7.06676">
        <ele>1158.8</ele>
        <time>2026-03-22T13:38:39Z</time>
      </trkpt>
      <trkpt lat="47.90475" lon="7.06682">
        <ele>1157.6</ele>
        <time>2026-03-22T13:38:44Z</time>
      </trkpt>
      <trkpt lat="47.90471" lon="7.06687">
        <ele>1156.5</ele>
        <time>2026-03-22T13:38:49Z</time>
      </trkpt>
      <trkpt lat="47.90467" lon="7.06692">
        <ele>1155.5</ele>
        <time>2026-03-22T13:38:54Z</time>
      </trkpt>
      <trkpt lat="47.90464" lon="7.06697">
        <ele>1154.9</ele>
        <time>2026-03-22T13:38:59Z</time>
      </trkpt>
      <trkpt lat="47.90462" lon="7.06702">
        <ele>1154.7</ele>
        <time>2026-03-22T13:39:04Z</time>
      </trkpt>
      <trkpt lat="47.90458" lon="7.06708">
        <ele>1153.8</ele>
        <time>2026-03-22T13:39:09Z</time>
      </trkpt>
      <trkpt lat="47.90454" lon="7.06714">
        <ele>1152.8</ele>
        <time>2026-03-22T13:39:14Z</time>
      </trkpt>
      <trkpt lat="47.90451" lon="7.06721">
        <ele>1152.4</ele>
        <time>2026-03-22T13:39:19Z</time>
      </trkpt>
      <trkpt lat="47.90447" lon="7.06729">
        <ele>1151.7</ele>
        <time>2026-03-22T13:39:24Z</time>
      </trkpt>
      <trkpt lat="47.90445" lon="7.06734">
        <ele>1151.4</ele>
        <time>2026-03-22T13:39:29Z</time>
      </trkpt>
      <trkpt lat="47.90442" lon="7.0674">
        <ele>1150.8</ele>
        <time>2026-03-22T13:39:34Z</time>
      </trkpt>
      <trkpt lat="47.9044" lon="7.06748">
        <ele>1150.9</ele>
        <time>2026-03-22T13:39:39Z</time>
      </trkpt>
      <trkpt lat="47.90439" lon="7.06754">
        <ele>1151.4</ele>
        <time>2026-03-22T13:39:44Z</time>
      </trkpt>
      <trkpt lat="47.90436" lon="7.06762">
        <ele>1151.4</ele>
        <time>2026-03-22T13:39:49Z</time>
      </trkpt>
      <trkpt lat="47.90434" lon="7.06772">
        <ele>1152.2</ele>
        <time>2026-03-22T13:39:54Z</time>
      </trkpt>
      <trkpt lat="47.90431" lon="7.06783">
        <ele>1152.7</ele>
        <time>2026-03-22T13:39:59Z</time>
      </trkpt>
      <trkpt lat="47.90429" lon="7.06792">
        <ele>1153.3</ele>
        <time>2026-03-22T13:40:04Z</time>
      </trkpt>
      <trkpt lat="47.90429" lon="7.068">
        <ele>1154.7</ele>
        <time>2026-03-22T13:40:09Z</time>
      </trkpt>
      <trkpt lat="47.90427" lon="7.06809">
        <ele>1155.4</ele>
        <time>2026-03-22T13:40:14Z</time>
      </trkpt>
      <trkpt lat="47.90424" lon="7.06817">
        <ele>1155.4</ele>
        <time>2026-03-22T13:40:19Z</time>
      </trkpt>
      <trkpt lat="47.90422" lon="7.06826">
        <ele>1156.1</ele>
        <time>2026-03-22T13:40:24Z</time>
      </trkpt>
      <trkpt lat="47.90418" lon="7.06838">
        <ele>1156.4</ele>
        <time>2026-03-22T13:40:29Z</time>
      </trkpt>
      <trkpt lat="47.90416" lon="7.06847">
        <ele>1156.9</ele>
        <time>2026-03-22T13:40:34Z</time>
      </trkpt>
      <trkpt lat="47.90414" lon="7.06857">
        <ele>1157.4</ele>
        <time>2026-03-22T13:40:39Z</time>
      </trkpt>
      <trkpt lat="47.90413" lon="7.06865">
        <ele>1158.2</ele>
        <time>2026-03-22T13:40:44Z</time>
      </trkpt>
      <trkpt lat="47.90411" lon="7.06875">
        <ele>1158.8</ele>
        <time>2026-03-22T13:40:49Z</time>
      </trkpt>
      <trkpt lat="47.9041" lon="7.06883">
        <ele>1159.6</ele>
        <time>2026-03-22T13:40:54Z</time>
      </trkpt>
      <trkpt lat="47.90409" lon="7.06889">
        <ele>1160</ele>
        <time>2026-03-22T13:40:59Z</time>
      </trkpt>
      <trkpt lat="47.90408" lon="7.06896">
        <ele>1160.7</ele>
        <time>2026-03-22T13:41:04Z</time>
      </trkpt>
      <trkpt lat="47.90405" lon="7.06904">
        <ele>1160.4</ele>
        <time>2026-03-22T13:41:09Z</time>
      </trkpt>
      <trkpt lat="47.90405" lon="7.06913">
        <ele>1161.9</ele>
        <time>2026-03-22T13:41:14Z</time>
      </trkpt>
      <trkpt lat="47.90405" lon="7.0692">
        <ele>1163</ele>
        <time>2026-03-22T13:41:19Z</time>
      </trkpt>
      <trkpt lat="47.90404" lon="7.06923">
        <ele>1162.9</ele>
        <time>2026-03-22T13:41:24Z</time>
      </trkpt>
      <trkpt lat="47.90404" lon="7.06923">
        <ele>1162.9</ele>
        <time>2026-03-22T13:41:29Z</time>
      </trkpt>
      <trkpt lat="47.90404" lon="7.06923">
        <ele>1162.9</ele>
        <time>2026-03-22T13:41:34Z</time>
      </trkpt>
      <trkpt lat="47.90404" lon="7.06923">
        <ele>1162.9</ele>
        <time>2026-03-22T13:41:39Z</time>
      </trkpt>
      <trkpt lat="47.90407" lon="7.06934">
        <ele>1166.1</ele>
        <time>2026-03-22T13:41:44Z</time>
      </trkpt>
      <trkpt lat="47.90407" lon="7.06937">
        <ele>1166.5</ele>
        <time>2026-03-22T13:41:49Z</time>
      </trkpt>
      <trkpt lat="47.90407" lon="7.06937">
        <ele>1166.5</ele>
        <time>2026-03-22T13:41:54Z</time>
      </trkpt>
      <trkpt lat="47.90407" lon="7.06937">
        <ele>1166.5</ele>
        <time>2026-03-22T13:41:59Z</time>
      </trkpt>
      <trkpt lat="47.90407" lon="7.06937">
        <ele>1166.5</ele>
        <time>2026-03-22T13:42:04Z</time>
      </trkpt>
      <trkpt lat="47.90407" lon="7.06937">
        <ele>1166.5</ele>
        <time>2026-03-22T13:42:09Z</time>
      </trkpt>
      <trkpt lat="47.90403" lon="7.06951">
        <ele>1166.3</ele>
        <time>2026-03-22T13:42:14Z</time>
      </trkpt>
      <trkpt lat="47.90403" lon="7.06951">
        <ele>1166.3</ele>
        <time>2026-03-22T13:42:19Z</time>
      </trkpt>
      <trkpt lat="47.90403" lon="7.06951">
        <ele>1166.3</ele>
        <time>2026-03-22T13:42:24Z</time>
      </trkpt>
      <trkpt lat="47.90403" lon="7.06951">
        <ele>1166.3</ele>
        <time>2026-03-22T13:42:29Z</time>
      </trkpt>
      <trkpt lat="47.90403" lon="7.06951">
        <ele>1166.3</ele>
        <time>2026-03-22T13:42:34Z</time>
      </trkpt>
      <trkpt lat="47.90403" lon="7.06951">
        <ele>1166.3</ele>
        <time>2026-03-22T13:42:39Z</time>
      </trkpt>
      <trkpt lat="47.90403" lon="7.06951">
        <ele>1166.3</ele>
        <time>2026-03-22T13:42:44Z</time>
      </trkpt>
      <trkpt lat="47.90403" lon="7.06951">
        <ele>1166.3</ele>
        <time>2026-03-22T13:42:49Z</time>
      </trkpt>
      <trkpt lat="47.90402" lon="7.06963">
        <ele>1167.4</ele>
        <time>2026-03-22T13:42:54Z</time>
      </trkpt>
      <trkpt lat="47.90402" lon="7.06967">
        <ele>1167.9</ele>
        <time>2026-03-22T13:42:59Z</time>
      </trkpt>
      <trkpt lat="47.90401" lon="7.06968">
        <ele>1167.5</ele>
        <time>2026-03-22T13:43:04Z</time>
      </trkpt>
      <trkpt lat="47.90401" lon="7.06968">
        <ele>1167.5</ele>
        <time>2026-03-22T13:43:09Z</time>
      </trkpt>
      <trkpt lat="47.90401" lon="7.06968">
        <ele>1167.5</ele>
        <time>2026-03-22T13:43:14Z</time>
      </trkpt>
      <trkpt lat="47.90401" lon="7.06968">
        <ele>1167.5</ele>
        <time>2026-03-22T13:43:19Z</time>
      </trkpt>
      <trkpt lat="47.90401" lon="7.06968">
        <ele>1167.5</ele>
        <time>2026-03-22T13:43:24Z</time>
      </trkpt>
      <trkpt lat="47.90401" lon="7.06968">
        <ele>1167.5</ele>
        <time>2026-03-22T13:43:29Z</time>
      </trkpt>
      <trkpt lat="47.90401" lon="7.06968">
        <ele>1167.5</ele>
        <time>2026-03-22T13:43:34Z</time>
      </trkpt>
      <trkpt lat="47.904" lon="7.06979">
        <ele>1168.5</ele>
        <time>2026-03-22T13:43:39Z</time>
      </trkpt>
      <trkpt lat="47.90397" lon="7.06984">
        <ele>1167.5</ele>
        <time>2026-03-22T13:43:44Z</time>
      </trkpt>
      <trkpt lat="47.90396" lon="7.06991">
        <ele>1167.9</ele>
        <time>2026-03-22T13:43:49Z</time>
      </trkpt>
      <trkpt lat="47.90396" lon="7.06999">
        <ele>1169</ele>
        <time>2026-03-22T13:43:54Z</time>
      </trkpt>
      <trkpt lat="47.90395" lon="7.07004">
        <ele>1169</ele>
        <time>2026-03-22T13:43:59Z</time>
      </trkpt>
      <trkpt lat="47.90395" lon="7.0701">
        <ele>1169.7</ele>
        <time>2026-03-22T13:44:04Z</time>
      </trkpt>
      <trkpt lat="47.90393" lon="7.07016">
        <ele>1169.2</ele>
        <time>2026-03-22T13:44:09Z</time>
      </trkpt>
      <trkpt lat="47.90393" lon="7.07023">
        <ele>1169.9</ele>
        <time>2026-03-22T13:44:14Z</time>
      </trkpt>
      <trkpt lat="47.90393" lon="7.07027">
        <ele>1170.4</ele>
        <time>2026-03-22T13:44:19Z</time>
      </trkpt>
      <trkpt lat="47.90392" lon="7.0703">
        <ele>1170.1</ele>
        <time>2026-03-22T13:44:24Z</time>
      </trkpt>
      <trkpt lat="47.90392" lon="7.07036">
        <ele>1170.8</ele>
        <time>2026-03-22T13:44:29Z</time>
      </trkpt>
      <trkpt lat="47.90391" lon="7.07042">
        <ele>1170.8</ele>
        <time>2026-03-22T13:44:34Z</time>
      </trkpt>
      <trkpt lat="47.90391" lon="7.07047">
        <ele>1171.4</ele>
        <time>2026-03-22T13:44:39Z</time>
      </trkpt>
      <trkpt lat="47.9039" lon="7.07049">
        <ele>1171</ele>
        <time>2026-03-22T13:44:44Z</time>
      </trkpt>
      <trkpt lat="47.9039" lon="7.07055">
        <ele>1171.6</ele>
        <time>2026-03-22T13:44:49Z</time>
      </trkpt>
      <trkpt lat="47.9039" lon="7.07063">
        <ele>1172.5</ele>
        <time>2026-03-22T13:44:54Z</time>
      </trkpt>
      <trkpt lat="47.90386" lon="7.0707">
        <ele>1170.7</ele>
        <time>2026-03-22T13:44:59Z</time>
      </trkpt>
      <trkpt lat="47.90385" lon="7.07077">
        <ele>1170.8</ele>
        <time>2026-03-22T13:45:04Z</time>
      </trkpt>
      <trkpt lat="47.90385" lon="7.07084">
        <ele>1171.6</ele>
        <time>2026-03-22T13:45:09Z</time>
      </trkpt>
      <trkpt lat="47.90385" lon="7.07093">
        <ele>1172.6</ele>
        <time>2026-03-22T13:45:14Z</time>
      </trkpt>
      <trkpt lat="47.90383" lon="7.07102">
        <ele>1172.4</ele>
        <time>2026-03-22T13:45:19Z</time>
      </trkpt>
      <trkpt lat="47.90382" lon="7.07108">
        <ele>1172.5</ele>
        <time>2026-03-22T13:45:24Z</time>
      </trkpt>
      <trkpt lat="47.90381" lon="7.07114">
        <ele>1172.6</ele>
        <time>2026-03-22T13:45:29Z</time>
      </trkpt>
      <trkpt lat="47.90379" lon="7.0712">
        <ele>1172</ele>
        <time>2026-03-22T13:45:34Z</time>
      </trkpt>
      <trkpt lat="47.90377" lon="7.07127">
        <ele>1171.5</ele>
        <time>2026-03-22T13:45:39Z</time>
      </trkpt>
      <trkpt lat="47.90376" lon="7.07133">
        <ele>1171.6</ele>
        <time>2026-03-22T13:45:44Z</time>
      </trkpt>
      <trkpt lat="47.90374" lon="7.0714">
        <ele>1171.2</ele>
        <time>2026-03-22T13:45:49Z</time>
      </trkpt>
      <trkpt lat="47.90373" lon="7.07148">
        <ele>1171.5</ele>
        <time>2026-03-22T13:45:54Z</time>
      </trkpt>
      <trkpt lat="47.90372" lon="7.07153">
        <ele>1171.4</ele>
        <time>2026-03-22T13:45:59Z</time>
      </trkpt>
      <trkpt lat="47.90371" lon="7.07158">
        <ele>1171.4</ele>
        <time>2026-03-22T13:46:04Z</time>
      </trkpt>
      <trkpt lat="47.90368" lon="7.07165">
        <ele>1170.3</ele>
        <time>2026-03-22T13:46:09Z</time>
      </trkpt>
      <trkpt lat="47.90366" lon="7.07172">
        <ele>1170.1</ele>
        <time>2026-03-22T13:46:14Z</time>
      </trkpt>
      <trkpt lat="47.90365" lon="7.07179">
        <ele>1170.7</ele>
        <time>2026-03-22T13:46:19Z</time>
      </trkpt>
      <trkpt lat="47.90365" lon="7.07188">
        <ele>1172.3</ele>
        <time>2026-03-22T13:46:24Z</time>
      </trkpt>
      <trkpt lat="47.90364" lon="7.07197">
        <ele>1173.3</ele>
        <time>2026-03-22T13:46:29Z</time>
      </trkpt>
      <trkpt lat="47.90363" lon="7.07205">
        <ele>1174.1</ele>
        <time>2026-03-22T13:46:34Z</time>
      </trkpt>
      <trkpt lat="47.90362" lon="7.07211">
        <ele>1174.5</ele>
        <time>2026-03-22T13:46:39Z</time>
      </trkpt>
      <trkpt lat="47.90361" lon="7.07216">
        <ele>1174.8</ele>
        <time>2026-03-22T13:46:44Z</time>
      </trkpt>
      <trkpt lat="47.9036" lon="7.07215">
        <ele>1174</ele>
        <time>2026-03-22T13:46:49Z</time>
      </trkpt>
      <trkpt lat="47.90359" lon="7.07214">
        <ele>1173.2</ele>
        <time>2026-03-22T13:46:54Z</time>
      </trkpt>
      <trkpt lat="47.90359" lon="7.07214">
        <ele>1173.2</ele>
        <time>2026-03-22T13:46:59Z</time>
      </trkpt>
      <trkpt lat="47.90359" lon="7.07214">
        <ele>1173.2</ele>
        <time>2026-03-22T13:47:04Z</time>
      </trkpt>
      <trkpt lat="47.90359" lon="7.07214">
        <ele>1173.2</ele>
        <time>2026-03-22T13:47:09Z</time>
      </trkpt>
      <trkpt lat="47.90352" lon="7.07227">
        <ele>1171.4</ele>
        <time>2026-03-22T13:47:14Z</time>
      </trkpt>
      <trkpt lat="47.90352" lon="7.07233">
        <ele>1172.6</ele>
        <time>2026-03-22T13:47:19Z</time>
      </trkpt>
      <trkpt lat="47.90351" lon="7.0724">
        <ele>1173.3</ele>
        <time>2026-03-22T13:47:24Z</time>
      </trkpt>
      <trkpt lat="47.9035" lon="7.07248">
        <ele>1174.2</ele>
        <time>2026-03-22T13:47:29Z</time>
      </trkpt>
      <trkpt lat="47.90349" lon="7.07254">
        <ele>1174.8</ele>
        <time>2026-03-22T13:47:34Z</time>
      </trkpt>
      <trkpt lat="47.90349" lon="7.0726">
        <ele>1175.9</ele>
        <time>2026-03-22T13:47:39Z</time>
      </trkpt>
      <trkpt lat="47.90347" lon="7.07266">
        <ele>1175.8</ele>
        <time>2026-03-22T13:47:44Z</time>
      </trkpt>
      <trkpt lat="47.90347" lon="7.07272">
        <ele>1177</ele>
        <time>2026-03-22T13:47:49Z</time>
      </trkpt>
      <trkpt lat="47.90345" lon="7.07279">
        <ele>1177.1</ele>
        <time>2026-03-22T13:47:54Z</time>
      </trkpt>
      <trkpt lat="47.90345" lon="7.07284">
        <ele>1178.1</ele>
        <time>2026-03-22T13:47:59Z</time>
      </trkpt>
      <trkpt lat="47.90344" lon="7.0729">
        <ele>1178.6</ele>
        <time>2026-03-22T13:48:04Z</time>
      </trkpt>
      <trkpt lat="47.90343" lon="7.07296">
        <ele>1179.2</ele>
        <time>2026-03-22T13:48:09Z</time>
      </trkpt>
      <trkpt lat="47.90341" lon="7.07301">
        <ele>1179</ele>
        <time>2026-03-22T13:48:14Z</time>
      </trkpt>
      <trkpt lat="47.9034" lon="7.07306">
        <ele>1179.4</ele>
        <time>2026-03-22T13:48:19Z</time>
      </trkpt>
      <trkpt lat="47.9034" lon="7.07312">
        <ele>1180.6</ele>
        <time>2026-03-22T13:48:24Z</time>
      </trkpt>
      <trkpt lat="47.90339" lon="7.07316">
        <ele>1180.8</ele>
        <time>2026-03-22T13:48:29Z</time>
      </trkpt>
      <trkpt lat="47.90339" lon="7.07322">
        <ele>1181.9</ele>
        <time>2026-03-22T13:48:34Z</time>
      </trkpt>
      <trkpt lat="47.90338" lon="7.07328">
        <ele>1182.5</ele>
        <time>2026-03-22T13:48:39Z</time>
      </trkpt>
      <trkpt lat="47.90337" lon="7.07333">
        <ele>1182.9</ele>
        <time>2026-03-22T13:48:44Z</time>
      </trkpt>
      <trkpt lat="47.90339" lon="7.07336">
        <ele>1184.8</ele>
        <time>2026-03-22T13:48:49Z</time>
      </trkpt>
      <trkpt lat="47.90339" lon="7.07336">
        <ele>1184.8</ele>
        <time>2026-03-22T13:48:54Z</time>
      </trkpt>
      <trkpt lat="47.90339" lon="7.07336">
        <ele>1184.8</ele>
        <time>2026-03-22T13:48:59Z</time>
      </trkpt>
      <trkpt lat="47.90339" lon="7.07336">
        <ele>1184.8</ele>
        <time>2026-03-22T13:49:04Z</time>
      </trkpt>
      <trkpt lat="47.90342" lon="7.0734">
        <ele>1187.5</ele>
        <time>2026-03-22T13:49:09Z</time>
      </trkpt>
      <trkpt lat="47.90341" lon="7.07343">
        <ele>1187.8</ele>
        <time>2026-03-22T13:49:14Z</time>
      </trkpt>
      <trkpt lat="47.90339" lon="7.07348">
        <ele>1188</ele>
        <time>2026-03-22T13:49:19Z</time>
      </trkpt>
      <trkpt lat="47.90338" lon="7.07356">
        <ele>1189.7</ele>
        <time>2026-03-22T13:49:24Z</time>
      </trkpt>
      <trkpt lat="47.90337" lon="7.07364">
        <ele>1191.4</ele>
        <time>2026-03-22T13:49:29Z</time>
      </trkpt>
      <trkpt lat="47.90335" lon="7.0737">
        <ele>1192</ele>
        <time>2026-03-22T13:49:34Z</time>
      </trkpt>
      <trkpt lat="47.90333" lon="7.07377">
        <ele>1193</ele>
        <time>2026-03-22T13:49:39Z</time>
      </trkpt>
      <trkpt lat="47.9033" lon="7.07384">
        <ele>1194.3</ele>
        <time>2026-03-22T13:49:44Z</time>
      </trkpt>
      <trkpt lat="47.90328" lon="7.07393">
        <ele>1196.5</ele>
        <time>2026-03-22T13:49:49Z</time>
      </trkpt>
      <trkpt lat="47.90326" lon="7.07403">
        <ele>1199</ele>
        <time>2026-03-22T13:49:54Z</time>
      </trkpt>
      <trkpt lat="47.90325" lon="7.07413">
        <ele>1201.7</ele>
        <time>2026-03-22T13:49:59Z</time>
      </trkpt>
      <trkpt lat="47.90321" lon="7.07422">
        <ele>1203.8</ele>
        <time>2026-03-22T13:50:04Z</time>
      </trkpt>
      <trkpt lat="47.90319" lon="7.07429">
        <ele>1205.5</ele>
        <time>2026-03-22T13:50:09Z</time>
      </trkpt>
      <trkpt lat="47.90316" lon="7.07437">
        <ele>1207.5</ele>
        <time>2026-03-22T13:50:14Z</time>
      </trkpt>
      <trkpt lat="47.90312" lon="7.07444">
        <ele>1209.1</ele>
        <time>2026-03-22T13:50:19Z</time>
      </trkpt>
      <trkpt lat="47.90309" lon="7.07454">
        <ele>1211.7</ele>
        <time>2026-03-22T13:50:24Z</time>
      </trkpt>
      <trkpt lat="47.90307" lon="7.07463">
        <ele>1214.2</ele>
        <time>2026-03-22T13:50:29Z</time>
      </trkpt>
      <trkpt lat="47.90304" lon="7.07471">
        <ele>1216.4</ele>
        <time>2026-03-22T13:50:34Z</time>
      </trkpt>
      <trkpt lat="47.90301" lon="7.0748">
        <ele>1218.9</ele>
        <time>2026-03-22T13:50:39Z</time>
      </trkpt>
      <trkpt lat="47.90296" lon="7.0749">
        <ele>1221.6</ele>
        <time>2026-03-22T13:50:44Z</time>
      </trkpt>
      <trkpt lat="47.90291" lon="7.07497">
        <ele>1223.5</ele>
        <time>2026-03-22T13:50:49Z</time>
      </trkpt>
      <trkpt lat="47.90287" lon="7.07502">
        <ele>1224.9</ele>
        <time>2026-03-22T13:50:54Z</time>
      </trkpt>
      <trkpt lat="47.90283" lon="7.07509">
        <ele>1227.2</ele>
        <time>2026-03-22T13:50:59Z</time>
      </trkpt>
      <trkpt lat="47.90278" lon="7.07514">
        <ele>1228.8</ele>
        <time>2026-03-22T13:51:04Z</time>
      </trkpt>
      <trkpt lat="47.90274" lon="7.07522">
        <ele>1231.6</ele>
        <time>2026-03-22T13:51:09Z</time>
      </trkpt>
      <trkpt lat="47.9027" lon="7.07532">
        <ele>1235.2</ele>
        <time>2026-03-22T13:51:14Z</time>
      </trkpt>
      <trkpt lat="47.90266" lon="7.07539">
        <ele>1237.8</ele>
        <time>2026-03-22T13:51:19Z</time>
      </trkpt>
      <trkpt lat="47.9026" lon="7.07542">
        <ele>1238.8</ele>
        <time>2026-03-22T13:51:24Z</time>
      </trkpt>
      <trkpt lat="47.90255" lon="7.07547">
        <ele>1240.7</ele>
        <time>2026-03-22T13:51:29Z</time>
      </trkpt>
      <trkpt lat="47.90249" lon="7.07551">
        <ele>1242.3</ele>
        <time>2026-03-22T13:51:34Z</time>
      </trkpt>
      <trkpt lat="47.90243" lon="7.07553">
        <ele>1243.8</ele>
        <time>2026-03-22T13:51:39Z</time>
      </trkpt>
      <trkpt lat="47.90235" lon="7.07553">
        <ele>1244.7</ele>
        <time>2026-03-22T13:51:44Z</time>
      </trkpt>
      <trkpt lat="47.90229" lon="7.07554">
        <ele>1245.8</ele>
        <time>2026-03-22T13:51:49Z</time>
      </trkpt>
      <trkpt lat="47.90222" lon="7.07553">
        <ele>1246.2</ele>
        <time>2026-03-22T13:51:54Z</time>
      </trkpt>
      <trkpt lat="47.90216" lon="7.0755">
        <ele>1245.8</ele>
        <time>2026-03-22T13:51:59Z</time>
      </trkpt>
      <trkpt lat="47.9021" lon="7.07545">
        <ele>1244.7</ele>
        <time>2026-03-22T13:52:04Z</time>
      </trkpt>
      <trkpt lat="47.90202" lon="7.07542">
        <ele>1244.7</ele>
        <time>2026-03-22T13:52:09Z</time>
      </trkpt>
      <trkpt lat="47.90196" lon="7.07538">
        <ele>1244.1</ele>
        <time>2026-03-22T13:52:14Z</time>
      </trkpt>
      <trkpt lat="47.90191" lon="7.07536">
        <ele>1244</ele>
        <time>2026-03-22T13:52:19Z</time>
      </trkpt>
      <trkpt lat="47.90184" lon="7.07533">
        <ele>1244</ele>
        <time>2026-03-22T13:52:24Z</time>
      </trkpt>
      <trkpt lat="47.90178" lon="7.0753">
        <ele>1243.8</ele>
        <time>2026-03-22T13:52:29Z</time>
      </trkpt>
      <trkpt lat="47.90174" lon="7.07526">
        <ele>1243.1</ele>
        <time>2026-03-22T13:52:34Z</time>
      </trkpt>
      <trkpt lat="47.90168" lon="7.07522">
        <ele>1242.7</ele>
        <time>2026-03-22T13:52:39Z</time>
      </trkpt>
      <trkpt lat="47.9016" lon="7.0752">
        <ele>1242.3</ele>
        <time>2026-03-22T13:52:44Z</time>
      </trkpt>
      <trkpt lat="47.90154" lon="7.07514">
        <ele>1240.5</ele>
        <time>2026-03-22T13:52:49Z</time>
      </trkpt>
      <trkpt lat="47.90147" lon="7.07511">
        <ele>1239.6</ele>
        <time>2026-03-22T13:52:54Z</time>
      </trkpt>
      <trkpt lat="47.90139" lon="7.07509">
        <ele>1239.1</ele>
        <time>2026-03-22T13:52:59Z</time>
      </trkpt>
      <trkpt lat="47.90132" lon="7.07507">
        <ele>1238.5</ele>
        <time>2026-03-22T13:53:04Z</time>
      </trkpt>
      <trkpt lat="47.90123" lon="7.07503">
        <ele>1237.4</ele>
        <time>2026-03-22T13:53:09Z</time>
      </trkpt>
      <trkpt lat="47.90114" lon="7.075">
        <ele>1236.6</ele>
        <time>2026-03-22T13:53:14Z</time>
      </trkpt>
      <trkpt lat="47.90107" lon="7.07496">
        <ele>1235.2</ele>
        <time>2026-03-22T13:53:19Z</time>
      </trkpt>
      <trkpt lat="47.90099" lon="7.07492">
        <ele>1233.9</ele>
        <time>2026-03-22T13:53:24Z</time>
      </trkpt>
      <trkpt lat="47.90092" lon="7.0749">
        <ele>1233.3</ele>
        <time>2026-03-22T13:53:29Z</time>
      </trkpt>
      <trkpt lat="47.90085" lon="7.07488">
        <ele>1232.8</ele>
        <time>2026-03-22T13:53:34Z</time>
      </trkpt>
      <trkpt lat="47.90079" lon="7.07486">
        <ele>1232.9</ele>
        <time>2026-03-22T13:53:39Z</time>
      </trkpt>
      <trkpt lat="47.90073" lon="7.07484">
        <ele>1233.4</ele>
        <time>2026-03-22T13:53:44Z</time>
      </trkpt>
      <trkpt lat="47.90066" lon="7.07484">
        <ele>1234.7</ele>
        <time>2026-03-22T13:53:49Z</time>
      </trkpt>
      <trkpt lat="47.9006" lon="7.07483">
        <ele>1235.5</ele>
        <time>2026-03-22T13:53:54Z</time>
      </trkpt>
      <trkpt lat="47.90051" lon="7.07482">
        <ele>1236.8</ele>
        <time>2026-03-22T13:53:59Z</time>
      </trkpt>
      <trkpt lat="47.90045" lon="7.07481">
        <ele>1237.7</ele>
        <time>2026-03-22T13:54:04Z</time>
      </trkpt>
      <trkpt lat="47.90038" lon="7.07479">
        <ele>1238.4</ele>
        <time>2026-03-22T13:54:09Z</time>
      </trkpt>
      <trkpt lat="47.90032" lon="7.07481">
        <ele>1240.1</ele>
        <time>2026-03-22T13:54:14Z</time>
      </trkpt>
      <trkpt lat="47.90024" lon="7.07481">
        <ele>1241.7</ele>
        <time>2026-03-22T13:54:19Z</time>
      </trkpt>
      <trkpt lat="47.90018" lon="7.0748">
        <ele>1242.5</ele>
        <time>2026-03-22T13:54:24Z</time>
      </trkpt>
      <trkpt lat="47.90011" lon="7.0748">
        <ele>1243.9</ele>
        <time>2026-03-22T13:54:29Z</time>
      </trkpt>
      <trkpt lat="47.90002" lon="7.07481">
        <ele>1245.8</ele>
        <time>2026-03-22T13:54:34Z</time>
      </trkpt>
      <trkpt lat="47.89995" lon="7.0748">
        <ele>1245</ele>
        <time>2026-03-22T13:54:39Z</time>
      </trkpt>
      <trkpt lat="47.89987" lon="7.07472">
        <ele>1241.7</ele>
        <time>2026-03-22T13:54:44Z</time>
      </trkpt>
      <trkpt lat="47.8998" lon="7.07463">
        <ele>1238.4</ele>
        <time>2026-03-22T13:54:49Z</time>
      </trkpt>
      <trkpt lat="47.89975" lon="7.07457">
        <ele>1236.3</ele>
        <time>2026-03-22T13:54:54Z</time>
      </trkpt>
      <trkpt lat="47.8997" lon="7.07448">
        <ele>1233.7</ele>
        <time>2026-03-22T13:54:59Z</time>
      </trkpt>
      <trkpt lat="47.89965" lon="7.07444">
        <ele>1232.2</ele>
        <time>2026-03-22T13:55:04Z</time>
      </trkpt>
      <trkpt lat="47.8996" lon="7.07439">
        <ele>1230.5</ele>
        <time>2026-03-22T13:55:09Z</time>
      </trkpt>
      <trkpt lat="47.89954" lon="7.07432">
        <ele>1228.4</ele>
        <time>2026-03-22T13:55:14Z</time>
      </trkpt>
      <trkpt lat="47.8995" lon="7.07426">
        <ele>1226.9</ele>
        <time>2026-03-22T13:55:19Z</time>
      </trkpt>
      <trkpt lat="47.89947" lon="7.07423">
        <ele>1226</ele>
        <time>2026-03-22T13:55:24Z</time>
      </trkpt>
      <trkpt lat="47.89942" lon="7.07419">
        <ele>1224.8</ele>
        <time>2026-03-22T13:55:29Z</time>
      </trkpt>
      <trkpt lat="47.89937" lon="7.07412">
        <ele>1222.5</ele>
        <time>2026-03-22T13:55:34Z</time>
      </trkpt>
      <trkpt lat="47.8993" lon="7.07404">
        <ele>1219.6</ele>
        <time>2026-03-22T13:55:39Z</time>
      </trkpt>
      <trkpt lat="47.89924" lon="7.07397">
        <ele>1217.2</ele>
        <time>2026-03-22T13:55:44Z</time>
      </trkpt>
      <trkpt lat="47.89918" lon="7.07391">
        <ele>1215.3</ele>
        <time>2026-03-22T13:55:49Z</time>
      </trkpt>
      <trkpt lat="47.89912" lon="7.07388">
        <ele>1212.6</ele>
        <time>2026-03-22T13:55:54Z</time>
      </trkpt>
      <trkpt lat="47.89907" lon="7.07385">
        <ele>1209.8</ele>
        <time>2026-03-22T13:55:59Z</time>
      </trkpt>
      <trkpt lat="47.89902" lon="7.0738">
        <ele>1206.6</ele>
        <time>2026-03-22T13:56:04Z</time>
      </trkpt>
      <trkpt lat="47.89895" lon="7.07375">
        <ele>1202.7</ele>
        <time>2026-03-22T13:56:09Z</time>
      </trkpt>
      <trkpt lat="47.89888" lon="7.07371">
        <ele>1199.1</ele>
        <time>2026-03-22T13:56:14Z</time>
      </trkpt>
      <trkpt lat="47.89882" lon="7.07366">
        <ele>1195.8</ele>
        <time>2026-03-22T13:56:19Z</time>
      </trkpt>
      <trkpt lat="47.89876" lon="7.07363">
        <ele>1192.9</ele>
        <time>2026-03-22T13:56:24Z</time>
      </trkpt>
      <trkpt lat="47.8987" lon="7.07359">
        <ele>1189.9</ele>
        <time>2026-03-22T13:56:29Z</time>
      </trkpt>
      <trkpt lat="47.89869" lon="7.07355">
        <ele>1188.8</ele>
        <time>2026-03-22T13:56:34Z</time>
      </trkpt>
      <trkpt lat="47.89869" lon="7.07355">
        <ele>1188.8</ele>
        <time>2026-03-22T13:56:39Z</time>
      </trkpt>
      <trkpt lat="47.89866" lon="7.07359">
        <ele>1188.5</ele>
        <time>2026-03-22T13:56:44Z</time>
      </trkpt>
      <trkpt lat="47.89861" lon="7.07361">
        <ele>1187.1</ele>
        <time>2026-03-22T13:56:49Z</time>
      </trkpt>
      <trkpt lat="47.89855" lon="7.07362">
        <ele>1185</ele>
        <time>2026-03-22T13:56:54Z</time>
      </trkpt>
      <trkpt lat="47.89849" lon="7.07359">
        <ele>1182.4</ele>
        <time>2026-03-22T13:56:59Z</time>
      </trkpt>
      <trkpt lat="47.89846" lon="7.0736">
        <ele>1181.4</ele>
        <time>2026-03-22T13:57:04Z</time>
      </trkpt>
      <trkpt lat="47.89842" lon="7.07362">
        <ele>1180.3</ele>
        <time>2026-03-22T13:57:09Z</time>
      </trkpt>
      <trkpt lat="47.89837" lon="7.07363">
        <ele>1178.6</ele>
        <time>2026-03-22T13:57:14Z</time>
      </trkpt>
      <trkpt lat="47.89833" lon="7.07366">
        <ele>1177.5</ele>
        <time>2026-03-22T13:57:19Z</time>
      </trkpt>
      <trkpt lat="47.89829" lon="7.07369">
        <ele>1176.1</ele>
        <time>2026-03-22T13:57:24Z</time>
      </trkpt>
      <trkpt lat="47.89825" lon="7.07373">
        <ele>1174.8</ele>
        <time>2026-03-22T13:57:29Z</time>
      </trkpt>
      <trkpt lat="47.89822" lon="7.07379">
        <ele>1174.4</ele>
        <time>2026-03-22T13:57:34Z</time>
      </trkpt>
      <trkpt lat="47.8982" lon="7.07386">
        <ele>1174.5</ele>
        <time>2026-03-22T13:57:39Z</time>
      </trkpt>
      <trkpt lat="47.89814" lon="7.07395">
        <ele>1173.2</ele>
        <time>2026-03-22T13:57:44Z</time>
      </trkpt>
      <trkpt lat="47.89808" lon="7.07403">
        <ele>1171.8</ele>
        <time>2026-03-22T13:57:49Z</time>
      </trkpt>
      <trkpt lat="47.89804" lon="7.07411">
        <ele>1171.4</ele>
        <time>2026-03-22T13:57:54Z</time>
      </trkpt>
      <trkpt lat="47.89802" lon="7.0742">
        <ele>1171.8</ele>
        <time>2026-03-22T13:57:59Z</time>
      </trkpt>
      <trkpt lat="47.89799" lon="7.07428">
        <ele>1171.4</ele>
        <time>2026-03-22T13:58:04Z</time>
      </trkpt>
      <trkpt lat="47.89798" lon="7.07438">
        <ele>1172</ele>
        <time>2026-03-22T13:58:09Z</time>
      </trkpt>
      <trkpt lat="47.89796" lon="7.07449">
        <ele>1172.4</ele>
        <time>2026-03-22T13:58:14Z</time>
      </trkpt>
      <trkpt lat="47.89796" lon="7.0746">
        <ele>1173.6</ele>
        <time>2026-03-22T13:58:19Z</time>
      </trkpt>
      <trkpt lat="47.89794" lon="7.07469">
        <ele>1173.7</ele>
        <time>2026-03-22T13:58:24Z</time>
      </trkpt>
      <trkpt lat="47.89791" lon="7.0748">
        <ele>1173.6</ele>
        <time>2026-03-22T13:58:29Z</time>
      </trkpt>
      <trkpt lat="47.89791" lon="7.07488">
        <ele>1174.4</ele>
        <time>2026-03-22T13:58:34Z</time>
      </trkpt>
      <trkpt lat="47.89793" lon="7.07497">
        <ele>1176.3</ele>
        <time>2026-03-22T13:58:39Z</time>
      </trkpt>
      <trkpt lat="47.89793" lon="7.07509">
        <ele>1176</ele>
        <time>2026-03-22T13:58:44Z</time>
      </trkpt>
      <trkpt lat="47.89792" lon="7.07519">
        <ele>1175</ele>
        <time>2026-03-22T13:58:49Z</time>
      </trkpt>
      <trkpt lat="47.8979" lon="7.0753">
        <ele>1173.5</ele>
        <time>2026-03-22T13:58:54Z</time>
      </trkpt>
      <trkpt lat="47.89791" lon="7.07541">
        <ele>1173.3</ele>
        <time>2026-03-22T13:58:59Z</time>
      </trkpt>
      <trkpt lat="47.89793" lon="7.07553">
        <ele>1173.4</ele>
        <time>2026-03-22T13:59:04Z</time>
      </trkpt>
      <trkpt lat="47.89794" lon="7.07562">
        <ele>1173.2</ele>
        <time>2026-03-22T13:59:09Z</time>
      </trkpt>
      <trkpt lat="47.89795" lon="7.07572">
        <ele>1173.1</ele>
        <time>2026-03-22T13:59:14Z</time>
      </trkpt>
      <trkpt lat="47.89798" lon="7.07582">
        <ele>1173.7</ele>
        <time>2026-03-22T13:59:19Z</time>
      </trkpt>
      <trkpt lat="47.89799" lon="7.07594">
        <ele>1172.7</ele>
        <time>2026-03-22T13:59:24Z</time>
      </trkpt>
      <trkpt lat="47.89802" lon="7.07606">
        <ele>1172.5</ele>
        <time>2026-03-22T13:59:29Z</time>
      </trkpt>
      <trkpt lat="47.89804" lon="7.07614">
        <ele>1172.4</ele>
        <time>2026-03-22T13:59:34Z</time>
      </trkpt>
      <trkpt lat="47.89806" lon="7.07623">
        <ele>1172.1</ele>
        <time>2026-03-22T13:59:39Z</time>
      </trkpt>
      <trkpt lat="47.8981" lon="7.07632">
        <ele>1172.6</ele>
        <time>2026-03-22T13:59:44Z</time>
      </trkpt>
      <trkpt lat="47.89814" lon="7.07642">
        <ele>1173.1</ele>
        <time>2026-03-22T13:59:49Z</time>
      </trkpt>
      <trkpt lat="47.89816" lon="7.0765">
        <ele>1172.9</ele>
        <time>2026-03-22T13:59:54Z</time>
      </trkpt>
      <trkpt lat="47.89819" lon="7.0766">
        <ele>1173</ele>
        <time>2026-03-22T13:59:59Z</time>
      </trkpt>
      <trkpt lat="47.89823" lon="7.07669">
        <ele>1173.3</ele>
        <time>2026-03-22T14:00:04Z</time>
      </trkpt>
      <trkpt lat="47.89826" lon="7.07678">
        <ele>1172.4</ele>
        <time>2026-03-22T14:00:09Z</time>
      </trkpt>
      <trkpt lat="47.89831" lon="7.07685">
        <ele>1172.9</ele>
        <time>2026-03-22T14:00:14Z</time>
      </trkpt>
      <trkpt lat="47.89836" lon="7.07692">
        <ele>1173.5</ele>
        <time>2026-03-22T14:00:19Z</time>
      </trkpt>
      <trkpt lat="47.89837" lon="7.077">
        <ele>1172.1</ele>
        <time>2026-03-22T14:00:24Z</time>
      </trkpt>
      <trkpt lat="47.89842" lon="7.07708">
        <ele>1172.5</ele>
        <time>2026-03-22T14:00:29Z</time>
      </trkpt>
      <trkpt lat="47.89848" lon="7.07716">
        <ele>1173.3</ele>
        <time>2026-03-22T14:00:34Z</time>
      </trkpt>
      <trkpt lat="47.89853" lon="7.07723">
        <ele>1173.8</ele>
        <time>2026-03-22T14:00:39Z</time>
      </trkpt>
      <trkpt lat="47.8986" lon="7.07729">
        <ele>1175.4</ele>
        <time>2026-03-22T14:00:44Z</time>
      </trkpt>
      <trkpt lat="47.89865" lon="7.07737">
        <ele>1175.6</ele>
        <time>2026-03-22T14:00:49Z</time>
      </trkpt>
      <trkpt lat="47.89868" lon="7.07745">
        <ele>1174.8</ele>
        <time>2026-03-22T14:00:54Z</time>
      </trkpt>
      <trkpt lat="47.89872" lon="7.07755">
        <ele>1173.8</ele>
        <time>2026-03-22T14:00:59Z</time>
      </trkpt>
      <trkpt lat="47.89877" lon="7.07765">
        <ele>1172.8</ele>
        <time>2026-03-22T14:01:04Z</time>
      </trkpt>
      <trkpt lat="47.89881" lon="7.07772">
        <ele>1172.3</ele>
        <time>2026-03-22T14:01:09Z</time>
      </trkpt>
      <trkpt lat="47.89885" lon="7.07782">
        <ele>1170.7</ele>
        <time>2026-03-22T14:01:14Z</time>
      </trkpt>
      <trkpt lat="47.89888" lon="7.07791">
        <ele>1169</ele>
        <time>2026-03-22T14:01:19Z</time>
      </trkpt>
      <trkpt lat="47.89892" lon="7.078">
        <ele>1167.7</ele>
        <time>2026-03-22T14:01:24Z</time>
      </trkpt>
      <trkpt lat="47.89894" lon="7.0781">
        <ele>1165.2</ele>
        <time>2026-03-22T14:01:29Z</time>
      </trkpt>
      <trkpt lat="47.89897" lon="7.0782">
        <ele>1163</ele>
        <time>2026-03-22T14:01:34Z</time>
      </trkpt>
      <trkpt lat="47.89901" lon="7.07828">
        <ele>1161.7</ele>
        <time>2026-03-22T14:01:39Z</time>
      </trkpt>
      <trkpt lat="47.89906" lon="7.07836">
        <ele>1160.9</ele>
        <time>2026-03-22T14:01:44Z</time>
      </trkpt>
      <trkpt lat="47.89909" lon="7.07844">
        <ele>1159.9</ele>
        <time>2026-03-22T14:01:49Z</time>
      </trkpt>
      <trkpt lat="47.89913" lon="7.07854">
        <ele>1158.8</ele>
        <time>2026-03-22T14:01:54Z</time>
      </trkpt>
      <trkpt lat="47.89916" lon="7.07864">
        <ele>1157.4</ele>
        <time>2026-03-22T14:01:59Z</time>
      </trkpt>
      <trkpt lat="47.89921" lon="7.07871">
        <ele>1158.4</ele>
        <time>2026-03-22T14:02:04Z</time>
      </trkpt>
      <trkpt lat="47.8992" lon="7.07877">
        <ele>1156.4</ele>
        <time>2026-03-22T14:02:09Z</time>
      </trkpt>
      <trkpt lat="47.89922" lon="7.0788">
        <ele>1156.8</ele>
        <time>2026-03-22T14:02:14Z</time>
      </trkpt>
      <trkpt lat="47.89925" lon="7.07884">
        <ele>1157.5</ele>
        <time>2026-03-22T14:02:19Z</time>
      </trkpt>
      <trkpt lat="47.89925" lon="7.07892">
        <ele>1155.6</ele>
        <time>2026-03-22T14:02:24Z</time>
      </trkpt>
      <trkpt lat="47.89927" lon="7.07901">
        <ele>1154.6</ele>
        <time>2026-03-22T14:02:29Z</time>
      </trkpt>
      <trkpt lat="47.89927" lon="7.07915">
        <ele>1151.2</ele>
        <time>2026-03-22T14:02:34Z</time>
      </trkpt>
      <trkpt lat="47.89928" lon="7.07928">
        <ele>1149.1</ele>
        <time>2026-03-22T14:02:39Z</time>
      </trkpt>
      <trkpt lat="47.89932" lon="7.07936">
        <ele>1149.7</ele>
        <time>2026-03-22T14:02:44Z</time>
      </trkpt>
      <trkpt lat="47.89934" lon="7.07946">
        <ele>1148.9</ele>
        <time>2026-03-22T14:02:49Z</time>
      </trkpt>
      <trkpt lat="47.89936" lon="7.07956">
        <ele>1148.1</ele>
        <time>2026-03-22T14:02:54Z</time>
      </trkpt>
      <trkpt lat="47.89938" lon="7.07969">
        <ele>1146.7</ele>
        <time>2026-03-22T14:02:59Z</time>
      </trkpt>
      <trkpt lat="47.8994" lon="7.07977">
        <ele>1146.3</ele>
        <time>2026-03-22T14:03:04Z</time>
      </trkpt>
      <trkpt lat="47.89944" lon="7.07989">
        <ele>1146.5</ele>
        <time>2026-03-22T14:03:09Z</time>
      </trkpt>
      <trkpt lat="47.89948" lon="7.07997">
        <ele>1147.5</ele>
        <time>2026-03-22T14:03:14Z</time>
      </trkpt>
      <trkpt lat="47.89949" lon="7.08006">
        <ele>1146.9</ele>
        <time>2026-03-22T14:03:19Z</time>
      </trkpt>
      <trkpt lat="47.89951" lon="7.08016">
        <ele>1147.1</ele>
        <time>2026-03-22T14:03:24Z</time>
      </trkpt>
      <trkpt lat="47.89954" lon="7.08025">
        <ele>1147.9</ele>
        <time>2026-03-22T14:03:29Z</time>
      </trkpt>
      <trkpt lat="47.89956" lon="7.08033">
        <ele>1148.3</ele>
        <time>2026-03-22T14:03:34Z</time>
      </trkpt>
      <trkpt lat="47.89956" lon="7.08035">
        <ele>1148.1</ele>
        <time>2026-03-22T14:03:39Z</time>
      </trkpt>
      <trkpt lat="47.89955" lon="7.08036">
        <ele>1147.3</ele>
        <time>2026-03-22T14:03:44Z</time>
      </trkpt>
      <trkpt lat="47.89955" lon="7.0804">
        <ele>1146.9</ele>
        <time>2026-03-22T14:03:49Z</time>
      </trkpt>
      <trkpt lat="47.89957" lon="7.08045">
        <ele>1147.5</ele>
        <time>2026-03-22T14:03:54Z</time>
      </trkpt>
      <trkpt lat="47.89957" lon="7.08045">
        <ele>1147.5</ele>
        <time>2026-03-22T14:03:59Z</time>
      </trkpt>
      <trkpt lat="47.89957" lon="7.08045">
        <ele>1147.5</ele>
        <time>2026-03-22T14:04:04Z</time>
      </trkpt>
      <trkpt lat="47.89951" lon="7.08053">
        <ele>1143</ele>
        <time>2026-03-22T14:04:09Z</time>
      </trkpt>
      <trkpt lat="47.89952" lon="7.08064">
        <ele>1142.4</ele>
        <time>2026-03-22T14:04:14Z</time>
      </trkpt>
      <trkpt lat="47.89955" lon="7.0807">
        <ele>1143.5</ele>
        <time>2026-03-22T14:04:19Z</time>
      </trkpt>
      <trkpt lat="47.89957" lon="7.08076">
        <ele>1144</ele>
        <time>2026-03-22T14:04:24Z</time>
      </trkpt>
      <trkpt lat="47.89959" lon="7.08085">
        <ele>1144.1</ele>
        <time>2026-03-22T14:04:29Z</time>
      </trkpt>
      <trkpt lat="47.89961" lon="7.08094">
        <ele>1144</ele>
        <time>2026-03-22T14:04:34Z</time>
      </trkpt>
      <trkpt lat="47.89963" lon="7.08104">
        <ele>1143.6</ele>
        <time>2026-03-22T14:04:39Z</time>
      </trkpt>
      <trkpt lat="47.89967" lon="7.08114">
        <ele>1144.4</ele>
        <time>2026-03-22T14:04:44Z</time>
      </trkpt>
      <trkpt lat="47.8997" lon="7.08124">
        <ele>1144.6</ele>
        <time>2026-03-22T14:04:49Z</time>
      </trkpt>
      <trkpt lat="47.89973" lon="7.08135">
        <ele>1144.5</ele>
        <time>2026-03-22T14:04:54Z</time>
      </trkpt>
      <trkpt lat="47.89974" lon="7.08143">
        <ele>1143.8</ele>
        <time>2026-03-22T14:04:59Z</time>
      </trkpt>
      <trkpt lat="47.89977" lon="7.08153">
        <ele>1143.8</ele>
        <time>2026-03-22T14:05:04Z</time>
      </trkpt>
      <trkpt lat="47.89979" lon="7.08162">
        <ele>1143.4</ele>
        <time>2026-03-22T14:05:09Z</time>
      </trkpt>
      <trkpt lat="47.89982" lon="7.08172">
        <ele>1143.7</ele>
        <time>2026-03-22T14:05:14Z</time>
      </trkpt>
      <trkpt lat="47.89984" lon="7.08182">
        <ele>1143.8</ele>
        <time>2026-03-22T14:05:19Z</time>
      </trkpt>
      <trkpt lat="47.89985" lon="7.08194">
        <ele>1143.1</ele>
        <time>2026-03-22T14:05:24Z</time>
      </trkpt>
      <trkpt lat="47.89987" lon="7.08205">
        <ele>1143</ele>
        <time>2026-03-22T14:05:29Z</time>
      </trkpt>
      <trkpt lat="47.89992" lon="7.08217">
        <ele>1144.4</ele>
        <time>2026-03-22T14:05:34Z</time>
      </trkpt>
      <trkpt lat="47.89994" lon="7.08226">
        <ele>1144.5</ele>
        <time>2026-03-22T14:05:39Z</time>
      </trkpt>
      <trkpt lat="47.89997" lon="7.08234">
        <ele>1145.2</ele>
        <time>2026-03-22T14:05:44Z</time>
      </trkpt>
      <trkpt lat="47.89999" lon="7.08244">
        <ele>1145.1</ele>
        <time>2026-03-22T14:05:49Z</time>
      </trkpt>
      <trkpt lat="47.90004" lon="7.08253">
        <ele>1146.5</ele>
        <time>2026-03-22T14:05:54Z</time>
      </trkpt>
      <trkpt lat="47.90008" lon="7.08259">
        <ele>1147.6</ele>
        <time>2026-03-22T14:05:59Z</time>
      </trkpt>
      <trkpt lat="47.90011" lon="7.08269">
        <ele>1147.8</ele>
        <time>2026-03-22T14:06:04Z</time>
      </trkpt>
      <trkpt lat="47.90012" lon="7.08281">
        <ele>1146.7</ele>
        <time>2026-03-22T14:06:09Z</time>
      </trkpt>
      <trkpt lat="47.90016" lon="7.08293">
        <ele>1147</ele>
        <time>2026-03-22T14:06:14Z</time>
      </trkpt>
      <trkpt lat="47.90021" lon="7.08303">
        <ele>1148</ele>
        <time>2026-03-22T14:06:19Z</time>
      </trkpt>
      <trkpt lat="47.90026" lon="7.08313">
        <ele>1148.9</ele>
        <time>2026-03-22T14:06:24Z</time>
      </trkpt>
      <trkpt lat="47.9003" lon="7.08322">
        <ele>1149.5</ele>
        <time>2026-03-22T14:06:29Z</time>
      </trkpt>
      <trkpt lat="47.90031" lon="7.08332">
        <ele>1148.6</ele>
        <time>2026-03-22T14:06:34Z</time>
      </trkpt>
      <trkpt lat="47.90034" lon="7.08342">
        <ele>1148.4</ele>
        <time>2026-03-22T14:06:39Z</time>
      </trkpt>
      <trkpt lat="47.90037" lon="7.0835">
        <ele>1148.5</ele>
        <time>2026-03-22T14:06:44Z</time>
      </trkpt>
      <trkpt lat="47.9004" lon="7.08359">
        <ele>1148.4</ele>
        <time>2026-03-22T14:06:49Z</time>
      </trkpt>
      <trkpt lat="47.90043" lon="7.08369">
        <ele>1148.2</ele>
        <time>2026-03-22T14:06:54Z</time>
      </trkpt>
      <trkpt lat="47.90046" lon="7.08378">
        <ele>1148.1</ele>
        <time>2026-03-22T14:06:59Z</time>
      </trkpt>
      <trkpt lat="47.90049" lon="7.08388">
        <ele>1147.8</ele>
        <time>2026-03-22T14:07:04Z</time>
      </trkpt>
      <trkpt lat="47.90054" lon="7.08399">
        <ele>1148.1</ele>
        <time>2026-03-22T14:07:09Z</time>
      </trkpt>
      <trkpt lat="47.90058" lon="7.08408">
        <ele>1148.3</ele>
        <time>2026-03-22T14:07:14Z</time>
      </trkpt>
      <trkpt lat="47.90061" lon="7.08416">
        <ele>1148.3</ele>
        <time>2026-03-22T14:07:19Z</time>
      </trkpt>
      <trkpt lat="47.90063" lon="7.08425">
        <ele>1147.3</ele>
        <time>2026-03-22T14:07:24Z</time>
      </trkpt>
      <trkpt lat="47.90067" lon="7.08434">
        <ele>1147.2</ele>
        <time>2026-03-22T14:07:29Z</time>
      </trkpt>
      <trkpt lat="47.90071" lon="7.08442">
        <ele>1147.1</ele>
        <time>2026-03-22T14:07:34Z</time>
      </trkpt>
      <trkpt lat="47.90073" lon="7.08449">
        <ele>1146.5</ele>
        <time>2026-03-22T14:07:39Z</time>
      </trkpt>
      <trkpt lat="47.90077" lon="7.08457">
        <ele>1146.4</ele>
        <time>2026-03-22T14:07:44Z</time>
      </trkpt>
      <trkpt lat="47.9008" lon="7.08466">
        <ele>1145.7</ele>
        <time>2026-03-22T14:07:49Z</time>
      </trkpt>
      <trkpt lat="47.90085" lon="7.08476">
        <ele>1145.4</ele>
        <time>2026-03-22T14:07:54Z</time>
      </trkpt>
      <trkpt lat="47.90089" lon="7.08483">
        <ele>1145.2</ele>
        <time>2026-03-22T14:07:59Z</time>
      </trkpt>
      <trkpt lat="47.90094" lon="7.0849">
        <ele>1145.2</ele>
        <time>2026-03-22T14:08:04Z</time>
      </trkpt>
      <trkpt lat="47.90097" lon="7.08497">
        <ele>1144.6</ele>
        <time>2026-03-22T14:08:09Z</time>
      </trkpt>
      <trkpt lat="47.90101" lon="7.08508">
        <ele>1143.1</ele>
        <time>2026-03-22T14:08:14Z</time>
      </trkpt>
      <trkpt lat="47.90107" lon="7.08518">
        <ele>1142.3</ele>
        <time>2026-03-22T14:08:19Z</time>
      </trkpt>
      <trkpt lat="47.90111" lon="7.08527">
        <ele>1141.2</ele>
        <time>2026-03-22T14:08:24Z</time>
      </trkpt>
      <trkpt lat="47.90116" lon="7.08532">
        <ele>1141.3</ele>
        <time>2026-03-22T14:08:29Z</time>
      </trkpt>
      <trkpt lat="47.90121" lon="7.08536">
        <ele>1141.8</ele>
        <time>2026-03-22T14:08:34Z</time>
      </trkpt>
      <trkpt lat="47.90127" lon="7.08539">
        <ele>1142.7</ele>
        <time>2026-03-22T14:08:39Z</time>
      </trkpt>
      <trkpt lat="47.90132" lon="7.08543">
        <ele>1143.2</ele>
        <time>2026-03-22T14:08:44Z</time>
      </trkpt>
      <trkpt lat="47.90138" lon="7.08547">
        <ele>1143.9</ele>
        <time>2026-03-22T14:08:49Z</time>
      </trkpt>
      <trkpt lat="47.90143" lon="7.08552">
        <ele>1144.1</ele>
        <time>2026-03-22T14:08:54Z</time>
      </trkpt>
      <trkpt lat="47.90148" lon="7.08555">
        <ele>1144.8</ele>
        <time>2026-03-22T14:08:59Z</time>
      </trkpt>
      <trkpt lat="47.90152" lon="7.08557">
        <ele>1145.4</ele>
        <time>2026-03-22T14:09:04Z</time>
      </trkpt>
      <trkpt lat="47.90157" lon="7.0856">
        <ele>1146.1</ele>
        <time>2026-03-22T14:09:09Z</time>
      </trkpt>
      <trkpt lat="47.90162" lon="7.08561">
        <ele>1147.3</ele>
        <time>2026-03-22T14:09:14Z</time>
      </trkpt>
      <trkpt lat="47.90168" lon="7.08562">
        <ele>1148.8</ele>
        <time>2026-03-22T14:09:19Z</time>
      </trkpt>
      <trkpt lat="47.90176" lon="7.08564">
        <ele>1150.9</ele>
        <time>2026-03-22T14:09:24Z</time>
      </trkpt>
      <trkpt lat="47.90182" lon="7.08571">
        <ele>1151</ele>
        <time>2026-03-22T14:09:29Z</time>
      </trkpt>
      <trkpt lat="47.90185" lon="7.08575">
        <ele>1150.9</ele>
        <time>2026-03-22T14:09:34Z</time>
      </trkpt>
      <trkpt lat="47.9019" lon="7.08581">
        <ele>1150.9</ele>
        <time>2026-03-22T14:09:39Z</time>
      </trkpt>
      <trkpt lat="47.90194" lon="7.08588">
        <ele>1149.9</ele>
        <time>2026-03-22T14:09:44Z</time>
      </trkpt>
      <trkpt lat="47.90199" lon="7.08595">
        <ele>1149</ele>
        <time>2026-03-22T14:09:49Z</time>
      </trkpt>
      <trkpt lat="47.90201" lon="7.08601">
        <ele>1147.6</ele>
        <time>2026-03-22T14:09:54Z</time>
      </trkpt>
      <trkpt lat="47.90205" lon="7.08606">
        <ele>1147.1</ele>
        <time>2026-03-22T14:09:59Z</time>
      </trkpt>
      <trkpt lat="47.90211" lon="7.08609">
        <ele>1147.9</ele>
        <time>2026-03-22T14:10:04Z</time>
      </trkpt>
      <trkpt lat="47.90215" lon="7.08611">
        <ele>1148.5</ele>
        <time>2026-03-22T14:10:09Z</time>
      </trkpt>
      <trkpt lat="47.90218" lon="7.08615">
        <ele>1148</ele>
        <time>2026-03-22T14:10:14Z</time>
      </trkpt>
      <trkpt lat="47.90222" lon="7.08618">
        <ele>1148.2</ele>
        <time>2026-03-22T14:10:19Z</time>
      </trkpt>
      <trkpt lat="47.90226" lon="7.08622">
        <ele>1148.1</ele>
        <time>2026-03-22T14:10:24Z</time>
      </trkpt>
      <trkpt lat="47.9023" lon="7.08625">
        <ele>1148.3</ele>
        <time>2026-03-22T14:10:29Z</time>
      </trkpt>
      <trkpt lat="47.90235" lon="7.08628">
        <ele>1148.8</ele>
        <time>2026-03-22T14:10:34Z</time>
      </trkpt>
      <trkpt lat="47.9024" lon="7.08631">
        <ele>1149.3</ele>
        <time>2026-03-22T14:10:39Z</time>
      </trkpt>
      <trkpt lat="47.90243" lon="7.08637">
        <ele>1148.1</ele>
        <time>2026-03-22T14:10:44Z</time>
      </trkpt>
      <trkpt lat="47.90246" lon="7.0864">
        <ele>1148</ele>
        <time>2026-03-22T14:10:49Z</time>
      </trkpt>
      <trkpt lat="47.90253" lon="7.08643">
        <ele>1149.4</ele>
        <time>2026-03-22T14:10:54Z</time>
      </trkpt>
      <trkpt lat="47.90255" lon="7.08648">
        <ele>1148.5</ele>
        <time>2026-03-22T14:10:59Z</time>
      </trkpt>
      <trkpt lat="47.90258" lon="7.08651">
        <ele>1148.7</ele>
        <time>2026-03-22T14:11:04Z</time>
      </trkpt>
      <trkpt lat="47.9026" lon="7.08656">
        <ele>1147.8</ele>
        <time>2026-03-22T14:11:09Z</time>
      </trkpt>
      <trkpt lat="47.90264" lon="7.0866">
        <ele>1148.1</ele>
        <time>2026-03-22T14:11:14Z</time>
      </trkpt>
      <trkpt lat="47.90268" lon="7.08666">
        <ele>1147.8</ele>
        <time>2026-03-22T14:11:19Z</time>
      </trkpt>
      <trkpt lat="47.90271" lon="7.0867">
        <ele>1147.9</ele>
        <time>2026-03-22T14:11:24Z</time>
      </trkpt>
      <trkpt lat="47.90275" lon="7.08673">
        <ele>1148.7</ele>
        <time>2026-03-22T14:11:29Z</time>
      </trkpt>
      <trkpt lat="47.90279" lon="7.08678">
        <ele>1149</ele>
        <time>2026-03-22T14:11:34Z</time>
      </trkpt>
      <trkpt lat="47.90282" lon="7.08679">
        <ele>1150</ele>
        <time>2026-03-22T14:11:39Z</time>
      </trkpt>
      <trkpt lat="47.90287" lon="7.0868">
        <ele>1151.8</ele>
        <time>2026-03-22T14:11:44Z</time>
      </trkpt>
      <trkpt lat="47.90291" lon="7.08681">
        <ele>1153.2</ele>
        <time>2026-03-22T14:11:49Z</time>
      </trkpt>
      <trkpt lat="47.90293" lon="7.08685">
        <ele>1152.9</ele>
        <time>2026-03-22T14:11:54Z</time>
      </trkpt>
      <trkpt lat="47.90296" lon="7.08688">
        <ele>1153.3</ele>
        <time>2026-03-22T14:11:59Z</time>
      </trkpt>
      <trkpt lat="47.90298" lon="7.0869">
        <ele>1153.6</ele>
        <time>2026-03-22T14:12:04Z</time>
      </trkpt>
      <trkpt lat="47.90302" lon="7.08695">
        <ele>1153.8</ele>
        <time>2026-03-22T14:12:09Z</time>
      </trkpt>
      <trkpt lat="47.90304" lon="7.08697">
        <ele>1154.1</ele>
        <time>2026-03-22T14:12:14Z</time>
      </trkpt>
      <trkpt lat="47.90307" lon="7.087">
        <ele>1154.5</ele>
        <time>2026-03-22T14:12:19Z</time>
      </trkpt>
      <trkpt lat="47.90312" lon="7.08703">
        <ele>1155.7</ele>
        <time>2026-03-22T14:12:24Z</time>
      </trkpt>
      <trkpt lat="47.90317" lon="7.08705">
        <ele>1157.2</ele>
        <time>2026-03-22T14:12:29Z</time>
      </trkpt>
      <trkpt lat="47.90322" lon="7.08705">
        <ele>1159.3</ele>
        <time>2026-03-22T14:12:34Z</time>
      </trkpt>
      <trkpt lat="47.90325" lon="7.08707">
        <ele>1159.9</ele>
        <time>2026-03-22T14:12:39Z</time>
      </trkpt>
      <trkpt lat="47.90328" lon="7.08711">
        <ele>1160</ele>
        <time>2026-03-22T14:12:44Z</time>
      </trkpt>
      <trkpt lat="47.90332" lon="7.08712">
        <ele>1161.4</ele>
        <time>2026-03-22T14:12:49Z</time>
      </trkpt>
      <trkpt lat="47.90334" lon="7.08715">
        <ele>1161.3</ele>
        <time>2026-03-22T14:12:54Z</time>
      </trkpt>
      <trkpt lat="47.90336" lon="7.08718">
        <ele>1161.3</ele>
        <time>2026-03-22T14:12:59Z</time>
      </trkpt>
      <trkpt lat="47.90339" lon="7.08719">
        <ele>1162.1</ele>
        <time>2026-03-22T14:13:04Z</time>
      </trkpt>
      <trkpt lat="47.90342" lon="7.08721">
        <ele>1162.7</ele>
        <time>2026-03-22T14:13:09Z</time>
      </trkpt>
      <trkpt lat="47.90345" lon="7.08724">
        <ele>1163.1</ele>
        <time>2026-03-22T14:13:14Z</time>
      </trkpt>
      <trkpt lat="47.90347" lon="7.08727">
        <ele>1163</ele>
        <time>2026-03-22T14:13:19Z</time>
      </trkpt>
      <trkpt lat="47.90349" lon="7.08732">
        <ele>1162.3</ele>
        <time>2026-03-22T14:13:24Z</time>
      </trkpt>
      <trkpt lat="47.90352" lon="7.08735">
        <ele>1162.7</ele>
        <time>2026-03-22T14:13:29Z</time>
      </trkpt>
      <trkpt lat="47.90356" lon="7.08735">
        <ele>1164.2</ele>
        <time>2026-03-22T14:13:34Z</time>
      </trkpt>
      <trkpt lat="47.90361" lon="7.08736">
        <ele>1165.9</ele>
        <time>2026-03-22T14:13:39Z</time>
      </trkpt>
      <trkpt lat="47.90364" lon="7.0874">
        <ele>1166</ele>
        <time>2026-03-22T14:13:44Z</time>
      </trkpt>
      <trkpt lat="47.90367" lon="7.08741">
        <ele>1166.9</ele>
        <time>2026-03-22T14:13:49Z</time>
      </trkpt>
      <trkpt lat="47.90372" lon="7.08742">
        <ele>1168.6</ele>
        <time>2026-03-22T14:13:54Z</time>
      </trkpt>
      <trkpt lat="47.90376" lon="7.08745">
        <ele>1169.3</ele>
        <time>2026-03-22T14:13:59Z</time>
      </trkpt>
      <trkpt lat="47.90379" lon="7.08749">
        <ele>1169.4</ele>
        <time>2026-03-22T14:14:04Z</time>
      </trkpt>
      <trkpt lat="47.90383" lon="7.08754">
        <ele>1170.4</ele>
        <time>2026-03-22T14:14:09Z</time>
      </trkpt>
      <trkpt lat="47.90385" lon="7.08757">
        <ele>1171</ele>
        <time>2026-03-22T14:14:14Z</time>
      </trkpt>
      <trkpt lat="47.90388" lon="7.08758">
        <ele>1172.1</ele>
        <time>2026-03-22T14:14:19Z</time>
      </trkpt>
      <trkpt lat="47.90391" lon="7.08761">
        <ele>1173.1</ele>
        <time>2026-03-22T14:14:24Z</time>
      </trkpt>
      <trkpt lat="47.90394" lon="7.08764">
        <ele>1174</ele>
        <time>2026-03-22T14:14:29Z</time>
      </trkpt>
      <trkpt lat="47.90397" lon="7.08766">
        <ele>1175</ele>
        <time>2026-03-22T14:14:34Z</time>
      </trkpt>
      <trkpt lat="47.904" lon="7.08769">
        <ele>1175.9</ele>
        <time>2026-03-22T14:14:39Z</time>
      </trkpt>
      <trkpt lat="47.90401" lon="7.08774">
        <ele>1175.9</ele>
        <time>2026-03-22T14:14:44Z</time>
      </trkpt>
      <trkpt lat="47.90404" lon="7.0878">
        <ele>1176.5</ele>
        <time>2026-03-22T14:14:49Z</time>
      </trkpt>
      <trkpt lat="47.90405" lon="7.08782">
        <ele>1176.7</ele>
        <time>2026-03-22T14:14:54Z</time>
      </trkpt>
      <trkpt lat="47.90406" lon="7.08784">
        <ele>1176.9</ele>
        <time>2026-03-22T14:14:59Z</time>
      </trkpt>
      <trkpt lat="47.90406" lon="7.08787">
        <ele>1176.7</ele>
        <time>2026-03-22T14:15:04Z</time>
      </trkpt>
      <trkpt lat="47.90408" lon="7.0879">
        <ele>1177.1</ele>
        <time>2026-03-22T14:15:09Z</time>
      </trkpt>
      <trkpt lat="47.90409" lon="7.08792">
        <ele>1177.3</ele>
        <time>2026-03-22T14:15:14Z</time>
      </trkpt>
      <trkpt lat="47.90411" lon="7.08796">
        <ele>1177.6</ele>
        <time>2026-03-22T14:15:19Z</time>
      </trkpt>
      <trkpt lat="47.90412" lon="7.08798">
        <ele>1177.8</ele>
        <time>2026-03-22T14:15:24Z</time>
      </trkpt>
      <trkpt lat="47.90414" lon="7.08803">
        <ele>1178</ele>
        <time>2026-03-22T14:15:29Z</time>
      </trkpt>
      <trkpt lat="47.90415" lon="7.08808">
        <ele>1177.9</ele>
        <time>2026-03-22T14:15:34Z</time>
      </trkpt>
      <trkpt lat="47.90416" lon="7.08812">
        <ele>1177.8</ele>
        <time>2026-03-22T14:15:39Z</time>
      </trkpt>
      <trkpt lat="47.90418" lon="7.08817">
        <ele>1178.1</ele>
        <time>2026-03-22T14:15:44Z</time>
      </trkpt>
      <trkpt lat="47.90419" lon="7.08822">
        <ele>1177.9</ele>
        <time>2026-03-22T14:15:49Z</time>
      </trkpt>
      <trkpt lat="47.9042" lon="7.08827">
        <ele>1177.8</ele>
        <time>2026-03-22T14:15:54Z</time>
      </trkpt>
      <trkpt lat="47.90421" lon="7.08833">
        <ele>1177.6</ele>
        <time>2026-03-22T14:15:59Z</time>
      </trkpt>
      <trkpt lat="47.90422" lon="7.08837">
        <ele>1178.6</ele>
        <time>2026-03-22T14:16:04Z</time>
      </trkpt>
      <trkpt lat="47.90424" lon="7.08843">
        <ele>1180.2</ele>
        <time>2026-03-22T14:16:09Z</time>
      </trkpt>
      <trkpt lat="47.90425" lon="7.08848">
        <ele>1181.4</ele>
        <time>2026-03-22T14:16:14Z</time>
      </trkpt>
      <trkpt lat="47.90425" lon="7.08855">
        <ele>1182.4</ele>
        <time>2026-03-22T14:16:19Z</time>
      </trkpt>
      <trkpt lat="47.90424" lon="7.08861">
        <ele>1183</ele>
        <time>2026-03-22T14:16:24Z</time>
      </trkpt>
      <trkpt lat="47.90425" lon="7.08866">
        <ele>1184.1</ele>
        <time>2026-03-22T14:16:29Z</time>
      </trkpt>
      <trkpt lat="47.90426" lon="7.08871">
        <ele>1185.2</ele>
        <time>2026-03-22T14:16:34Z</time>
      </trkpt>
      <trkpt lat="47.90425" lon="7.08875">
        <ele>1185.5</ele>
        <time>2026-03-22T14:16:39Z</time>
      </trkpt>
      <trkpt lat="47.90424" lon="7.08876">
        <ele>1185.4</ele>
        <time>2026-03-22T14:16:44Z</time>
      </trkpt>
      <trkpt lat="47.90424" lon="7.08876">
        <ele>1185.4</ele>
        <time>2026-03-22T14:16:49Z</time>
      </trkpt>
      <trkpt lat="47.90424" lon="7.08876">
        <ele>1185.4</ele>
        <time>2026-03-22T14:16:54Z</time>
      </trkpt>
      <trkpt lat="47.90424" lon="7.08876">
        <ele>1185.4</ele>
        <time>2026-03-22T14:16:59Z</time>
      </trkpt>
      <trkpt lat="47.90424" lon="7.08876">
        <ele>1185.4</ele>
        <time>2026-03-22T14:17:04Z</time>
      </trkpt>
      <trkpt lat="47.90429" lon="7.08877">
        <ele>1187</ele>
        <time>2026-03-22T14:17:09Z</time>
      </trkpt>
      <trkpt lat="47.90431" lon="7.08885">
        <ele>1188.7</ele>
        <time>2026-03-22T14:17:14Z</time>
      </trkpt>
      <trkpt lat="47.90432" lon="7.08892">
        <ele>1190</ele>
        <time>2026-03-22T14:17:19Z</time>
      </trkpt>
      <trkpt lat="47.90433" lon="7.08898">
        <ele>1191.1</ele>
        <time>2026-03-22T14:17:24Z</time>
      </trkpt>
      <trkpt lat="47.90436" lon="7.08902">
        <ele>1192.4</ele>
        <time>2026-03-22T14:17:29Z</time>
      </trkpt>
      <trkpt lat="47.90438" lon="7.08907">
        <ele>1193.6</ele>
        <time>2026-03-22T14:17:34Z</time>
      </trkpt>
      <trkpt lat="47.90439" lon="7.08913">
        <ele>1194.6</ele>
        <time>2026-03-22T14:17:39Z</time>
      </trkpt>
      <trkpt lat="47.90441" lon="7.08919">
        <ele>1195.9</ele>
        <time>2026-03-22T14:17:44Z</time>
      </trkpt>
      <trkpt lat="47.90443" lon="7.08924">
        <ele>1197.2</ele>
        <time>2026-03-22T14:17:49Z</time>
      </trkpt>
      <trkpt lat="47.90445" lon="7.08929">
        <ele>1198.4</ele>
        <time>2026-03-22T14:17:54Z</time>
      </trkpt>
      <trkpt lat="47.90446" lon="7.08935">
        <ele>1199.6</ele>
        <time>2026-03-22T14:17:59Z</time>
      </trkpt>
      <trkpt lat="47.90448" lon="7.0894">
        <ele>1200.8</ele>
        <time>2026-03-22T14:18:04Z</time>
      </trkpt>
      <trkpt lat="47.90451" lon="7.08945">
        <ele>1202.1</ele>
        <time>2026-03-22T14:18:09Z</time>
      </trkpt>
      <trkpt lat="47.90453" lon="7.0895">
        <ele>1203.3</ele>
        <time>2026-03-22T14:18:14Z</time>
      </trkpt>
      <trkpt lat="47.90454" lon="7.08956">
        <ele>1204.4</ele>
        <time>2026-03-22T14:18:19Z</time>
      </trkpt>
      <trkpt lat="47.90456" lon="7.08961">
        <ele>1205.5</ele>
        <time>2026-03-22T14:18:24Z</time>
      </trkpt>
      <trkpt lat="47.90458" lon="7.08965">
        <ele>1206.4</ele>
        <time>2026-03-22T14:18:29Z</time>
      </trkpt>
      <trkpt lat="47.90461" lon="7.08968">
        <ele>1207.3</ele>
        <time>2026-03-22T14:18:34Z</time>
      </trkpt>
      <trkpt lat="47.90464" lon="7.08972">
        <ele>1208.4</ele>
        <time>2026-03-22T14:18:39Z</time>
      </trkpt>
      <trkpt lat="47.90467" lon="7.08977">
        <ele>1209.6</ele>
        <time>2026-03-22T14:18:44Z</time>
      </trkpt>
      <trkpt lat="47.90471" lon="7.08981">
        <ele>1210.7</ele>
        <time>2026-03-22T14:18:49Z</time>
      </trkpt>
      <trkpt lat="47.90474" lon="7.08985">
        <ele>1211.7</ele>
        <time>2026-03-22T14:18:54Z</time>
      </trkpt>
      <trkpt lat="47.90477" lon="7.08988">
        <ele>1212.5</ele>
        <time>2026-03-22T14:18:59Z</time>
      </trkpt>
      <trkpt lat="47.9048" lon="7.08993">
        <ele>1213.5</ele>
        <time>2026-03-22T14:19:04Z</time>
      </trkpt>
      <trkpt lat="47.90482" lon="7.08999">
        <ele>1214.5</ele>
        <time>2026-03-22T14:19:09Z</time>
      </trkpt>
      <trkpt lat="47.90485" lon="7.09004">
        <ele>1215.6</ele>
        <time>2026-03-22T14:19:14Z</time>
      </trkpt>
      <trkpt lat="47.90489" lon="7.0901">
        <ele>1217</ele>
        <time>2026-03-22T14:19:19Z</time>
      </trkpt>
      <trkpt lat="47.90492" lon="7.09016">
        <ele>1218.2</ele>
        <time>2026-03-22T14:19:24Z</time>
      </trkpt>
      <trkpt lat="47.90494" lon="7.09021">
        <ele>1219.1</ele>
        <time>2026-03-22T14:19:29Z</time>
      </trkpt>
      <trkpt lat="47.90498" lon="7.09026">
        <ele>1220.2</ele>
        <time>2026-03-22T14:19:34Z</time>
      </trkpt>
      <trkpt lat="47.90501" lon="7.09032">
        <ele>1221.3</ele>
        <time>2026-03-22T14:19:39Z</time>
      </trkpt>
      <trkpt lat="47.90503" lon="7.09038">
        <ele>1222.2</ele>
        <time>2026-03-22T14:19:44Z</time>
      </trkpt>
      <trkpt lat="47.90504" lon="7.09041">
        <ele>1222.7</ele>
        <time>2026-03-22T14:19:49Z</time>
      </trkpt>
      <trkpt lat="47.90502" lon="7.09043">
        <ele>1222.8</ele>
        <time>2026-03-22T14:19:54Z</time>
      </trkpt>
      <trkpt lat="47.90499" lon="7.09047">
        <ele>1223.1</ele>
        <time>2026-03-22T14:19:59Z</time>
      </trkpt>
      <trkpt lat="47.90496" lon="7.09051">
        <ele>1223.4</ele>
        <time>2026-03-22T14:20:04Z</time>
      </trkpt>
      <trkpt lat="47.90493" lon="7.09054">
        <ele>1223.6</ele>
        <time>2026-03-22T14:20:09Z</time>
      </trkpt>
      <trkpt lat="47.9049" lon="7.09057">
        <ele>1223.8</ele>
        <time>2026-03-22T14:20:14Z</time>
      </trkpt>
      <trkpt lat="47.90489" lon="7.09059">
        <ele>1224</ele>
        <time>2026-03-22T14:20:19Z</time>
      </trkpt>
      <trkpt lat="47.90486" lon="7.09065">
        <ele>1224.6</ele>
        <time>2026-03-22T14:20:24Z</time>
      </trkpt>
      <trkpt lat="47.90482" lon="7.09074">
        <ele>1225.7</ele>
        <time>2026-03-22T14:20:29Z</time>
      </trkpt>
      <trkpt lat="47.90476" lon="7.09076">
        <ele>1225.7</ele>
        <time>2026-03-22T14:20:34Z</time>
      </trkpt>
      <trkpt lat="47.90473" lon="7.09081">
        <ele>1226.3</ele>
        <time>2026-03-22T14:20:39Z</time>
      </trkpt>
      <trkpt lat="47.90469" lon="7.09086">
        <ele>1227</ele>
        <time>2026-03-22T14:20:44Z</time>
      </trkpt>
      <trkpt lat="47.90466" lon="7.0909">
        <ele>1227.5</ele>
        <time>2026-03-22T14:20:49Z</time>
      </trkpt>
      <trkpt lat="47.90463" lon="7.09096">
        <ele>1228.5</ele>
        <time>2026-03-22T14:20:54Z</time>
      </trkpt>
      <trkpt lat="47.90461" lon="7.09102">
        <ele>1229.5</ele>
        <time>2026-03-22T14:20:59Z</time>
      </trkpt>
      <trkpt lat="47.90458" lon="7.09109">
        <ele>1230.6</ele>
        <time>2026-03-22T14:21:04Z</time>
      </trkpt>
      <trkpt lat="47.90456" lon="7.09115">
        <ele>1231.6</ele>
        <time>2026-03-22T14:21:09Z</time>
      </trkpt>
      <trkpt lat="47.90453" lon="7.09121">
        <ele>1232.6</ele>
        <time>2026-03-22T14:21:14Z</time>
      </trkpt>
      <trkpt lat="47.90452" lon="7.09129">
        <ele>1234.1</ele>
        <time>2026-03-22T14:21:19Z</time>
      </trkpt>
      <trkpt lat="47.90451" lon="7.09134">
        <ele>1235</ele>
        <time>2026-03-22T14:21:24Z</time>
      </trkpt>
      <trkpt lat="47.9045" lon="7.09141">
        <ele>1236.3</ele>
        <time>2026-03-22T14:21:29Z</time>
      </trkpt>
      <trkpt lat="47.90448" lon="7.09146">
        <ele>1237.2</ele>
        <time>2026-03-22T14:21:34Z</time>
      </trkpt>
      <trkpt lat="47.90446" lon="7.09149">
        <ele>1237.7</ele>
        <time>2026-03-22T14:21:39Z</time>
      </trkpt>
      <trkpt lat="47.90444" lon="7.09155">
        <ele>1238.8</ele>
        <time>2026-03-22T14:21:44Z</time>
      </trkpt>
      <trkpt lat="47.90443" lon="7.09159">
        <ele>1239.6</ele>
        <time>2026-03-22T14:21:49Z</time>
      </trkpt>
      <trkpt lat="47.90442" lon="7.0916">
        <ele>1239.7</ele>
        <time>2026-03-22T14:21:54Z</time>
      </trkpt>
      <trkpt lat="47.90442" lon="7.0916">
        <ele>1239.7</ele>
        <time>2026-03-22T14:21:59Z</time>
      </trkpt>
      <trkpt lat="47.90444" lon="7.09169">
        <ele>1241.5</ele>
        <time>2026-03-22T14:22:04Z</time>
      </trkpt>
      <trkpt lat="47.9044" lon="7.09174">
        <ele>1242.6</ele>
        <time>2026-03-22T14:22:09Z</time>
      </trkpt>
      <trkpt lat="47.90438" lon="7.09178">
        <ele>1243.5</ele>
        <time>2026-03-22T14:22:14Z</time>
      </trkpt>
      <trkpt lat="47.90436" lon="7.09183">
        <ele>1244.6</ele>
        <time>2026-03-22T14:22:19Z</time>
      </trkpt>
      <trkpt lat="47.90434" lon="7.09186">
        <ele>1245.4</ele>
        <time>2026-03-22T14:22:24Z</time>
      </trkpt>
      <trkpt lat="47.90432" lon="7.09192">
        <ele>1246.8</ele>
        <time>2026-03-22T14:22:29Z</time>
      </trkpt>
      <trkpt lat="47.9043" lon="7.09198">
        <ele>1248.4</ele>
        <time>2026-03-22T14:22:34Z</time>
      </trkpt>
      <trkpt lat="47.90429" lon="7.09205">
        <ele>1250.1</ele>
        <time>2026-03-22T14:22:39Z</time>
      </trkpt>
      <trkpt lat="47.90427" lon="7.09209">
        <ele>1251.2</ele>
        <time>2026-03-22T14:22:44Z</time>
      </trkpt>
      <trkpt lat="47.90426" lon="7.09214">
        <ele>1252.5</ele>
        <time>2026-03-22T14:22:49Z</time>
      </trkpt>
      <trkpt lat="47.90425" lon="7.0922">
        <ele>1254.1</ele>
        <time>2026-03-22T14:22:54Z</time>
      </trkpt>
      <trkpt lat="47.90425" lon="7.09224">
        <ele>1255.1</ele>
        <time>2026-03-22T14:22:59Z</time>
      </trkpt>
      <trkpt lat="47.90425" lon="7.09228">
        <ele>1256.1</ele>
        <time>2026-03-22T14:23:04Z</time>
      </trkpt>
      <trkpt lat="47.90424" lon="7.09234">
        <ele>1257.7</ele>
        <time>2026-03-22T14:23:09Z</time>
      </trkpt>
      <trkpt lat="47.90424" lon="7.09239">
        <ele>1259</ele>
        <time>2026-03-22T14:23:14Z</time>
      </trkpt>
      <trkpt lat="47.90422" lon="7.09242">
        <ele>1260</ele>
        <time>2026-03-22T14:23:19Z</time>
      </trkpt>
      <trkpt lat="47.90421" lon="7.09246">
        <ele>1261.2</ele>
        <time>2026-03-22T14:23:24Z</time>
      </trkpt>
      <trkpt lat="47.90419" lon="7.09249">
        <ele>1262.3</ele>
        <time>2026-03-22T14:23:29Z</time>
      </trkpt>
      <trkpt lat="47.90417" lon="7.09254">
        <ele>1264</ele>
        <time>2026-03-22T14:23:34Z</time>
      </trkpt>
      <trkpt lat="47.90416" lon="7.09257">
        <ele>1264.9</ele>
        <time>2026-03-22T14:23:39Z</time>
      </trkpt>
      <trkpt lat="47.90414" lon="7.09262">
        <ele>1266.4</ele>
        <time>2026-03-22T14:23:44Z</time>
      </trkpt>
      <trkpt lat="47.90412" lon="7.09267">
        <ele>1267.9</ele>
        <time>2026-03-22T14:23:49Z</time>
      </trkpt>
      <trkpt lat="47.90411" lon="7.09272">
        <ele>1269.3</ele>
        <time>2026-03-22T14:23:54Z</time>
      </trkpt>
      <trkpt lat="47.90409" lon="7.09274">
        <ele>1270</ele>
        <time>2026-03-22T14:23:59Z</time>
      </trkpt>
      <trkpt lat="47.90407" lon="7.09279">
        <ele>1271.4</ele>
        <time>2026-03-22T14:24:04Z</time>
      </trkpt>
      <trkpt lat="47.90405" lon="7.09281">
        <ele>1272.1</ele>
        <time>2026-03-22T14:24:09Z</time>
      </trkpt>
      <trkpt lat="47.90403" lon="7.09285">
        <ele>1273.3</ele>
        <time>2026-03-22T14:24:14Z</time>
      </trkpt>
      <trkpt lat="47.90401" lon="7.0929">
        <ele>1274.8</ele>
        <time>2026-03-22T14:24:19Z</time>
      </trkpt>
      <trkpt lat="47.904" lon="7.09294">
        <ele>1275.9</ele>
        <time>2026-03-22T14:24:24Z</time>
      </trkpt>
      <trkpt lat="47.90398" lon="7.09297">
        <ele>1276.8</ele>
        <time>2026-03-22T14:24:29Z</time>
      </trkpt>
      <trkpt lat="47.90396" lon="7.093">
        <ele>1277.8</ele>
        <time>2026-03-22T14:24:34Z</time>
      </trkpt>
      <trkpt lat="47.90394" lon="7.09299">
        <ele>1277.7</ele>
        <time>2026-03-22T14:24:39Z</time>
      </trkpt>
      <trkpt lat="47.90392" lon="7.09298">
        <ele>1277.6</ele>
        <time>2026-03-22T14:24:44Z</time>
      </trkpt>
      <trkpt lat="47.90388" lon="7.09297">
        <ele>1277.6</ele>
        <time>2026-03-22T14:24:49Z</time>
      </trkpt>
      <trkpt lat="47.90385" lon="7.09297">
        <ele>1277.9</ele>
        <time>2026-03-22T14:24:54Z</time>
      </trkpt>
      <trkpt lat="47.90381" lon="7.09297">
        <ele>1278.2</ele>
        <time>2026-03-22T14:24:59Z</time>
      </trkpt>
      <trkpt lat="47.90377" lon="7.09295">
        <ele>1278</ele>
        <time>2026-03-22T14:25:04Z</time>
      </trkpt>
      <trkpt lat="47.90374" lon="7.09293">
        <ele>1277.7</ele>
        <time>2026-03-22T14:25:09Z</time>
      </trkpt>
      <trkpt lat="47.90371" lon="7.09291">
        <ele>1277.4</ele>
        <time>2026-03-22T14:25:14Z</time>
      </trkpt>
      <trkpt lat="47.90369" lon="7.09292">
        <ele>1277.8</ele>
        <time>2026-03-22T14:25:19Z</time>
      </trkpt>
      <trkpt lat="47.90365" lon="7.09292">
        <ele>1278.1</ele>
        <time>2026-03-22T14:25:24Z</time>
      </trkpt>
      <trkpt lat="47.90361" lon="7.09292">
        <ele>1278.4</ele>
        <time>2026-03-22T14:25:29Z</time>
      </trkpt>
      <trkpt lat="47.90358" lon="7.09291">
        <ele>1278.4</ele>
        <time>2026-03-22T14:25:34Z</time>
      </trkpt>
      <trkpt lat="47.90353" lon="7.09288">
        <ele>1278</ele>
        <time>2026-03-22T14:25:39Z</time>
      </trkpt>
      <trkpt lat="47.90349" lon="7.09286">
        <ele>1277.8</ele>
        <time>2026-03-22T14:25:44Z</time>
      </trkpt>
      <trkpt lat="47.90346" lon="7.09285">
        <ele>1277.8</ele>
        <time>2026-03-22T14:25:49Z</time>
      </trkpt>
      <trkpt lat="47.90342" lon="7.09286">
        <ele>1278.4</ele>
        <time>2026-03-22T14:25:54Z</time>
      </trkpt>
      <trkpt lat="47.90339" lon="7.09287">
        <ele>1278.9</ele>
        <time>2026-03-22T14:25:59Z</time>
      </trkpt>
      <trkpt lat="47.90336" lon="7.09286">
        <ele>1278.9</ele>
        <time>2026-03-22T14:26:04Z</time>
      </trkpt>
      <trkpt lat="47.90332" lon="7.09286">
        <ele>1278.8</ele>
        <time>2026-03-22T14:26:09Z</time>
      </trkpt>
      <trkpt lat="47.9033" lon="7.09285">
        <ele>1278.1</ele>
        <time>2026-03-22T14:26:14Z</time>
      </trkpt>
      <trkpt lat="47.90325" lon="7.09288">
        <ele>1277.7</ele>
        <time>2026-03-22T14:26:19Z</time>
      </trkpt>
      <trkpt lat="47.90321" lon="7.09287">
        <ele>1276.5</ele>
        <time>2026-03-22T14:26:24Z</time>
      </trkpt>
      <trkpt lat="47.90317" lon="7.09287">
        <ele>1275.6</ele>
        <time>2026-03-22T14:26:29Z</time>
      </trkpt>
      <trkpt lat="47.90314" lon="7.09285">
        <ele>1274.5</ele>
        <time>2026-03-22T14:26:34Z</time>
      </trkpt>
      <trkpt lat="47.90309" lon="7.09284">
        <ele>1273.1</ele>
        <time>2026-03-22T14:26:39Z</time>
      </trkpt>
      <trkpt lat="47.90306" lon="7.09284">
        <ele>1272.5</ele>
        <time>2026-03-22T14:26:44Z</time>
      </trkpt>
      <trkpt lat="47.90304" lon="7.09285">
        <ele>1272.2</ele>
        <time>2026-03-22T14:26:49Z</time>
      </trkpt>
      <trkpt lat="47.90301" lon="7.09285">
        <ele>1271.6</ele>
        <time>2026-03-22T14:26:54Z</time>
      </trkpt>
      <trkpt lat="47.90299" lon="7.09285">
        <ele>1271.1</ele>
        <time>2026-03-22T14:26:59Z</time>
      </trkpt>
      <trkpt lat="47.90296" lon="7.09283">
        <ele>1270</ele>
        <time>2026-03-22T14:27:04Z</time>
      </trkpt>
      <trkpt lat="47.90292" lon="7.09284">
        <ele>1269.3</ele>
        <time>2026-03-22T14:27:09Z</time>
      </trkpt>
      <trkpt lat="47.90289" lon="7.09287">
        <ele>1269.3</ele>
        <time>2026-03-22T14:27:14Z</time>
      </trkpt>
      <trkpt lat="47.90288" lon="7.09288">
        <ele>1269.3</ele>
        <time>2026-03-22T14:27:19Z</time>
      </trkpt>
      <trkpt lat="47.90284" lon="7.09286">
        <ele>1268</ele>
        <time>2026-03-22T14:27:24Z</time>
      </trkpt>
      <trkpt lat="47.90281" lon="7.09288">
        <ele>1267.8</ele>
        <time>2026-03-22T14:27:29Z</time>
      </trkpt>
      <trkpt lat="47.90279" lon="7.09289">
        <ele>1267.5</ele>
        <time>2026-03-22T14:27:34Z</time>
      </trkpt>
      <trkpt lat="47.90279" lon="7.09289">
        <ele>1267.5</ele>
        <time>2026-03-22T14:27:39Z</time>
      </trkpt>
      <trkpt lat="47.90279" lon="7.09289">
        <ele>1267.5</ele>
        <time>2026-03-22T14:27:44Z</time>
      </trkpt>
      <trkpt lat="47.90269" lon="7.0929">
        <ele>1265.5</ele>
        <time>2026-03-22T14:27:49Z</time>
      </trkpt>
      <trkpt lat="47.90268" lon="7.09291">
        <ele>1265.5</ele>
        <time>2026-03-22T14:27:54Z</time>
      </trkpt>
      <trkpt lat="47.90262" lon="7.09293">
        <ele>1264.5</ele>
        <time>2026-03-22T14:27:59Z</time>
      </trkpt>
      <trkpt lat="47.90258" lon="7.09293">
        <ele>1263.6</ele>
        <time>2026-03-22T14:28:04Z</time>
      </trkpt>
      <trkpt lat="47.90254" lon="7.09294">
        <ele>1262.9</ele>
        <time>2026-03-22T14:28:09Z</time>
      </trkpt>
      <trkpt lat="47.9025" lon="7.09295">
        <ele>1262.2</ele>
        <time>2026-03-22T14:28:14Z</time>
      </trkpt>
      <trkpt lat="47.90247" lon="7.09297">
        <ele>1261.2</ele>
        <time>2026-03-22T14:28:19Z</time>
      </trkpt>
      <trkpt lat="47.90246" lon="7.09298">
        <ele>1260.9</ele>
        <time>2026-03-22T14:28:24Z</time>
      </trkpt>
      <trkpt lat="47.90241" lon="7.09304">
        <ele>1259.8</ele>
        <time>2026-03-22T14:28:29Z</time>
      </trkpt>
      <trkpt lat="47.90238" lon="7.09306">
        <ele>1258.9</ele>
        <time>2026-03-22T14:28:34Z</time>
      </trkpt>
      <trkpt lat="47.90235" lon="7.0931">
        <ele>1258.3</ele>
        <time>2026-03-22T14:28:39Z</time>
      </trkpt>
      <trkpt lat="47.90235" lon="7.0931">
        <ele>1258.3</ele>
        <time>2026-03-22T14:28:44Z</time>
      </trkpt>
      <trkpt lat="47.90231" lon="7.09318">
        <ele>1258.2</ele>
        <time>2026-03-22T14:28:49Z</time>
      </trkpt>
      <trkpt lat="47.90229" lon="7.09321">
        <ele>1258</ele>
        <time>2026-03-22T14:28:54Z</time>
      </trkpt>
      <trkpt lat="47.90225" lon="7.09324">
        <ele>1256.8</ele>
        <time>2026-03-22T14:28:59Z</time>
      </trkpt>
      <trkpt lat="47.90225" lon="7.09324">
        <ele>1256.8</ele>
        <time>2026-03-22T14:29:04Z</time>
      </trkpt>
      <trkpt lat="47.90225" lon="7.09324">
        <ele>1256.8</ele>
        <time>2026-03-22T14:29:09Z</time>
      </trkpt>
      <trkpt lat="47.90217" lon="7.09334">
        <ele>1255.5</ele>
        <time>2026-03-22T14:29:14Z</time>
      </trkpt>
      <trkpt lat="47.90216" lon="7.09335">
        <ele>1255.3</ele>
        <time>2026-03-22T14:29:19Z</time>
      </trkpt>
      <trkpt lat="47.90211" lon="7.09342">
        <ele>1255</ele>
        <time>2026-03-22T14:29:24Z</time>
      </trkpt>
      <trkpt lat="47.90207" lon="7.09345">
        <ele>1254.2</ele>
        <time>2026-03-22T14:29:29Z</time>
      </trkpt>
      <trkpt lat="47.90205" lon="7.09348">
        <ele>1254.2</ele>
        <time>2026-03-22T14:29:34Z</time>
      </trkpt>
      <trkpt lat="47.90202" lon="7.09351">
        <ele>1253.8</ele>
        <time>2026-03-22T14:29:39Z</time>
      </trkpt>
      <trkpt lat="47.902" lon="7.09352">
        <ele>1253.3</ele>
        <time>2026-03-22T14:29:44Z</time>
      </trkpt>
      <trkpt lat="47.90196" lon="7.09359">
        <ele>1253.7</ele>
        <time>2026-03-22T14:29:49Z</time>
      </trkpt>
      <trkpt lat="47.90195" lon="7.09365">
        <ele>1255.2</ele>
        <time>2026-03-22T14:29:54Z</time>
      </trkpt>
      <trkpt lat="47.90194" lon="7.0937">
        <ele>1256.3</ele>
        <time>2026-03-22T14:29:59Z</time>
      </trkpt>
      <trkpt lat="47.90192" lon="7.09376">
        <ele>1257.4</ele>
        <time>2026-03-22T14:30:04Z</time>
      </trkpt>
      <trkpt lat="47.90191" lon="7.09381">
        <ele>1258.6</ele>
        <time>2026-03-22T14:30:09Z</time>
      </trkpt>
      <trkpt lat="47.90189" lon="7.09386">
        <ele>1259.5</ele>
        <time>2026-03-22T14:30:14Z</time>
      </trkpt>
      <trkpt lat="47.90188" lon="7.09394">
        <ele>1261.7</ele>
        <time>2026-03-22T14:30:19Z</time>
      </trkpt>
      <trkpt lat="47.90187" lon="7.09401">
        <ele>1263.6</ele>
        <time>2026-03-22T14:30:24Z</time>
      </trkpt>
      <trkpt lat="47.90185" lon="7.09407">
        <ele>1264.9</ele>
        <time>2026-03-22T14:30:29Z</time>
      </trkpt>
      <trkpt lat="47.90185" lon="7.09413">
        <ele>1266.9</ele>
        <time>2026-03-22T14:30:34Z</time>
      </trkpt>
      <trkpt lat="47.90185" lon="7.09421">
        <ele>1269.7</ele>
        <time>2026-03-22T14:30:39Z</time>
      </trkpt>
      <trkpt lat="47.90185" lon="7.09427">
        <ele>1272</ele>
        <time>2026-03-22T14:30:44Z</time>
      </trkpt>
      <trkpt lat="47.90186" lon="7.09431">
        <ele>1273.7</ele>
        <time>2026-03-22T14:30:49Z</time>
      </trkpt>
      <trkpt lat="47.90186" lon="7.09433">
        <ele>1274.5</ele>
        <time>2026-03-22T14:30:54Z</time>
      </trkpt>
      <trkpt lat="47.90187" lon="7.0944">
        <ele>1277.4</ele>
        <time>2026-03-22T14:30:59Z</time>
      </trkpt>
      <trkpt lat="47.90188" lon="7.09445">
        <ele>1279.5</ele>
        <time>2026-03-22T14:31:04Z</time>
      </trkpt>
      <trkpt lat="47.90189" lon="7.09445">
        <ele>1279.7</ele>
        <time>2026-03-22T14:31:09Z</time>
      </trkpt>
      <trkpt lat="47.90189" lon="7.09446">
        <ele>1280.1</ele>
        <time>2026-03-22T14:31:14Z</time>
      </trkpt>
      <trkpt lat="47.90189" lon="7.09452">
        <ele>1282.4</ele>
        <time>2026-03-22T14:31:19Z</time>
      </trkpt>
      <trkpt lat="47.90189" lon="7.09458">
        <ele>1284.6</ele>
        <time>2026-03-22T14:31:24Z</time>
      </trkpt>
      <trkpt lat="47.90188" lon="7.09463">
        <ele>1286.2</ele>
        <time>2026-03-22T14:31:29Z</time>
      </trkpt>
      <trkpt lat="47.90185" lon="7.09469">
        <ele>1287.8</ele>
        <time>2026-03-22T14:31:34Z</time>
      </trkpt>
      <trkpt lat="47.90181" lon="7.09474">
        <ele>1288.8</ele>
        <time>2026-03-22T14:31:39Z</time>
      </trkpt>
      <trkpt lat="47.90178" lon="7.09478">
        <ele>1289.7</ele>
        <time>2026-03-22T14:31:44Z</time>
      </trkpt>
      <trkpt lat="47.90176" lon="7.09483">
        <ele>1291.2</ele>
        <time>2026-03-22T14:31:49Z</time>
      </trkpt>
      <trkpt lat="47.90174" lon="7.09484">
        <ele>1291.2</ele>
        <time>2026-03-22T14:31:54Z</time>
      </trkpt>
      <trkpt lat="47.90174" lon="7.09484">
        <ele>1291.2</ele>
        <time>2026-03-22T14:31:59Z</time>
      </trkpt>
      <trkpt lat="47.90171" lon="7.09486">
        <ele>1291.3</ele>
        <time>2026-03-22T14:32:04Z</time>
      </trkpt>
      <trkpt lat="47.90171" lon="7.09486">
        <ele>1291.3</ele>
        <time>2026-03-22T14:32:09Z</time>
      </trkpt>
      <trkpt lat="47.90167" lon="7.0949">
        <ele>1292.1</ele>
        <time>2026-03-22T14:32:14Z</time>
      </trkpt>
      <trkpt lat="47.90164" lon="7.09494">
        <ele>1293.2</ele>
        <time>2026-03-22T14:32:19Z</time>
      </trkpt>
      <trkpt lat="47.90161" lon="7.09496">
        <ele>1293.6</ele>
        <time>2026-03-22T14:32:24Z</time>
      </trkpt>
      <trkpt lat="47.90158" lon="7.09498">
        <ele>1294</ele>
        <time>2026-03-22T14:32:29Z</time>
      </trkpt>
      <trkpt lat="47.90154" lon="7.095">
        <ele>1294.2</ele>
        <time>2026-03-22T14:32:34Z</time>
      </trkpt>
      <trkpt lat="47.9015" lon="7.095">
        <ele>1293.6</ele>
        <time>2026-03-22T14:32:39Z</time>
      </trkpt>
      <trkpt lat="47.90149" lon="7.095">
        <ele>1293.5</ele>
        <time>2026-03-22T14:32:44Z</time>
      </trkpt>
      <trkpt lat="47.90149" lon="7.09499">
        <ele>1293.1</ele>
        <time>2026-03-22T14:32:49Z</time>
      </trkpt>
      <trkpt lat="47.90149" lon="7.09499">
        <ele>1293.1</ele>
        <time>2026-03-22T14:32:54Z</time>
      </trkpt>
      <trkpt lat="47.90149" lon="7.09499">
        <ele>1293.1</ele>
        <time>2026-03-22T14:32:59Z</time>
      </trkpt>
      <trkpt lat="47.90149" lon="7.09499">
        <ele>1293.1</ele>
        <time>2026-03-22T14:33:04Z</time>
      </trkpt>
      <trkpt lat="47.90148" lon="7.09502">
        <ele>1294.1</ele>
        <time>2026-03-22T14:33:09Z</time>
      </trkpt>
      <trkpt lat="47.90147" lon="7.09504">
        <ele>1294.8</ele>
        <time>2026-03-22T14:33:14Z</time>
      </trkpt>
      <trkpt lat="47.90145" lon="7.09508">
        <ele>1296.1</ele>
        <time>2026-03-22T14:33:19Z</time>
      </trkpt>
      <trkpt lat="47.90141" lon="7.09508">
        <ele>1295.5</ele>
        <time>2026-03-22T14:33:24Z</time>
      </trkpt>
      <trkpt lat="47.90138" lon="7.09511">
        <ele>1296.3</ele>
        <time>2026-03-22T14:33:29Z</time>
      </trkpt>
      <trkpt lat="47.90134" lon="7.09512">
        <ele>1296</ele>
        <time>2026-03-22T14:33:34Z</time>
      </trkpt>
      <trkpt lat="47.90131" lon="7.09516">
        <ele>1297.1</ele>
        <time>2026-03-22T14:33:39Z</time>
      </trkpt>
      <trkpt lat="47.90127" lon="7.09518">
        <ele>1297.2</ele>
        <time>2026-03-22T14:33:44Z</time>
      </trkpt>
      <trkpt lat="47.90123" lon="7.09522">
        <ele>1298.1</ele>
        <time>2026-03-22T14:33:49Z</time>
      </trkpt>
      <trkpt lat="47.9012" lon="7.09525">
        <ele>1298.7</ele>
        <time>2026-03-22T14:33:54Z</time>
      </trkpt>
      <trkpt lat="47.90116" lon="7.09529">
        <ele>1299.5</ele>
        <time>2026-03-22T14:33:59Z</time>
      </trkpt>
      <trkpt lat="47.90112" lon="7.09531">
        <ele>1299.6</ele>
        <time>2026-03-22T14:34:04Z</time>
      </trkpt>
      <trkpt lat="47.90109" lon="7.09534">
        <ele>1300.1</ele>
        <time>2026-03-22T14:34:09Z</time>
      </trkpt>
      <trkpt lat="47.90107" lon="7.09538">
        <ele>1301.2</ele>
        <time>2026-03-22T14:34:14Z</time>
      </trkpt>
      <trkpt lat="47.90104" lon="7.09541">
        <ele>1301.7</ele>
        <time>2026-03-22T14:34:19Z</time>
      </trkpt>
      <trkpt lat="47.90101" lon="7.09544">
        <ele>1302.2</ele>
        <time>2026-03-22T14:34:24Z</time>
      </trkpt>
      <trkpt lat="47.90099" lon="7.09547">
        <ele>1302.9</ele>
        <time>2026-03-22T14:34:29Z</time>
      </trkpt>
      <trkpt lat="47.90097" lon="7.09548">
        <ele>1302.9</ele>
        <time>2026-03-22T14:34:34Z</time>
      </trkpt>
      <trkpt lat="47.90094" lon="7.09547">
        <ele>1301.9</ele>
        <time>2026-03-22T14:34:39Z</time>
      </trkpt>
      <trkpt lat="47.90092" lon="7.09549">
        <ele>1302.2</ele>
        <time>2026-03-22T14:34:44Z</time>
      </trkpt>
      <trkpt lat="47.90092" lon="7.09549">
        <ele>1302.2</ele>
        <time>2026-03-22T14:34:49Z</time>
      </trkpt>
      <trkpt lat="47.90092" lon="7.09549">
        <ele>1302.2</ele>
        <time>2026-03-22T14:34:54Z</time>
      </trkpt>
      <trkpt lat="47.90089" lon="7.09553">
        <ele>1303</ele>
        <time>2026-03-22T14:34:59Z</time>
      </trkpt>
      <trkpt lat="47.90086" lon="7.09554">
        <ele>1302.7</ele>
        <time>2026-03-22T14:35:04Z</time>
      </trkpt>
      <trkpt lat="47.90082" lon="7.09555">
        <ele>1302.2</ele>
        <time>2026-03-22T14:35:09Z</time>
      </trkpt>
      <trkpt lat="47.9008" lon="7.09558">
        <ele>1302.7</ele>
        <time>2026-03-22T14:35:14Z</time>
      </trkpt>
      <trkpt lat="47.90079" lon="7.09559">
        <ele>1302.8</ele>
        <time>2026-03-22T14:35:19Z</time>
      </trkpt>
      <trkpt lat="47.90078" lon="7.0956">
        <ele>1302.9</ele>
        <time>2026-03-22T14:35:24Z</time>
      </trkpt>
      <trkpt lat="47.90075" lon="7.09561">
        <ele>1302.5</ele>
        <time>2026-03-22T14:35:29Z</time>
      </trkpt>
      <trkpt lat="47.90072" lon="7.09562">
        <ele>1302.1</ele>
        <time>2026-03-22T14:35:34Z</time>
      </trkpt>
      <trkpt lat="47.90071" lon="7.09562">
        <ele>1301.9</ele>
        <time>2026-03-22T14:35:39Z</time>
      </trkpt>
      <trkpt lat="47.90066" lon="7.09564">
        <ele>1301.3</ele>
        <time>2026-03-22T14:35:44Z</time>
      </trkpt>
      <trkpt lat="47.90064" lon="7.09567">
        <ele>1301.9</ele>
        <time>2026-03-22T14:35:49Z</time>
      </trkpt>
      <trkpt lat="47.90061" lon="7.0957">
        <ele>1302.2</ele>
        <time>2026-03-22T14:35:54Z</time>
      </trkpt>
      <trkpt lat="47.90058" lon="7.09572">
        <ele>1302.1</ele>
        <time>2026-03-22T14:35:59Z</time>
      </trkpt>
      <trkpt lat="47.90054" lon="7.09574">
        <ele>1301.8</ele>
        <time>2026-03-22T14:36:04Z</time>
      </trkpt>
      <trkpt lat="47.9005" lon="7.09576">
        <ele>1301.5</ele>
        <time>2026-03-22T14:36:09Z</time>
      </trkpt>
      <trkpt lat="47.90047" lon="7.09578">
        <ele>1301.5</ele>
        <time>2026-03-22T14:36:14Z</time>
      </trkpt>
      <trkpt lat="47.90045" lon="7.09581">
        <ele>1302</ele>
        <time>2026-03-22T14:36:19Z</time>
      </trkpt>
      <trkpt lat="47.90042" lon="7.09583">
        <ele>1302</ele>
        <time>2026-03-22T14:36:24Z</time>
      </trkpt>
      <trkpt lat="47.9004" lon="7.09585">
        <ele>1302.1</ele>
        <time>2026-03-22T14:36:29Z</time>
      </trkpt>
      <trkpt lat="47.9004" lon="7.09589">
        <ele>1303.3</ele>
        <time>2026-03-22T14:36:34Z</time>
      </trkpt>
      <trkpt lat="47.9004" lon="7.09593">
        <ele>1304.5</ele>
        <time>2026-03-22T14:36:39Z</time>
      </trkpt>
      <trkpt lat="47.90039" lon="7.09595">
        <ele>1304.9</ele>
        <time>2026-03-22T14:36:44Z</time>
      </trkpt>
      <trkpt lat="47.90036" lon="7.09598">
        <ele>1305</ele>
        <time>2026-03-22T14:36:49Z</time>
      </trkpt>
      <trkpt lat="47.90036" lon="7.09599">
        <ele>1305.3</ele>
        <time>2026-03-22T14:36:54Z</time>
      </trkpt>
      <trkpt lat="47.90036" lon="7.09599">
        <ele>1305.3</ele>
        <time>2026-03-22T14:36:59Z</time>
      </trkpt>
      <trkpt lat="47.90033" lon="7.09607">
        <ele>1306.9</ele>
        <time>2026-03-22T14:37:04Z</time>
      </trkpt>
      <trkpt lat="47.9003" lon="7.0961">
        <ele>1307</ele>
        <time>2026-03-22T14:37:09Z</time>
      </trkpt>
      <trkpt lat="47.90028" lon="7.09614">
        <ele>1307.6</ele>
        <time>2026-03-22T14:37:14Z</time>
      </trkpt>
      <trkpt lat="47.90027" lon="7.09618">
        <ele>1308.4</ele>
        <time>2026-03-22T14:37:19Z</time>
      </trkpt>
      <trkpt lat="47.90025" lon="7.09621">
        <ele>1308.7</ele>
        <time>2026-03-22T14:37:24Z</time>
      </trkpt>
      <trkpt lat="47.90024" lon="7.09625">
        <ele>1309.6</ele>
        <time>2026-03-22T14:37:29Z</time>
      </trkpt>
      <trkpt lat="47.9002" lon="7.09627">
        <ele>1308.9</ele>
        <time>2026-03-22T14:37:34Z</time>
      </trkpt>
      <trkpt lat="47.90019" lon="7.09632">
        <ele>1310</ele>
        <time>2026-03-22T14:37:39Z</time>
      </trkpt>
      <trkpt lat="47.90017" lon="7.09636">
        <ele>1310.5</ele>
        <time>2026-03-22T14:37:44Z</time>
      </trkpt>
      <trkpt lat="47.90015" lon="7.09639">
        <ele>1310.7</ele>
        <time>2026-03-22T14:37:49Z</time>
      </trkpt>
      <trkpt lat="47.90014" lon="7.09644">
        <ele>1311.7</ele>
        <time>2026-03-22T14:37:54Z</time>
      </trkpt>
      <trkpt lat="47.90013" lon="7.09646">
        <ele>1312</ele>
        <time>2026-03-22T14:37:59Z</time>
      </trkpt>
      <trkpt lat="47.90013" lon="7.09646">
        <ele>1312</ele>
        <time>2026-03-22T14:38:04Z</time>
      </trkpt>
      <trkpt lat="47.90013" lon="7.09646">
        <ele>1312</ele>
        <time>2026-03-22T14:38:09Z</time>
      </trkpt>
      <trkpt lat="47.90013" lon="7.09646">
        <ele>1312</ele>
        <time>2026-03-22T14:38:14Z</time>
      </trkpt>
      <trkpt lat="47.90013" lon="7.09646">
        <ele>1312</ele>
        <time>2026-03-22T14:38:19Z</time>
      </trkpt>
      <trkpt lat="47.9001" lon="7.09645">
        <ele>1310.7</ele>
        <time>2026-03-22T14:38:24Z</time>
      </trkpt>
      <trkpt lat="47.90008" lon="7.09649">
        <ele>1311.1</ele>
        <time>2026-03-22T14:38:29Z</time>
      </trkpt>
      <trkpt lat="47.90005" lon="7.09654">
        <ele>1311.5</ele>
        <time>2026-03-22T14:38:34Z</time>
      </trkpt>
      <trkpt lat="47.90002" lon="7.0966">
        <ele>1312</ele>
        <time>2026-03-22T14:38:39Z</time>
      </trkpt>
      <trkpt lat="47.9" lon="7.09666">
        <ele>1312.8</ele>
        <time>2026-03-22T14:38:44Z</time>
      </trkpt>
      <trkpt lat="47.89999" lon="7.0967">
        <ele>1313.7</ele>
        <time>2026-03-22T14:38:49Z</time>
      </trkpt>
      <trkpt lat="47.89999" lon="7.09673">
        <ele>1314.6</ele>
        <time>2026-03-22T14:38:54Z</time>
      </trkpt>
      <trkpt lat="47.89999" lon="7.09675">
        <ele>1315.2</ele>
        <time>2026-03-22T14:38:59Z</time>
      </trkpt>
      <trkpt lat="47.89999" lon="7.09677">
        <ele>1315.8</ele>
        <time>2026-03-22T14:39:04Z</time>
      </trkpt>
      <trkpt lat="47.89999" lon="7.09677">
        <ele>1315.8</ele>
        <time>2026-03-22T14:39:09Z</time>
      </trkpt>
      <trkpt lat="47.89999" lon="7.09677">
        <ele>1315.8</ele>
        <time>2026-03-22T14:39:14Z</time>
      </trkpt>
      <trkpt lat="47.89994" lon="7.09687">
        <ele>1317</ele>
        <time>2026-03-22T14:39:19Z</time>
      </trkpt>
      <trkpt lat="47.89993" lon="7.0969">
        <ele>1317.5</ele>
        <time>2026-03-22T14:39:24Z</time>
      </trkpt>
      <trkpt lat="47.89991" lon="7.09694">
        <ele>1318</ele>
        <time>2026-03-22T14:39:29Z</time>
      </trkpt>
      <trkpt lat="47.89989" lon="7.09698">
        <ele>1318.4</ele>
        <time>2026-03-22T14:39:34Z</time>
      </trkpt>
      <trkpt lat="47.89986" lon="7.09701">
        <ele>1318.2</ele>
        <time>2026-03-22T14:39:39Z</time>
      </trkpt>
      <trkpt lat="47.89983" lon="7.09705">
        <ele>1318.2</ele>
        <time>2026-03-22T14:39:44Z</time>
      </trkpt>
      <trkpt lat="47.89983" lon="7.09708">
        <ele>1319.1</ele>
        <time>2026-03-22T14:39:49Z</time>
      </trkpt>
      <trkpt lat="47.89982" lon="7.09712">
        <ele>1319.8</ele>
        <time>2026-03-22T14:39:54Z</time>
      </trkpt>
      <trkpt lat="47.89981" lon="7.09715">
        <ele>1320.3</ele>
        <time>2026-03-22T14:39:59Z</time>
      </trkpt>
      <trkpt lat="47.89979" lon="7.09717">
        <ele>1320.1</ele>
        <time>2026-03-22T14:40:04Z</time>
      </trkpt>
      <trkpt lat="47.89978" lon="7.09721">
        <ele>1320.8</ele>
        <time>2026-03-22T14:40:09Z</time>
      </trkpt>
      <trkpt lat="47.89977" lon="7.09725">
        <ele>1321.5</ele>
        <time>2026-03-22T14:40:14Z</time>
      </trkpt>
      <trkpt lat="47.89975" lon="7.09728">
        <ele>1321.5</ele>
        <time>2026-03-22T14:40:19Z</time>
      </trkpt>
      <trkpt lat="47.89972" lon="7.09732">
        <ele>1321.4</ele>
        <time>2026-03-22T14:40:24Z</time>
      </trkpt>
      <trkpt lat="47.89969" lon="7.09737">
        <ele>1321.5</ele>
        <time>2026-03-22T14:40:29Z</time>
      </trkpt>
      <trkpt lat="47.89968" lon="7.09741">
        <ele>1322.2</ele>
        <time>2026-03-22T14:40:34Z</time>
      </trkpt>
      <trkpt lat="47.89966" lon="7.09744">
        <ele>1322.2</ele>
        <time>2026-03-22T14:40:39Z</time>
      </trkpt>
      <trkpt lat="47.89964" lon="7.09749">
        <ele>1322.6</ele>
        <time>2026-03-22T14:40:44Z</time>
      </trkpt>
      <trkpt lat="47.89963" lon="7.09753">
        <ele>1323.2</ele>
        <time>2026-03-22T14:40:49Z</time>
      </trkpt>
      <trkpt lat="47.8996" lon="7.09755">
        <ele>1322.4</ele>
        <time>2026-03-22T14:40:54Z</time>
      </trkpt>
      <trkpt lat="47.89956" lon="7.09759">
        <ele>1321.7</ele>
        <time>2026-03-22T14:40:59Z</time>
      </trkpt>
      <trkpt lat="47.89956" lon="7.0976">
        <ele>1321.9</ele>
        <time>2026-03-22T14:41:04Z</time>
      </trkpt>
      <trkpt lat="47.89956" lon="7.09761">
        <ele>1322.1</ele>
        <time>2026-03-22T14:41:09Z</time>
      </trkpt>
      <trkpt lat="47.89956" lon="7.09761">
        <ele>1322.1</ele>
        <time>2026-03-22T14:41:14Z</time>
      </trkpt>
      <trkpt lat="47.89954" lon="7.09763">
        <ele>1321.8</ele>
        <time>2026-03-22T14:41:19Z</time>
      </trkpt>
      <trkpt lat="47.89952" lon="7.09767">
        <ele>1321.9</ele>
        <time>2026-03-22T14:41:24Z</time>
      </trkpt>
      <trkpt lat="47.8995" lon="7.09769">
        <ele>1321.5</ele>
        <time>2026-03-22T14:41:29Z</time>
      </trkpt>
      <trkpt lat="47.8995" lon="7.09773">
        <ele>1322.4</ele>
        <time>2026-03-22T14:41:34Z</time>
      </trkpt>
      <trkpt lat="47.89949" lon="7.09777">
        <ele>1322.9</ele>
        <time>2026-03-22T14:41:39Z</time>
      </trkpt>
      <trkpt lat="47.89947" lon="7.09781">
        <ele>1323</ele>
        <time>2026-03-22T14:41:44Z</time>
      </trkpt>
      <trkpt lat="47.89944" lon="7.09786">
        <ele>1322.8</ele>
        <time>2026-03-22T14:41:49Z</time>
      </trkpt>
      <trkpt lat="47.89942" lon="7.09791">
        <ele>1323.1</ele>
        <time>2026-03-22T14:41:54Z</time>
      </trkpt>
      <trkpt lat="47.89941" lon="7.09795">
        <ele>1323.6</ele>
        <time>2026-03-22T14:41:59Z</time>
      </trkpt>
      <trkpt lat="47.8994" lon="7.09799">
        <ele>1324</ele>
        <time>2026-03-22T14:42:04Z</time>
      </trkpt>
      <trkpt lat="47.89939" lon="7.09802">
        <ele>1324.3</ele>
        <time>2026-03-22T14:42:09Z</time>
      </trkpt>
      <trkpt lat="47.89938" lon="7.09806">
        <ele>1324.7</ele>
        <time>2026-03-22T14:42:14Z</time>
      </trkpt>
      <trkpt lat="47.89937" lon="7.09811">
        <ele>1325.4</ele>
        <time>2026-03-22T14:42:19Z</time>
      </trkpt>
      <trkpt lat="47.89936" lon="7.09815">
        <ele>1325.9</ele>
        <time>2026-03-22T14:42:24Z</time>
      </trkpt>
      <trkpt lat="47.89934" lon="7.09818">
        <ele>1325.6</ele>
        <time>2026-03-22T14:42:29Z</time>
      </trkpt>
      <trkpt lat="47.89932" lon="7.09823">
        <ele>1325.9</ele>
        <time>2026-03-22T14:42:34Z</time>
      </trkpt>
      <trkpt lat="47.89932" lon="7.09826">
        <ele>1326.5</ele>
        <time>2026-03-22T14:42:39Z</time>
      </trkpt>
      <trkpt lat="47.89931" lon="7.0983">
        <ele>1327</ele>
        <time>2026-03-22T14:42:44Z</time>
      </trkpt>
      <trkpt lat="47.8993" lon="7.09834">
        <ele>1327.3</ele>
        <time>2026-03-22T14:42:49Z</time>
      </trkpt>
      <trkpt lat="47.89929" lon="7.09838">
        <ele>1327.4</ele>
        <time>2026-03-22T14:42:54Z</time>
      </trkpt>
      <trkpt lat="47.89928" lon="7.09842">
        <ele>1327.4</ele>
        <time>2026-03-22T14:42:59Z</time>
      </trkpt>
      <trkpt lat="47.89927" lon="7.09844">
        <ele>1327.2</ele>
        <time>2026-03-22T14:43:04Z</time>
      </trkpt>
      <trkpt lat="47.89926" lon="7.09844">
        <ele>1326.7</ele>
        <time>2026-03-22T14:43:09Z</time>
      </trkpt>
      <trkpt lat="47.89925" lon="7.09849">
        <ele>1326.8</ele>
        <time>2026-03-22T14:43:14Z</time>
      </trkpt>
      <trkpt lat="47.89925" lon="7.09849">
        <ele>1326.8</ele>
        <time>2026-03-22T14:43:19Z</time>
      </trkpt>
      <trkpt lat="47.89925" lon="7.09849">
        <ele>1326.8</ele>
        <time>2026-03-22T14:43:24Z</time>
      </trkpt>
      <trkpt lat="47.89925" lon="7.09849">
        <ele>1326.8</ele>
        <time>2026-03-22T14:43:29Z</time>
      </trkpt>
      <trkpt lat="47.89925" lon="7.09849">
        <ele>1326.8</ele>
        <time>2026-03-22T14:43:34Z</time>
      </trkpt>
      <trkpt lat="47.89925" lon="7.09849">
        <ele>1326.8</ele>
        <time>2026-03-22T14:43:39Z</time>
      </trkpt>
      <trkpt lat="47.89925" lon="7.09849">
        <ele>1326.8</ele>
        <time>2026-03-22T14:43:44Z</time>
      </trkpt>
      <trkpt lat="47.89925" lon="7.09849">
        <ele>1326.8</ele>
        <time>2026-03-22T14:43:49Z</time>
      </trkpt>
      <trkpt lat="47.89925" lon="7.09849">
        <ele>1326.8</ele>
        <time>2026-03-22T14:43:54Z</time>
      </trkpt>
      <trkpt lat="47.89925" lon="7.09849">
        <ele>1326.8</ele>
        <time>2026-03-22T14:43:59Z</time>
      </trkpt>
      <trkpt lat="47.89925" lon="7.09849">
        <ele>1326.8</ele>
        <time>2026-03-22T14:44:04Z</time>
      </trkpt>
      <trkpt lat="47.89925" lon="7.09849">
        <ele>1326.8</ele>
        <time>2026-03-22T14:44:09Z</time>
      </trkpt>
      <trkpt lat="47.89925" lon="7.09849">
        <ele>1326.8</ele>
        <time>2026-03-22T14:44:14Z</time>
      </trkpt>
      <trkpt lat="47.89925" lon="7.09849">
        <ele>1326.8</ele>
        <time>2026-03-22T14:44:19Z</time>
      </trkpt>
      <trkpt lat="47.89925" lon="7.09849">
        <ele>1326.8</ele>
        <time>2026-03-22T14:44:24Z</time>
      </trkpt>
      <trkpt lat="47.89923" lon="7.09857">
        <ele>1326.9</ele>
        <time>2026-03-22T14:44:29Z</time>
      </trkpt>
      <trkpt lat="47.89922" lon="7.0986">
        <ele>1326.8</ele>
        <time>2026-03-22T14:44:34Z</time>
      </trkpt>
      <trkpt lat="47.8992" lon="7.09865">
        <ele>1326.4</ele>
        <time>2026-03-22T14:44:39Z</time>
      </trkpt>
      <trkpt lat="47.89919" lon="7.09869">
        <ele>1326.4</ele>
        <time>2026-03-22T14:44:44Z</time>
      </trkpt>
      <trkpt lat="47.89918" lon="7.09874">
        <ele>1326.5</ele>
        <time>2026-03-22T14:44:49Z</time>
      </trkpt>
      <trkpt lat="47.89917" lon="7.09878">
        <ele>1326.5</ele>
        <time>2026-03-22T14:44:54Z</time>
      </trkpt>
      <trkpt lat="47.89914" lon="7.09883">
        <ele>1325.6</ele>
        <time>2026-03-22T14:44:59Z</time>
      </trkpt>
      <trkpt lat="47.89912" lon="7.09887">
        <ele>1325.1</ele>
        <time>2026-03-22T14:45:04Z</time>
      </trkpt>
      <trkpt lat="47.89911" lon="7.09888">
        <ele>1324.7</ele>
        <time>2026-03-22T14:45:09Z</time>
      </trkpt>
      <trkpt lat="47.89911" lon="7.09888">
        <ele>1324.7</ele>
        <time>2026-03-22T14:45:14Z</time>
      </trkpt>
      <trkpt lat="47.89911" lon="7.09888">
        <ele>1324.7</ele>
        <time>2026-03-22T14:45:19Z</time>
      </trkpt>
      <trkpt lat="47.89911" lon="7.09888">
        <ele>1324.7</ele>
        <time>2026-03-22T14:45:24Z</time>
      </trkpt>
      <trkpt lat="47.89909" lon="7.09895">
        <ele>1324.6</ele>
        <time>2026-03-22T14:45:29Z</time>
      </trkpt>
      <trkpt lat="47.89907" lon="7.099">
        <ele>1324.2</ele>
        <time>2026-03-22T14:45:34Z</time>
      </trkpt>
      <trkpt lat="47.89906" lon="7.09906">
        <ele>1324.4</ele>
        <time>2026-03-22T14:45:39Z</time>
      </trkpt>
      <trkpt lat="47.89905" lon="7.09912">
        <ele>1324.7</ele>
        <time>2026-03-22T14:45:44Z</time>
      </trkpt>
      <trkpt lat="47.89905" lon="7.09916">
        <ele>1325.2</ele>
        <time>2026-03-22T14:45:49Z</time>
      </trkpt>
      <trkpt lat="47.89903" lon="7.09919">
        <ele>1324.4</ele>
        <time>2026-03-22T14:45:54Z</time>
      </trkpt>
      <trkpt lat="47.89901" lon="7.09923">
        <ele>1323.5</ele>
        <time>2026-03-22T14:45:59Z</time>
      </trkpt>
      <trkpt lat="47.89902" lon="7.09924">
        <ele>1324.1</ele>
        <time>2026-03-22T14:46:04Z</time>
      </trkpt>
      <trkpt lat="47.89902" lon="7.09924">
        <ele>1324.1</ele>
        <time>2026-03-22T14:46:09Z</time>
      </trkpt>
      <trkpt lat="47.89903" lon="7.09929">
        <ele>1324.8</ele>
        <time>2026-03-22T14:46:14Z</time>
      </trkpt>
      <trkpt lat="47.89906" lon="7.09931">
        <ele>1326.3</ele>
        <time>2026-03-22T14:46:19Z</time>
      </trkpt>
      <trkpt lat="47.89908" lon="7.09934">
        <ele>1327.4</ele>
        <time>2026-03-22T14:46:24Z</time>
      </trkpt>
      <trkpt lat="47.89911" lon="7.09937">
        <ele>1329</ele>
        <time>2026-03-22T14:46:29Z</time>
      </trkpt>
      <trkpt lat="47.89914" lon="7.0994">
        <ele>1330.5</ele>
        <time>2026-03-22T14:46:34Z</time>
      </trkpt>
      <trkpt lat="47.89917" lon="7.09942">
        <ele>1332.1</ele>
        <time>2026-03-22T14:46:39Z</time>
      </trkpt>
      <trkpt lat="47.8992" lon="7.09945">
        <ele>1333.6</ele>
        <time>2026-03-22T14:46:44Z</time>
      </trkpt>
      <trkpt lat="47.89923" lon="7.09949">
        <ele>1335.2</ele>
        <time>2026-03-22T14:46:49Z</time>
      </trkpt>
      <trkpt lat="47.89925" lon="7.09952">
        <ele>1336.2</ele>
        <time>2026-03-22T14:46:54Z</time>
      </trkpt>
      <trkpt lat="47.89928" lon="7.09955">
        <ele>1337.7</ele>
        <time>2026-03-22T14:46:59Z</time>
      </trkpt>
      <trkpt lat="47.89932" lon="7.09959">
        <ele>1339.7</ele>
        <time>2026-03-22T14:47:04Z</time>
      </trkpt>
      <trkpt lat="47.89934" lon="7.09962">
        <ele>1340.7</ele>
        <time>2026-03-22T14:47:09Z</time>
      </trkpt>
      <trkpt lat="47.89936" lon="7.09963">
        <ele>1341.6</ele>
        <time>2026-03-22T14:47:14Z</time>
      </trkpt>
      <trkpt lat="47.89936" lon="7.09963">
        <ele>1341.6</ele>
        <time>2026-03-22T14:47:19Z</time>
      </trkpt>
      <trkpt lat="47.89938" lon="7.09966">
        <ele>1342.6</ele>
        <time>2026-03-22T14:47:24Z</time>
      </trkpt>
      <trkpt lat="47.89941" lon="7.0997">
        <ele>1344.1</ele>
        <time>2026-03-22T14:47:29Z</time>
      </trkpt>
      <trkpt lat="47.89944" lon="7.09973">
        <ele>1345.5</ele>
        <time>2026-03-22T14:47:34Z</time>
      </trkpt>
      <trkpt lat="47.89945" lon="7.09976">
        <ele>1346</ele>
        <time>2026-03-22T14:47:39Z</time>
      </trkpt>
      <trkpt lat="47.89947" lon="7.09979">
        <ele>1346.9</ele>
        <time>2026-03-22T14:47:44Z</time>
      </trkpt>
      <trkpt lat="47.89949" lon="7.09982">
        <ele>1347.8</ele>
        <time>2026-03-22T14:47:49Z</time>
      </trkpt>
      <trkpt lat="47.89951" lon="7.09986">
        <ele>1348.7</ele>
        <time>2026-03-22T14:47:54Z</time>
      </trkpt>
      <trkpt lat="47.89953" lon="7.09989">
        <ele>1349.6</ele>
        <time>2026-03-22T14:47:59Z</time>
      </trkpt>
      <trkpt lat="47.89955" lon="7.09991">
        <ele>1350.5</ele>
        <time>2026-03-22T14:48:04Z</time>
      </trkpt>
      <trkpt lat="47.89957" lon="7.09992">
        <ele>1351.4</ele>
        <time>2026-03-22T14:48:09Z</time>
      </trkpt>
      <trkpt lat="47.89959" lon="7.09994">
        <ele>1352.3</ele>
        <time>2026-03-22T14:48:14Z</time>
      </trkpt>
      <trkpt lat="47.89959" lon="7.09994">
        <ele>1352.3</ele>
        <time>2026-03-22T14:48:19Z</time>
      </trkpt>
      <trkpt lat="47.89959" lon="7.09994">
        <ele>1352.3</ele>
        <time>2026-03-22T14:48:24Z</time>
      </trkpt>
      <trkpt lat="47.89959" lon="7.09994">
        <ele>1352.3</ele>
        <time>2026-03-22T14:48:29Z</time>
      </trkpt>
      <trkpt lat="47.89959" lon="7.09994">
        <ele>1352.3</ele>
        <time>2026-03-22T14:48:34Z</time>
      </trkpt>
      <trkpt lat="47.89959" lon="7.09994">
        <ele>1352.3</ele>
        <time>2026-03-22T14:48:39Z</time>
      </trkpt>
      <trkpt lat="47.89962" lon="7.09994">
        <ele>1353.6</ele>
        <time>2026-03-22T14:48:44Z</time>
      </trkpt>
      <trkpt lat="47.89963" lon="7.09996">
        <ele>1354</ele>
        <time>2026-03-22T14:48:49Z</time>
      </trkpt>
      <trkpt lat="47.89966" lon="7.09998">
        <ele>1355.3</ele>
        <time>2026-03-22T14:48:54Z</time>
      </trkpt>
      <trkpt lat="47.89969" lon="7.09998">
        <ele>1356.6</ele>
        <time>2026-03-22T14:48:59Z</time>
      </trkpt>
      <trkpt lat="47.89973" lon="7.09998">
        <ele>1358.4</ele>
        <time>2026-03-22T14:49:04Z</time>
      </trkpt>
      <trkpt lat="47.89975" lon="7.09998">
        <ele>1359.2</ele>
        <time>2026-03-22T14:49:09Z</time>
      </trkpt>
      <trkpt lat="47.89976" lon="7.09998">
        <ele>1359.7</ele>
        <time>2026-03-22T14:49:14Z</time>
      </trkpt>
      <trkpt lat="47.89979" lon="7.09997">
        <ele>1361</ele>
        <time>2026-03-22T14:49:19Z</time>
      </trkpt>
      <trkpt lat="47.89982" lon="7.09997">
        <ele>1362.3</ele>
        <time>2026-03-22T14:49:24Z</time>
      </trkpt>
      <trkpt lat="47.89985" lon="7.09997">
        <ele>1363.6</ele>
        <time>2026-03-22T14:49:29Z</time>
      </trkpt>
      <trkpt lat="47.89988" lon="7.09998">
        <ele>1364.9</ele>
        <time>2026-03-22T14:49:34Z</time>
      </trkpt>
      <trkpt lat="47.89991" lon="7.09997">
        <ele>1366.2</ele>
        <time>2026-03-22T14:49:39Z</time>
      </trkpt>
      <trkpt lat="47.89994" lon="7.09997">
        <ele>1367.5</ele>
        <time>2026-03-22T14:49:44Z</time>
      </trkpt>
      <trkpt lat="47.89996" lon="7.09995">
        <ele>1368.4</ele>
        <time>2026-03-22T14:49:49Z</time>
      </trkpt>
      <trkpt lat="47.89998" lon="7.09994">
        <ele>1369.3</ele>
        <time>2026-03-22T14:49:54Z</time>
      </trkpt>
      <trkpt lat="47.90001" lon="7.09992">
        <ele>1370.5</ele>
        <time>2026-03-22T14:49:59Z</time>
      </trkpt>
      <trkpt lat="47.90004" lon="7.09991">
        <ele>1371.2</ele>
        <time>2026-03-22T14:50:04Z</time>
      </trkpt>
      <trkpt lat="47.90006" lon="7.0999">
        <ele>1371.7</ele>
        <time>2026-03-22T14:50:09Z</time>
      </trkpt>
      <trkpt lat="47.90008" lon="7.09988">
        <ele>1372.3</ele>
        <time>2026-03-22T14:50:14Z</time>
      </trkpt>
      <trkpt lat="47.90009" lon="7.09985">
        <ele>1372.6</ele>
        <time>2026-03-22T14:50:19Z</time>
      </trkpt>
      <trkpt lat="47.90012" lon="7.09982">
        <ele>1373.5</ele>
        <time>2026-03-22T14:50:24Z</time>
      </trkpt>
      <trkpt lat="47.90015" lon="7.09981">
        <ele>1374.2</ele>
        <time>2026-03-22T14:50:29Z</time>
      </trkpt>
      <trkpt lat="47.90018" lon="7.0998">
        <ele>1375</ele>
        <time>2026-03-22T14:50:34Z</time>
      </trkpt>
      <trkpt lat="47.90021" lon="7.09979">
        <ele>1375.7</ele>
        <time>2026-03-22T14:50:39Z</time>
      </trkpt>
      <trkpt lat="47.90022" lon="7.09976">
        <ele>1376.1</ele>
        <time>2026-03-22T14:50:44Z</time>
      </trkpt>
      <trkpt lat="47.90023" lon="7.09973">
        <ele>1376.6</ele>
        <time>2026-03-22T14:50:49Z</time>
      </trkpt>
      <trkpt lat="47.90024" lon="7.0997">
        <ele>1377</ele>
        <time>2026-03-22T14:50:54Z</time>
      </trkpt>
      <trkpt lat="47.90025" lon="7.09968">
        <ele>1377.4</ele>
        <time>2026-03-22T14:50:59Z</time>
      </trkpt>
      <trkpt lat="47.90025" lon="7.09968">
        <ele>1377.4</ele>
        <time>2026-03-22T14:51:04Z</time>
      </trkpt>
      <trkpt lat="47.90024" lon="7.09963">
        <ele>1377.4</ele>
        <time>2026-03-22T14:51:09Z</time>
      </trkpt>
      <trkpt lat="47.90021" lon="7.09959">
        <ele>1376.9</ele>
        <time>2026-03-22T14:51:14Z</time>
      </trkpt>
      <trkpt lat="47.90019" lon="7.09955">
        <ele>1376.6</ele>
        <time>2026-03-22T14:51:19Z</time>
      </trkpt>
      <trkpt lat="47.90017" lon="7.09951">
        <ele>1376.3</ele>
        <time>2026-03-22T14:51:24Z</time>
      </trkpt>
      <trkpt lat="47.90016" lon="7.09947">
        <ele>1376.2</ele>
        <time>2026-03-22T14:51:29Z</time>
      </trkpt>
      <trkpt lat="47.90016" lon="7.09942">
        <ele>1376.5</ele>
        <time>2026-03-22T14:51:34Z</time>
      </trkpt>
      <trkpt lat="47.90017" lon="7.09938">
        <ele>1377</ele>
        <time>2026-03-22T14:51:39Z</time>
      </trkpt>
      <trkpt lat="47.90016" lon="7.09934">
        <ele>1376.9</ele>
        <time>2026-03-22T14:51:44Z</time>
      </trkpt>
      <trkpt lat="47.90016" lon="7.0993">
        <ele>1377.1</ele>
        <time>2026-03-22T14:51:49Z</time>
      </trkpt>
      <trkpt lat="47.90016" lon="7.09925">
        <ele>1377.4</ele>
        <time>2026-03-22T14:51:54Z</time>
      </trkpt>
      <trkpt lat="47.90018" lon="7.09919">
        <ele>1378.3</ele>
        <time>2026-03-22T14:51:59Z</time>
      </trkpt>
      <trkpt lat="47.90018" lon="7.09914">
        <ele>1378</ele>
        <time>2026-03-22T14:52:04Z</time>
      </trkpt>
      <trkpt lat="47.90018" lon="7.09907">
        <ele>1377</ele>
        <time>2026-03-22T14:52:09Z</time>
      </trkpt>
      <trkpt lat="47.90019" lon="7.09903">
        <ele>1376.7</ele>
        <time>2026-03-22T14:52:14Z</time>
      </trkpt>
      <trkpt lat="47.90019" lon="7.099">
        <ele>1376.3</ele>
        <time>2026-03-22T14:52:19Z</time>
      </trkpt>
      <trkpt lat="47.90019" lon="7.099">
        <ele>1376.3</ele>
        <time>2026-03-22T14:52:24Z</time>
      </trkpt>
      <trkpt lat="47.9002" lon="7.09901">
        <ele>1376.7</ele>
        <time>2026-03-22T14:52:29Z</time>
      </trkpt>
      <trkpt lat="47.90022" lon="7.09903">
        <ele>1377.6</ele>
        <time>2026-03-22T14:52:34Z</time>
      </trkpt>
      <trkpt lat="47.90025" lon="7.09901">
        <ele>1378.3</ele>
        <time>2026-03-22T14:52:39Z</time>
      </trkpt>
      <trkpt lat="47.90026" lon="7.099">
        <ele>1378.4</ele>
        <time>2026-03-22T14:52:44Z</time>
      </trkpt>
      <trkpt lat="47.90028" lon="7.09901">
        <ele>1379.2</ele>
        <time>2026-03-22T14:52:49Z</time>
      </trkpt>
      <trkpt lat="47.90031" lon="7.09907">
        <ele>1381</ele>
        <time>2026-03-22T14:52:54Z</time>
      </trkpt>
      <trkpt lat="47.90032" lon="7.09911">
        <ele>1381.8</ele>
        <time>2026-03-22T14:52:59Z</time>
      </trkpt>
      <trkpt lat="47.90038" lon="7.09911">
        <ele>1383.6</ele>
        <time>2026-03-22T14:53:04Z</time>
      </trkpt>
      <trkpt lat="47.90042" lon="7.09908">
        <ele>1384.5</ele>
        <time>2026-03-22T14:53:09Z</time>
      </trkpt>
      <trkpt lat="47.90045" lon="7.09906">
        <ele>1385.1</ele>
        <time>2026-03-22T14:53:14Z</time>
      </trkpt>
      <trkpt lat="47.90048" lon="7.09902">
        <ele>1385.5</ele>
        <time>2026-03-22T14:53:19Z</time>
      </trkpt>
      <trkpt lat="47.90052" lon="7.09897">
        <ele>1386.1</ele>
        <time>2026-03-22T14:53:24Z</time>
      </trkpt>
      <trkpt lat="47.90056" lon="7.09894">
        <ele>1387</ele>
        <time>2026-03-22T14:53:29Z</time>
      </trkpt>
      <trkpt lat="47.90058" lon="7.09891">
        <ele>1387.3</ele>
        <time>2026-03-22T14:53:34Z</time>
      </trkpt>
      <trkpt lat="47.90061" lon="7.09888">
        <ele>1387.8</ele>
        <time>2026-03-22T14:53:39Z</time>
      </trkpt>
      <trkpt lat="47.90064" lon="7.09886">
        <ele>1388.5</ele>
        <time>2026-03-22T14:53:44Z</time>
      </trkpt>
      <trkpt lat="47.90067" lon="7.09885">
        <ele>1389.4</ele>
        <time>2026-03-22T14:53:49Z</time>
      </trkpt>
      <trkpt lat="47.9007" lon="7.09882">
        <ele>1390</ele>
        <time>2026-03-22T14:53:54Z</time>
      </trkpt>
      <trkpt lat="47.90074" lon="7.09881">
        <ele>1391.2</ele>
        <time>2026-03-22T14:53:59Z</time>
      </trkpt>
      <trkpt lat="47.90077" lon="7.09878">
        <ele>1391.8</ele>
        <time>2026-03-22T14:54:04Z</time>
      </trkpt>
      <trkpt lat="47.9008" lon="7.09875">
        <ele>1392.4</ele>
        <time>2026-03-22T14:54:09Z</time>
      </trkpt>
      <trkpt lat="47.90084" lon="7.09871">
        <ele>1393.2</ele>
        <time>2026-03-22T14:54:14Z</time>
      </trkpt>
      <trkpt lat="47.90087" lon="7.09865">
        <ele>1393.3</ele>
        <time>2026-03-22T14:54:19Z</time>
      </trkpt>
      <trkpt lat="47.90091" lon="7.09862">
        <ele>1394</ele>
        <time>2026-03-22T14:54:24Z</time>
      </trkpt>
      <trkpt lat="47.90094" lon="7.09856">
        <ele>1394.2</ele>
        <time>2026-03-22T14:54:29Z</time>
      </trkpt>
      <trkpt lat="47.90097" lon="7.09851">
        <ele>1394.5</ele>
        <time>2026-03-22T14:54:34Z</time>
      </trkpt>
      <trkpt lat="47.901" lon="7.09848">
        <ele>1395.1</ele>
        <time>2026-03-22T14:54:39Z</time>
      </trkpt>
      <trkpt lat="47.90103" lon="7.09845">
        <ele>1395.6</ele>
        <time>2026-03-22T14:54:44Z</time>
      </trkpt>
      <trkpt lat="47.90109" lon="7.09844">
        <ele>1397.2</ele>
        <time>2026-03-22T14:54:49Z</time>
      </trkpt>
      <trkpt lat="47.90112" lon="7.09845">
        <ele>1398.1</ele>
        <time>2026-03-22T14:54:54Z</time>
      </trkpt>
      <trkpt lat="47.90116" lon="7.09846">
        <ele>1399.2</ele>
        <time>2026-03-22T14:54:59Z</time>
      </trkpt>
      <trkpt lat="47.9012" lon="7.09846">
        <ele>1400.3</ele>
        <time>2026-03-22T14:55:04Z</time>
      </trkpt>
      <trkpt lat="47.9012" lon="7.09841">
        <ele>1400</ele>
        <time>2026-03-22T14:55:09Z</time>
      </trkpt>
      <trkpt lat="47.90119" lon="7.09836">
        <ele>1399.4</ele>
        <time>2026-03-22T14:55:14Z</time>
      </trkpt>
      <trkpt lat="47.90116" lon="7.09833">
        <ele>1398.3</ele>
        <time>2026-03-22T14:55:19Z</time>
      </trkpt>
      <trkpt lat="47.90113" lon="7.09832">
        <ele>1397.2</ele>
        <time>2026-03-22T14:55:24Z</time>
      </trkpt>
      <trkpt lat="47.90113" lon="7.09831">
        <ele>1396.9</ele>
        <time>2026-03-22T14:55:29Z</time>
      </trkpt>
      <trkpt lat="47.90113" lon="7.09831">
        <ele>1396.9</ele>
        <time>2026-03-22T14:55:34Z</time>
      </trkpt>
      <trkpt lat="47.90113" lon="7.09831">
        <ele>1396.9</ele>
        <time>2026-03-22T14:55:39Z</time>
      </trkpt>
      <trkpt lat="47.90113" lon="7.09831">
        <ele>1396.9</ele>
        <time>2026-03-22T14:55:44Z</time>
      </trkpt>
      <trkpt lat="47.90113" lon="7.09831">
        <ele>1396.9</ele>
        <time>2026-03-22T14:55:49Z</time>
      </trkpt>
      <trkpt lat="47.90113" lon="7.09831">
        <ele>1396.9</ele>
        <time>2026-03-22T14:55:54Z</time>
      </trkpt>
      <trkpt lat="47.90113" lon="7.09831">
        <ele>1396.9</ele>
        <time>2026-03-22T14:55:59Z</time>
      </trkpt>
      <trkpt lat="47.9011" lon="7.09829">
        <ele>1395.6</ele>
        <time>2026-03-22T14:56:04Z</time>
      </trkpt>
      <trkpt lat="47.90111" lon="7.09827">
        <ele>1395.3</ele>
        <time>2026-03-22T14:56:09Z</time>
      </trkpt>
      <trkpt lat="47.90111" lon="7.09826">
        <ele>1395.1</ele>
        <time>2026-03-22T14:56:14Z</time>
      </trkpt>
      <trkpt lat="47.90111" lon="7.09826">
        <ele>1395.1</ele>
        <time>2026-03-22T14:56:19Z</time>
      </trkpt>
      <trkpt lat="47.90111" lon="7.09826">
        <ele>1395.1</ele>
        <time>2026-03-22T14:56:24Z</time>
      </trkpt>
      <trkpt lat="47.90111" lon="7.09826">
        <ele>1395.1</ele>
        <time>2026-03-22T14:56:29Z</time>
      </trkpt>
      <trkpt lat="47.90111" lon="7.09826">
        <ele>1395.1</ele>
        <time>2026-03-22T14:56:34Z</time>
      </trkpt>
      <trkpt lat="47.90111" lon="7.09826">
        <ele>1395.1</ele>
        <time>2026-03-22T14:56:39Z</time>
      </trkpt>
      <trkpt lat="47.90111" lon="7.09826">
        <ele>1395.1</ele>
        <time>2026-03-22T14:56:44Z</time>
      </trkpt>
      <trkpt lat="47.90111" lon="7.09826">
        <ele>1395.1</ele>
        <time>2026-03-22T14:56:49Z</time>
      </trkpt>
      <trkpt lat="47.90111" lon="7.09826">
        <ele>1395.1</ele>
        <time>2026-03-22T14:56:54Z</time>
      </trkpt>
      <trkpt lat="47.90111" lon="7.09826">
        <ele>1395.1</ele>
        <time>2026-03-22T14:56:59Z</time>
      </trkpt>
      <trkpt lat="47.90111" lon="7.09826">
        <ele>1395.1</ele>
        <time>2026-03-22T14:57:04Z</time>
      </trkpt>
      <trkpt lat="47.90111" lon="7.09826">
        <ele>1395.1</ele>
        <time>2026-03-22T14:57:09Z</time>
      </trkpt>
      <trkpt lat="47.90111" lon="7.0983">
        <ele>1396.1</ele>
        <time>2026-03-22T14:57:14Z</time>
      </trkpt>
      <trkpt lat="47.90115" lon="7.09834">
        <ele>1398.2</ele>
        <time>2026-03-22T14:57:19Z</time>
      </trkpt>
      <trkpt lat="47.90117" lon="7.09836">
        <ele>1398.9</ele>
        <time>2026-03-22T14:57:24Z</time>
      </trkpt>
      <trkpt lat="47.90122" lon="7.09841">
        <ele>1400.6</ele>
        <time>2026-03-22T14:57:29Z</time>
      </trkpt>
      <trkpt lat="47.90128" lon="7.09844">
        <ele>1402.4</ele>
        <time>2026-03-22T14:57:34Z</time>
      </trkpt>
      <trkpt lat="47.90134" lon="7.09848">
        <ele>1404.2</ele>
        <time>2026-03-22T14:57:39Z</time>
      </trkpt>
      <trkpt lat="47.9014" lon="7.09852">
        <ele>1406</ele>
        <time>2026-03-22T14:57:44Z</time>
      </trkpt>
      <trkpt lat="47.90146" lon="7.09855">
        <ele>1407.6</ele>
        <time>2026-03-22T14:57:49Z</time>
      </trkpt>
      <trkpt lat="47.90152" lon="7.09859">
        <ele>1409.3</ele>
        <time>2026-03-22T14:57:54Z</time>
      </trkpt>
      <trkpt lat="47.90157" lon="7.0986">
        <ele>1410.6</ele>
        <time>2026-03-22T14:57:59Z</time>
      </trkpt>
      <trkpt lat="47.90158" lon="7.0986">
        <ele>1410.8</ele>
        <time>2026-03-22T14:58:04Z</time>
      </trkpt>
      <trkpt lat="47.90159" lon="7.09861">
        <ele>1411.1</ele>
        <time>2026-03-22T14:58:09Z</time>
      </trkpt>
      <trkpt lat="47.90165" lon="7.09867">
        <ele>1412.6</ele>
        <time>2026-03-22T14:58:14Z</time>
      </trkpt>
      <trkpt lat="47.90171" lon="7.09872">
        <ele>1412.7</ele>
        <time>2026-03-22T14:58:19Z</time>
      </trkpt>
      <trkpt lat="47.90176" lon="7.09876">
        <ele>1412.4</ele>
        <time>2026-03-22T14:58:24Z</time>
      </trkpt>
      <trkpt lat="47.90181" lon="7.09879">
        <ele>1412.1</ele>
        <time>2026-03-22T14:58:29Z</time>
      </trkpt>
      <trkpt lat="47.90186" lon="7.0988">
        <ele>1411.8</ele>
        <time>2026-03-22T14:58:34Z</time>
      </trkpt>
      <trkpt lat="47.90189" lon="7.09882">
        <ele>1411.6</ele>
        <time>2026-03-22T14:58:39Z</time>
      </trkpt>
      <trkpt lat="47.90192" lon="7.09885">
        <ele>1411.4</ele>
        <time>2026-03-22T14:58:44Z</time>
      </trkpt>
      <trkpt lat="47.90195" lon="7.09889">
        <ele>1411.3</ele>
        <time>2026-03-22T14:58:49Z</time>
      </trkpt>
      <trkpt lat="47.902" lon="7.09893">
        <ele>1411.1</ele>
        <time>2026-03-22T14:58:54Z</time>
      </trkpt>
      <trkpt lat="47.90206" lon="7.09896">
        <ele>1410.8</ele>
        <time>2026-03-22T14:58:59Z</time>
      </trkpt>
      <trkpt lat="47.9021" lon="7.09898">
        <ele>1410.6</ele>
        <time>2026-03-22T14:59:04Z</time>
      </trkpt>
      <trkpt lat="47.90215" lon="7.099">
        <ele>1410.3</ele>
        <time>2026-03-22T14:59:09Z</time>
      </trkpt>
      <trkpt lat="47.90221" lon="7.09903">
        <ele>1410.1</ele>
        <time>2026-03-22T14:59:14Z</time>
      </trkpt>
      <trkpt lat="47.90228" lon="7.09906">
        <ele>1409.8</ele>
        <time>2026-03-22T14:59:19Z</time>
      </trkpt>
      <trkpt lat="47.90234" lon="7.09909">
        <ele>1409.5</ele>
        <time>2026-03-22T14:59:24Z</time>
      </trkpt>
      <trkpt lat="47.9024" lon="7.09911">
        <ele>1409.3</ele>
        <time>2026-03-22T14:59:29Z</time>
      </trkpt>
      <trkpt lat="47.90246" lon="7.09915">
        <ele>1409.1</ele>
        <time>2026-03-22T14:59:34Z</time>
      </trkpt>
      <trkpt lat="47.90253" lon="7.09918">
        <ele>1408.7</ele>
        <time>2026-03-22T14:59:39Z</time>
      </trkpt>
      <trkpt lat="47.90259" lon="7.09921">
        <ele>1408</ele>
        <time>2026-03-22T14:59:44Z</time>
      </trkpt>
      <trkpt lat="47.90265" lon="7.09922">
        <ele>1407.6</ele>
        <time>2026-03-22T14:59:49Z</time>
      </trkpt>
      <trkpt lat="47.9027" lon="7.09921">
        <ele>1407.5</ele>
        <time>2026-03-22T14:59:54Z</time>
      </trkpt>
      <trkpt lat="47.90272" lon="7.09921">
        <ele>1407.4</ele>
        <time>2026-03-22T14:59:59Z</time>
      </trkpt>
      <trkpt lat="47.90272" lon="7.09921">
        <ele>1407.4</ele>
        <time>2026-03-22T15:00:04Z</time>
      </trkpt>
      <trkpt lat="47.90272" lon="7.09921">
        <ele>1407.4</ele>
        <time>2026-03-22T15:00:09Z</time>
      </trkpt>
      <trkpt lat="47.90272" lon="7.09921">
        <ele>1407.4</ele>
        <time>2026-03-22T15:00:14Z</time>
      </trkpt>
      <trkpt lat="47.90274" lon="7.09919">
        <ele>1407.6</ele>
        <time>2026-03-22T15:00:19Z</time>
      </trkpt>
      <trkpt lat="47.90279" lon="7.09918">
        <ele>1407.5</ele>
        <time>2026-03-22T15:00:24Z</time>
      </trkpt>
      <trkpt lat="47.90283" lon="7.09918">
        <ele>1407.3</ele>
        <time>2026-03-22T15:00:29Z</time>
      </trkpt>
      <trkpt lat="47.90285" lon="7.09917">
        <ele>1407.3</ele>
        <time>2026-03-22T15:00:34Z</time>
      </trkpt>
      <trkpt lat="47.90288" lon="7.09916">
        <ele>1407.1</ele>
        <time>2026-03-22T15:00:39Z</time>
      </trkpt>
      <trkpt lat="47.90292" lon="7.09911">
        <ele>1406.5</ele>
        <time>2026-03-22T15:00:44Z</time>
      </trkpt>
      <trkpt lat="47.90296" lon="7.09907">
        <ele>1406</ele>
        <time>2026-03-22T15:00:49Z</time>
      </trkpt>
      <trkpt lat="47.903" lon="7.09903">
        <ele>1405.4</ele>
        <time>2026-03-22T15:00:54Z</time>
      </trkpt>
      <trkpt lat="47.90305" lon="7.099">
        <ele>1404.8</ele>
        <time>2026-03-22T15:00:59Z</time>
      </trkpt>
      <trkpt lat="47.90309" lon="7.09896">
        <ele>1404.2</ele>
        <time>2026-03-22T15:01:04Z</time>
      </trkpt>
      <trkpt lat="47.90312" lon="7.09893">
        <ele>1403.7</ele>
        <time>2026-03-22T15:01:09Z</time>
      </trkpt>
      <trkpt lat="47.90318" lon="7.09892">
        <ele>1403.2</ele>
        <time>2026-03-22T15:01:14Z</time>
      </trkpt>
      <trkpt lat="47.90324" lon="7.09893">
        <ele>1402.8</ele>
        <time>2026-03-22T15:01:19Z</time>
      </trkpt>
      <trkpt lat="47.90329" lon="7.09896">
        <ele>1402.8</ele>
        <time>2026-03-22T15:01:24Z</time>
      </trkpt>
      <trkpt lat="47.90334" lon="7.09899">
        <ele>1402.8</ele>
        <time>2026-03-22T15:01:29Z</time>
      </trkpt>
      <trkpt lat="47.90339" lon="7.09901">
        <ele>1402.2</ele>
        <time>2026-03-22T15:01:34Z</time>
      </trkpt>
      <trkpt lat="47.90343" lon="7.09906">
        <ele>1402.1</ele>
        <time>2026-03-22T15:01:39Z</time>
      </trkpt>
      <trkpt lat="47.90345" lon="7.09908">
        <ele>1402.1</ele>
        <time>2026-03-22T15:01:44Z</time>
      </trkpt>
      <trkpt lat="47.90349" lon="7.09911">
        <ele>1401.8</ele>
        <time>2026-03-22T15:01:49Z</time>
      </trkpt>
      <trkpt lat="47.90352" lon="7.09914">
        <ele>1401.7</ele>
        <time>2026-03-22T15:01:54Z</time>
      </trkpt>
      <trkpt lat="47.90354" lon="7.09916">
        <ele>1401.7</ele>
        <time>2026-03-22T15:01:59Z</time>
      </trkpt>
      <trkpt lat="47.90358" lon="7.09918">
        <ele>1401.2</ele>
        <time>2026-03-22T15:02:04Z</time>
      </trkpt>
      <trkpt lat="47.90362" lon="7.09922">
        <ele>1400.6</ele>
        <time>2026-03-22T15:02:09Z</time>
      </trkpt>
      <trkpt lat="47.90364" lon="7.09926">
        <ele>1400.4</ele>
        <time>2026-03-22T15:02:14Z</time>
      </trkpt>
      <trkpt lat="47.90368" lon="7.09929">
        <ele>1399.9</ele>
        <time>2026-03-22T15:02:19Z</time>
      </trkpt>
      <trkpt lat="47.90371" lon="7.09936">
        <ele>1399.7</ele>
        <time>2026-03-22T15:02:24Z</time>
      </trkpt>
      <trkpt lat="47.90375" lon="7.09941">
        <ele>1399.4</ele>
        <time>2026-03-22T15:02:29Z</time>
      </trkpt>
      <trkpt lat="47.9038" lon="7.09948">
        <ele>1399</ele>
        <time>2026-03-22T15:02:34Z</time>
      </trkpt>
      <trkpt lat="47.90384" lon="7.09957">
        <ele>1399</ele>
        <time>2026-03-22T15:02:39Z</time>
      </trkpt>
      <trkpt lat="47.90387" lon="7.09965">
        <ele>1399</ele>
        <time>2026-03-22T15:02:44Z</time>
      </trkpt>
      <trkpt lat="47.90389" lon="7.09971">
        <ele>1399.1</ele>
        <time>2026-03-22T15:02:49Z</time>
      </trkpt>
      <trkpt lat="47.90388" lon="7.09977">
        <ele>1399.5</ele>
        <time>2026-03-22T15:02:54Z</time>
      </trkpt>
      <trkpt lat="47.90388" lon="7.09983">
        <ele>1399.9</ele>
        <time>2026-03-22T15:02:59Z</time>
      </trkpt>
      <trkpt lat="47.90388" lon="7.09988">
        <ele>1400.1</ele>
        <time>2026-03-22T15:03:04Z</time>
      </trkpt>
      <trkpt lat="47.9039" lon="7.09992">
        <ele>1400.2</ele>
        <time>2026-03-22T15:03:09Z</time>
      </trkpt>
      <trkpt lat="47.90391" lon="7.09996">
        <ele>1400.3</ele>
        <time>2026-03-22T15:03:14Z</time>
      </trkpt>
      <trkpt lat="47.90392" lon="7.09996">
        <ele>1400.3</ele>
        <time>2026-03-22T15:03:19Z</time>
      </trkpt>
      <trkpt lat="47.90392" lon="7.09996">
        <ele>1400.3</ele>
        <time>2026-03-22T15:03:24Z</time>
      </trkpt>
      <trkpt lat="47.90392" lon="7.09996">
        <ele>1400.3</ele>
        <time>2026-03-22T15:03:29Z</time>
      </trkpt>
      <trkpt lat="47.90394" lon="7.10002">
        <ele>1400.1</ele>
        <time>2026-03-22T15:03:34Z</time>
      </trkpt>
      <trkpt lat="47.90394" lon="7.10004">
        <ele>1399.9</ele>
        <time>2026-03-22T15:03:39Z</time>
      </trkpt>
      <trkpt lat="47.90395" lon="7.10009">
        <ele>1399.3</ele>
        <time>2026-03-22T15:03:44Z</time>
      </trkpt>
      <trkpt lat="47.90396" lon="7.10013">
        <ele>1398.9</ele>
        <time>2026-03-22T15:03:49Z</time>
      </trkpt>
      <trkpt lat="47.90398" lon="7.10018">
        <ele>1398.3</ele>
        <time>2026-03-22T15:03:54Z</time>
      </trkpt>
      <trkpt lat="47.90399" lon="7.10023">
        <ele>1397.8</ele>
        <time>2026-03-22T15:03:59Z</time>
      </trkpt>
      <trkpt lat="47.904" lon="7.10028">
        <ele>1397.2</ele>
        <time>2026-03-22T15:04:04Z</time>
      </trkpt>
      <trkpt lat="47.90401" lon="7.10033">
        <ele>1396.7</ele>
        <time>2026-03-22T15:04:09Z</time>
      </trkpt>
      <trkpt lat="47.90402" lon="7.10038">
        <ele>1396.3</ele>
        <time>2026-03-22T15:04:14Z</time>
      </trkpt>
      <trkpt lat="47.90403" lon="7.10042">
        <ele>1395.9</ele>
        <time>2026-03-22T15:04:19Z</time>
      </trkpt>
      <trkpt lat="47.90403" lon="7.10045">
        <ele>1395.6</ele>
        <time>2026-03-22T15:04:24Z</time>
      </trkpt>
      <trkpt lat="47.90404" lon="7.10049">
        <ele>1395.2</ele>
        <time>2026-03-22T15:04:29Z</time>
      </trkpt>
      <trkpt lat="47.90405" lon="7.10052">
        <ele>1395</ele>
        <time>2026-03-22T15:04:34Z</time>
      </trkpt>
      <trkpt lat="47.90406" lon="7.10057">
        <ele>1394.6</ele>
        <time>2026-03-22T15:04:39Z</time>
      </trkpt>
      <trkpt lat="47.90407" lon="7.10061">
        <ele>1394.3</ele>
        <time>2026-03-22T15:04:44Z</time>
      </trkpt>
      <trkpt lat="47.90408" lon="7.10064">
        <ele>1394</ele>
        <time>2026-03-22T15:04:49Z</time>
      </trkpt>
      <trkpt lat="47.90408" lon="7.10064">
        <ele>1394</ele>
        <time>2026-03-22T15:04:54Z</time>
      </trkpt>
      <trkpt lat="47.90408" lon="7.10064">
        <ele>1394</ele>
        <time>2026-03-22T15:04:59Z</time>
      </trkpt>
      <trkpt lat="47.90408" lon="7.10064">
        <ele>1394</ele>
        <time>2026-03-22T15:05:04Z</time>
      </trkpt>
      <trkpt lat="47.90408" lon="7.10064">
        <ele>1394</ele>
        <time>2026-03-22T15:05:09Z</time>
      </trkpt>
      <trkpt lat="47.90408" lon="7.10064">
        <ele>1394</ele>
        <time>2026-03-22T15:05:14Z</time>
      </trkpt>
      <trkpt lat="47.90408" lon="7.10064">
        <ele>1394</ele>
        <time>2026-03-22T15:05:19Z</time>
      </trkpt>
      <trkpt lat="47.90408" lon="7.10064">
        <ele>1394</ele>
        <time>2026-03-22T15:05:24Z</time>
      </trkpt>
      <trkpt lat="47.90412" lon="7.10078">
        <ele>1393.1</ele>
        <time>2026-03-22T15:05:29Z</time>
      </trkpt>
      <trkpt lat="47.90412" lon="7.10078">
        <ele>1393.1</ele>
        <time>2026-03-22T15:05:34Z</time>
      </trkpt>
      <trkpt lat="47.90412" lon="7.10078">
        <ele>1393.1</ele>
        <time>2026-03-22T15:05:39Z</time>
      </trkpt>
      <trkpt lat="47.90412" lon="7.10078">
        <ele>1393.1</ele>
        <time>2026-03-22T15:05:44Z</time>
      </trkpt>
      <trkpt lat="47.90412" lon="7.10078">
        <ele>1393.1</ele>
        <time>2026-03-22T15:05:49Z</time>
      </trkpt>
      <trkpt lat="47.90412" lon="7.10078">
        <ele>1393.1</ele>
        <time>2026-03-22T15:05:54Z</time>
      </trkpt>
      <trkpt lat="47.90412" lon="7.10078">
        <ele>1393.1</ele>
        <time>2026-03-22T15:05:59Z</time>
      </trkpt>
      <trkpt lat="47.90419" lon="7.1009">
        <ele>1391.1</ele>
        <time>2026-03-22T15:06:04Z</time>
      </trkpt>
      <trkpt lat="47.9042" lon="7.10093">
        <ele>1390.2</ele>
        <time>2026-03-22T15:06:09Z</time>
      </trkpt>
      <trkpt lat="47.9042" lon="7.10095">
        <ele>1389.9</ele>
        <time>2026-03-22T15:06:14Z</time>
      </trkpt>
      <trkpt lat="47.90419" lon="7.101">
        <ele>1389.4</ele>
        <time>2026-03-22T15:06:19Z</time>
      </trkpt>
      <trkpt lat="47.9042" lon="7.10106">
        <ele>1388.1</ele>
        <time>2026-03-22T15:06:24Z</time>
      </trkpt>
      <trkpt lat="47.90422" lon="7.10113">
        <ele>1386.3</ele>
        <time>2026-03-22T15:06:29Z</time>
      </trkpt>
      <trkpt lat="47.90421" lon="7.1012">
        <ele>1385.5</ele>
        <time>2026-03-22T15:06:34Z</time>
      </trkpt>
      <trkpt lat="47.90418" lon="7.10126">
        <ele>1385.4</ele>
        <time>2026-03-22T15:06:39Z</time>
      </trkpt>
      <trkpt lat="47.90417" lon="7.1013">
        <ele>1385.1</ele>
        <time>2026-03-22T15:06:44Z</time>
      </trkpt>
      <trkpt lat="47.90415" lon="7.10134">
        <ele>1384.3</ele>
        <time>2026-03-22T15:06:49Z</time>
      </trkpt>
      <trkpt lat="47.90415" lon="7.10137">
        <ele>1383.8</ele>
        <time>2026-03-22T15:06:54Z</time>
      </trkpt>
      <trkpt lat="47.90415" lon="7.10137">
        <ele>1383.8</ele>
        <time>2026-03-22T15:06:59Z</time>
      </trkpt>
      <trkpt lat="47.90415" lon="7.1015">
        <ele>1381.6</ele>
        <time>2026-03-22T15:07:04Z</time>
      </trkpt>
      <trkpt lat="47.90415" lon="7.10154">
        <ele>1380.9</ele>
        <time>2026-03-22T15:07:09Z</time>
      </trkpt>
      <trkpt lat="47.90415" lon="7.10159">
        <ele>1380.1</ele>
        <time>2026-03-22T15:07:14Z</time>
      </trkpt>
      <trkpt lat="47.90416" lon="7.10161">
        <ele>1379.9</ele>
        <time>2026-03-22T15:07:19Z</time>
      </trkpt>
      <trkpt lat="47.90416" lon="7.10161">
        <ele>1379.9</ele>
        <time>2026-03-22T15:07:24Z</time>
      </trkpt>
      <trkpt lat="47.90416" lon="7.10161">
        <ele>1379.9</ele>
        <time>2026-03-22T15:07:29Z</time>
      </trkpt>
      <trkpt lat="47.90416" lon="7.10161">
        <ele>1379.9</ele>
        <time>2026-03-22T15:07:34Z</time>
      </trkpt>
      <trkpt lat="47.90416" lon="7.10161">
        <ele>1379.9</ele>
        <time>2026-03-22T15:07:39Z</time>
      </trkpt>
      <trkpt lat="47.90414" lon="7.10169">
        <ele>1377.9</ele>
        <time>2026-03-22T15:07:44Z</time>
      </trkpt>
      <trkpt lat="47.90413" lon="7.10172">
        <ele>1376.9</ele>
        <time>2026-03-22T15:07:49Z</time>
      </trkpt>
      <trkpt lat="47.90413" lon="7.10174">
        <ele>1376.3</ele>
        <time>2026-03-22T15:07:54Z</time>
      </trkpt>
      <trkpt lat="47.90413" lon="7.10176">
        <ele>1375.6</ele>
        <time>2026-03-22T15:07:59Z</time>
      </trkpt>
      <trkpt lat="47.90413" lon="7.10177">
        <ele>1375.3</ele>
        <time>2026-03-22T15:08:04Z</time>
      </trkpt>
      <trkpt lat="47.90413" lon="7.10177">
        <ele>1375.3</ele>
        <time>2026-03-22T15:08:09Z</time>
      </trkpt>
      <trkpt lat="47.9041" lon="7.10189">
        <ele>1371.3</ele>
        <time>2026-03-22T15:08:14Z</time>
      </trkpt>
      <trkpt lat="47.9041" lon="7.10195">
        <ele>1369.4</ele>
        <time>2026-03-22T15:08:19Z</time>
      </trkpt>
      <trkpt lat="47.90409" lon="7.10201">
        <ele>1367.5</ele>
        <time>2026-03-22T15:08:24Z</time>
      </trkpt>
      <trkpt lat="47.90409" lon="7.10205">
        <ele>1366.3</ele>
        <time>2026-03-22T15:08:29Z</time>
      </trkpt>
      <trkpt lat="47.90408" lon="7.1021">
        <ele>1364.7</ele>
        <time>2026-03-22T15:08:34Z</time>
      </trkpt>
      <trkpt lat="47.90408" lon="7.10214">
        <ele>1363.4</ele>
        <time>2026-03-22T15:08:39Z</time>
      </trkpt>
      <trkpt lat="47.90408" lon="7.10218">
        <ele>1362.2</ele>
        <time>2026-03-22T15:08:44Z</time>
      </trkpt>
      <trkpt lat="47.9041" lon="7.10226">
        <ele>1359.9</ele>
        <time>2026-03-22T15:08:49Z</time>
      </trkpt>
      <trkpt lat="47.90411" lon="7.10232">
        <ele>1358.2</ele>
        <time>2026-03-22T15:08:54Z</time>
      </trkpt>
      <trkpt lat="47.90413" lon="7.10237">
        <ele>1356.8</ele>
        <time>2026-03-22T15:08:59Z</time>
      </trkpt>
      <trkpt lat="47.90414" lon="7.10242">
        <ele>1355.3</ele>
        <time>2026-03-22T15:09:04Z</time>
      </trkpt>
      <trkpt lat="47.90418" lon="7.10248">
        <ele>1353.5</ele>
        <time>2026-03-22T15:09:09Z</time>
      </trkpt>
      <trkpt lat="47.90422" lon="7.10252">
        <ele>1352.3</ele>
        <time>2026-03-22T15:09:14Z</time>
      </trkpt>
      <trkpt lat="47.90425" lon="7.10256">
        <ele>1351.4</ele>
        <time>2026-03-22T15:09:19Z</time>
      </trkpt>
      <trkpt lat="47.90431" lon="7.10255">
        <ele>1351.2</ele>
        <time>2026-03-22T15:09:24Z</time>
      </trkpt>
      <trkpt lat="47.90438" lon="7.10255">
        <ele>1350.8</ele>
        <time>2026-03-22T15:09:29Z</time>
      </trkpt>
      <trkpt lat="47.90443" lon="7.10256">
        <ele>1350.4</ele>
        <time>2026-03-22T15:09:34Z</time>
      </trkpt>
      <trkpt lat="47.90448" lon="7.1026">
        <ele>1349.4</ele>
        <time>2026-03-22T15:09:39Z</time>
      </trkpt>
      <trkpt lat="47.9045" lon="7.10257">
        <ele>1349.8</ele>
        <time>2026-03-22T15:09:44Z</time>
      </trkpt>
      <trkpt lat="47.9045" lon="7.10255">
        <ele>1350.1</ele>
        <time>2026-03-22T15:09:49Z</time>
      </trkpt>
      <trkpt lat="47.90452" lon="7.10257">
        <ele>1349.7</ele>
        <time>2026-03-22T15:09:54Z</time>
      </trkpt>
      <trkpt lat="47.90456" lon="7.10259">
        <ele>1349.1</ele>
        <time>2026-03-22T15:09:59Z</time>
      </trkpt>
      <trkpt lat="47.9046" lon="7.10263">
        <ele>1348.2</ele>
        <time>2026-03-22T15:10:04Z</time>
      </trkpt>
      <trkpt lat="47.90464" lon="7.10269">
        <ele>1347</ele>
        <time>2026-03-22T15:10:09Z</time>
      </trkpt>
      <trkpt lat="47.90465" lon="7.10273">
        <ele>1346.3</ele>
        <time>2026-03-22T15:10:14Z</time>
      </trkpt>
      <trkpt lat="47.90466" lon="7.10281">
        <ele>1345</ele>
        <time>2026-03-22T15:10:19Z</time>
      </trkpt>
      <trkpt lat="47.9047" lon="7.10286">
        <ele>1344</ele>
        <time>2026-03-22T15:10:24Z</time>
      </trkpt>
      <trkpt lat="47.90474" lon="7.10291">
        <ele>1343</ele>
        <time>2026-03-22T15:10:29Z</time>
      </trkpt>
      <trkpt lat="47.90477" lon="7.10299">
        <ele>1341.7</ele>
        <time>2026-03-22T15:10:34Z</time>
      </trkpt>
      <trkpt lat="47.90479" lon="7.10302">
        <ele>1341.1</ele>
        <time>2026-03-22T15:10:39Z</time>
      </trkpt>
      <trkpt lat="47.90481" lon="7.10308">
        <ele>1340.2</ele>
        <time>2026-03-22T15:10:44Z</time>
      </trkpt>
      <trkpt lat="47.90485" lon="7.10311">
        <ele>1339.6</ele>
        <time>2026-03-22T15:10:49Z</time>
      </trkpt>
      <trkpt lat="47.90485" lon="7.10316">
        <ele>1338.8</ele>
        <time>2026-03-22T15:10:54Z</time>
      </trkpt>
      <trkpt lat="47.90486" lon="7.10324">
        <ele>1337.6</ele>
        <time>2026-03-22T15:10:59Z</time>
      </trkpt>
      <trkpt lat="47.90485" lon="7.10333">
        <ele>1336.2</ele>
        <time>2026-03-22T15:11:04Z</time>
      </trkpt>
      <trkpt lat="47.90484" lon="7.10341">
        <ele>1335.3</ele>
        <time>2026-03-22T15:11:09Z</time>
      </trkpt>
      <trkpt lat="47.90484" lon="7.1035">
        <ele>1334.3</ele>
        <time>2026-03-22T15:11:14Z</time>
      </trkpt>
      <trkpt lat="47.90484" lon="7.10362">
        <ele>1332.9</ele>
        <time>2026-03-22T15:11:19Z</time>
      </trkpt>
      <trkpt lat="47.90483" lon="7.10373">
        <ele>1331.6</ele>
        <time>2026-03-22T15:11:24Z</time>
      </trkpt>
      <trkpt lat="47.9048" lon="7.10384">
        <ele>1330.2</ele>
        <time>2026-03-22T15:11:29Z</time>
      </trkpt>
      <trkpt lat="47.9048" lon="7.10394">
        <ele>1329</ele>
        <time>2026-03-22T15:11:34Z</time>
      </trkpt>
      <trkpt lat="47.90478" lon="7.10402">
        <ele>1327.9</ele>
        <time>2026-03-22T15:11:39Z</time>
      </trkpt>
      <trkpt lat="47.90476" lon="7.10412">
        <ele>1326.6</ele>
        <time>2026-03-22T15:11:44Z</time>
      </trkpt>
      <trkpt lat="47.90476" lon="7.10421">
        <ele>1325.3</ele>
        <time>2026-03-22T15:11:49Z</time>
      </trkpt>
      <trkpt lat="47.90478" lon="7.10432">
        <ele>1323.8</ele>
        <time>2026-03-22T15:11:54Z</time>
      </trkpt>
      <trkpt lat="47.90482" lon="7.10443">
        <ele>1322.5</ele>
        <time>2026-03-22T15:11:59Z</time>
      </trkpt>
      <trkpt lat="47.90487" lon="7.10449">
        <ele>1322.2</ele>
        <time>2026-03-22T15:12:04Z</time>
      </trkpt>
      <trkpt lat="47.90485" lon="7.10455">
        <ele>1321.1</ele>
        <time>2026-03-22T15:12:09Z</time>
      </trkpt>
      <trkpt lat="47.90483" lon="7.10463">
        <ele>1319.7</ele>
        <time>2026-03-22T15:12:14Z</time>
      </trkpt>
      <trkpt lat="47.90484" lon="7.10469">
        <ele>1318.9</ele>
        <time>2026-03-22T15:12:19Z</time>
      </trkpt>
      <trkpt lat="47.90487" lon="7.10475">
        <ele>1318.4</ele>
        <time>2026-03-22T15:12:24Z</time>
      </trkpt>
      <trkpt lat="47.90491" lon="7.1048">
        <ele>1318.3</ele>
        <time>2026-03-22T15:12:29Z</time>
      </trkpt>
      <trkpt lat="47.90495" lon="7.10485">
        <ele>1318.2</ele>
        <time>2026-03-22T15:12:34Z</time>
      </trkpt>
      <trkpt lat="47.90498" lon="7.1049">
        <ele>1318</ele>
        <time>2026-03-22T15:12:39Z</time>
      </trkpt>
      <trkpt lat="47.90499" lon="7.10489">
        <ele>1318.3</ele>
        <time>2026-03-22T15:12:44Z</time>
      </trkpt>
      <trkpt lat="47.905" lon="7.10485">
        <ele>1319</ele>
        <time>2026-03-22T15:12:49Z</time>
      </trkpt>
      <trkpt lat="47.90498" lon="7.1048">
        <ele>1319.3</ele>
        <time>2026-03-22T15:12:54Z</time>
      </trkpt>
      <trkpt lat="47.90493" lon="7.10472">
        <ele>1319.7</ele>
        <time>2026-03-22T15:12:59Z</time>
      </trkpt>
      <trkpt lat="47.9049" lon="7.10466">
        <ele>1320.2</ele>
        <time>2026-03-22T15:13:04Z</time>
      </trkpt>
      <trkpt lat="47.90487" lon="7.10458">
        <ele>1320.9</ele>
        <time>2026-03-22T15:13:09Z</time>
      </trkpt>
      <trkpt lat="47.90486" lon="7.1045">
        <ele>1322</ele>
        <time>2026-03-22T15:13:14Z</time>
      </trkpt>
      <trkpt lat="47.90485" lon="7.10442">
        <ele>1323</ele>
        <time>2026-03-22T15:13:19Z</time>
      </trkpt>
      <trkpt lat="47.90485" lon="7.10439">
        <ele>1323.5</ele>
        <time>2026-03-22T15:13:24Z</time>
      </trkpt>
      <trkpt lat="47.9048" lon="7.10435">
        <ele>1323.5</ele>
        <time>2026-03-22T15:13:29Z</time>
      </trkpt>
      <trkpt lat="47.90478" lon="7.10428">
        <ele>1324.4</ele>
        <time>2026-03-22T15:13:34Z</time>
      </trkpt>
      <trkpt lat="47.90475" lon="7.10417">
        <ele>1325.8</ele>
        <time>2026-03-22T15:13:39Z</time>
      </trkpt>
      <trkpt lat="47.90477" lon="7.10404">
        <ele>1327.6</ele>
        <time>2026-03-22T15:13:44Z</time>
      </trkpt>
      <trkpt lat="47.90478" lon="7.10396">
        <ele>1328.7</ele>
        <time>2026-03-22T15:13:49Z</time>
      </trkpt>
      <trkpt lat="47.90476" lon="7.10397">
        <ele>1328.4</ele>
        <time>2026-03-22T15:13:54Z</time>
      </trkpt>
      <trkpt lat="47.9047" lon="7.10404">
        <ele>1327.1</ele>
        <time>2026-03-22T15:13:59Z</time>
      </trkpt>
      <trkpt lat="47.90469" lon="7.10413">
        <ele>1325.9</ele>
        <time>2026-03-22T15:14:04Z</time>
      </trkpt>
      <trkpt lat="47.90463" lon="7.10417">
        <ele>1324.8</ele>
        <time>2026-03-22T15:14:09Z</time>
      </trkpt>
      <trkpt lat="47.9046" lon="7.10422">
        <ele>1323.7</ele>
        <time>2026-03-22T15:14:14Z</time>
      </trkpt>
      <trkpt lat="47.90458" lon="7.10425">
        <ele>1323</ele>
        <time>2026-03-22T15:14:19Z</time>
      </trkpt>
      <trkpt lat="47.90454" lon="7.10429">
        <ele>1321.9</ele>
        <time>2026-03-22T15:14:24Z</time>
      </trkpt>
      <trkpt lat="47.90452" lon="7.10432">
        <ele>1321.2</ele>
        <time>2026-03-22T15:14:29Z</time>
      </trkpt>
      <trkpt lat="47.9045" lon="7.10435">
        <ele>1320.5</ele>
        <time>2026-03-22T15:14:34Z</time>
      </trkpt>
      <trkpt lat="47.90447" lon="7.10439">
        <ele>1319.4</ele>
        <time>2026-03-22T15:14:39Z</time>
      </trkpt>
      <trkpt lat="47.90444" lon="7.10444">
        <ele>1318.1</ele>
        <time>2026-03-22T15:14:44Z</time>
      </trkpt>
      <trkpt lat="47.90439" lon="7.10448">
        <ele>1316.8</ele>
        <time>2026-03-22T15:14:49Z</time>
      </trkpt>
      <trkpt lat="47.90436" lon="7.10454">
        <ele>1315.3</ele>
        <time>2026-03-22T15:14:54Z</time>
      </trkpt>
      <trkpt lat="47.90434" lon="7.1046">
        <ele>1313.9</ele>
        <time>2026-03-22T15:14:59Z</time>
      </trkpt>
      <trkpt lat="47.90435" lon="7.10465">
        <ele>1313</ele>
        <time>2026-03-22T15:15:04Z</time>
      </trkpt>
      <trkpt lat="47.90434" lon="7.1047">
        <ele>1311.9</ele>
        <time>2026-03-22T15:15:09Z</time>
      </trkpt>
      <trkpt lat="47.90434" lon="7.10477">
        <ele>1310.5</ele>
        <time>2026-03-22T15:15:14Z</time>
      </trkpt>
      <trkpt lat="47.90434" lon="7.10484">
        <ele>1309.1</ele>
        <time>2026-03-22T15:15:19Z</time>
      </trkpt>
      <trkpt lat="47.90434" lon="7.10492">
        <ele>1307.5</ele>
        <time>2026-03-22T15:15:24Z</time>
      </trkpt>
      <trkpt lat="47.90435" lon="7.10499">
        <ele>1306.3</ele>
        <time>2026-03-22T15:15:29Z</time>
      </trkpt>
      <trkpt lat="47.90438" lon="7.10508">
        <ele>1305.1</ele>
        <time>2026-03-22T15:15:34Z</time>
      </trkpt>
      <trkpt lat="47.90439" lon="7.10517">
        <ele>1303.7</ele>
        <time>2026-03-22T15:15:39Z</time>
      </trkpt>
      <trkpt lat="47.90439" lon="7.10525">
        <ele>1302.2</ele>
        <time>2026-03-22T15:15:44Z</time>
      </trkpt>
      <trkpt lat="47.90442" lon="7.10531">
        <ele>1301.6</ele>
        <time>2026-03-22T15:15:49Z</time>
      </trkpt>
      <trkpt lat="47.90445" lon="7.10538">
        <ele>1300.9</ele>
        <time>2026-03-22T15:15:54Z</time>
      </trkpt>
      <trkpt lat="47.90448" lon="7.10544">
        <ele>1300.4</ele>
        <time>2026-03-22T15:15:59Z</time>
      </trkpt>
      <trkpt lat="47.90451" lon="7.10548">
        <ele>1300.3</ele>
        <time>2026-03-22T15:16:04Z</time>
      </trkpt>
      <trkpt lat="47.90455" lon="7.10548">
        <ele>1301</ele>
        <time>2026-03-22T15:16:09Z</time>
      </trkpt>
      <trkpt lat="47.90457" lon="7.10547">
        <ele>1301.6</ele>
        <time>2026-03-22T15:16:14Z</time>
      </trkpt>
      <trkpt lat="47.90457" lon="7.10547">
        <ele>1301.6</ele>
        <time>2026-03-22T15:16:19Z</time>
      </trkpt>
      <trkpt lat="47.90457" lon="7.10547">
        <ele>1301.6</ele>
        <time>2026-03-22T15:16:24Z</time>
      </trkpt>
      <trkpt lat="47.90457" lon="7.10547">
        <ele>1301.6</ele>
        <time>2026-03-22T15:16:29Z</time>
      </trkpt>
      <trkpt lat="47.90457" lon="7.10547">
        <ele>1301.6</ele>
        <time>2026-03-22T15:16:34Z</time>
      </trkpt>
      <trkpt lat="47.90457" lon="7.10547">
        <ele>1301.6</ele>
        <time>2026-03-22T15:16:39Z</time>
      </trkpt>
      <trkpt lat="47.90457" lon="7.10547">
        <ele>1301.6</ele>
        <time>2026-03-22T15:16:44Z</time>
      </trkpt>
      <trkpt lat="47.90457" lon="7.10547">
        <ele>1301.6</ele>
        <time>2026-03-22T15:16:49Z</time>
      </trkpt>
      <trkpt lat="47.90457" lon="7.10547">
        <ele>1301.6</ele>
        <time>2026-03-22T15:16:54Z</time>
      </trkpt>
      <trkpt lat="47.90457" lon="7.10547">
        <ele>1301.6</ele>
        <time>2026-03-22T15:16:59Z</time>
      </trkpt>
      <trkpt lat="47.90457" lon="7.10547">
        <ele>1301.6</ele>
        <time>2026-03-22T15:17:04Z</time>
      </trkpt>
      <trkpt lat="47.90457" lon="7.10547">
        <ele>1301.6</ele>
        <time>2026-03-22T15:17:09Z</time>
      </trkpt>
      <trkpt lat="47.90457" lon="7.10547">
        <ele>1301.6</ele>
        <time>2026-03-22T15:17:14Z</time>
      </trkpt>
      <trkpt lat="47.90457" lon="7.10547">
        <ele>1301.6</ele>
        <time>2026-03-22T15:17:19Z</time>
      </trkpt>
      <trkpt lat="47.90457" lon="7.10547">
        <ele>1301.6</ele>
        <time>2026-03-22T15:17:24Z</time>
      </trkpt>
      <trkpt lat="47.90457" lon="7.10547">
        <ele>1301.6</ele>
        <time>2026-03-22T15:17:29Z</time>
      </trkpt>
      <trkpt lat="47.90457" lon="7.10547">
        <ele>1301.6</ele>
        <time>2026-03-22T15:17:34Z</time>
      </trkpt>
      <trkpt lat="47.90457" lon="7.10547">
        <ele>1301.6</ele>
        <time>2026-03-22T15:17:39Z</time>
      </trkpt>
      <trkpt lat="47.90457" lon="7.10547">
        <ele>1301.6</ele>
        <time>2026-03-22T15:17:44Z</time>
      </trkpt>
      <trkpt lat="47.90457" lon="7.10547">
        <ele>1301.6</ele>
        <time>2026-03-22T15:17:49Z</time>
      </trkpt>
      <trkpt lat="47.90457" lon="7.10547">
        <ele>1301.6</ele>
        <time>2026-03-22T15:17:54Z</time>
      </trkpt>
      <trkpt lat="47.90457" lon="7.10547">
        <ele>1301.6</ele>
        <time>2026-03-22T15:17:59Z</time>
      </trkpt>
      <trkpt lat="47.90457" lon="7.10547">
        <ele>1301.6</ele>
        <time>2026-03-22T15:18:04Z</time>
      </trkpt>
      <trkpt lat="47.90457" lon="7.10547">
        <ele>1301.6</ele>
        <time>2026-03-22T15:18:09Z</time>
      </trkpt>
      <trkpt lat="47.90457" lon="7.10547">
        <ele>1301.6</ele>
        <time>2026-03-22T15:18:14Z</time>
      </trkpt>
      <trkpt lat="47.90457" lon="7.10547">
        <ele>1301.6</ele>
        <time>2026-03-22T15:18:19Z</time>
      </trkpt>
      <trkpt lat="47.90457" lon="7.10547">
        <ele>1301.6</ele>
        <time>2026-03-22T15:18:24Z</time>
      </trkpt>
      <trkpt lat="47.90457" lon="7.10547">
        <ele>1301.6</ele>
        <time>2026-03-22T15:18:29Z</time>
      </trkpt>
      <trkpt lat="47.90457" lon="7.10547">
        <ele>1301.6</ele>
        <time>2026-03-22T15:18:34Z</time>
      </trkpt>
      <trkpt lat="47.90457" lon="7.10547">
        <ele>1301.6</ele>
        <time>2026-03-22T15:18:39Z</time>
      </trkpt>
      <trkpt lat="47.90457" lon="7.10547">
        <ele>1301.6</ele>
        <time>2026-03-22T15:18:44Z</time>
      </trkpt>
      <trkpt lat="47.90457" lon="7.10547">
        <ele>1301.6</ele>
        <time>2026-03-22T15:18:49Z</time>
      </trkpt>
      <trkpt lat="47.90457" lon="7.10547">
        <ele>1301.6</ele>
        <time>2026-03-22T15:18:54Z</time>
      </trkpt>
      <trkpt lat="47.90457" lon="7.10547">
        <ele>1301.6</ele>
        <time>2026-03-22T15:18:59Z</time>
      </trkpt>
      <trkpt lat="47.90457" lon="7.10547">
        <ele>1301.6</ele>
        <time>2026-03-22T15:19:04Z</time>
      </trkpt>
      <trkpt lat="47.90457" lon="7.10547">
        <ele>1301.6</ele>
        <time>2026-03-22T15:19:09Z</time>
      </trkpt>
      <trkpt lat="47.90458" lon="7.10549">
        <ele>1301.4</ele>
        <time>2026-03-22T15:19:14Z</time>
      </trkpt>
      <trkpt lat="47.90459" lon="7.10559">
        <ele>1299.9</ele>
        <time>2026-03-22T15:19:19Z</time>
      </trkpt>
      <trkpt lat="47.90461" lon="7.10568">
        <ele>1298.7</ele>
        <time>2026-03-22T15:19:24Z</time>
      </trkpt>
      <trkpt lat="47.90464" lon="7.1058">
        <ele>1297.2</ele>
        <time>2026-03-22T15:19:29Z</time>
      </trkpt>
      <trkpt lat="47.90466" lon="7.10585">
        <ele>1296.8</ele>
        <time>2026-03-22T15:19:34Z</time>
      </trkpt>
      <trkpt lat="47.90466" lon="7.10589">
        <ele>1296.1</ele>
        <time>2026-03-22T15:19:39Z</time>
      </trkpt>
      <trkpt lat="47.90466" lon="7.10594">
        <ele>1295.2</ele>
        <time>2026-03-22T15:19:44Z</time>
      </trkpt>
      <trkpt lat="47.90466" lon="7.10594">
        <ele>1295.2</ele>
        <time>2026-03-22T15:19:49Z</time>
      </trkpt>
      <trkpt lat="47.90466" lon="7.10594">
        <ele>1295.2</ele>
        <time>2026-03-22T15:19:54Z</time>
      </trkpt>
      <trkpt lat="47.90466" lon="7.10594">
        <ele>1295.2</ele>
        <time>2026-03-22T15:19:59Z</time>
      </trkpt>
      <trkpt lat="47.90467" lon="7.10598">
        <ele>1294.8</ele>
        <time>2026-03-22T15:20:04Z</time>
      </trkpt>
      <trkpt lat="47.90473" lon="7.106">
        <ele>1295.6</ele>
        <time>2026-03-22T15:20:09Z</time>
      </trkpt>
      <trkpt lat="47.90477" lon="7.10605">
        <ele>1295.6</ele>
        <time>2026-03-22T15:20:14Z</time>
      </trkpt>
      <trkpt lat="47.90482" lon="7.10612">
        <ele>1295.3</ele>
        <time>2026-03-22T15:20:19Z</time>
      </trkpt>
      <trkpt lat="47.90486" lon="7.10619">
        <ele>1294.9</ele>
        <time>2026-03-22T15:20:24Z</time>
      </trkpt>
      <trkpt lat="47.90488" lon="7.10626">
        <ele>1294</ele>
        <time>2026-03-22T15:20:29Z</time>
      </trkpt>
      <trkpt lat="47.90491" lon="7.10633">
        <ele>1293.4</ele>
        <time>2026-03-22T15:20:34Z</time>
      </trkpt>
      <trkpt lat="47.90494" lon="7.10639">
        <ele>1292.9</ele>
        <time>2026-03-22T15:20:39Z</time>
      </trkpt>
      <trkpt lat="47.90497" lon="7.10647">
        <ele>1292</ele>
        <time>2026-03-22T15:20:44Z</time>
      </trkpt>
      <trkpt lat="47.90502" lon="7.10651">
        <ele>1292.2</ele>
        <time>2026-03-22T15:20:49Z</time>
      </trkpt>
      <trkpt lat="47.90505" lon="7.10658">
        <ele>1291.4</ele>
        <time>2026-03-22T15:20:54Z</time>
      </trkpt>
      <trkpt lat="47.90508" lon="7.10665">
        <ele>1290.6</ele>
        <time>2026-03-22T15:20:59Z</time>
      </trkpt>
      <trkpt lat="47.9051" lon="7.10675">
        <ele>1289</ele>
        <time>2026-03-22T15:21:04Z</time>
      </trkpt>
      <trkpt lat="47.90508" lon="7.10679">
        <ele>1287.8</ele>
        <time>2026-03-22T15:21:09Z</time>
      </trkpt>
      <trkpt lat="47.90508" lon="7.10679">
        <ele>1287.8</ele>
        <time>2026-03-22T15:21:14Z</time>
      </trkpt>
      <trkpt lat="47.90504" lon="7.10671">
        <ele>1288.8</ele>
        <time>2026-03-22T15:21:19Z</time>
      </trkpt>
      <trkpt lat="47.90502" lon="7.10669">
        <ele>1288.9</ele>
        <time>2026-03-22T15:21:24Z</time>
      </trkpt>
      <trkpt lat="47.90502" lon="7.10669">
        <ele>1288.9</ele>
        <time>2026-03-22T15:21:29Z</time>
      </trkpt>
      <trkpt lat="47.90502" lon="7.10669">
        <ele>1288.9</ele>
        <time>2026-03-22T15:21:34Z</time>
      </trkpt>
      <trkpt lat="47.90502" lon="7.10669">
        <ele>1288.9</ele>
        <time>2026-03-22T15:21:39Z</time>
      </trkpt>
      <trkpt lat="47.90502" lon="7.10669">
        <ele>1288.9</ele>
        <time>2026-03-22T15:21:44Z</time>
      </trkpt>
      <trkpt lat="47.90502" lon="7.10669">
        <ele>1288.9</ele>
        <time>2026-03-22T15:21:49Z</time>
      </trkpt>
      <trkpt lat="47.90502" lon="7.10669">
        <ele>1288.9</ele>
        <time>2026-03-22T15:21:54Z</time>
      </trkpt>
      <trkpt lat="47.90502" lon="7.10669">
        <ele>1288.9</ele>
        <time>2026-03-22T15:21:59Z</time>
      </trkpt>
      <trkpt lat="47.90498" lon="7.1067">
        <ele>1288</ele>
        <time>2026-03-22T15:22:04Z</time>
      </trkpt>
      <trkpt lat="47.9049" lon="7.10671">
        <ele>1286.3</ele>
        <time>2026-03-22T15:22:09Z</time>
      </trkpt>
      <trkpt lat="47.90481" lon="7.10671">
        <ele>1284.7</ele>
        <time>2026-03-22T15:22:14Z</time>
      </trkpt>
      <trkpt lat="47.90474" lon="7.10672">
        <ele>1283.3</ele>
        <time>2026-03-22T15:22:19Z</time>
      </trkpt>
      <trkpt lat="47.90469" lon="7.10673">
        <ele>1282.2</ele>
        <time>2026-03-22T15:22:24Z</time>
      </trkpt>
      <trkpt lat="47.90463" lon="7.10672">
        <ele>1281.3</ele>
        <time>2026-03-22T15:22:29Z</time>
      </trkpt>
      <trkpt lat="47.90459" lon="7.1067">
        <ele>1281</ele>
        <time>2026-03-22T15:22:34Z</time>
      </trkpt>
      <trkpt lat="47.9045" lon="7.10665">
        <ele>1280.3</ele>
        <time>2026-03-22T15:22:39Z</time>
      </trkpt>
      <trkpt lat="47.90444" lon="7.10663">
        <ele>1279.5</ele>
        <time>2026-03-22T15:22:44Z</time>
      </trkpt>
      <trkpt lat="47.90438" lon="7.10661">
        <ele>1278.8</ele>
        <time>2026-03-22T15:22:49Z</time>
      </trkpt>
      <trkpt lat="47.90432" lon="7.10661">
        <ele>1277.7</ele>
        <time>2026-03-22T15:22:54Z</time>
      </trkpt>
      <trkpt lat="47.90426" lon="7.1066">
        <ele>1276.7</ele>
        <time>2026-03-22T15:22:59Z</time>
      </trkpt>
      <trkpt lat="47.90421" lon="7.1066">
        <ele>1275.8</ele>
        <time>2026-03-22T15:23:04Z</time>
      </trkpt>
      <trkpt lat="47.90415" lon="7.10659">
        <ele>1274.9</ele>
        <time>2026-03-22T15:23:09Z</time>
      </trkpt>
      <trkpt lat="47.9041" lon="7.10658">
        <ele>1274.3</ele>
        <time>2026-03-22T15:23:14Z</time>
      </trkpt>
      <trkpt lat="47.90404" lon="7.10656">
        <ele>1273.7</ele>
        <time>2026-03-22T15:23:19Z</time>
      </trkpt>
      <trkpt lat="47.904" lon="7.10654">
        <ele>1273.4</ele>
        <time>2026-03-22T15:23:24Z</time>
      </trkpt>
      <trkpt lat="47.904" lon="7.10654">
        <ele>1273.4</ele>
        <time>2026-03-22T15:23:29Z</time>
      </trkpt>
      <trkpt lat="47.904" lon="7.10654">
        <ele>1273.4</ele>
        <time>2026-03-22T15:23:34Z</time>
      </trkpt>
      <trkpt lat="47.90391" lon="7.1065">
        <ele>1272.7</ele>
        <time>2026-03-22T15:23:39Z</time>
      </trkpt>
      <trkpt lat="47.90383" lon="7.10648">
        <ele>1271.8</ele>
        <time>2026-03-22T15:23:44Z</time>
      </trkpt>
      <trkpt lat="47.90378" lon="7.10649">
        <ele>1270.9</ele>
        <time>2026-03-22T15:23:49Z</time>
      </trkpt>
      <trkpt lat="47.90372" lon="7.10647">
        <ele>1270.3</ele>
        <time>2026-03-22T15:23:54Z</time>
      </trkpt>
      <trkpt lat="47.90366" lon="7.10641">
        <ele>1270.6</ele>
        <time>2026-03-22T15:23:59Z</time>
      </trkpt>
      <trkpt lat="47.90359" lon="7.10638">
        <ele>1270.2</ele>
        <time>2026-03-22T15:24:04Z</time>
      </trkpt>
      <trkpt lat="47.90352" lon="7.10639">
        <ele>1269</ele>
        <time>2026-03-22T15:24:09Z</time>
      </trkpt>
      <trkpt lat="47.90345" lon="7.10642">
        <ele>1267.3</ele>
        <time>2026-03-22T15:24:14Z</time>
      </trkpt>
      <trkpt lat="47.90339" lon="7.10644">
        <ele>1266</ele>
        <time>2026-03-22T15:24:19Z</time>
      </trkpt>
      <trkpt lat="47.90334" lon="7.10648">
        <ele>1264.4</ele>
        <time>2026-03-22T15:24:24Z</time>
      </trkpt>
      <trkpt lat="47.90331" lon="7.10653">
        <ele>1263</ele>
        <time>2026-03-22T15:24:29Z</time>
      </trkpt>
      <trkpt lat="47.90328" lon="7.10657">
        <ele>1261.9</ele>
        <time>2026-03-22T15:24:34Z</time>
      </trkpt>
      <trkpt lat="47.9032" lon="7.10659">
        <ele>1260.9</ele>
        <time>2026-03-22T15:24:39Z</time>
      </trkpt>
      <trkpt lat="47.9031" lon="7.1066">
        <ele>1260.1</ele>
        <time>2026-03-22T15:24:44Z</time>
      </trkpt>
      <trkpt lat="47.90303" lon="7.10662">
        <ele>1259.2</ele>
        <time>2026-03-22T15:24:49Z</time>
      </trkpt>
      <trkpt lat="47.90298" lon="7.10664">
        <ele>1258.5</ele>
        <time>2026-03-22T15:24:54Z</time>
      </trkpt>
      <trkpt lat="47.90293" lon="7.10667">
        <ele>1257.5</ele>
        <time>2026-03-22T15:24:59Z</time>
      </trkpt>
      <trkpt lat="47.90288" lon="7.10668">
        <ele>1257.1</ele>
        <time>2026-03-22T15:25:04Z</time>
      </trkpt>
      <trkpt lat="47.90282" lon="7.10668">
        <ele>1256.7</ele>
        <time>2026-03-22T15:25:09Z</time>
      </trkpt>
      <trkpt lat="47.90275" lon="7.10672">
        <ele>1255.8</ele>
        <time>2026-03-22T15:25:14Z</time>
      </trkpt>
      <trkpt lat="47.90271" lon="7.10674">
        <ele>1255.3</ele>
        <time>2026-03-22T15:25:19Z</time>
      </trkpt>
      <trkpt lat="47.90269" lon="7.10681">
        <ele>1254.3</ele>
        <time>2026-03-22T15:25:24Z</time>
      </trkpt>
      <trkpt lat="47.90268" lon="7.10686">
        <ele>1253.6</ele>
        <time>2026-03-22T15:25:29Z</time>
      </trkpt>
      <trkpt lat="47.90262" lon="7.10688">
        <ele>1253</ele>
        <time>2026-03-22T15:25:34Z</time>
      </trkpt>
      <trkpt lat="47.90256" lon="7.10686">
        <ele>1253</ele>
        <time>2026-03-22T15:25:39Z</time>
      </trkpt>
      <trkpt lat="47.90251" lon="7.10686">
        <ele>1252.7</ele>
        <time>2026-03-22T15:25:44Z</time>
      </trkpt>
      <trkpt lat="47.90249" lon="7.10692">
        <ele>1251.9</ele>
        <time>2026-03-22T15:25:49Z</time>
      </trkpt>
      <trkpt lat="47.90251" lon="7.10702">
        <ele>1250.8</ele>
        <time>2026-03-22T15:25:54Z</time>
      </trkpt>
      <trkpt lat="47.90255" lon="7.1071">
        <ele>1250</ele>
        <time>2026-03-22T15:25:59Z</time>
      </trkpt>
      <trkpt lat="47.90258" lon="7.10718">
        <ele>1249.1</ele>
        <time>2026-03-22T15:26:04Z</time>
      </trkpt>
      <trkpt lat="47.90259" lon="7.10726">
        <ele>1248.2</ele>
        <time>2026-03-22T15:26:09Z</time>
      </trkpt>
      <trkpt lat="47.9026" lon="7.10734">
        <ele>1247.2</ele>
        <time>2026-03-22T15:26:14Z</time>
      </trkpt>
      <trkpt lat="47.90261" lon="7.10745">
        <ele>1245.9</ele>
        <time>2026-03-22T15:26:19Z</time>
      </trkpt>
      <trkpt lat="47.90262" lon="7.10752">
        <ele>1245</ele>
        <time>2026-03-22T15:26:24Z</time>
      </trkpt>
      <trkpt lat="47.90267" lon="7.10756">
        <ele>1244.7</ele>
        <time>2026-03-22T15:26:29Z</time>
      </trkpt>
      <trkpt lat="47.90269" lon="7.10764">
        <ele>1243.7</ele>
        <time>2026-03-22T15:26:34Z</time>
      </trkpt>
      <trkpt lat="47.90271" lon="7.10773">
        <ele>1242.7</ele>
        <time>2026-03-22T15:26:39Z</time>
      </trkpt>
      <trkpt lat="47.90275" lon="7.10782">
        <ele>1241.6</ele>
        <time>2026-03-22T15:26:44Z</time>
      </trkpt>
      <trkpt lat="47.90278" lon="7.10788">
        <ele>1241</ele>
        <time>2026-03-22T15:26:49Z</time>
      </trkpt>
      <trkpt lat="47.90281" lon="7.10796">
        <ele>1240</ele>
        <time>2026-03-22T15:26:54Z</time>
      </trkpt>
      <trkpt lat="47.90283" lon="7.10805">
        <ele>1238.9</ele>
        <time>2026-03-22T15:26:59Z</time>
      </trkpt>
      <trkpt lat="47.90285" lon="7.10812">
        <ele>1238.1</ele>
        <time>2026-03-22T15:27:04Z</time>
      </trkpt>
      <trkpt lat="47.90285" lon="7.10813">
        <ele>1238</ele>
        <time>2026-03-22T15:27:09Z</time>
      </trkpt>
      <trkpt lat="47.90285" lon="7.10813">
        <ele>1238</ele>
        <time>2026-03-22T15:27:14Z</time>
      </trkpt>
      <trkpt lat="47.90286" lon="7.10813">
        <ele>1238</ele>
        <time>2026-03-22T15:27:19Z</time>
      </trkpt>
      <trkpt lat="47.90288" lon="7.10818">
        <ele>1237.4</ele>
        <time>2026-03-22T15:27:24Z</time>
      </trkpt>
      <trkpt lat="47.90289" lon="7.10825">
        <ele>1236.5</ele>
        <time>2026-03-22T15:27:29Z</time>
      </trkpt>
      <trkpt lat="47.90291" lon="7.10832">
        <ele>1235.7</ele>
        <time>2026-03-22T15:27:34Z</time>
      </trkpt>
      <trkpt lat="47.90298" lon="7.10846">
        <ele>1233.2</ele>
        <time>2026-03-22T15:27:39Z</time>
      </trkpt>
      <trkpt lat="47.903" lon="7.10859">
        <ele>1230.9</ele>
        <time>2026-03-22T15:27:44Z</time>
      </trkpt>
      <trkpt lat="47.90303" lon="7.10867">
        <ele>1229.4</ele>
        <time>2026-03-22T15:27:49Z</time>
      </trkpt>
      <trkpt lat="47.90308" lon="7.10871">
        <ele>1228.8</ele>
        <time>2026-03-22T15:27:54Z</time>
      </trkpt>
      <trkpt lat="47.90312" lon="7.10874">
        <ele>1228.3</ele>
        <time>2026-03-22T15:27:59Z</time>
      </trkpt>
      <trkpt lat="47.90318" lon="7.10878">
        <ele>1227.7</ele>
        <time>2026-03-22T15:28:04Z</time>
      </trkpt>
      <trkpt lat="47.90321" lon="7.10885">
        <ele>1226.5</ele>
        <time>2026-03-22T15:28:09Z</time>
      </trkpt>
      <trkpt lat="47.90322" lon="7.10887">
        <ele>1226.1</ele>
        <time>2026-03-22T15:28:14Z</time>
      </trkpt>
      <trkpt lat="47.90327" lon="7.10891">
        <ele>1225.5</ele>
        <time>2026-03-22T15:28:19Z</time>
      </trkpt>
      <trkpt lat="47.90327" lon="7.10891">
        <ele>1225.5</ele>
        <time>2026-03-22T15:28:24Z</time>
      </trkpt>
      <trkpt lat="47.90327" lon="7.10891">
        <ele>1225.5</ele>
        <time>2026-03-22T15:28:29Z</time>
      </trkpt>
      <trkpt lat="47.90327" lon="7.10891">
        <ele>1225.5</ele>
        <time>2026-03-22T15:28:34Z</time>
      </trkpt>
      <trkpt lat="47.90327" lon="7.10891">
        <ele>1225.5</ele>
        <time>2026-03-22T15:28:39Z</time>
      </trkpt>
      <trkpt lat="47.90327" lon="7.10891">
        <ele>1225.5</ele>
        <time>2026-03-22T15:28:44Z</time>
      </trkpt>
      <trkpt lat="47.90326" lon="7.10901">
        <ele>1223.7</ele>
        <time>2026-03-22T15:28:49Z</time>
      </trkpt>
      <trkpt lat="47.90326" lon="7.1091">
        <ele>1222</ele>
        <time>2026-03-22T15:28:54Z</time>
      </trkpt>
      <trkpt lat="47.90329" lon="7.10919">
        <ele>1220.4</ele>
        <time>2026-03-22T15:28:59Z</time>
      </trkpt>
      <trkpt lat="47.90331" lon="7.10927">
        <ele>1218.8</ele>
        <time>2026-03-22T15:29:04Z</time>
      </trkpt>
      <trkpt lat="47.90334" lon="7.10931">
        <ele>1218.2</ele>
        <time>2026-03-22T15:29:09Z</time>
      </trkpt>
      <trkpt lat="47.90336" lon="7.10937">
        <ele>1217.2</ele>
        <time>2026-03-22T15:29:14Z</time>
      </trkpt>
      <trkpt lat="47.90339" lon="7.10946">
        <ele>1215.7</ele>
        <time>2026-03-22T15:29:19Z</time>
      </trkpt>
      <trkpt lat="47.90344" lon="7.1095">
        <ele>1215.4</ele>
        <time>2026-03-22T15:29:24Z</time>
      </trkpt>
      <trkpt lat="47.9035" lon="7.10954">
        <ele>1215.3</ele>
        <time>2026-03-22T15:29:29Z</time>
      </trkpt>
      <trkpt lat="47.90354" lon="7.10961">
        <ele>1214.3</ele>
        <time>2026-03-22T15:29:34Z</time>
      </trkpt>
      <trkpt lat="47.90356" lon="7.10967">
        <ele>1213.3</ele>
        <time>2026-03-22T15:29:39Z</time>
      </trkpt>
      <trkpt lat="47.9036" lon="7.10972">
        <ele>1212.7</ele>
        <time>2026-03-22T15:29:44Z</time>
      </trkpt>
      <trkpt lat="47.90362" lon="7.10973">
        <ele>1212.7</ele>
        <time>2026-03-22T15:29:49Z</time>
      </trkpt>
      <trkpt lat="47.90362" lon="7.10973">
        <ele>1212.7</ele>
        <time>2026-03-22T15:29:54Z</time>
      </trkpt>
      <trkpt lat="47.90362" lon="7.10973">
        <ele>1212.7</ele>
        <time>2026-03-22T15:29:59Z</time>
      </trkpt>
      <trkpt lat="47.90362" lon="7.10973">
        <ele>1212.7</ele>
        <time>2026-03-22T15:30:04Z</time>
      </trkpt>
      <trkpt lat="47.90362" lon="7.10973">
        <ele>1212.7</ele>
        <time>2026-03-22T15:30:09Z</time>
      </trkpt>
      <trkpt lat="47.90362" lon="7.10973">
        <ele>1212.7</ele>
        <time>2026-03-22T15:30:14Z</time>
      </trkpt>
      <trkpt lat="47.90362" lon="7.10973">
        <ele>1212.7</ele>
        <time>2026-03-22T15:30:19Z</time>
      </trkpt>
      <trkpt lat="47.9036" lon="7.10981">
        <ele>1210.8</ele>
        <time>2026-03-22T15:30:24Z</time>
      </trkpt>
      <trkpt lat="47.90366" lon="7.1099">
        <ele>1209.6</ele>
        <time>2026-03-22T15:30:29Z</time>
      </trkpt>
      <trkpt lat="47.9037" lon="7.10997">
        <ele>1208.6</ele>
        <time>2026-03-22T15:30:34Z</time>
      </trkpt>
      <trkpt lat="47.90374" lon="7.11004">
        <ele>1207.5</ele>
        <time>2026-03-22T15:30:39Z</time>
      </trkpt>
      <trkpt lat="47.90379" lon="7.11005">
        <ele>1207.8</ele>
        <time>2026-03-22T15:30:44Z</time>
      </trkpt>
      <trkpt lat="47.90385" lon="7.11008">
        <ele>1207.8</ele>
        <time>2026-03-22T15:30:49Z</time>
      </trkpt>
      <trkpt lat="47.90385" lon="7.11012">
        <ele>1206.9</ele>
        <time>2026-03-22T15:30:54Z</time>
      </trkpt>
      <trkpt lat="47.90389" lon="7.11018">
        <ele>1206.1</ele>
        <time>2026-03-22T15:30:59Z</time>
      </trkpt>
      <trkpt lat="47.90395" lon="7.11023">
        <ele>1205.6</ele>
        <time>2026-03-22T15:31:04Z</time>
      </trkpt>
      <trkpt lat="47.90397" lon="7.11028">
        <ele>1204.7</ele>
        <time>2026-03-22T15:31:09Z</time>
      </trkpt>
      <trkpt lat="47.90402" lon="7.1103">
        <ele>1204.9</ele>
        <time>2026-03-22T15:31:14Z</time>
      </trkpt>
      <trkpt lat="47.90406" lon="7.11035">
        <ele>1204.2</ele>
        <time>2026-03-22T15:31:19Z</time>
      </trkpt>
      <trkpt lat="47.90408" lon="7.11039">
        <ele>1203.6</ele>
        <time>2026-03-22T15:31:24Z</time>
      </trkpt>
      <trkpt lat="47.90414" lon="7.11045">
        <ele>1203</ele>
        <time>2026-03-22T15:31:29Z</time>
      </trkpt>
      <trkpt lat="47.90418" lon="7.1105">
        <ele>1202.3</ele>
        <time>2026-03-22T15:31:34Z</time>
      </trkpt>
      <trkpt lat="47.90421" lon="7.11058">
        <ele>1200.9</ele>
        <time>2026-03-22T15:31:39Z</time>
      </trkpt>
      <trkpt lat="47.90423" lon="7.11067">
        <ele>1199.2</ele>
        <time>2026-03-22T15:31:44Z</time>
      </trkpt>
      <trkpt lat="47.90428" lon="7.11074">
        <ele>1198.1</ele>
        <time>2026-03-22T15:31:49Z</time>
      </trkpt>
      <trkpt lat="47.90432" lon="7.11081">
        <ele>1197</ele>
        <time>2026-03-22T15:31:54Z</time>
      </trkpt>
      <trkpt lat="47.90435" lon="7.11089">
        <ele>1195.4</ele>
        <time>2026-03-22T15:31:59Z</time>
      </trkpt>
      <trkpt lat="47.9044" lon="7.11099">
        <ele>1193.5</ele>
        <time>2026-03-22T15:32:04Z</time>
      </trkpt>
      <trkpt lat="47.90443" lon="7.11107">
        <ele>1191.8</ele>
        <time>2026-03-22T15:32:09Z</time>
      </trkpt>
      <trkpt lat="47.90444" lon="7.11119">
        <ele>1189.1</ele>
        <time>2026-03-22T15:32:14Z</time>
      </trkpt>
      <trkpt lat="47.90447" lon="7.11123">
        <ele>1188.4</ele>
        <time>2026-03-22T15:32:19Z</time>
      </trkpt>
      <trkpt lat="47.90452" lon="7.11124">
        <ele>1188.6</ele>
        <time>2026-03-22T15:32:24Z</time>
      </trkpt>
      <trkpt lat="47.90454" lon="7.11119">
        <ele>1190</ele>
        <time>2026-03-22T15:32:29Z</time>
      </trkpt>
      <trkpt lat="47.90454" lon="7.11124">
        <ele>1188.8</ele>
        <time>2026-03-22T15:32:34Z</time>
      </trkpt>
      <trkpt lat="47.90454" lon="7.11124">
        <ele>1188.8</ele>
        <time>2026-03-22T15:32:39Z</time>
      </trkpt>
      <trkpt lat="47.90457" lon="7.11137">
        <ele>1186</ele>
        <time>2026-03-22T15:32:44Z</time>
      </trkpt>
      <trkpt lat="47.9046" lon="7.11148">
        <ele>1183.6</ele>
        <time>2026-03-22T15:32:49Z</time>
      </trkpt>
      <trkpt lat="47.90463" lon="7.11157">
        <ele>1181.8</ele>
        <time>2026-03-22T15:32:54Z</time>
      </trkpt>
      <trkpt lat="47.90462" lon="7.11167">
        <ele>1179.3</ele>
        <time>2026-03-22T15:32:59Z</time>
      </trkpt>
      <trkpt lat="47.90464" lon="7.11175">
        <ele>1177.1</ele>
        <time>2026-03-22T15:33:04Z</time>
      </trkpt>
      <trkpt lat="47.90468" lon="7.1118">
        <ele>1176.1</ele>
        <time>2026-03-22T15:33:09Z</time>
      </trkpt>
      <trkpt lat="47.90472" lon="7.11184">
        <ele>1175.5</ele>
        <time>2026-03-22T15:33:14Z</time>
      </trkpt>
      <trkpt lat="47.90478" lon="7.11189">
        <ele>1174.8</ele>
        <time>2026-03-22T15:33:19Z</time>
      </trkpt>
      <trkpt lat="47.90483" lon="7.11194">
        <ele>1174</ele>
        <time>2026-03-22T15:33:24Z</time>
      </trkpt>
      <trkpt lat="47.90487" lon="7.11204">
        <ele>1171.9</ele>
        <time>2026-03-22T15:33:29Z</time>
      </trkpt>
      <trkpt lat="47.9049" lon="7.11213">
        <ele>1169.9</ele>
        <time>2026-03-22T15:33:34Z</time>
      </trkpt>
      <trkpt lat="47.90495" lon="7.11219">
        <ele>1169.1</ele>
        <time>2026-03-22T15:33:39Z</time>
      </trkpt>
      <trkpt lat="47.905" lon="7.11225">
        <ele>1168.3</ele>
        <time>2026-03-22T15:33:44Z</time>
      </trkpt>
      <trkpt lat="47.90503" lon="7.11231">
        <ele>1167.4</ele>
        <time>2026-03-22T15:33:49Z</time>
      </trkpt>
      <trkpt lat="47.90505" lon="7.11239">
        <ele>1165.8</ele>
        <time>2026-03-22T15:33:54Z</time>
      </trkpt>
      <trkpt lat="47.90507" lon="7.11244">
        <ele>1164.9</ele>
        <time>2026-03-22T15:33:59Z</time>
      </trkpt>
      <trkpt lat="47.9051" lon="7.11246">
        <ele>1165</ele>
        <time>2026-03-22T15:34:04Z</time>
      </trkpt>
      <trkpt lat="47.90513" lon="7.11254">
        <ele>1163.7</ele>
        <time>2026-03-22T15:34:09Z</time>
      </trkpt>
      <trkpt lat="47.90517" lon="7.1126">
        <ele>1163.1</ele>
        <time>2026-03-22T15:34:14Z</time>
      </trkpt>
      <trkpt lat="47.9052" lon="7.1127">
        <ele>1161.3</ele>
        <time>2026-03-22T15:34:19Z</time>
      </trkpt>
      <trkpt lat="47.90522" lon="7.11277">
        <ele>1160.1</ele>
        <time>2026-03-22T15:34:24Z</time>
      </trkpt>
      <trkpt lat="47.90523" lon="7.11284">
        <ele>1158.7</ele>
        <time>2026-03-22T15:34:29Z</time>
      </trkpt>
      <trkpt lat="47.90524" lon="7.1129">
        <ele>1157.5</ele>
        <time>2026-03-22T15:34:34Z</time>
      </trkpt>
      <trkpt lat="47.90523" lon="7.11295">
        <ele>1156.1</ele>
        <time>2026-03-22T15:34:39Z</time>
      </trkpt>
      <trkpt lat="47.90519" lon="7.11301">
        <ele>1153.7</ele>
        <time>2026-03-22T15:34:44Z</time>
      </trkpt>
      <trkpt lat="47.90518" lon="7.11308">
        <ele>1151.8</ele>
        <time>2026-03-22T15:34:49Z</time>
      </trkpt>
      <trkpt lat="47.90519" lon="7.11315">
        <ele>1150.4</ele>
        <time>2026-03-22T15:34:54Z</time>
      </trkpt>
      <trkpt lat="47.90522" lon="7.11324">
        <ele>1149</ele>
        <time>2026-03-22T15:34:59Z</time>
      </trkpt>
      <trkpt lat="47.90524" lon="7.11332">
        <ele>1147.6</ele>
        <time>2026-03-22T15:35:04Z</time>
      </trkpt>
      <trkpt lat="47.90527" lon="7.11338">
        <ele>1147.5</ele>
        <time>2026-03-22T15:35:09Z</time>
      </trkpt>
      <trkpt lat="47.90525" lon="7.11348">
        <ele>1145.5</ele>
        <time>2026-03-22T15:35:14Z</time>
      </trkpt>
      <trkpt lat="47.90522" lon="7.11358">
        <ele>1143.2</ele>
        <time>2026-03-22T15:35:19Z</time>
      </trkpt>
      <trkpt lat="47.90521" lon="7.11366">
        <ele>1141.7</ele>
        <time>2026-03-22T15:35:24Z</time>
      </trkpt>
      <trkpt lat="47.90518" lon="7.11374">
        <ele>1139.7</ele>
        <time>2026-03-22T15:35:29Z</time>
      </trkpt>
      <trkpt lat="47.90518" lon="7.11382">
        <ele>1138.5</ele>
        <time>2026-03-22T15:35:34Z</time>
      </trkpt>
      <trkpt lat="47.90518" lon="7.11389">
        <ele>1137.5</ele>
        <time>2026-03-22T15:35:39Z</time>
      </trkpt>
      <trkpt lat="47.90516" lon="7.11394">
        <ele>1136.2</ele>
        <time>2026-03-22T15:35:44Z</time>
      </trkpt>
      <trkpt lat="47.90514" lon="7.11401">
        <ele>1134.5</ele>
        <time>2026-03-22T15:35:49Z</time>
      </trkpt>
      <trkpt lat="47.90513" lon="7.11408">
        <ele>1133.2</ele>
        <time>2026-03-22T15:35:54Z</time>
      </trkpt>
      <trkpt lat="47.9051" lon="7.11414">
        <ele>1131.4</ele>
        <time>2026-03-22T15:35:59Z</time>
      </trkpt>
      <trkpt lat="47.90508" lon="7.11413">
        <ele>1131</ele>
        <time>2026-03-22T15:36:04Z</time>
      </trkpt>
      <trkpt lat="47.90506" lon="7.11421">
        <ele>1129.3</ele>
        <time>2026-03-22T15:36:09Z</time>
      </trkpt>
      <trkpt lat="47.90509" lon="7.11426">
        <ele>1129.7</ele>
        <time>2026-03-22T15:36:14Z</time>
      </trkpt>
      <trkpt lat="47.90512" lon="7.11427">
        <ele>1130.4</ele>
        <time>2026-03-22T15:36:19Z</time>
      </trkpt>
      <trkpt lat="47.90507" lon="7.11434">
        <ele>1128.2</ele>
        <time>2026-03-22T15:36:24Z</time>
      </trkpt>
      <trkpt lat="47.90505" lon="7.11441">
        <ele>1126.8</ele>
        <time>2026-03-22T15:36:29Z</time>
      </trkpt>
      <trkpt lat="47.90504" lon="7.1145">
        <ele>1125.6</ele>
        <time>2026-03-22T15:36:34Z</time>
      </trkpt>
      <trkpt lat="47.90505" lon="7.11458">
        <ele>1125</ele>
        <time>2026-03-22T15:36:39Z</time>
      </trkpt>
      <trkpt lat="47.90505" lon="7.11465">
        <ele>1124.2</ele>
        <time>2026-03-22T15:36:44Z</time>
      </trkpt>
      <trkpt lat="47.90505" lon="7.11471">
        <ele>1123.6</ele>
        <time>2026-03-22T15:36:49Z</time>
      </trkpt>
      <trkpt lat="47.90505" lon="7.11478">
        <ele>1122.8</ele>
        <time>2026-03-22T15:36:54Z</time>
      </trkpt>
      <trkpt lat="47.90504" lon="7.11482">
        <ele>1122.1</ele>
        <time>2026-03-22T15:36:59Z</time>
      </trkpt>
      <trkpt lat="47.90502" lon="7.1149">
        <ele>1120.6</ele>
        <time>2026-03-22T15:37:04Z</time>
      </trkpt>
      <trkpt lat="47.90502" lon="7.11499">
        <ele>1119.7</ele>
        <time>2026-03-22T15:37:09Z</time>
      </trkpt>
      <trkpt lat="47.90501" lon="7.11506">
        <ele>1118.8</ele>
        <time>2026-03-22T15:37:14Z</time>
      </trkpt>
      <trkpt lat="47.90499" lon="7.11513">
        <ele>1117.8</ele>
        <time>2026-03-22T15:37:19Z</time>
      </trkpt>
      <trkpt lat="47.90498" lon="7.11518">
        <ele>1117.1</ele>
        <time>2026-03-22T15:37:24Z</time>
      </trkpt>
      <trkpt lat="47.90498" lon="7.11519">
        <ele>1117</ele>
        <time>2026-03-22T15:37:29Z</time>
      </trkpt>
      <trkpt lat="47.90495" lon="7.11532">
        <ele>1115.1</ele>
        <time>2026-03-22T15:37:34Z</time>
      </trkpt>
      <trkpt lat="47.90496" lon="7.1154">
        <ele>1114.8</ele>
        <time>2026-03-22T15:37:39Z</time>
      </trkpt>
      <trkpt lat="47.90494" lon="7.11549">
        <ele>1113.4</ele>
        <time>2026-03-22T15:37:44Z</time>
      </trkpt>
      <trkpt lat="47.90492" lon="7.11558">
        <ele>1112</ele>
        <time>2026-03-22T15:37:49Z</time>
      </trkpt>
      <trkpt lat="47.90491" lon="7.11566">
        <ele>1111</ele>
        <time>2026-03-22T15:37:54Z</time>
      </trkpt>
      <trkpt lat="47.90491" lon="7.11575">
        <ele>1110.3</ele>
        <time>2026-03-22T15:37:59Z</time>
      </trkpt>
      <trkpt lat="47.90491" lon="7.11583">
        <ele>1109.7</ele>
        <time>2026-03-22T15:38:04Z</time>
      </trkpt>
      <trkpt lat="47.90491" lon="7.1159">
        <ele>1108.7</ele>
        <time>2026-03-22T15:38:09Z</time>
      </trkpt>
      <trkpt lat="47.90491" lon="7.11597">
        <ele>1107.7</ele>
        <time>2026-03-22T15:38:14Z</time>
      </trkpt>
      <trkpt lat="47.90489" lon="7.11605">
        <ele>1105.9</ele>
        <time>2026-03-22T15:38:19Z</time>
      </trkpt>
      <trkpt lat="47.90486" lon="7.11614">
        <ele>1103.6</ele>
        <time>2026-03-22T15:38:24Z</time>
      </trkpt>
      <trkpt lat="47.90485" lon="7.11626">
        <ele>1101.6</ele>
        <time>2026-03-22T15:38:29Z</time>
      </trkpt>
      <trkpt lat="47.90483" lon="7.11635">
        <ele>1099.6</ele>
        <time>2026-03-22T15:38:34Z</time>
      </trkpt>
      <trkpt lat="47.90482" lon="7.11644">
        <ele>1098</ele>
        <time>2026-03-22T15:38:39Z</time>
      </trkpt>
      <trkpt lat="47.90481" lon="7.11651">
        <ele>1096.7</ele>
        <time>2026-03-22T15:38:44Z</time>
      </trkpt>
      <trkpt lat="47.90478" lon="7.11658">
        <ele>1094.8</ele>
        <time>2026-03-22T15:38:49Z</time>
      </trkpt>
      <trkpt lat="47.90478" lon="7.11663">
        <ele>1094.1</ele>
        <time>2026-03-22T15:38:54Z</time>
      </trkpt>
      <trkpt lat="47.90477" lon="7.1167">
        <ele>1092.7</ele>
        <time>2026-03-22T15:38:59Z</time>
      </trkpt>
      <trkpt lat="47.90477" lon="7.11677">
        <ele>1091.6</ele>
        <time>2026-03-22T15:39:04Z</time>
      </trkpt>
      <trkpt lat="47.90478" lon="7.11683">
        <ele>1091</ele>
        <time>2026-03-22T15:39:09Z</time>
      </trkpt>
      <trkpt lat="47.90479" lon="7.11691">
        <ele>1090.1</ele>
        <time>2026-03-22T15:39:14Z</time>
      </trkpt>
      <trkpt lat="47.90479" lon="7.117">
        <ele>1088.6</ele>
        <time>2026-03-22T15:39:19Z</time>
      </trkpt>
      <trkpt lat="47.90478" lon="7.11706">
        <ele>1087.4</ele>
        <time>2026-03-22T15:39:24Z</time>
      </trkpt>
      <trkpt lat="47.90479" lon="7.11716">
        <ele>1086.1</ele>
        <time>2026-03-22T15:39:29Z</time>
      </trkpt>
      <trkpt lat="47.90483" lon="7.11726">
        <ele>1085.8</ele>
        <time>2026-03-22T15:39:34Z</time>
      </trkpt>
      <trkpt lat="47.90486" lon="7.11735">
        <ele>1085.2</ele>
        <time>2026-03-22T15:39:39Z</time>
      </trkpt>
      <trkpt lat="47.90486" lon="7.11745">
        <ele>1083.6</ele>
        <time>2026-03-22T15:39:44Z</time>
      </trkpt>
      <trkpt lat="47.9049" lon="7.11755">
        <ele>1083.3</ele>
        <time>2026-03-22T15:39:49Z</time>
      </trkpt>
      <trkpt lat="47.90495" lon="7.11763">
        <ele>1083.6</ele>
        <time>2026-03-22T15:39:54Z</time>
      </trkpt>
      <trkpt lat="47.90498" lon="7.11772">
        <ele>1083.2</ele>
        <time>2026-03-22T15:39:59Z</time>
      </trkpt>
      <trkpt lat="47.90505" lon="7.11781">
        <ele>1084.1</ele>
        <time>2026-03-22T15:40:04Z</time>
      </trkpt>
      <trkpt lat="47.90509" lon="7.11789">
        <ele>1084.2</ele>
        <time>2026-03-22T15:40:09Z</time>
      </trkpt>
      <trkpt lat="47.90513" lon="7.11799">
        <ele>1083.9</ele>
        <time>2026-03-22T15:40:14Z</time>
      </trkpt>
      <trkpt lat="47.90517" lon="7.11809">
        <ele>1083.5</ele>
        <time>2026-03-22T15:40:19Z</time>
      </trkpt>
      <trkpt lat="47.9052" lon="7.11819">
        <ele>1082.8</ele>
        <time>2026-03-22T15:40:24Z</time>
      </trkpt>
      <trkpt lat="47.90525" lon="7.11826">
        <ele>1083.1</ele>
        <time>2026-03-22T15:40:29Z</time>
      </trkpt>
      <trkpt lat="47.90528" lon="7.11836">
        <ele>1082.3</ele>
        <time>2026-03-22T15:40:34Z</time>
      </trkpt>
      <trkpt lat="47.90533" lon="7.11844">
        <ele>1082.3</ele>
        <time>2026-03-22T15:40:39Z</time>
      </trkpt>
      <trkpt lat="47.90539" lon="7.11851">
        <ele>1082.7</ele>
        <time>2026-03-22T15:40:44Z</time>
      </trkpt>
      <trkpt lat="47.90546" lon="7.11858">
        <ele>1083.4</ele>
        <time>2026-03-22T15:40:49Z</time>
      </trkpt>
      <trkpt lat="47.90552" lon="7.11865">
        <ele>1083.8</ele>
        <time>2026-03-22T15:40:54Z</time>
      </trkpt>
      <trkpt lat="47.90558" lon="7.11866">
        <ele>1085.2</ele>
        <time>2026-03-22T15:40:59Z</time>
      </trkpt>
      <trkpt lat="47.90563" lon="7.11873">
        <ele>1085.4</ele>
        <time>2026-03-22T15:41:04Z</time>
      </trkpt>
      <trkpt lat="47.9056" lon="7.11884">
        <ele>1082.6</ele>
        <time>2026-03-22T15:41:09Z</time>
      </trkpt>
      <trkpt lat="47.90561" lon="7.11886">
        <ele>1082.5</ele>
        <time>2026-03-22T15:41:14Z</time>
      </trkpt>
      <trkpt lat="47.90562" lon="7.11886">
        <ele>1082.8</ele>
        <time>2026-03-22T15:41:19Z</time>
      </trkpt>
      <trkpt lat="47.90563" lon="7.11894">
        <ele>1081.6</ele>
        <time>2026-03-22T15:41:24Z</time>
      </trkpt>
      <trkpt lat="47.90564" lon="7.11901">
        <ele>1080.7</ele>
        <time>2026-03-22T15:41:29Z</time>
      </trkpt>
      <trkpt lat="47.90565" lon="7.11907">
        <ele>1079.9</ele>
        <time>2026-03-22T15:41:34Z</time>
      </trkpt>
      <trkpt lat="47.90564" lon="7.11913">
        <ele>1078.5</ele>
        <time>2026-03-22T15:41:39Z</time>
      </trkpt>
      <trkpt lat="47.90565" lon="7.11919">
        <ele>1077.5</ele>
        <time>2026-03-22T15:41:44Z</time>
      </trkpt>
      <trkpt lat="47.90566" lon="7.11918">
        <ele>1078.1</ele>
        <time>2026-03-22T15:41:49Z</time>
      </trkpt>
      <trkpt lat="47.90569" lon="7.11917">
        <ele>1079.1</ele>
        <time>2026-03-22T15:41:54Z</time>
      </trkpt>
      <trkpt lat="47.90569" lon="7.11917">
        <ele>1079.1</ele>
        <time>2026-03-22T15:41:59Z</time>
      </trkpt>
      <trkpt lat="47.90567" lon="7.1193">
        <ele>1075.1</ele>
        <time>2026-03-22T15:42:04Z</time>
      </trkpt>
      <trkpt lat="47.90567" lon="7.11938">
        <ele>1073</ele>
        <time>2026-03-22T15:42:09Z</time>
      </trkpt>
      <trkpt lat="47.90568" lon="7.11946">
        <ele>1071.1</ele>
        <time>2026-03-22T15:42:14Z</time>
      </trkpt>
      <trkpt lat="47.90568" lon="7.11953">
        <ele>1069.2</ele>
        <time>2026-03-22T15:42:19Z</time>
      </trkpt>
      <trkpt lat="47.9057" lon="7.11961">
        <ele>1067.5</ele>
        <time>2026-03-22T15:42:24Z</time>
      </trkpt>
      <trkpt lat="47.90571" lon="7.11965">
        <ele>1066.7</ele>
        <time>2026-03-22T15:42:29Z</time>
      </trkpt>
      <trkpt lat="47.90571" lon="7.11965">
        <ele>1066.7</ele>
        <time>2026-03-22T15:42:34Z</time>
      </trkpt>
      <trkpt lat="47.9057" lon="7.11971">
        <ele>1064.8</ele>
        <time>2026-03-22T15:42:39Z</time>
      </trkpt>
      <trkpt lat="47.90573" lon="7.11976">
        <ele>1064.2</ele>
        <time>2026-03-22T15:42:44Z</time>
      </trkpt>
      <trkpt lat="47.90574" lon="7.11983">
        <ele>1062.5</ele>
        <time>2026-03-22T15:42:49Z</time>
      </trkpt>
      <trkpt lat="47.90576" lon="7.11989">
        <ele>1061.3</ele>
        <time>2026-03-22T15:42:54Z</time>
      </trkpt>
      <trkpt lat="47.90576" lon="7.11994">
        <ele>1060</ele>
        <time>2026-03-22T15:42:59Z</time>
      </trkpt>
      <trkpt lat="47.90578" lon="7.11998">
        <ele>1059.3</ele>
        <time>2026-03-22T15:43:04Z</time>
      </trkpt>
      <trkpt lat="47.90579" lon="7.12004">
        <ele>1058.2</ele>
        <time>2026-03-22T15:43:09Z</time>
      </trkpt>
      <trkpt lat="47.9058" lon="7.12006">
        <ele>1058</ele>
        <time>2026-03-22T15:43:14Z</time>
      </trkpt>
      <trkpt lat="47.90577" lon="7.12005">
        <ele>1057.5</ele>
        <time>2026-03-22T15:43:19Z</time>
      </trkpt>
      <trkpt lat="47.9057" lon="7.12">
        <ele>1057</ele>
        <time>2026-03-22T15:43:24Z</time>
      </trkpt>
      <trkpt lat="47.90563" lon="7.11998">
        <ele>1055.9</ele>
        <time>2026-03-22T15:43:29Z</time>
      </trkpt>
      <trkpt lat="47.90559" lon="7.11997">
        <ele>1055.2</ele>
        <time>2026-03-22T15:43:34Z</time>
      </trkpt>
      <trkpt lat="47.90556" lon="7.12002">
        <ele>1053.3</ele>
        <time>2026-03-22T15:43:39Z</time>
      </trkpt>
      <trkpt lat="47.90557" lon="7.12015">
        <ele>1050.8</ele>
        <time>2026-03-22T15:43:44Z</time>
      </trkpt>
      <trkpt lat="47.9056" lon="7.12024">
        <ele>1049.5</ele>
        <time>2026-03-22T15:43:49Z</time>
      </trkpt>
      <trkpt lat="47.90567" lon="7.12029">
        <ele>1050.2</ele>
        <time>2026-03-22T15:43:54Z</time>
      </trkpt>
      <trkpt lat="47.90571" lon="7.12035">
        <ele>1049.9</ele>
        <time>2026-03-22T15:43:59Z</time>
      </trkpt>
      <trkpt lat="47.90572" lon="7.12043">
        <ele>1048.4</ele>
        <time>2026-03-22T15:44:04Z</time>
      </trkpt>
      <trkpt lat="47.90573" lon="7.1205">
        <ele>1047.2</ele>
        <time>2026-03-22T15:44:09Z</time>
      </trkpt>
      <trkpt lat="47.90574" lon="7.12055">
        <ele>1046.4</ele>
        <time>2026-03-22T15:44:14Z</time>
      </trkpt>
      <trkpt lat="47.90577" lon="7.1206">
        <ele>1046.2</ele>
        <time>2026-03-22T15:44:19Z</time>
      </trkpt>
      <trkpt lat="47.90576" lon="7.12065">
        <ele>1044.9</ele>
        <time>2026-03-22T15:44:24Z</time>
      </trkpt>
      <trkpt lat="47.90576" lon="7.1207">
        <ele>1043.8</ele>
        <time>2026-03-22T15:44:29Z</time>
      </trkpt>
      <trkpt lat="47.90579" lon="7.12074">
        <ele>1043.8</ele>
        <time>2026-03-22T15:44:34Z</time>
      </trkpt>
      <trkpt lat="47.9058" lon="7.12081">
        <ele>1042.6</ele>
        <time>2026-03-22T15:44:39Z</time>
      </trkpt>
      <trkpt lat="47.90581" lon="7.1208">
        <ele>1043.1</ele>
        <time>2026-03-22T15:44:44Z</time>
      </trkpt>
      <trkpt lat="47.90584" lon="7.12086">
        <ele>1042.6</ele>
        <time>2026-03-22T15:44:49Z</time>
      </trkpt>
      <trkpt lat="47.90589" lon="7.12097">
        <ele>1041.4</ele>
        <time>2026-03-22T15:44:54Z</time>
      </trkpt>
      <trkpt lat="47.90593" lon="7.12102">
        <ele>1041.3</ele>
        <time>2026-03-22T15:44:59Z</time>
      </trkpt>
      <trkpt lat="47.90597" lon="7.12108">
        <ele>1041</ele>
        <time>2026-03-22T15:45:04Z</time>
      </trkpt>
      <trkpt lat="47.90599" lon="7.12115">
        <ele>1039.9</ele>
        <time>2026-03-22T15:45:09Z</time>
      </trkpt>
      <trkpt lat="47.90602" lon="7.12122">
        <ele>1039.1</ele>
        <time>2026-03-22T15:45:14Z</time>
      </trkpt>
      <trkpt lat="47.90604" lon="7.12127">
        <ele>1038.5</ele>
        <time>2026-03-22T15:45:19Z</time>
      </trkpt>
      <trkpt lat="47.90607" lon="7.12133">
        <ele>1037.9</ele>
        <time>2026-03-22T15:45:24Z</time>
      </trkpt>
      <trkpt lat="47.90609" lon="7.12141">
        <ele>1036.6</ele>
        <time>2026-03-22T15:45:29Z</time>
      </trkpt>
      <trkpt lat="47.9061" lon="7.12149">
        <ele>1035.1</ele>
        <time>2026-03-22T15:45:34Z</time>
      </trkpt>
      <trkpt lat="47.90615" lon="7.12157">
        <ele>1034.6</ele>
        <time>2026-03-22T15:45:39Z</time>
      </trkpt>
      <trkpt lat="47.90619" lon="7.12164">
        <ele>1034</ele>
        <time>2026-03-22T15:45:44Z</time>
      </trkpt>
      <trkpt lat="47.90625" lon="7.12171">
        <ele>1034.2</ele>
        <time>2026-03-22T15:45:49Z</time>
      </trkpt>
      <trkpt lat="47.90627" lon="7.12179">
        <ele>1033.3</ele>
        <time>2026-03-22T15:45:54Z</time>
      </trkpt>
      <trkpt lat="47.90628" lon="7.12188">
        <ele>1031.9</ele>
        <time>2026-03-22T15:45:59Z</time>
      </trkpt>
      <trkpt lat="47.90632" lon="7.12197">
        <ele>1031.3</ele>
        <time>2026-03-22T15:46:04Z</time>
      </trkpt>
      <trkpt lat="47.90636" lon="7.12205">
        <ele>1030.9</ele>
        <time>2026-03-22T15:46:09Z</time>
      </trkpt>
      <trkpt lat="47.90641" lon="7.12211">
        <ele>1031</ele>
        <time>2026-03-22T15:46:14Z</time>
      </trkpt>
      <trkpt lat="47.90645" lon="7.12219">
        <ele>1030.6</ele>
        <time>2026-03-22T15:46:19Z</time>
      </trkpt>
      <trkpt lat="47.90648" lon="7.12224">
        <ele>1030.4</ele>
        <time>2026-03-22T15:46:24Z</time>
      </trkpt>
      <trkpt lat="47.90651" lon="7.12231">
        <ele>1029.8</ele>
        <time>2026-03-22T15:46:29Z</time>
      </trkpt>
      <trkpt lat="47.90656" lon="7.12239">
        <ele>1029.5</ele>
        <time>2026-03-22T15:46:34Z</time>
      </trkpt>
      <trkpt lat="47.9066" lon="7.12244">
        <ele>1029.5</ele>
        <time>2026-03-22T15:46:39Z</time>
      </trkpt>
      <trkpt lat="47.90664" lon="7.12251">
        <ele>1029.2</ele>
        <time>2026-03-22T15:46:44Z</time>
      </trkpt>
      <trkpt lat="47.90664" lon="7.12251">
        <ele>1029.2</ele>
        <time>2026-03-22T15:46:49Z</time>
      </trkpt>
      <trkpt lat="47.90669" lon="7.1225">
        <ele>1030.5</ele>
        <time>2026-03-22T15:46:54Z</time>
      </trkpt>
      <trkpt lat="47.90673" lon="7.12258">
        <ele>1029.6</ele>
        <time>2026-03-22T15:46:59Z</time>
      </trkpt>
      <trkpt lat="47.9068" lon="7.12276">
        <ele>1027.3</ele>
        <time>2026-03-22T15:47:04Z</time>
      </trkpt>
      <trkpt lat="47.90683" lon="7.12289">
        <ele>1025.2</ele>
        <time>2026-03-22T15:47:09Z</time>
      </trkpt>
      <trkpt lat="47.90686" lon="7.12298">
        <ele>1023.9</ele>
        <time>2026-03-22T15:47:14Z</time>
      </trkpt>
      <trkpt lat="47.90688" lon="7.12308">
        <ele>1022.2</ele>
        <time>2026-03-22T15:47:19Z</time>
      </trkpt>
      <trkpt lat="47.90692" lon="7.12311">
        <ele>1022.3</ele>
        <time>2026-03-22T15:47:24Z</time>
      </trkpt>
      <trkpt lat="47.90697" lon="7.12315">
        <ele>1022.4</ele>
        <time>2026-03-22T15:47:29Z</time>
      </trkpt>
      <trkpt lat="47.90703" lon="7.12324">
        <ele>1021.5</ele>
        <time>2026-03-22T15:47:34Z</time>
      </trkpt>
      <trkpt lat="47.90708" lon="7.12329">
        <ele>1021.4</ele>
        <time>2026-03-22T15:47:39Z</time>
      </trkpt>
      <trkpt lat="47.90712" lon="7.12337">
        <ele>1020.3</ele>
        <time>2026-03-22T15:47:44Z</time>
      </trkpt>
      <trkpt lat="47.90716" lon="7.12347">
        <ele>1018.9</ele>
        <time>2026-03-22T15:47:49Z</time>
      </trkpt>
      <trkpt lat="47.90719" lon="7.12355">
        <ele>1017.6</ele>
        <time>2026-03-22T15:47:54Z</time>
      </trkpt>
      <trkpt lat="47.90723" lon="7.12362">
        <ele>1016.8</ele>
        <time>2026-03-22T15:47:59Z</time>
      </trkpt>
      <trkpt lat="47.90724" lon="7.12371">
        <ele>1015</ele>
        <time>2026-03-22T15:48:04Z</time>
      </trkpt>
      <trkpt lat="47.90724" lon="7.12378">
        <ele>1013.5</ele>
        <time>2026-03-22T15:48:09Z</time>
      </trkpt>
      <trkpt lat="47.90728" lon="7.12388">
        <ele>1012.1</ele>
        <time>2026-03-22T15:48:14Z</time>
      </trkpt>
      <trkpt lat="47.9073" lon="7.12398">
        <ele>1010.2</ele>
        <time>2026-03-22T15:48:19Z</time>
      </trkpt>
      <trkpt lat="47.90731" lon="7.12404">
        <ele>1009.1</ele>
        <time>2026-03-22T15:48:24Z</time>
      </trkpt>
      <trkpt lat="47.90733" lon="7.1241">
        <ele>1008.2</ele>
        <time>2026-03-22T15:48:29Z</time>
      </trkpt>
      <trkpt lat="47.90736" lon="7.12415">
        <ele>1007.7</ele>
        <time>2026-03-22T15:48:34Z</time>
      </trkpt>
      <trkpt lat="47.90738" lon="7.12429">
        <ele>1005.9</ele>
        <time>2026-03-22T15:48:39Z</time>
      </trkpt>
      <trkpt lat="47.90739" lon="7.12437">
        <ele>1005</ele>
        <time>2026-03-22T15:48:44Z</time>
      </trkpt>
      <trkpt lat="47.9074" lon="7.12445">
        <ele>1004.1</ele>
        <time>2026-03-22T15:48:49Z</time>
      </trkpt>
      <trkpt lat="47.90739" lon="7.12455">
        <ele>1002.5</ele>
        <time>2026-03-22T15:48:54Z</time>
      </trkpt>
      <trkpt lat="47.90737" lon="7.12463">
        <ele>1000.9</ele>
        <time>2026-03-22T15:48:59Z</time>
      </trkpt>
      <trkpt lat="47.90737" lon="7.1247">
        <ele>999.9</ele>
        <time>2026-03-22T15:49:04Z</time>
      </trkpt>
      <trkpt lat="47.90738" lon="7.12477">
        <ele>999.1</ele>
        <time>2026-03-22T15:49:09Z</time>
      </trkpt>
      <trkpt lat="47.90737" lon="7.12486">
        <ele>997.6</ele>
        <time>2026-03-22T15:49:14Z</time>
      </trkpt>
      <trkpt lat="47.90738" lon="7.12497">
        <ele>996.3</ele>
        <time>2026-03-22T15:49:19Z</time>
      </trkpt>
      <trkpt lat="47.90738" lon="7.12508">
        <ele>994.7</ele>
        <time>2026-03-22T15:49:24Z</time>
      </trkpt>
      <trkpt lat="47.90738" lon="7.12517">
        <ele>993.5</ele>
        <time>2026-03-22T15:49:29Z</time>
      </trkpt>
      <trkpt lat="47.90737" lon="7.12525">
        <ele>992.1</ele>
        <time>2026-03-22T15:49:34Z</time>
      </trkpt>
      <trkpt lat="47.90736" lon="7.12531">
        <ele>991</ele>
        <time>2026-03-22T15:49:39Z</time>
      </trkpt>
      <trkpt lat="47.90738" lon="7.1254">
        <ele>990.3</ele>
        <time>2026-03-22T15:49:44Z</time>
      </trkpt>
      <trkpt lat="47.90742" lon="7.12542">
        <ele>991.2</ele>
        <time>2026-03-22T15:49:49Z</time>
      </trkpt>
      <trkpt lat="47.90742" lon="7.12555">
        <ele>989.4</ele>
        <time>2026-03-22T15:49:54Z</time>
      </trkpt>
      <trkpt lat="47.90744" lon="7.12566">
        <ele>988.5</ele>
        <time>2026-03-22T15:49:59Z</time>
      </trkpt>
      <trkpt lat="47.90746" lon="7.12576">
        <ele>987.7</ele>
        <time>2026-03-22T15:50:04Z</time>
      </trkpt>
      <trkpt lat="47.90745" lon="7.12583">
        <ele>986.5</ele>
        <time>2026-03-22T15:50:09Z</time>
      </trkpt>
      <trkpt lat="47.90745" lon="7.12595">
        <ele>984.8</ele>
        <time>2026-03-22T15:50:14Z</time>
      </trkpt>
      <trkpt lat="47.90744" lon="7.12604">
        <ele>983.2</ele>
        <time>2026-03-22T15:50:19Z</time>
      </trkpt>
      <trkpt lat="47.90744" lon="7.12613">
        <ele>981.9</ele>
        <time>2026-03-22T15:50:24Z</time>
      </trkpt>
      <trkpt lat="47.90743" lon="7.12621">
        <ele>980.5</ele>
        <time>2026-03-22T15:50:29Z</time>
      </trkpt>
      <trkpt lat="47.90744" lon="7.1263">
        <ele>979.5</ele>
        <time>2026-03-22T15:50:34Z</time>
      </trkpt>
      <trkpt lat="47.90745" lon="7.12638">
        <ele>978.6</ele>
        <time>2026-03-22T15:50:39Z</time>
      </trkpt>
      <trkpt lat="47.90747" lon="7.12645">
        <ele>978.2</ele>
        <time>2026-03-22T15:50:44Z</time>
      </trkpt>
      <trkpt lat="47.90749" lon="7.12654">
        <ele>977.5</ele>
        <time>2026-03-22T15:50:49Z</time>
      </trkpt>
      <trkpt lat="47.90751" lon="7.12662">
        <ele>976.9</ele>
        <time>2026-03-22T15:50:54Z</time>
      </trkpt>
      <trkpt lat="47.9075" lon="7.1267">
        <ele>975.6</ele>
        <time>2026-03-22T15:50:59Z</time>
      </trkpt>
      <trkpt lat="47.90749" lon="7.12679">
        <ele>974.4</ele>
        <time>2026-03-22T15:51:04Z</time>
      </trkpt>
      <trkpt lat="47.9075" lon="7.12688">
        <ele>973.7</ele>
        <time>2026-03-22T15:51:09Z</time>
      </trkpt>
      <trkpt lat="47.90753" lon="7.12694">
        <ele>973.7</ele>
        <time>2026-03-22T15:51:14Z</time>
      </trkpt>
      <trkpt lat="47.90755" lon="7.12702">
        <ele>973.3</ele>
        <time>2026-03-22T15:51:19Z</time>
      </trkpt>
      <trkpt lat="47.90757" lon="7.1271">
        <ele>972.9</ele>
        <time>2026-03-22T15:51:24Z</time>
      </trkpt>
      <trkpt lat="47.90759" lon="7.12719">
        <ele>972.3</ele>
        <time>2026-03-22T15:51:29Z</time>
      </trkpt>
      <trkpt lat="47.90761" lon="7.12728">
        <ele>971.7</ele>
        <time>2026-03-22T15:51:34Z</time>
      </trkpt>
      <trkpt lat="47.9076" lon="7.12739">
        <ele>970.2</ele>
        <time>2026-03-22T15:51:39Z</time>
      </trkpt>
      <trkpt lat="47.90762" lon="7.12749">
        <ele>969.4</ele>
        <time>2026-03-22T15:51:44Z</time>
      </trkpt>
      <trkpt lat="47.90766" lon="7.12757">
        <ele>969.3</ele>
        <time>2026-03-22T15:51:49Z</time>
      </trkpt>
      <trkpt lat="47.90769" lon="7.12765">
        <ele>968.9</ele>
        <time>2026-03-22T15:51:54Z</time>
      </trkpt>
      <trkpt lat="47.90773" lon="7.12774">
        <ele>968.5</ele>
        <time>2026-03-22T15:51:59Z</time>
      </trkpt>
      <trkpt lat="47.90778" lon="7.12783">
        <ele>968.1</ele>
        <time>2026-03-22T15:52:04Z</time>
      </trkpt>
      <trkpt lat="47.90784" lon="7.12791">
        <ele>968</ele>
        <time>2026-03-22T15:52:09Z</time>
      </trkpt>
      <trkpt lat="47.90789" lon="7.12799">
        <ele>967.6</ele>
        <time>2026-03-22T15:52:14Z</time>
      </trkpt>
      <trkpt lat="47.90795" lon="7.12809">
        <ele>966.9</ele>
        <time>2026-03-22T15:52:19Z</time>
      </trkpt>
      <trkpt lat="47.90801" lon="7.12816">
        <ele>966.6</ele>
        <time>2026-03-22T15:52:24Z</time>
      </trkpt>
      <trkpt lat="47.90806" lon="7.12825">
        <ele>965.7</ele>
        <time>2026-03-22T15:52:29Z</time>
      </trkpt>
      <trkpt lat="47.90809" lon="7.12826">
        <ele>965.9</ele>
        <time>2026-03-22T15:52:34Z</time>
      </trkpt>
      <trkpt lat="47.90809" lon="7.12826">
        <ele>965.9</ele>
        <time>2026-03-22T15:52:39Z</time>
      </trkpt>
      <trkpt lat="47.90809" lon="7.12826">
        <ele>965.9</ele>
        <time>2026-03-22T15:52:44Z</time>
      </trkpt>
      <trkpt lat="47.90812" lon="7.1283">
        <ele>965.5</ele>
        <time>2026-03-22T15:52:49Z</time>
      </trkpt>
      <trkpt lat="47.90819" lon="7.12827">
        <ele>966.7</ele>
        <time>2026-03-22T15:52:54Z</time>
      </trkpt>
      <trkpt lat="47.90821" lon="7.12825">
        <ele>967.3</ele>
        <time>2026-03-22T15:52:59Z</time>
      </trkpt>
      <trkpt lat="47.90827" lon="7.12825">
        <ele>967.9</ele>
        <time>2026-03-22T15:53:04Z</time>
      </trkpt>
      <trkpt lat="47.9083" lon="7.12825">
        <ele>968.2</ele>
        <time>2026-03-22T15:53:09Z</time>
      </trkpt>
      <trkpt lat="47.90837" lon="7.12816">
        <ele>970.8</ele>
        <time>2026-03-22T15:53:14Z</time>
      </trkpt>
      <trkpt lat="47.90837" lon="7.1281">
        <ele>972</ele>
        <time>2026-03-22T15:53:19Z</time>
      </trkpt>
      <trkpt lat="47.90838" lon="7.12803">
        <ele>973.5</ele>
        <time>2026-03-22T15:53:24Z</time>
      </trkpt>
      <trkpt lat="47.90842" lon="7.12804">
        <ele>973.8</ele>
        <time>2026-03-22T15:53:29Z</time>
      </trkpt>
      <trkpt lat="47.90846" lon="7.12802">
        <ele>974.7</ele>
        <time>2026-03-22T15:53:34Z</time>
      </trkpt>
      <trkpt lat="47.90848" lon="7.12793">
        <ele>976.8</ele>
        <time>2026-03-22T15:53:39Z</time>
      </trkpt>
      <trkpt lat="47.90849" lon="7.12792">
        <ele>977.1</ele>
        <time>2026-03-22T15:53:44Z</time>
      </trkpt>
      <trkpt lat="47.90852" lon="7.12798">
        <ele>976.3</ele>
        <time>2026-03-22T15:53:49Z</time>
      </trkpt>
      <trkpt lat="47.9085" lon="7.12807">
        <ele>974.3</ele>
        <time>2026-03-22T15:53:54Z</time>
      </trkpt>
      <trkpt lat="47.90848" lon="7.12807">
        <ele>974</ele>
        <time>2026-03-22T15:53:59Z</time>
      </trkpt>
      <trkpt lat="47.90847" lon="7.12803">
        <ele>974.7</ele>
        <time>2026-03-22T15:54:04Z</time>
      </trkpt>
    </trkseg>
  </trk>
</gpx>